| time (UTC) | temp C | wind direction | speed KPH | gust KPH | rain 1hr cm | rain 24hr cm | rain mn cm | humidity % | barometer mb |
| 20260506081114 | -17 | 135 | 1.6 | 8.0 | 0.00 | 0.03 | 0.00 | 998.1 | |
| 20260506081054 | -17 | 113 | 3.2 | 8.0 | 0.00 | 0.03 | 0.00 | 998.1 | |
| 20260506081044 | -17 | 135 | 3.2 | 8.0 | 0.00 | 0.03 | 0.00 | 998.1 | |
| 20260506081034 | -17 | 135 | 3.2 | 8.0 | 0.00 | 0.03 | 0.00 | 998.0 | |
| 20260506081024 | -17 | 135 | 4.8 | 8.0 | 0.00 | 0.03 | 0.00 | 998.1 | |
| 20260506080944 | -17 | 135 | 3.2 | 8.0 | 0.00 | 0.03 | 0.00 | 998.1 | |
| 20260506080934 | -17 | 158 | 1.6 | 8.0 | 0.00 | 0.03 | 0.00 | 998.1 | |
| 20260506080854 | -17 | 180 | 1.6 | 8.0 | 0.00 | 0.03 | 0.00 | 998.1 | |
| 20260506080844 | -17 | 225 | 1.6 | 8.0 | 0.00 | 0.03 | 0.00 | 998.1 | |
| 20260506080834 | -17 | 158 | 3.2 | 8.0 | 0.00 | 0.03 | 0.00 | 998.1 | |
| 20260506080814 | -17 | 270 | 3.2 | 8.0 | 0.00 | 0.03 | 0.00 | 998.1 | |
| 20260506080804 | -17 | 180 | 3.2 | 8.0 | 0.00 | 0.03 | 0.00 | 998.1 | |
| 20260506080754 | -17 | 180 | 3.2 | 8.0 | 0.00 | 0.03 | 0.00 | 998.2 | |
| 20260506080744 | -17 | 135 | 3.2 | 8.0 | 0.00 | 0.03 | 0.00 | 998.2 | |
| 20260506080734 | -17 | 135 | 3.2 | 8.0 | 0.00 | 0.03 | 0.00 | 998.1 | |
| 20260506080655 | -17 | 135 | 3.2 | 8.0 | 0.00 | 0.03 | 0.00 | 998.1 | |
| 20260506080645 | -17 | 135 | 3.2 | 8.0 | 0.00 | 0.03 | 0.00 | 998.2 | |
| 20260506080635 | -17 | 113 | 4.8 | 8.0 | 0.00 | 0.03 | 0.00 | 998.1 | |
| 20260506080625 | -17 | 113 | 4.8 | 8.0 | 0.00 | 0.03 | 0.00 | 998.2 | |
| 20260506080615 | -17 | 158 | 4.8 | 8.0 | 0.00 | 0.03 | 0.00 | 998.1 | |
| 20260506080605 | -17 | 135 | 4.8 | 8.0 | 0.00 | 0.03 | 0.00 | 998.1 | |
| 20260506080555 | -17 | 180 | 4.8 | 8.0 | 0.00 | 0.03 | 0.00 | 998.2 | |
| 20260506080545 | -17 | 180 | 4.8 | 8.0 | 0.00 | 0.03 | 0.00 | 998.1 | |
| 20260506080525 | -17 | 180 | 3.2 | 6.4 | 0.00 | 0.03 | 0.00 | 998.2 | |
| 20260506080515 | -17 | 180 | 3.2 | 6.4 | 0.00 | 0.03 | 0.00 | 998.1 | |
| 20260506080445 | -17 | 180 | 3.2 | 6.4 | 0.00 | 0.03 | 0.00 | 998.2 | |
| 20260506080435 | -17 | 135 | 3.2 | 6.4 | 0.00 | 0.03 | 0.00 | 998.1 | |
| 20260506080415 | -17 | 90 | 3.2 | 6.4 | 0.00 | 0.03 | 0.00 | 998.2 | |
| 20260506080355 | -17 | 135 | 3.2 | 6.4 | 0.00 | 0.03 | 0.00 | 998.2 | |
| 20260506080325 | -17 | 90 | 3.2 | 6.4 | 0.00 | 0.03 | 0.00 | 998.2 | |
| 20260506080315 | -17 | 135 | 3.2 | 6.4 | 0.00 | 0.03 | 0.00 | 998.2 | |
| 20260506080305 | -17 | 135 | 1.6 | 6.4 | 0.00 | 0.03 | 0.00 | 998.2 | |
| 20260506080255 | -17 | 135 | 1.6 | 4.8 | 0.00 | 0.03 | 0.00 | 998.2 | |
| 20260506080245 | -17 | 135 | 1.6 | 3.2 | 0.00 | 0.03 | 0.00 | 998.2 | |
| 20260506080235 | -17 | 90 | 1.6 | 3.2 | 0.00 | 0.03 | 0.00 | 998.2 | |
| 20260506080225 | -17 | 90 | 0.0 | 3.2 | 0.00 | 0.03 | 0.00 | 998.2 | |
| 20260506080215 | -17 | 135 | 0.0 | 3.2 | 0.00 | 0.03 | 0.00 | 998.2 | |
| 20260506080206 | -17 | 135 | 0.0 | 1.6 | 0.00 | 0.03 | 0.00 | 998.2 | |
| 20260506080156 | -17 | 90 | 0.0 | 1.6 | 0.00 | 0.03 | 0.00 | 998.3 | |
| 20260506080146 | -17 | 90 | 0.0 | 1.6 | 0.00 | 0.03 | 0.00 | 998.2 | |
| 20260506080106 | -17 | 90 | 0.0 | 1.6 | 0.00 | 0.03 | 0.00 | 998.3 | |
| 20260506073520 | -17 | 225 | 3.2 | 8.0 | 0.00 | 0.03 | 0.00 | 998.3 | |
| 20260506073450 | -17 | 180 | 3.2 | 8.0 | 0.00 | 0.03 | 0.00 | 998.3 | |
| 20260506073440 | -17 | 180 | 3.2 | 8.0 | 0.00 | 0.03 | 0.00 | 998.4 | |
| 20260506073430 | -17 | 158 | 3.2 | 8.0 | 0.00 | 0.03 | 0.00 | 998.3 | |
| 20260506073410 | -17 | 180 | 3.2 | 8.0 | 0.00 | 0.03 | 0.00 | 998.3 | |
| 20260506073350 | -17 | 180 | 4.8 | 8.0 | 0.00 | 0.03 | 0.00 | 998.3 | |
| 20260506073340 | -17 | 225 | 3.2 | 8.0 | 0.00 | 0.03 | 0.00 | 998.3 | |
| 20260506073331 | -17 | 135 | 3.2 | 8.0 | 0.00 | 0.03 | 0.00 | 998.3 | |
| 20260506073310 | -17 | 180 | 3.2 | 8.0 | 0.00 | 0.03 | 0.00 | 998.3 | |
| 20260506073301 | -17 | 135 | 1.6 | 8.0 | 0.00 | 0.03 | 0.00 | 998.3 | |
| 20260506073241 | -17 | 135 | 1.6 | 6.4 | 0.00 | 0.03 | 0.00 | 998.3 | |
| 20260506073231 | -17 | 135 | 1.6 | 6.4 | 0.00 | 0.03 | 0.00 | 998.2 | |
| 20260506073151 | -17 | 135 | 1.6 | 6.4 | 0.00 | 0.03 | 0.00 | 998.3 | |
| 20260506073131 | -17 | 135 | 0.0 | 6.4 | 0.00 | 0.03 | 0.00 | 998.2 | |
| 20260506073101 | -17 | 225 | 0.0 | 6.4 | 0.00 | 0.03 | 0.00 | 998.2 | |
| 20260506073051 | -17 | 270 | 0.0 | 6.4 | 0.00 | 0.03 | 0.00 | 998.2 | |
| 20260506073041 | -17 | 90 | 0.0 | 6.4 | 0.00 | 0.03 | 0.00 | 998.2 | |
| 20260506073031 | -17 | 180 | 1.6 | 6.4 | 0.00 | 0.03 | 0.00 | 998.2 | |
| 20260506073021 | -17 | 225 | 1.6 | 6.4 | 0.00 | 0.03 | 0.00 | 998.2 | |
| 20260506073011 | -17 | 248 | 3.2 | 6.4 | 0.00 | 0.03 | 0.00 | 998.2 | |
| 20260506073001 | -17 | 180 | 3.2 | 6.4 | 0.00 | 0.03 | 0.00 | 998.2 | |
| 20260506072951 | -17 | 158 | 3.2 | 6.4 | 0.00 | 0.03 | 0.00 | 998.2 | |
| 20260506072942 | -17 | 135 | 3.2 | 6.4 | 0.00 | 0.03 | 0.00 | 998.2 | |
| 20260506072921 | -17 | 180 | 1.6 | 6.4 | 0.00 | 0.03 | 0.00 | 998.2 | |
| 20260506072901 | -17 | 180 | 3.2 | 6.4 | 0.00 | 0.03 | 0.00 | 998.2 | |
| 20260506072821 | -17 | 135 | 3.2 | 6.4 | 0.00 | 0.03 | 0.00 | 998.2 | |
| 20260506072811 | -17 | 158 | 3.2 | 6.4 | 0.00 | 0.03 | 0.00 | 998.2 | |
| 20260506072751 | -17 | 158 | 1.6 | 6.4 | 0.00 | 0.03 | 0.00 | 998.2 | |
| 20260506072741 | -17 | 135 | 1.6 | 6.4 | 0.00 | 0.03 | 0.00 | 998.2 | |
| 20260506072732 | 19 | 90 | 1.6 | 6.4 | 0.00 | 0.03 | 0.00 | 61 | 998.2 |
| 20260506072722 | -17 | 90 | 1.6 | 6.4 | 0.00 | 0.03 | 0.00 | 998.2 | |
| 20260506072712 | -17 | 90 | 1.6 | 8.0 | 0.00 | 0.03 | 0.00 | 998.2 | |
| 20260506072652 | -17 | 135 | 1.6 | 8.0 | 0.00 | 0.03 | 0.00 | 998.3 | |
| 20260506072642 | -17 | 90 | 1.6 | 8.0 | 0.00 | 0.03 | 0.00 | 998.3 | |
| 20260506072632 | -17 | 113 | 1.6 | 8.0 | 0.00 | 0.03 | 0.00 | 998.3 | |
| 20260506072612 | -17 | 135 | 3.2 | 8.0 | 0.00 | 0.03 | 0.00 | 998.3 | |
| 20260506072532 | -17 | 135 | 3.2 | 8.0 | 0.00 | 0.03 | 0.00 | 998.3 | |
| 20260506072452 | -17 | 135 | 3.2 | 8.0 | 0.00 | 0.03 | 0.00 | 998.3 | |
| 20260506072442 | -17 | 113 | 3.2 | 8.0 | 0.00 | 0.03 | 0.00 | 998.3 | |
| 20260506072432 | -17 | 90 | 3.2 | 8.0 | 0.00 | 0.03 | 0.00 | 998.3 | |
| 20260506072402 | -17 | 135 | 3.2 | 8.0 | 0.00 | 0.03 | 0.00 | 998.3 | |
| 20260506072352 | -17 | 135 | 3.2 | 8.0 | 0.00 | 0.03 | 0.00 | 998.4 | |
| 20260506072342 | -17 | 180 | 3.2 | 8.0 | 0.00 | 0.03 | 0.00 | 998.3 | |
| 20260506072332 | -17 | 180 | 3.2 | 8.0 | 0.00 | 0.03 | 0.00 | 998.4 | |
| 20260506072305 | -17 | 180 | 4.8 | 8.0 | 0.00 | 0.03 | 0.00 | 998.4 | |
| 20260506072222 | -17 | 158 | 4.8 | 8.0 | 0.00 | 0.03 | 0.00 | 998.4 | |
| 20260506072212 | -17 | 135 | 4.8 | 8.0 | 0.00 | 0.03 | 0.00 | 998.4 | |
| 20260506072152 | -17 | 135 | 3.2 | 9.7 | 0.00 | 0.03 | 0.00 | 998.4 | |
| 20260506072142 | -17 | 158 | 3.2 | 9.7 | 0.00 | 0.03 | 0.00 | 998.4 | |
| 20260506072132 | -17 | 158 | 1.6 | 9.7 | 0.00 | 0.03 | 0.00 | 998.4 | |
| 20260506072113 | -17 | 180 | 1.6 | 9.7 | 0.00 | 0.03 | 0.00 | 998.4 | |
| 20260506072033 | -17 | 180 | 1.6 | 9.7 | 0.00 | 0.03 | 0.00 | 998.4 | |
| 20260506072003 | -17 | 270 | 3.2 | 11.3 | 0.00 | 0.03 | 0.00 | 998.4 | |
| 20260506071953 | -17 | 225 | 3.2 | 11.3 | 0.00 | 0.03 | 0.00 | 998.4 | |
| 20260506071923 | -17 | 180 | 4.8 | 11.3 | 0.00 | 0.03 | 0.00 | 998.4 | |
| 20260506071913 | -17 | 180 | 4.8 | 11.3 | 0.00 | 0.03 | 0.00 | 998.3 | |
| 20260506071813 | -17 | 180 | 6.4 | 11.3 | 0.00 | 0.03 | 0.00 | 998.4 | |
| 20260506071803 | -17 | 180 | 6.4 | 11.3 | 0.00 | 0.03 | 0.00 | 998.3 | |
| 20260506071733 | -17 | 180 | 6.4 | 11.3 | 0.00 | 0.03 | 0.00 | 998.4 | |
| 20260506071723 | -17 | 180 | 6.4 | 11.3 | 0.00 | 0.03 | 0.00 | 998.3 | |
| 20260506071653 | -17 | 180 | 6.4 | 11.3 | 0.00 | 0.03 | 0.00 | 998.4 | |
| 20260506071643 | -17 | 158 | 6.4 | 11.3 | 0.00 | 0.03 | 0.00 | 998.3 | |
| 20260506071613 | -17 | 135 | 6.4 | 11.3 | 0.00 | 0.03 | 0.00 | 998.3 | |
| 20260506071553 | -17 | 180 | 6.4 | 11.3 | 0.00 | 0.03 | 0.00 | 998.4 | |
| 20260506071543 | -17 | 180 | 8.0 | 11.3 | 0.00 | 0.03 | 0.00 | 998.3 | |
| 20260506071524 | -17 | 180 | 6.4 | 11.3 | 0.00 | 0.03 | 0.00 | 998.3 | |
| 20260506071504 | -17 | 180 | 6.4 | 9.7 | 0.00 | 0.03 | 0.00 | 998.3 | |
| 20260506071454 | -17 | 158 | 6.4 | 9.7 | 0.00 | 0.03 | 0.00 | 998.4 | |
| 20260506071444 | -17 | 180 | 6.4 | 9.7 | 0.00 | 0.03 | 0.00 | 998.4 | |
| 20260506071434 | -17 | 158 | 4.8 | 8.0 | 0.00 | 0.03 | 0.00 | 998.3 | |
| 20260506071354 | -17 | 180 | 4.8 | 8.0 | 0.00 | 0.03 | 0.00 | 998.3 | |
| 20260506071334 | -17 | 180 | 4.8 | 8.0 | 0.00 | 0.03 | 0.00 | 998.4 | |
| 20260506071304 | -17 | 203 | 4.8 | 8.0 | 0.00 | 0.03 | 0.00 | 998.4 | |
| 20260506071254 | -17 | 180 | 4.8 | 8.0 | 0.00 | 0.03 | 0.00 | 998.4 | |
| 20260506071224 | -17 | 180 | 3.2 | 8.0 | 0.00 | 0.03 | 0.00 | 998.3 | |
| 20260506071214 | -17 | 180 | 3.2 | 8.0 | 0.00 | 0.03 | 0.00 | 998.4 | |
| 20260506071204 | -17 | 135 | 3.2 | 8.0 | 0.00 | 0.03 | 0.00 | 998.4 | |
| 20260506071154 | -17 | 203 | 4.8 | 8.0 | 0.00 | 0.03 | 0.00 | 998.4 | |
| 20260506071144 | -17 | 180 | 4.8 | 8.0 | 0.00 | 0.03 | 0.00 | 998.4 | |
| 20260506071134 | -17 | 180 | 3.2 | 8.0 | 0.00 | 0.03 | 0.00 | 998.3 | |
| 20260506071124 | -17 | 180 | 3.2 | 9.7 | 0.00 | 0.03 | 0.00 | 998.4 | |
| 20260506071114 | -17 | 180 | 1.6 | 9.7 | 0.00 | 0.03 | 0.00 | 998.4 | |
| 20260506071104 | -17 | 180 | 1.6 | 9.7 | 0.00 | 0.03 | 0.00 | 998.3 | |
| 20260506071054 | -17 | 180 | 0.0 | 9.7 | 0.00 | 0.03 | 0.00 | 998.4 | |
| 20260506071034 | -17 | 180 | 0.0 | 9.7 | 0.00 | 0.03 | 0.00 | 998.3 | |
| 20260506071024 | -17 | 225 | 0.0 | 9.7 | 0.00 | 0.03 | 0.00 | 998.4 | |
| 20260506071014 | -17 | 225 | 1.6 | 9.7 | 0.00 | 0.03 | 0.00 | 998.3 | |
| 20260506070954 | -17 | 180 | 1.6 | 9.7 | 0.00 | 0.03 | 0.00 | 998.4 | |
| 20260506070935 | -17 | 180 | 3.2 | 9.7 | 0.00 | 0.03 | 0.00 | 998.4 | |
| 20260506070905 | -17 | 180 | 1.6 | 9.7 | 0.00 | 0.03 | 0.00 | 998.3 | |
| 20260506070855 | -17 | 180 | 1.6 | 9.7 | 0.00 | 0.03 | 0.00 | 998.4 | |
| 20260506070845 | -17 | 180 | 3.2 | 9.7 | 0.00 | 0.03 | 0.00 | 998.4 | |
| 20260506070835 | -17 | 135 | 3.2 | 9.7 | 0.00 | 0.03 | 0.00 | 998.4 | |
| 20260506070825 | -17 | 225 | 3.2 | 9.7 | 0.00 | 0.03 | 0.00 | 998.3 | |
| 20260506070815 | -17 | 180 | 3.2 | 9.7 | 0.00 | 0.03 | 0.00 | 998.3 | |
| 20260506070745 | -17 | 180 | 4.8 | 9.7 | 0.00 | 0.03 | 0.00 | 998.3 | |
| 20260506070735 | -17 | 180 | 6.4 | 9.7 | 0.00 | 0.03 | 0.00 | 998.3 | |
| 20260506070725 | -17 | 135 | 6.4 | 9.7 | 0.00 | 0.03 | 0.00 | 998.3 | |
| 20260506070645 | -17 | 180 | 6.4 | 9.7 | 0.00 | 0.03 | 0.00 | 998.3 | |
| 20260506070635 | -17 | 180 | 4.8 | 9.7 | 0.00 | 0.03 | 0.00 | 998.3 | |
| 20260506070625 | -17 | 180 | 3.2 | 9.7 | 0.00 | 0.03 | 0.00 | 998.3 | |
| 20260506070615 | -17 | 135 | 3.2 | 8.0 | 0.00 | 0.03 | 0.00 | 998.3 | |
| 20260506070535 | -17 | 180 | 1.6 | 8.0 | 0.00 | 0.03 | 0.00 | 998.3 | |
| 20260506070505 | -17 | 270 | 1.6 | 8.0 | 0.00 | 0.03 | 0.00 | 998.3 | |
| 20260506070455 | -17 | 90 | 1.6 | 8.0 | 0.00 | 0.03 | 0.00 | 998.3 | |
| 20260506070445 | -17 | 135 | 3.2 | 8.0 | 0.00 | 0.03 | 0.00 | 998.3 | |
| 20260506070435 | -17 | 203 | 3.2 | 8.0 | 0.00 | 0.03 | 0.00 | 998.3 | |
| 20260506070415 | -17 | 180 | 3.2 | 8.0 | 0.00 | 0.03 | 0.00 | 998.3 | |
| 20260506070355 | -17 | 180 | 1.6 | 8.0 | 0.00 | 0.03 | 0.00 | 998.3 | |
| 20260506070345 | -17 | 158 | 1.6 | 8.0 | 0.00 | 0.03 | 0.00 | 998.3 | |
| 20260506070336 | -17 | 225 | 1.6 | 8.0 | 0.00 | 0.03 | 0.00 | 998.3 | |
| 20260506070325 | -17 | 270 | 0.0 | 8.0 | 0.00 | 0.03 | 0.00 | 998.3 | |
| 20260506070316 | -17 | 225 | 0.0 | 8.0 | 0.00 | 0.03 | 0.00 | 998.3 | |
| 20260506070306 | -17 | 180 | 0.0 | 8.0 | 0.00 | 0.03 | 0.00 | 998.3 | |
| 20260506070256 | -17 | 158 | 1.6 | 8.0 | 0.00 | 0.03 | 0.00 | 998.3 | |
| 20260506070246 | -17 | 135 | 1.6 | 8.0 | 0.00 | 0.03 | 0.00 | 998.3 | |
| 20260506070236 | -17 | 135 | 1.6 | 8.0 | 0.00 | 0.03 | 0.00 | 998.4 | |
| 20260506070216 | -17 | 180 | 3.2 | 8.0 | 0.00 | 0.03 | 0.00 | 998.3 | |
| 20260506070206 | -17 | 158 | 3.2 | 8.0 | 0.00 | 0.03 | 0.00 | 998.4 | |
| 20260506070126 | -17 | 180 | 3.2 | 8.0 | 0.00 | 0.03 | 0.00 | 998.3 | |
| 20260506070116 | -17 | 0 | 3.2 | 8.0 | 0.00 | 0.03 | 0.00 | 998.4 | |
| 20260506070106 | -17 | 180 | 3.2 | 8.0 | 0.00 | 0.03 | 0.00 | 998.4 | |
| 20260506062513 | -17 | 90 | 1.6 | 3.2 | 0.00 | 0.03 | 0.00 | 998.3 | |
| 20260506062453 | -17 | 135 | 1.6 | 3.2 | 0.00 | 0.03 | 0.00 | 998.2 | |
| 20260506062443 | -17 | 135 | 3.2 | 3.2 | 0.00 | 0.03 | 0.00 | 998.3 | |
| 20260506062433 | -17 | 135 | 3.2 | 3.2 | 0.00 | 0.03 | 0.00 | 998.2 | |
| 20260506062423 | -17 | 90 | 3.2 | 3.2 | 0.00 | 0.03 | 0.00 | 998.3 | |
| 20260506062353 | -17 | 135 | 1.6 | 6.4 | 0.00 | 0.03 | 0.00 | 998.3 | |
| 20260506062343 | -17 | 135 | 1.6 | 6.4 | 0.00 | 0.03 | 0.00 | 998.2 | |
| 20260506062313 | -17 | 90 | 1.6 | 6.4 | 0.00 | 0.03 | 0.00 | 998.3 | |
| 20260506062305 | -17 | 90 | 0.0 | 6.4 | 0.00 | 0.03 | 0.00 | 998.3 | |
| 20260506062253 | -17 | 113 | 0.0 | 6.4 | 0.00 | 0.03 | 0.00 | 998.3 | |
| 20260506062243 | -17 | 135 | 0.0 | 6.4 | 0.00 | 0.03 | 0.00 | 998.3 | |
| 20260506062213 | -17 | 135 | 1.6 | 6.4 | 0.00 | 0.03 | 0.00 | 998.3 | |
| 20260506062153 | -17 | 90 | 0.0 | 6.4 | 0.00 | 0.03 | 0.00 | 998.3 | |
| 20260506062133 | -17 | 135 | 0.0 | 6.4 | 0.00 | 0.03 | 0.00 | 998.3 | |
| 20260506062053 | -17 | 135 | 0.0 | 6.4 | 0.00 | 0.03 | 0.00 | 998.3 | |
| 20260506062023 | -17 | 135 | 1.6 | 6.4 | 0.00 | 0.03 | 0.00 | 998.3 | |
| 20260506062013 | -17 | 135 | 3.2 | 6.4 | 0.00 | 0.03 | 0.00 | 998.3 | |
| 20260506061944 | -17 | 158 | 3.2 | 6.4 | 0.00 | 0.03 | 0.00 | 998.3 | |
| 20260506061934 | -17 | 135 | 3.2 | 6.4 | 0.00 | 0.03 | 0.00 | 998.3 | |
| 20260506061924 | -17 | 180 | 3.2 | 6.4 | 0.00 | 0.03 | 0.00 | 998.3 | |
| 20260506061914 | -17 | 180 | 3.2 | 4.8 | 0.00 | 0.03 | 0.00 | 998.3 | |
| 20260506061904 | -17 | 90 | 3.2 | 4.8 | 0.00 | 0.03 | 0.00 | 998.3 | |
| 20260506061854 | -17 | 135 | 3.2 | 4.8 | 0.00 | 0.03 | 0.00 | 998.3 | |
| 20260506061844 | -17 | 135 | 3.2 | 4.8 | 0.00 | 0.03 | 0.00 | 998.4 | |
| 20260506061804 | -17 | 135 | 3.2 | 4.8 | 0.00 | 0.03 | 0.00 | 998.3 | |
| 20260506061754 | -17 | 135 | 1.6 | 4.8 | 0.00 | 0.03 | 0.00 | 998.3 | |
| 20260506061744 | -17 | 158 | 1.6 | 4.8 | 0.00 | 0.03 | 0.00 | 998.3 | |
| 20260506061724 | -17 | 180 | 1.6 | 4.8 | 0.00 | 0.03 | 0.00 | 998.3 | |
| 20260506061714 | -17 | 180 | 1.6 | 4.8 | 0.00 | 0.03 | 0.00 | 998.4 | |
| 20260506061704 | -17 | 180 | 1.6 | 4.8 | 0.00 | 0.03 | 0.00 | 979.8 | |
| 20260506061654 | -17 | 135 | 1.6 | 4.8 | 0.00 | 0.03 | 0.00 | 998.3 | |
| 20260506061644 | -17 | 135 | 1.6 | 4.8 | 0.00 | 0.03 | 0.00 | 998.4 | |
| 20260506061624 | -17 | 135 | 3.2 | 4.8 | 0.00 | 0.03 | 0.00 | 998.3 | |
| 20260506061614 | -17 | 180 | 3.2 | 6.4 | 0.00 | 0.03 | 0.00 | 998.4 | |
| 20260506061544 | -17 | 180 | 3.2 | 6.4 | 0.00 | 0.03 | 0.00 | 998.3 | |
| 20260506061534 | -17 | 158 | 3.2 | 6.4 | 0.00 | 0.03 | 0.00 | 998.3 | |
| 20260506061524 | -17 | 135 | 3.2 | 6.4 | 0.00 | 0.03 | 0.00 | 998.3 | |
| 20260506061504 | -17 | 135 | 1.6 | 6.4 | 0.00 | 0.03 | 0.00 | 998.3 | |
| 20260506061454 | -17 | 90 | 1.6 | 6.4 | 0.00 | 0.03 | 0.00 | 998.3 | |
| 20260506061445 | -17 | 90 | 1.6 | 6.4 | 0.00 | 0.03 | 0.00 | 764.1 | |
| 20260506061434 | -17 | 90 | 0.0 | 6.4 | 0.00 | 0.03 | 0.00 | 998.3 | |
| 20260506061424 | -17 | 135 | 0.0 | 6.4 | 0.00 | 0.03 | 0.00 | 998.4 | |
| 20260506061415 | -17 | 135 | 0.0 | 6.4 | 0.00 | 0.03 | 0.00 | 998.3 | |
| 20260506061355 | -17 | 135 | 1.6 | 6.4 | 0.00 | 0.03 | 0.00 | 998.3 | |
| 20260506061345 | -17 | 135 | 1.6 | 6.4 | 0.00 | 0.03 | 0.00 | 998.4 | |
| 20260506061335 | -17 | 90 | 1.6 | 6.4 | 0.00 | 0.03 | 0.00 | 998.4 | |
| 20260506061305 | -17 | 135 | 1.6 | 6.4 | 0.00 | 0.03 | 0.00 | 998.4 | |
| 20260506061255 | -17 | 180 | 1.6 | 6.4 | 0.00 | 0.03 | 0.00 | 998.4 | |
| 20260506061225 | -17 | 135 | 3.2 | 6.4 | 0.00 | 0.03 | 0.00 | 821.6 | |
| 20260506061215 | -17 | 135 | 3.2 | 6.4 | 0.00 | 0.03 | 0.00 | 998.4 | |
| 20260506061155 | -17 | 158 | 3.2 | 6.4 | 0.00 | 0.03 | 0.00 | 998.5 | |
| 20260506061135 | -17 | 135 | 3.2 | 6.4 | 0.00 | 0.03 | 0.00 | 998.4 | |
| 20260506061115 | -17 | 180 | 3.2 | 6.4 | 0.00 | 0.03 | 0.00 | 998.4 | |
| 20260506061105 | -17 | 158 | 3.2 | 6.4 | 0.00 | 0.03 | 0.00 | 998.4 | |
| 20260506061055 | -17 | 158 | 3.2 | 6.4 | 0.00 | 0.03 | 0.00 | 998.5 | |
| 20260506061045 | -17 | 135 | 3.2 | 6.4 | 0.00 | 0.03 | 0.00 | 998.5 | |
| 20260506061025 | -17 | 180 | 3.2 | 6.4 | 0.00 | 0.03 | 0.00 | 998.5 | |
| 20260506061005 | -17 | 180 | 3.2 | 6.4 | 0.00 | 0.03 | 0.00 | 998.4 | |
| 20260506060925 | -17 | 180 | 3.2 | 6.4 | 0.00 | 0.03 | 0.00 | 998.4 | |
| 20260506060915 | -17 | 180 | 3.2 | 4.8 | 0.00 | 0.03 | 0.00 | 998.4 | |
| 20260506060856 | -17 | 135 | 1.6 | 4.8 | 0.00 | 0.03 | 0.00 | 998.4 | |
| 20260506060816 | -17 | 135 | 1.6 | 4.8 | 0.00 | 0.03 | 0.00 | 998.4 | |
| 20260506060806 | -17 | 90 | 1.6 | 4.8 | 0.00 | 0.03 | 0.00 | 998.4 | |
| 20260506060736 | -17 | 135 | 1.6 | 4.8 | 0.00 | 0.03 | 0.00 | 998.3 | |
| 20260506060726 | -17 | 135 | 1.6 | 4.8 | 0.00 | 0.03 | 0.00 | 998.4 | |
| 20260506060646 | -17 | 135 | 1.6 | 4.8 | 0.00 | 0.03 | 0.00 | 998.3 | |
| 20260506060626 | -17 | 90 | 1.6 | 4.8 | 0.00 | 0.03 | 0.00 | 998.3 | |
| 20260506060546 | -17 | 90 | 1.6 | 4.8 | 0.00 | 0.03 | 0.00 | 998.3 | |
| 20260506060516 | -17 | 135 | 1.6 | 4.8 | 0.00 | 0.03 | 0.00 | 998.3 | |
| 20260506060506 | -17 | 90 | 1.6 | 4.8 | 0.00 | 0.03 | 0.00 | 998.3 | |
| 20260506060456 | -17 | 90 | 3.2 | 4.8 | 0.00 | 0.03 | 0.00 | 998.3 | |
| 20260506060436 | -17 | 135 | 3.2 | 4.8 | 0.00 | 0.03 | 0.00 | 998.3 | |
| 20260506060416 | -17 | 90 | 3.2 | 4.8 | 0.00 | 0.03 | 0.00 | 998.3 | |
| 20260506060336 | -17 | 90 | 3.2 | 4.8 | 0.00 | 0.03 | 0.00 | 998.3 | |
| 20260506060316 | -17 | 45 | 3.2 | 4.8 | 0.00 | 0.03 | 0.00 | 998.3 | |
| 20260506060247 | -17 | 90 | 3.2 | 4.8 | 0.00 | 0.03 | 0.00 | 998.3 | |
| 20260506060236 | -17 | 45 | 3.2 | 4.8 | 0.00 | 0.03 | 0.00 | 998.3 | |
| 20260506060207 | -17 | 90 | 3.2 | 4.8 | 0.00 | 0.03 | 0.00 | 998.3 | |
| 20260506060157 | -17 | 45 | 3.2 | 4.8 | 0.00 | 0.03 | 0.00 | 998.3 | |
| 20260506060117 | -17 | 45 | 3.2 | 4.8 | 0.00 | 0.03 | 0.00 | 998.3 | |
| 20260506060107 | -17 | 45 | 1.6 | 4.8 | 0.00 | 0.03 | 0.00 | 998.3 | |
| 20260506051404 | -17 | 135 | 0.0 | 1.6 | 0.00 | 0.03 | 0.00 | 998.4 | |
| 20260506051344 | -17 | 135 | 0.0 | 1.6 | 0.00 | 0.03 | 0.00 | 998.3 | |
| 20260506051324 | -17 | 135 | 0.0 | 1.6 | 0.00 | 0.03 | 0.00 | 998.4 | |
| 20260506051244 | -17 | 135 | 0.0 | 1.6 | 0.00 | 0.03 | 0.00 | 998.4 | |
| 20260506051204 | -17 | 135 | 0.0 | 1.6 | 0.00 | 0.03 | 0.00 | 998.4 | |
| 20260506051154 | -17 | 135 | 0.0 | 1.6 | 0.00 | 0.03 | 0.00 | 998.3 | |
| 20260506051115 | -17 | 135 | 0.0 | 1.6 | 0.00 | 0.03 | 0.00 | 998.4 | |
| 20260506051045 | -17 | 135 | 0.0 | 1.6 | 0.00 | 0.03 | 0.00 | 998.3 | |
| 20260506051035 | -17 | 135 | 0.0 | 1.6 | 0.00 | 0.03 | 0.00 | 998.4 | |
| 20260506051025 | -17 | 135 | 0.0 | 0.0 | 0.00 | 0.03 | 0.00 | 998.4 | |
| 20260506051015 | -17 | 135 | 0.0 | 0.0 | 0.00 | 0.03 | 0.00 | 998.3 | |
| 20260506050945 | -17 | 135 | 0.0 | 0.0 | 0.00 | 0.03 | 0.00 | 998.4 | |
| 20260506050915 | -17 | 135 | 0.0 | 0.0 | 0.00 | 0.03 | 0.00 | 998.3 | |
| 20260506050855 | 15 | 135 | 0.0 | 0.0 | 0.00 | 0.03 | 0.00 | 71 | 998.3 |
| 20260506050835 | -17 | 135 | 0.0 | 0.0 | 0.00 | 0.03 | 0.00 | 998.3 | |
| 20260506050815 | -17 | 0 | 0.0 | 0.0 | 0.00 | 0.03 | 0.00 | 998.3 | |
| 20260506050735 | -17 | 0 | 0.0 | 0.0 | 0.00 | 0.03 | 0.00 | 998.3 | |
| 20260506050655 | -17 | 0 | 0.0 | 0.0 | 0.00 | 0.03 | 0.00 | 998.3 | |
| 20260506050615 | -17 | 0 | 0.0 | 0.0 | 0.00 | 0.03 | 0.00 | 998.3 | |
| 20260506050535 | -17 | 0 | 0.0 | 0.0 | 0.00 | 0.03 | 0.00 | 998.3 | |
| 20260506050525 | -17 | 0 | 0.0 | 0.0 | 0.00 | 0.03 | 0.00 | 998.4 | |
| 20260506050445 | -17 | 0 | 0.0 | 1.6 | 0.00 | 0.03 | 0.00 | 998.3 | |
| 20260506050435 | -17 | 0 | 0.0 | 1.6 | 0.00 | 0.03 | 0.00 | 998.4 | |
| 20260506050356 | -17 | 0 | 0.0 | 1.6 | 0.00 | 0.03 | 0.00 | 998.4 | |
| 20260506050346 | -17 | 0 | 0.0 | 1.6 | 0.00 | 0.03 | 0.00 | 998.3 | |
| 20260506050316 | -17 | 0 | 0.0 | 1.6 | 0.00 | 0.03 | 0.00 | 998.4 | |
| 20260506050306 | -17 | 0 | 0.0 | 1.6 | 0.00 | 0.03 | 0.00 | 998.3 | |
| 20260506050256 | -17 | 0 | 0.0 | 1.6 | 0.00 | 0.03 | 0.00 | 862.1 | |
| 20260506050216 | -17 | 0 | 0.0 | 1.6 | 0.00 | 0.03 | 0.00 | 998.3 | |
| 20260506050136 | -17 | 0 | 0.0 | 1.6 | 0.00 | 0.03 | 0.00 | 998.3 | |
| 20260506045057 | -17 | 0 | 0.0 | 0.0 | 0.00 | 0.03 | 0.00 | 998.4 | |
| 20260506045017 | -17 | 0 | 0.0 | 0.0 | 0.00 | 0.03 | 0.00 | 998.4 | |
| 20260506044938 | -17 | 0 | 0.0 | 0.0 | 0.00 | 0.03 | 0.00 | 998.4 | |
| 20260506044858 | -17 | 0 | 0.0 | 0.0 | 0.00 | 0.03 | 0.00 | 998.4 | |
| 20260506044848 | -17 | 45 | 0.0 | 0.0 | 0.00 | 0.03 | 0.00 | 998.3 | |
| 20260506044828 | -17 | 45 | 0.0 | 0.0 | 0.00 | 0.03 | 0.00 | 998.4 | |
| 20260506044818 | -17 | 270 | 0.0 | 0.0 | 0.00 | 0.03 | 0.00 | 998.3 | |
| 20260506044808 | -17 | 225 | 0.0 | 0.0 | 0.00 | 0.03 | 0.00 | 998.4 | |
| 20260506044748 | -17 | 225 | 0.0 | 0.0 | 0.00 | 0.03 | 0.00 | 998.3 | |
| 20260506044708 | -17 | 225 | 0.0 | 0.0 | 0.00 | 0.03 | 0.00 | 998.4 | |
| 20260506044658 | -17 | 225 | 0.0 | 0.0 | 0.00 | 0.03 | 0.00 | 998.3 | |
| 20260506044648 | -17 | 270 | 0.0 | 0.0 | 0.00 | 0.03 | 0.00 | 998.4 | |
| 20260506044628 | -17 | 270 | 0.0 | 0.0 | 0.00 | 0.03 | 0.00 | 998.3 | |
| 20260506044548 | -17 | 225 | 0.0 | 0.0 | 0.00 | 0.03 | 0.00 | 998.4 | |
| 20260506044538 | -17 | 225 | 0.0 | 0.0 | 0.00 | 0.03 | 0.00 | 998.3 | |
| 20260506044458 | -17 | 225 | 0.0 | 0.0 | 0.00 | 0.03 | 0.00 | 998.4 | |
| 20260506044448 | -17 | 225 | 0.0 | 0.0 | 0.00 | 0.03 | 0.00 | 998.3 | |
| 20260506044428 | -17 | 225 | 0.0 | 1.6 | 0.00 | 0.03 | 0.00 | 998.3 | |
| 20260506044408 | -17 | 225 | 0.0 | 1.6 | 0.00 | 0.03 | 0.00 | 998.4 | |
| 20260506044329 | -17 | 225 | 0.0 | 1.6 | 0.00 | 0.03 | 0.00 | 998.4 | |
| 20260506044259 | -17 | 225 | 0.0 | 1.6 | 0.00 | 0.03 | 0.00 | 998.3 | |
| 20260506044239 | -17 | 225 | 0.0 | 1.6 | 0.00 | 0.03 | 0.00 | 998.4 | |
| 20260506044229 | -17 | 225 | 0.0 | 3.2 | 0.00 | 0.03 | 0.00 | 998.3 | |
| 20260506044209 | -17 | 270 | 0.0 | 3.2 | 0.00 | 0.03 | 0.00 | 998.4 | |
| 20260506044159 | -17 | 315 | 0.0 | 3.2 | 0.00 | 0.03 | 0.00 | 998.4 | |
| 20260506044139 | -17 | 180 | 0.0 | 3.2 | 0.00 | 0.03 | 0.00 | 998.5 | |
| 20260506044129 | -17 | 180 | 0.0 | 3.2 | 0.00 | 0.03 | 0.00 | 998.4 | |
| 20260506044049 | -17 | 180 | 0.0 | 3.2 | 0.00 | 0.03 | 0.00 | 998.4 | |
| 20260506044039 | -17 | 180 | 0.0 | 3.2 | 0.00 | 0.03 | 0.00 | 998.5 | |
| 20260506044009 | -17 | 180 | 0.0 | 3.2 | 0.00 | 0.03 | 0.00 | 998.4 | |
| 20260506043959 | -17 | 180 | 0.0 | 3.2 | 0.00 | 0.03 | 0.00 | 998.5 | |
| 20260506043939 | -17 | 203 | 0.0 | 3.2 | 0.00 | 0.03 | 0.00 | 998.5 | |
| 20260506043909 | -17 | 180 | 0.0 | 3.2 | 0.00 | 0.03 | 0.00 | 998.5 | |
| 20260506043829 | -17 | 180 | 0.0 | 3.2 | 0.00 | 0.03 | 0.00 | 998.5 | |
| 20260506043749 | -17 | 180 | 0.0 | 3.2 | 0.00 | 0.03 | 0.00 | 998.5 | |
| 20260506043739 | -17 | 225 | 0.0 | 3.2 | 0.00 | 0.03 | 0.00 | 998.5 | |
| 20260506043729 | -17 | 180 | 0.0 | 3.2 | 0.00 | 0.03 | 0.00 | 998.4 | |
| 20260506043659 | -17 | 180 | 0.0 | 3.2 | 0.00 | 0.03 | 0.00 | 998.5 | |
| 20260506043639 | -17 | 225 | 0.0 | 3.2 | 0.00 | 0.03 | 0.00 | 998.5 | |
| 20260506043629 | -17 | 180 | 0.0 | 4.8 | 0.00 | 0.03 | 0.00 | 998.5 | |
| 20260506043609 | -17 | 225 | 0.0 | 4.8 | 0.00 | 0.03 | 0.00 | 998.4 | |
| 20260506043600 | -17 | 225 | 0.0 | 4.8 | 0.00 | 0.03 | 0.00 | 998.5 | |
| 20260506043530 | -17 | 180 | 0.0 | 4.8 | 0.00 | 0.03 | 0.00 | 998.5 | |
| 20260506043520 | -17 | 225 | 0.0 | 4.8 | 0.00 | 0.03 | 0.00 | 998.5 | |
| 20260506043440 | -17 | 225 | 0.0 | 4.8 | 0.00 | 0.03 | 0.00 | 998.5 | |
| 20260506043410 | -17 | 225 | 1.6 | 4.8 | 0.00 | 0.03 | 0.00 | 998.5 | |
| 20260506043330 | -17 | 225 | 0.0 | 4.8 | 0.00 | 0.03 | 0.00 | 998.5 | |
| 20260506043250 | -17 | 225 | 0.0 | 4.8 | 0.00 | 0.03 | 0.00 | 998.5 | |
| 20260506043240 | -17 | 225 | 0.0 | 4.8 | 0.00 | 0.03 | 0.00 | 998.6 | |
| 20260506043230 | -17 | 225 | 1.6 | 4.8 | 0.00 | 0.03 | 0.00 | 998.5 | |
| 20260506043220 | -17 | 225 | 1.6 | 4.8 | 0.00 | 0.03 | 0.00 | 998.6 | |
| 20260506043120 | -17 | 225 | 1.6 | 3.2 | 0.00 | 0.03 | 0.00 | 998.6 | |
| 20260506043110 | -17 | 225 | 1.6 | 4.8 | 0.00 | 0.03 | 0.00 | 998.6 | |
| 20260506043050 | -17 | 225 | 1.6 | 4.8 | 0.00 | 0.03 | 0.00 | 998.5 | |
| 20260506043030 | -17 | 225 | 1.6 | 4.8 | 0.00 | 0.03 | 0.00 | 998.6 | |
| 20260506043020 | -17 | 225 | 1.6 | 4.8 | 0.00 | 0.03 | 0.00 | 991.9 | |
| 20260506043000 | -17 | 225 | 1.6 | 4.8 | 0.00 | 0.03 | 0.00 | 998.5 | |
| 20260506042940 | -17 | 225 | 1.6 | 4.8 | 0.00 | 0.03 | 0.00 | 998.6 | |
| 20260506042920 | -17 | 225 | 1.6 | 4.8 | 0.00 | 0.03 | 0.00 | 998.5 | |
| 20260506042910 | -17 | 225 | 1.6 | 4.8 | 0.00 | 0.03 | 0.00 | 1014.8 | |
| 20260506042830 | -17 | 225 | 1.6 | 4.8 | 0.00 | 0.03 | 0.00 | 998.6 | |
| 20260506042821 | -17 | 225 | 1.6 | 4.8 | 0.00 | 0.03 | 0.00 | 998.5 | |
| 20260506042741 | -17 | 225 | 1.6 | 4.8 | 0.00 | 0.03 | 0.00 | 998.5 | |
| 20260506042711 | -17 | 180 | 1.6 | 4.8 | 0.00 | 0.03 | 0.00 | 998.5 | |
| 20260506042701 | -17 | 225 | 1.6 | 4.8 | 0.00 | 0.03 | 0.00 | 998.5 | |
| 20260506042651 | -17 | 225 | 1.6 | 4.8 | 0.00 | 0.03 | 0.00 | 998.6 | |
| 20260506042621 | -17 | 225 | 1.6 | 4.8 | 0.00 | 0.03 | 0.00 | 998.5 | |
| 20260506042541 | -17 | 225 | 1.6 | 4.8 | 0.00 | 0.03 | 0.00 | 998.5 | |
| 20260506042501 | -17 | 225 | 1.6 | 4.8 | 0.00 | 0.03 | 0.00 | 998.5 | |
| 20260506042421 | -17 | 225 | 1.6 | 4.8 | 0.00 | 0.03 | 0.00 | 998.5 | |
| 20260506042341 | -17 | 225 | 3.2 | 4.8 | 0.00 | 0.03 | 0.00 | 998.5 | |
| 20260506042304 | -17 | 225 | 3.2 | 4.8 | 0.00 | 0.03 | 0.00 | 998.5 | |
| 20260506042221 | -17 | 225 | 1.6 | 4.8 | 0.00 | 0.03 | 0.00 | 998.5 | |
| 20260506042211 | -17 | 225 | 0.0 | 3.2 | 0.00 | 0.03 | 0.00 | 998.5 | |
| 20260506042141 | -17 | 225 | 0.0 | 3.2 | 0.00 | 0.03 | 0.00 | 998.6 | |
| 20260506042132 | -17 | 225 | 0.0 | 3.2 | 0.00 | 0.03 | 0.00 | 998.5 | |
| 20260506042052 | -17 | 225 | 1.6 | 3.2 | 0.00 | 0.03 | 0.00 | 998.5 | |
| 20260506042042 | -17 | 225 | 1.6 | 3.2 | 0.00 | 0.03 | 0.00 | 998.6 | |
| 20260506042032 | -17 | 225 | 0.0 | 3.2 | 0.00 | 0.03 | 0.00 | 998.6 | |
| 20260506042022 | -17 | 225 | 0.0 | 3.2 | 0.00 | 0.03 | 0.00 | 998.5 | |
| 20260506041942 | -17 | 225 | 0.0 | 3.2 | 0.00 | 0.03 | 0.00 | 998.6 | |
| 20260506041902 | -17 | 225 | 0.0 | 3.2 | 0.00 | 0.03 | 0.00 | 998.6 | |
| 20260506041822 | -17 | 225 | 0.0 | 3.2 | 0.00 | 0.03 | 0.00 | 998.6 | |
| 20260506041742 | -17 | 225 | 0.0 | 3.2 | 0.00 | 0.03 | 0.00 | 998.6 | |
| 20260506041702 | -17 | 225 | 0.0 | 3.2 | 0.00 | 0.03 | 0.00 | 998.6 | |
| 20260506041642 | -17 | 180 | 0.0 | 3.2 | 0.00 | 0.03 | 0.00 | 998.6 | |
| 20260506041622 | -17 | 225 | 0.0 | 3.2 | 0.00 | 0.03 | 0.00 | 998.6 | |
| 20260506041612 | -17 | 225 | 0.0 | 3.2 | 0.00 | 0.03 | 0.00 | 998.7 | |
| 20260506041542 | -17 | 225 | 0.0 | 3.2 | 0.00 | 0.03 | 0.00 | 998.6 | |
| 20260506041502 | -17 | 225 | 0.0 | 3.2 | 0.00 | 0.03 | 0.00 | 998.6 | |
| 20260506041422 | -17 | 225 | 0.0 | 3.2 | 0.00 | 0.03 | 0.00 | 998.6 | |
| 20260506041412 | -17 | 203 | 0.0 | 3.2 | 0.00 | 0.03 | 0.00 | 998.6 | |
| 20260506041332 | -17 | 225 | 0.0 | 3.2 | 0.00 | 0.03 | 0.00 | 998.6 | |
| 20260506041323 | -17 | 203 | 0.0 | 4.8 | 0.00 | 0.03 | 0.00 | 998.6 | |
| 20260506041253 | -17 | 225 | 0.0 | 4.8 | 0.00 | 0.03 | 0.00 | 998.6 | |
| 20260506041223 | -17 | 180 | 0.0 | 4.8 | 0.00 | 0.03 | 0.00 | 998.6 | |
| 20260506041213 | -17 | 225 | 0.0 | 4.8 | 0.00 | 0.03 | 0.00 | 998.6 | |
| 20260506041133 | -17 | 225 | 0.0 | 4.8 | 0.00 | 0.03 | 0.00 | 998.6 | |
| 20260506041103 | -17 | 225 | 1.6 | 4.8 | 0.00 | 0.03 | 0.00 | 998.6 | |
| 20260506041033 | -17 | 180 | 1.6 | 4.8 | 0.00 | 0.03 | 0.00 | 998.6 | |
| 20260506040953 | -17 | 180 | 1.6 | 4.8 | 0.00 | 0.03 | 0.00 | 998.6 | |
| 20260506040943 | -17 | 225 | 1.6 | 4.8 | 0.00 | 0.03 | 0.00 | 998.6 | |
| 20260506040913 | -17 | 180 | 1.6 | 4.8 | 0.00 | 0.03 | 0.00 | 998.6 | |
| 20260506040903 | -17 | 225 | 1.6 | 4.8 | 0.00 | 0.03 | 0.00 | 998.6 | |
| 20260506040833 | -17 | 180 | 1.6 | 6.4 | 0.00 | 0.03 | 0.00 | 998.6 | |
| 20260506040823 | -17 | 135 | 1.6 | 6.4 | 0.00 | 0.03 | 0.00 | 998.6 | |
| 20260506040813 | -17 | 0 | 1.6 | 6.4 | 0.00 | 0.03 | 0.00 | 998.6 | |
| 20260506040803 | -17 | 315 | 1.6 | 6.4 | 0.00 | 0.03 | 0.00 | 998.6 | |
| 20260506040733 | -17 | 180 | 1.6 | 6.4 | 0.00 | 0.03 | 0.00 | 998.6 | |
| 20260506040723 | -17 | 225 | 1.6 | 6.4 | 0.00 | 0.03 | 0.00 | 998.6 | |
| 20260506040653 | -17 | 180 | 1.6 | 6.4 | 0.00 | 0.03 | 0.00 | 998.6 | |
| 20260506040643 | -17 | 225 | 1.6 | 6.4 | 0.00 | 0.03 | 0.00 | 998.6 | |
| 20260506040633 | -17 | 225 | 3.2 | 6.4 | 0.00 | 0.03 | 0.00 | 998.6 | |
| 20260506040623 | -17 | 158 | 1.6 | 6.4 | 0.00 | 0.03 | 0.00 | 998.7 | |
| 20260506040614 | -17 | 180 | 3.2 | 6.4 | 0.00 | 0.03 | 0.00 | 998.6 | |
| 20260506040534 | -17 | 180 | 3.2 | 6.4 | 0.00 | 0.03 | 0.00 | 998.6 | |
| 20260506040524 | -17 | 180 | 3.2 | 8.0 | 0.00 | 0.03 | 0.00 | 998.6 | |
| 20260506040444 | -17 | 158 | 3.2 | 8.0 | 0.00 | 0.03 | 0.00 | 998.6 | |
| 20260506040434 | -17 | 180 | 3.2 | 8.0 | 0.00 | 0.03 | 0.00 | 998.6 | |
| 20260506040414 | -17 | 135 | 3.2 | 8.0 | 0.00 | 0.03 | 0.00 | 998.6 | |
| 20260506040354 | -17 | 225 | 3.2 | 8.0 | 0.00 | 0.03 | 0.00 | 998.6 | |
| 20260506040344 | -17 | 270 | 3.2 | 8.0 | 0.00 | 0.03 | 0.00 | 998.6 | |
| 20260506040334 | -17 | 180 | 3.2 | 8.0 | 0.00 | 0.03 | 0.00 | 998.6 | |
| 20260506040304 | -17 | 203 | 3.2 | 8.0 | 0.00 | 0.03 | 0.00 | 998.7 | |
| 20260506040254 | -17 | 225 | 3.2 | 8.0 | 0.00 | 0.03 | 0.00 | 998.6 | |
| 20260506040244 | -17 | 180 | 3.2 | 8.0 | 0.00 | 0.03 | 0.00 | 998.7 | |
| 20260506040204 | -17 | 225 | 3.2 | 8.0 | 0.00 | 0.03 | 0.00 | 998.7 | |
| 20260506040154 | -17 | 270 | 3.2 | 8.0 | 0.00 | 0.03 | 0.00 | 998.7 | |
| 20260506040144 | -17 | 225 | 3.2 | 8.0 | 0.00 | 0.03 | 0.00 | 998.6 | |
| 20260506040134 | -17 | 180 | 3.2 | 8.0 | 0.00 | 0.03 | 0.00 | 998.7 | |
| 20260506040124 | -17 | 225 | 4.8 | 8.0 | 0.00 | 0.03 | 0.00 | 998.7 | |
| 20260506040114 | -17 | 180 | 4.8 | 8.0 | 0.00 | 0.03 | 0.00 | 998.7 | |
| 20260506040044 | -17 | 225 | 4.8 | 8.0 | 0.00 | 0.03 | 0.00 | 998.7 | |
| 20260506040034 | -17 | 225 | 3.2 | 8.0 | 0.00 | 0.03 | 0.00 | 998.7 | |
| 20260506040014 | -17 | 203 | 3.2 | 8.0 | 0.00 | 0.03 | 0.00 | 998.7 | |
| 20260506035954 | -17 | 180 | 3.2 | 8.0 | 0.00 | 0.03 | 0.00 | 998.7 | |
| 20260506035934 | -17 | 225 | 3.2 | 8.0 | 0.00 | 0.03 | 0.00 | 998.7 | |
| 20260506035924 | -17 | 203 | 3.2 | 8.0 | 0.00 | 0.03 | 0.00 | 998.7 | |
| 20260506035854 | -17 | 203 | 3.2 | 8.0 | 0.00 | 0.03 | 0.00 | ||
| 20260506035844 | -17 | 225 | 3.2 | 8.0 | 0.00 | 0.03 | 0.00 | 998.7 | |
| 20260506035825 | -17 | 180 | 3.2 | 8.0 | 0.00 | 0.03 | 0.00 | 998.7 | |
| 20260506035815 | -17 | 135 | 3.2 | 8.0 | 0.00 | 0.03 | 0.00 | 998.7 | |
| 20260506035805 | -17 | 225 | 3.2 | 8.0 | 0.00 | 0.03 | 0.00 | 998.7 | |
| 20260506035745 | -17 | 180 | 3.2 | 8.0 | 0.00 | 0.03 | 0.00 | 998.7 | |
| 20260506035735 | 13 | 158 | 4.8 | 8.0 | 0.00 | 0.03 | 0.00 | 78 | 998.7 |
| 20260506035725 | -17 | 180 | 4.8 | 8.0 | 0.00 | 0.03 | 0.00 | 998.7 | |
| 20260506035705 | -17 | 203 | 4.8 | 8.0 | 0.00 | 0.03 | 0.00 | 998.7 | |
| 20260506035635 | -17 | 225 | 4.8 | 8.0 | 0.00 | 0.03 | 0.00 | 998.7 | |
| 20260506035625 | -17 | 180 | 4.8 | 8.0 | 0.00 | 0.03 | 0.00 | 998.7 | |
| 20260506035605 | -17 | 203 | 4.8 | 8.0 | 0.00 | 0.03 | 0.00 | 998.7 | |
| 20260506035555 | -17 | 225 | 3.2 | 8.0 | 0.00 | 0.03 | 0.00 | 998.7 | |
| 20260506035545 | -17 | 248 | 3.2 | 8.0 | 0.00 | 0.03 | 0.00 | 998.7 | |
| 20260506035515 | -17 | 203 | 3.2 | 8.0 | 0.00 | 0.03 | 0.00 | 998.7 | |
| 20260506035505 | -17 | 180 | 3.2 | 8.0 | 0.00 | 0.03 | 0.00 | 998.7 | |
| 20260506035445 | -17 | 180 | 3.2 | 8.0 | 0.00 | 0.03 | 0.00 | 998.6 | |
| 20260506035435 | -17 | 225 | 3.2 | 8.0 | 0.00 | 0.03 | 0.00 | 998.7 | |
| 20260506035425 | -17 | 225 | 3.2 | 8.0 | 0.00 | 0.03 | 0.00 | 998.6 | |
| 20260506035405 | -17 | 180 | 4.8 | 8.0 | 0.00 | 0.03 | 0.00 | 998.7 | |
| 20260506035355 | -17 | 225 | 3.2 | 8.0 | 0.00 | 0.03 | 0.00 | 998.7 | |
| 20260506035345 | 12 | 203 | 3.2 | 8.0 | 0.00 | 0.03 | 0.00 | 79 | 998.7 |
| 20260506035325 | -17 | 180 | 3.2 | 8.0 | 0.00 | 0.03 | 0.00 | 998.7 | |
| 20260506035315 | -17 | 225 | 3.2 | 8.0 | 0.00 | 0.03 | 0.00 | 998.7 | |
| 20260506035306 | -17 | 203 | 3.2 | 8.0 | 0.00 | 0.03 | 0.00 | 998.7 | |
| 20260506035225 | -17 | 225 | 3.2 | 8.0 | 0.00 | 0.03 | 0.00 | 998.7 | |
| 20260506035215 | -17 | 180 | 3.2 | 8.0 | 0.00 | 0.03 | 0.00 | 998.7 | |
| 20260506035155 | -17 | 225 | 3.2 | 8.0 | 0.00 | 0.03 | 0.00 | ||
| 20260506035145 | -17 | 225 | 3.2 | 8.0 | 0.00 | 0.03 | 0.00 | 998.7 | |
| 20260506035135 | -17 | 225 | 3.2 | 8.0 | 0.00 | 0.03 | 0.00 | 998.8 | |
| 20260506035125 | -17 | 180 | 1.6 | 8.0 | 0.00 | 0.03 | 0.00 | 998.7 | |
| 20260506035055 | -17 | 225 | 1.6 | 8.0 | 0.00 | 0.03 | 0.00 | 998.8 | |
| 20260506035046 | -17 | 225 | 1.6 | 8.0 | 0.00 | 0.03 | 0.00 | 998.7 | |
| 20260506035026 | -17 | 225 | 3.2 | 8.0 | 0.00 | 0.03 | 0.00 | 998.7 | |
| 20260506034956 | -17 | 225 | 3.2 | 8.0 | 0.00 | 0.03 | 0.00 | 998.8 | |
| 20260506034946 | -17 | 225 | 3.2 | 8.0 | 0.00 | 0.03 | 0.00 | 998.7 | |
| 20260506034916 | -17 | 225 | 3.2 | 8.0 | 0.00 | 0.03 | 0.00 | 998.8 | |
| 20260506034836 | -17 | 225 | 1.6 | 8.0 | 0.00 | 0.03 | 0.00 | 998.8 | |
| 20260506034826 | -17 | 225 | 1.6 | 8.0 | 0.00 | 0.03 | 0.00 | 998.7 | |
| 20260506034806 | -17 | 225 | 1.6 | 9.7 | 0.00 | 0.03 | 0.00 | 998.8 | |
| 20260506034756 | -17 | 225 | 3.2 | 9.7 | 0.00 | 0.03 | 0.00 | 998.8 | |
| 20260506034726 | -17 | 225 | 3.2 | 9.7 | 0.00 | 0.03 | 0.00 | 998.7 | |
| 20260506034716 | -17 | 203 | 1.6 | 9.7 | 0.00 | 0.03 | 0.00 | 998.8 | |
| 20260506034706 | -17 | 225 | 1.6 | 9.7 | 0.00 | 0.03 | 0.00 | 998.7 | |
| 20260506034636 | -17 | 203 | 3.2 | 9.7 | 0.00 | 0.03 | 0.00 | 998.8 | |
| 20260506034626 | -17 | 225 | 3.2 | 9.7 | 0.00 | 0.03 | 0.00 | 998.8 | |
| 20260506034556 | -17 | 225 | 3.2 | 9.7 | 0.00 | 0.03 | 0.00 | 998.7 | |
| 20260506034546 | -17 | 225 | 3.2 | 9.7 | 0.00 | 0.03 | 0.00 | 998.8 | |
| 20260506034526 | -17 | 225 | 1.6 | 9.7 | 0.00 | 0.03 | 0.00 | 998.8 | |
| 20260506034456 | -17 | 225 | 3.2 | 9.7 | 0.00 | 0.03 | 0.00 | 998.8 | |
| 20260506034436 | -17 | 225 | 4.8 | 9.7 | 0.00 | 0.03 | 0.00 | 998.8 | |
| 20260506034416 | -17 | 225 | 6.4 | 9.7 | 0.00 | 0.03 | 0.00 | 998.8 | |
| 20260506034346 | -17 | 180 | 6.4 | 9.7 | 0.00 | 0.03 | 0.00 | 998.8 | |
| 20260506034326 | -17 | 225 | 4.8 | 9.7 | 0.00 | 0.03 | 0.00 | 998.8 | |
| 20260506034316 | -17 | 180 | 4.8 | 9.7 | 0.00 | 0.03 | 0.00 | 998.8 | |
| 20260506034307 | -17 | 180 | 6.4 | 9.7 | 0.00 | 0.03 | 0.00 | 998.8 | |
| 20260506034257 | -17 | 270 | 6.4 | 9.7 | 0.00 | 0.03 | 0.00 | 998.8 | |
| 20260506034237 | -17 | 180 | 6.4 | 9.7 | 0.00 | 0.03 | 0.00 | 1009.0 | |
| 20260506034217 | -17 | 180 | 6.4 | 9.7 | 0.00 | 0.03 | 0.00 | 998.8 | |
| 20260506034207 | -17 | 225 | 4.8 | 9.7 | 0.00 | 0.03 | 0.00 | 998.8 | |
| 20260506034147 | -17 | 203 | 4.8 | 8.0 | 0.00 | 0.03 | 0.00 | 998.8 | |
| 20260506034137 | -17 | 225 | 4.8 | 8.0 | 0.00 | 0.03 | 0.00 | 998.8 | |
| 20260506034117 | -17 | 180 | 4.8 | 8.0 | 0.00 | 0.03 | 0.00 | 998.8 | |
| 20260506034057 | -17 | 225 | 4.8 | 8.0 | 0.00 | 0.03 | 0.00 | 998.8 | |
| 20260506034037 | -17 | 180 | 4.8 | 8.0 | 0.00 | 0.03 | 0.00 | 998.8 | |
| 20260506034027 | -17 | 135 | 4.8 | 8.0 | 0.00 | 0.03 | 0.00 | 998.8 | |
| 20260506034007 | 13 | 180 | 4.8 | 8.0 | 0.00 | 0.03 | 0.00 | 78 | 998.8 |
| 20260506033957 | -17 | 225 | 4.8 | 8.0 | 0.00 | 0.03 | 0.00 | 998.8 | |
| 20260506033927 | -17 | 180 | 4.8 | 8.0 | 0.00 | 0.03 | 0.00 | 998.8 | |
| 20260506033907 | -17 | 225 | 4.8 | 8.0 | 0.00 | 0.03 | 0.00 | 998.8 | |
| 20260506033857 | -17 | 180 | 4.8 | 8.0 | 0.00 | 0.03 | 0.00 | 998.7 | |
| 20260506033847 | -17 | 180 | 4.8 | 8.0 | 0.00 | 0.03 | 0.00 | 998.8 | |
| 20260506033837 | -17 | 158 | 4.8 | 8.0 | 0.00 | 0.03 | 0.00 | 998.7 | |
| 20260506033817 | -17 | 225 | 4.8 | 8.0 | 0.00 | 0.03 | 0.00 | 998.8 | |
| 20260506033807 | -17 | 203 | 6.4 | 8.0 | 0.00 | 0.03 | 0.00 | 998.8 | |
| 20260506033757 | -17 | 180 | 6.4 | 8.0 | 0.00 | 0.03 | 0.00 | 998.8 | |
| 20260506033737 | -17 | 180 | 6.4 | 9.7 | 0.00 | 0.03 | 0.00 | 998.8 | |
| 20260506033727 | -17 | 225 | 6.4 | 9.7 | 0.00 | 0.03 | 0.00 | 998.8 | |
| 20260506033717 | -17 | 270 | 4.8 | 9.7 | 0.00 | 0.03 | 0.00 | 998.8 | |
| 20260506033657 | -17 | 180 | 4.8 | 9.7 | 0.00 | 0.03 | 0.00 | 998.8 | |
| 20260506033637 | -17 | 225 | 4.8 | 11.3 | 0.00 | 0.03 | 0.00 | 998.8 | |
| 20260506033628 | -17 | 203 | 4.8 | 11.3 | 0.00 | 0.03 | 0.00 | 998.8 | |
| 20260506033608 | -17 | 158 | 4.8 | 11.3 | 0.00 | 0.03 | 0.00 | 998.8 | |
| 20260506033558 | -17 | 225 | 6.4 | 11.3 | 0.00 | 0.03 | 0.00 | 998.8 | |
| 20260506033548 | -17 | 180 | 4.8 | 11.3 | 0.00 | 0.03 | 0.00 | 998.8 | |
| 20260506033538 | -17 | 225 | 4.8 | 11.3 | 0.00 | 0.03 | 0.00 | 998.8 | |
| 20260506033508 | -17 | 180 | 4.8 | 11.3 | 0.00 | 0.03 | 0.00 | 998.8 | |
| 20260506033458 | -17 | 225 | 4.8 | 11.3 | 0.00 | 0.03 | 0.00 | 998.8 | |
| 20260506033438 | -17 | 180 | 4.8 | 11.3 | 0.00 | 0.03 | 0.00 | 998.7 | |
| 20260506033428 | -17 | 270 | 4.8 | 11.3 | 0.00 | 0.03 | 0.00 | 998.8 | |
| 20260506033418 | -17 | 180 | 4.8 | 11.3 | 0.00 | 0.03 | 0.00 | 998.8 | |
| 20260506033408 | -17 | 225 | 4.8 | 11.3 | 0.00 | 0.03 | 0.00 | 998.8 | |
| 20260506033358 | -17 | 225 | 4.8 | 11.3 | 0.00 | 0.03 | 0.00 | 998.7 | |
| 20260506033348 | -17 | 203 | 4.8 | 11.3 | 0.00 | 0.03 | 0.00 | 998.8 | |
| 20260506033338 | -17 | 180 | 4.8 | 11.3 | 0.00 | 0.03 | 0.00 | 998.7 | |
| 20260506033328 | -17 | 158 | 4.8 | 11.3 | 0.00 | 0.03 | 0.00 | 998.7 | |
| 20260506033318 | -17 | 180 | 4.8 | 11.3 | 0.00 | 0.03 | 0.00 | 998.8 | |
| 20260506033308 | -17 | 225 | 6.4 | 11.3 | 0.00 | 0.03 | 0.00 | 998.7 | |
| 20260506033248 | -17 | 248 | 6.4 | 11.3 | 0.00 | 0.03 | 0.00 | 998.7 | |
| 20260506033228 | -17 | 225 | 6.4 | 11.3 | 0.00 | 0.03 | 0.00 | 998.7 | |
| 20260506033218 | -17 | 180 | 6.4 | 11.3 | 0.00 | 0.03 | 0.00 | 998.7 | |
| 20260506033138 | -17 | 225 | 6.4 | 11.3 | 0.00 | 0.03 | 0.00 | 998.7 | |
| 20260506033128 | -17 | 180 | 4.8 | 11.3 | 0.00 | 0.03 | 0.00 | 998.6 | |
| 20260506033108 | -17 | 203 | 4.8 | 11.3 | 0.00 | 0.03 | 0.00 | 998.6 | |
| 20260506033058 | -17 | 225 | 4.8 | 11.3 | 0.00 | 0.03 | 0.00 | ||
| 20260506033048 | -17 | 225 | 4.8 | 11.3 | 0.00 | 0.03 | 0.00 | 998.7 | |
| 20260506033038 | -17 | 135 | 4.8 | 11.3 | 0.00 | 0.03 | 0.00 | 998.7 | |
| 20260506033028 | -17 | 225 | 3.2 | 11.3 | 0.00 | 0.03 | 0.00 | 998.6 | |
| 20260506033008 | -17 | 225 | 4.8 | 11.3 | 0.00 | 0.03 | 0.00 | 998.6 | |
| 20260506032958 | -17 | 180 | 4.8 | 11.3 | 0.00 | 0.03 | 0.00 | 998.6 | |
| 20260506032938 | -17 | 225 | 3.2 | 9.7 | 0.00 | 0.03 | 0.00 | 998.6 | |
| 20260506032928 | -17 | 180 | 3.2 | 9.7 | 0.00 | 0.03 | 0.00 | 998.7 | |
| 20260506032919 | -17 | 180 | 3.2 | 9.7 | 0.00 | 0.03 | 0.00 | 998.6 | |
| 20260506032908 | -17 | 203 | 3.2 | 6.4 | 0.00 | 0.03 | 0.00 | 998.6 | |
| 20260506032849 | -17 | 225 | 1.6 | 6.4 | 0.00 | 0.03 | 0.00 | 998.6 | |
| 20260506032839 | -17 | 225 | 1.6 | 6.4 | 0.00 | 0.03 | 0.00 | 998.7 | |
| 20260506032809 | -17 | 203 | 1.6 | 6.4 | 0.00 | 0.03 | 0.00 | 998.6 | |
| 20260506032749 | -17 | 225 | 1.6 | 6.4 | 0.00 | 0.03 | 0.00 | 998.6 | |
| 20260506032729 | -17 | 225 | 3.2 | 6.4 | 0.00 | 0.03 | 0.00 | 998.6 | |
| 20260506032719 | -17 | 225 | 1.6 | 6.4 | 0.00 | 0.03 | 0.00 | 998.7 | |
| 20260506032649 | -17 | 225 | 1.6 | 6.4 | 0.00 | 0.03 | 0.00 | 998.6 | |
| 20260506032609 | -17 | 225 | 1.6 | 6.4 | 0.00 | 0.03 | 0.00 | 998.6 | |
| 20260506032559 | -17 | 225 | 3.2 | 6.4 | 0.00 | 0.03 | 0.00 | 998.6 | |
| 20260506032549 | -17 | 248 | 1.6 | 6.4 | 0.00 | 0.03 | 0.00 | 998.6 | |
| 20260506032449 | -17 | 203 | 1.6 | 6.4 | 0.00 | 0.03 | 0.00 | 998.6 | |
| 20260506032439 | -17 | 225 | 1.6 | 6.4 | 0.00 | 0.03 | 0.00 | 998.6 | |
| 20260506032409 | -17 | 225 | 0.0 | 6.4 | 0.00 | 0.03 | 0.00 | 998.6 | |
| 20260506032339 | -17 | 203 | 0.0 | 6.4 | 0.00 | 0.03 | 0.00 | 998.6 | |
| 20260506032329 | -17 | 225 | 0.0 | 6.4 | 0.00 | 0.03 | 0.00 | 998.6 | |
| 20260506032319 | -17 | 225 | 1.6 | 6.4 | 0.00 | 0.03 | 0.00 | 998.7 | |
| 20260506032239 | -17 | 225 | 1.6 | 6.4 | 0.00 | 0.03 | 0.00 | 998.6 | |
| 20260506032159 | -17 | 225 | 1.6 | 6.4 | 0.00 | 0.03 | 0.00 | 998.6 | |
| 20260506032120 | -17 | 225 | 1.6 | 6.4 | 0.00 | 0.03 | 0.00 | 998.6 | |
| 20260506032110 | -17 | 225 | 3.2 | 8.0 | 0.00 | 0.03 | 0.00 | 998.6 | |
| 20260506032050 | -17 | 225 | 3.2 | 8.0 | 0.00 | 0.03 | 0.00 | 998.7 | |
| 20260506032040 | -17 | 180 | 3.2 | 8.0 | 0.00 | 0.03 | 0.00 | 998.7 | |
| 20260506032030 | -17 | 225 | 3.2 | 8.0 | 0.00 | 0.03 | 0.00 | 998.6 | |
| 20260506032010 | -17 | 225 | 1.6 | 8.0 | 0.00 | 0.03 | 0.00 | 998.7 | |
| 20260506032000 | 13 | 225 | 1.6 | 8.0 | 0.00 | 0.03 | 0.00 | 78 | 998.6 |
| 20260506031950 | -17 | 225 | 1.6 | 8.0 | 0.00 | 0.03 | 0.00 | 998.6 | |
| 20260506031930 | -17 | 225 | 1.6 | 8.0 | 0.00 | 0.03 | 0.00 | 998.7 | |
| 20260506031910 | -17 | 225 | 3.2 | 8.0 | 0.00 | 0.03 | 0.00 | 998.6 | |
| 20260506031900 | -17 | 225 | 3.2 | 8.0 | 0.00 | 0.03 | 0.00 | 998.7 | |
| 20260506031850 | -17 | 203 | 1.6 | 8.0 | 0.00 | 0.03 | 0.00 | 998.7 | |
| 20260506031830 | -17 | 225 | 1.6 | 8.0 | 0.00 | 0.03 | 0.00 | 998.7 | |
| 20260506031750 | -17 | 225 | 1.6 | 8.0 | 0.00 | 0.03 | 0.00 | 998.7 | |
| 20260506031710 | -17 | 225 | 3.2 | 8.0 | 0.00 | 0.03 | 0.00 | 998.7 | |
| 20260506031700 | -17 | 180 | 3.2 | 8.0 | 0.00 | 0.03 | 0.00 | 998.7 | |
| 20260506031630 | -17 | 225 | 3.2 | 8.0 | 0.00 | 0.03 | 0.00 | 998.7 | |
| 20260506031610 | -17 | 225 | 1.6 | 8.0 | 0.00 | 0.03 | 0.00 | 998.7 | |
| 20260506031550 | -17 | 225 | 3.2 | 8.0 | 0.00 | 0.03 | 0.00 | 998.7 | |
| 20260506031540 | -17 | 225 | 3.2 | 11.3 | 0.00 | 0.03 | 0.00 | 998.7 | |
| 20260506031500 | -17 | 225 | 3.2 | 11.3 | 0.00 | 0.03 | 0.00 | 998.7 | |
| 20260506031451 | -17 | 180 | 3.2 | 11.3 | 0.00 | 0.03 | 0.00 | 998.7 | |
| 20260506031421 | 13 | 225 | 3.2 | 11.3 | 0.00 | 0.03 | 0.00 | 78 | 998.8 |
| 20260506031411 | -17 | 225 | 3.2 | 11.3 | 0.00 | 0.03 | 0.00 | 998.7 | |
| 20260506031401 | -17 | 225 | 3.2 | 11.3 | 0.00 | 0.03 | 0.00 | 998.8 | |
| 20260506031351 | -17 | 203 | 3.2 | 11.3 | 0.00 | 0.03 | 0.00 | 998.7 | |
| 20260506031341 | -17 | 203 | 3.2 | 11.3 | 0.00 | 0.03 | 0.00 | 998.8 | |
| 20260506031311 | -17 | 180 | 3.2 | 11.3 | 0.00 | 0.03 | 0.00 | 998.7 | |
| 20260506031301 | -17 | 225 | 3.2 | 11.3 | 0.00 | 0.03 | 0.00 | 998.8 | |
| 20260506031251 | -17 | 203 | 3.2 | 11.3 | 0.00 | 0.03 | 0.00 | 998.8 | |
| 20260506031241 | -17 | 203 | 3.2 | 11.3 | 0.00 | 0.03 | 0.00 | 998.7 | |
| 20260506031221 | -17 | 225 | 3.2 | 11.3 | 0.00 | 0.03 | 0.00 | 998.8 | |
| 20260506031211 | -17 | 180 | 3.2 | 11.3 | 0.00 | 0.03 | 0.00 | 998.8 | |
| 20260506031151 | -17 | 225 | 4.8 | 11.3 | 0.00 | 0.03 | 0.00 | 998.8 | |
| 20260506031141 | -17 | 180 | 4.8 | 11.3 | 0.00 | 0.03 | 0.00 | 1000.4 | |
| 20260506031121 | -17 | 180 | 4.8 | 11.3 | 0.00 | 0.03 | 0.00 | 998.8 | |
| 20260506031111 | -17 | 225 | 4.8 | 11.3 | 0.00 | 0.03 | 0.00 | 998.8 | |
| 20260506031101 | -17 | 203 | 6.4 | 11.3 | 0.00 | 0.03 | 0.00 | 998.8 | |
| 20260506031051 | -17 | 225 | 6.4 | 11.3 | 0.00 | 0.03 | 0.00 | 998.8 | |
| 20260506031021 | -17 | 225 | 6.4 | 9.7 | 0.00 | 0.03 | 0.00 | 998.8 | |
| 20260506031011 | -17 | 203 | 6.4 | 9.7 | 0.00 | 0.03 | 0.00 | 998.8 | |
| 20260506030951 | -17 | 180 | 6.4 | 9.7 | 0.00 | 0.03 | 0.00 | 998.8 | |
| 20260506030941 | -17 | 225 | 6.4 | 9.7 | 0.00 | 0.03 | 0.00 | 998.8 | |
| 20260506030921 | -17 | 225 | 4.8 | 8.0 | 0.00 | 0.03 | 0.00 | 998.8 | |
| 20260506030911 | -17 | 270 | 4.8 | 8.0 | 0.00 | 0.03 | 0.00 | 998.8 | |
| 20260506030851 | -17 | 225 | 3.2 | 8.0 | 0.00 | 0.03 | 0.00 | 998.8 | |
| 20260506030811 | -17 | 225 | 3.2 | 8.0 | 0.00 | 0.03 | 0.00 | 998.8 | |
| 20260506030802 | -17 | 225 | 1.6 | 8.0 | 0.00 | 0.03 | 0.00 | 998.8 | |
| 20260506030722 | -17 | 225 | 3.2 | 8.0 | 0.00 | 0.03 | 0.00 | 998.8 | |
| 20260506030642 | -17 | 225 | 3.2 | 8.0 | 0.00 | 0.03 | 0.00 | 998.8 | |
| 20260506030602 | -17 | 225 | 3.2 | 8.0 | 0.00 | 0.03 | 0.00 | 998.8 | |
| 20260506030542 | -17 | 225 | 3.2 | 11.3 | 0.00 | 0.03 | 0.00 | 998.8 | |
| 20260506030502 | -17 | 225 | 3.2 | 11.3 | 0.00 | 0.03 | 0.00 | 998.8 | |
| 20260506030452 | -17 | 225 | 3.2 | 11.3 | 0.00 | 0.03 | 0.00 | 998.7 | |
| 20260506030422 | -17 | 180 | 3.2 | 11.3 | 0.00 | 0.03 | 0.00 | 998.7 | |
| 20260506030412 | -17 | 225 | 3.2 | 11.3 | 0.00 | 0.03 | 0.00 | 998.7 | |
| 20260506030402 | -17 | 225 | 3.2 | 11.3 | 0.00 | 0.03 | 0.00 | 998.8 | |
| 20260506030322 | -17 | 225 | 3.2 | 11.3 | 0.00 | 0.03 | 0.00 | 998.7 | |
| 20260506030312 | -17 | 180 | 3.2 | 11.3 | 0.00 | 0.03 | 0.00 | 998.7 | |
| 20260506030242 | -17 | 225 | 3.2 | 11.3 | 0.00 | 0.03 | 0.00 | 998.6 | |
| 20260506030232 | -17 | 225 | 3.2 | 11.3 | 0.00 | 0.03 | 0.00 | 998.7 | |
| 20260506030152 | -17 | 225 | 3.2 | 11.3 | 0.00 | 0.03 | 0.00 | 998.7 | |
| 20260506030123 | -17 | 225 | 4.8 | 11.3 | 0.00 | 0.03 | 0.00 | 998.7 | |
| 20260506030112 | -17 | 180 | 4.8 | 11.3 | 0.00 | 0.03 | 0.00 | 998.6 | |
| 20260506030053 | -17 | 203 | 4.8 | 8.0 | 0.00 | 0.03 | 0.00 | 998.7 | |
| 20260506030043 | -17 | 225 | 4.8 | 8.0 | 0.00 | 0.03 | 0.00 | 998.7 | |
| 20260506030033 | -17 | 0 | 3.2 | 8.0 | 0.00 | 0.03 | 0.00 | 998.7 | |
| 20260506030023 | -17 | 225 | 3.2 | 8.0 | 0.00 | 0.03 | 0.00 | 998.7 | |
| 20260506030013 | -17 | 225 | 3.2 | 8.0 | 0.00 | 0.03 | 0.00 | 998.6 | |
| 20260506025953 | -17 | 203 | 4.8 | 8.0 | 0.00 | 0.03 | 0.00 | 998.7 | |
| 20260506025933 | -17 | 225 | 4.8 | 8.0 | 0.00 | 0.03 | 0.00 | 998.6 | |
| 20260506025923 | -17 | 225 | 4.8 | 8.0 | 0.00 | 0.03 | 0.00 | 998.7 | |
| 20260506025853 | -17 | 180 | 4.8 | 8.0 | 0.00 | 0.03 | 0.00 | 998.6 | |
| 20260506025843 | -17 | 225 | 4.8 | 8.0 | 0.00 | 0.03 | 0.00 | 998.7 | |
| 20260506025833 | -17 | 225 | 4.8 | 8.0 | 0.00 | 0.03 | 0.00 | 998.6 | |
| 20260506025823 | -17 | 225 | 3.2 | 8.0 | 0.00 | 0.03 | 0.00 | 998.7 | |
| 20260506025813 | -17 | 180 | 3.2 | 8.0 | 0.00 | 0.03 | 0.00 | 998.7 | |
| 20260506025803 | -17 | 225 | 3.2 | 8.0 | 0.00 | 0.03 | 0.00 | 998.6 | |
| 20260506025743 | -17 | 203 | 3.2 | 8.0 | 0.00 | 0.03 | 0.00 | 998.6 | |
| 20260506025733 | -17 | 225 | 3.2 | 8.0 | 0.00 | 0.03 | 0.00 | 998.7 | |
| 20260506025723 | -17 | 225 | 1.6 | 8.0 | 0.00 | 0.03 | 0.00 | 998.7 | |
| 20260506025703 | -17 | 225 | 3.2 | 8.0 | 0.00 | 0.03 | 0.00 | 998.6 | |
| 20260506025643 | -17 | 225 | 1.6 | 8.0 | 0.00 | 0.03 | 0.00 | 998.7 | |
| 20260506025633 | -17 | 225 | 1.6 | 8.0 | 0.00 | 0.03 | 0.00 | 998.6 | |
| 20260506025623 | -17 | 225 | 3.2 | 8.0 | 0.00 | 0.03 | 0.00 | 998.6 | |
| 20260506025613 | -17 | 203 | 3.2 | 8.0 | 0.00 | 0.03 | 0.00 | 998.6 | |
| 20260506025603 | -17 | 180 | 3.2 | 8.0 | 0.00 | 0.03 | 0.00 | 998.6 | |
| 20260506025523 | -17 | 225 | 3.2 | 8.0 | 0.00 | 0.03 | 0.00 | 998.6 | |
| 20260506025503 | -17 | 203 | 3.2 | 8.0 | 0.00 | 0.03 | 0.00 | 998.6 | |
| 20260506025443 | -17 | 225 | 3.2 | 8.0 | 0.00 | 0.03 | 0.00 | 998.6 | |
| 20260506025423 | -17 | 225 | 1.6 | 8.0 | 0.00 | 0.03 | 0.00 | 998.6 | |
| 20260506025344 | -17 | 225 | 3.2 | 8.0 | 0.00 | 0.03 | 0.00 | 998.6 | |
| 20260506025334 | -17 | 225 | 3.2 | 8.0 | 0.00 | 0.03 | 0.00 | 998.7 | |
| 20260506025324 | -17 | 180 | 3.2 | 8.0 | 0.00 | 0.03 | 0.00 | 998.7 | |
| 20260506025314 | -17 | 203 | 1.6 | 8.0 | 0.00 | 0.03 | 0.00 | 998.7 | |
| 20260506025305 | -17 | 225 | 1.6 | 8.0 | 0.00 | 0.03 | 0.00 | 998.6 | |
| 20260506025244 | -17 | 225 | 3.2 | 8.0 | 0.00 | 0.03 | 0.00 | 998.6 | |
| 20260506025224 | -17 | 225 | 3.2 | 9.7 | 0.00 | 0.03 | 0.00 | 998.6 | |
| 20260506025214 | -17 | 225 | 3.2 | 9.7 | 0.00 | 0.03 | 0.00 | 998.7 | |
| 20260506025144 | -17 | 225 | 3.2 | 9.7 | 0.00 | 0.03 | 0.00 | 998.6 | |
| 20260506025134 | -17 | 225 | 3.2 | 9.7 | 0.00 | 0.03 | 0.00 | 998.7 | |
| 20260506025104 | -17 | 225 | 3.2 | 9.7 | 0.00 | 0.03 | 0.00 | 998.6 | |
| 20260506025054 | -17 | 225 | 3.2 | 9.7 | 0.00 | 0.03 | 0.00 | 998.7 | |
| 20260506025044 | 12 | 225 | 3.2 | 9.7 | 0.00 | 0.03 | 0.00 | 77 | 998.6 |
| 20260506024954 | -17 | 225 | 3.2 | 9.7 | 0.00 | 0.03 | 0.00 | 998.6 | |
| 20260506024944 | -17 | 225 | 3.2 | 9.7 | 0.00 | 0.03 | 0.00 | 998.7 | |
| 20260506024934 | -17 | 225 | 3.2 | 11.3 | 0.00 | 0.03 | 0.00 | 837.1 | |
| 20260506024914 | -17 | 180 | 3.2 | 11.3 | 0.00 | 0.03 | 0.00 | 998.6 | |
| 20260506024904 | -17 | 225 | 3.2 | 11.3 | 0.00 | 0.03 | 0.00 | 998.7 | |
| 20260506024834 | -17 | 225 | 3.2 | 11.3 | 0.00 | 0.03 | 0.00 | 998.6 | |
| 20260506024824 | -17 | 225 | 3.2 | 11.3 | 0.00 | 0.03 | 0.00 | 998.7 | |
| 20260506024814 | -17 | 203 | 3.2 | 11.3 | 0.00 | 0.03 | 0.00 | 998.7 | |
| 20260506024804 | -17 | 180 | 3.2 | 11.3 | 0.00 | 0.03 | 0.00 | 998.7 | |
| 20260506024754 | -17 | 203 | 4.8 | 11.3 | 0.00 | 0.03 | 0.00 | 998.7 | |
| 20260506024744 | -17 | 180 | 4.8 | 12.9 | 0.00 | 0.03 | 0.00 | 998.7 | |
| 20260506024734 | -17 | 225 | 4.8 | 12.9 | 0.00 | 0.03 | 0.00 | 998.8 | |
| 20260506024714 | -17 | 225 | 6.4 | 12.9 | 0.00 | 0.03 | 0.00 | 998.7 | |
| 20260506024704 | -17 | 225 | 6.4 | 12.9 | 0.00 | 0.03 | 0.00 | 998.8 | |
| 20260506024645 | -17 | 203 | 6.4 | 12.9 | 0.00 | 0.03 | 0.00 | 998.8 | |
| 20260506024635 | -17 | 225 | 6.4 | 12.9 | 0.00 | 0.03 | 0.00 | 998.7 | |
| 20260506024625 | 13 | 180 | 6.4 | 12.9 | 0.00 | 0.03 | 0.00 | 76 | 998.7 |
| 20260506024605 | -17 | 180 | 6.4 | 12.9 | 0.00 | 0.03 | 0.00 | 998.7 | |
| 20260506024555 | -17 | 180 | 6.4 | 12.9 | 0.00 | 0.03 | 0.00 | 998.8 | |
| 20260506024545 | -17 | 158 | 6.4 | 12.9 | 0.00 | 0.03 | 0.00 | 998.7 | |
| 20260506024515 | -17 | 225 | 6.4 | 12.9 | 0.00 | 0.03 | 0.00 | 998.8 | |
| 20260506024505 | -17 | 225 | 6.4 | 12.9 | 0.00 | 0.03 | 0.00 | 998.7 | |
| 20260506024455 | -17 | 158 | 6.4 | 12.9 | 0.00 | 0.03 | 0.00 | 998.8 | |
| 20260506024415 | -17 | 225 | 6.4 | 12.9 | 0.00 | 0.03 | 0.00 | 998.8 | |
| 20260506024405 | -17 | 180 | 6.4 | 12.9 | 0.00 | 0.03 | 0.00 | 998.8 | |
| 20260506024345 | -17 | 180 | 8.0 | 12.9 | 0.00 | 0.03 | 0.00 | 998.8 | |
| 20260506024335 | -17 | 135 | 8.0 | 12.9 | 0.00 | 0.03 | 0.00 | 998.8 | |
| 20260506024325 | -17 | 225 | 8.0 | 12.9 | 0.00 | 0.03 | 0.00 | 1054.5 | |
| 20260506024315 | -17 | 225 | 9.7 | 12.9 | 0.00 | 0.03 | 0.00 | 998.8 | |
| 20260506024255 | -17 | 180 | 9.7 | 12.9 | 0.00 | 0.03 | 0.00 | 998.8 | |
| 20260506024235 | -17 | 180 | 9.7 | 12.9 | 0.00 | 0.03 | 0.00 | 998.9 | |
| 20260506024225 | 13 | 180 | 9.7 | 12.9 | 0.00 | 0.03 | 0.00 | 76 | 998.8 |
| 20260506024215 | -17 | 180 | 9.7 | 12.9 | 0.00 | 0.03 | 0.00 | 998.8 | |
| 20260506024145 | -17 | 180 | 9.7 | 12.9 | 0.00 | 0.03 | 0.00 | 998.9 | |
| 20260506024125 | -17 | 180 | 9.7 | 12.9 | 0.00 | 0.03 | 0.00 | 998.8 | |
| 20260506024115 | -17 | 203 | 9.7 | 12.9 | 0.00 | 0.03 | 0.00 | 998.9 | |
| 20260506024105 | -17 | 225 | 9.7 | 12.9 | 0.00 | 0.03 | 0.00 | 998.8 | |
| 20260506024055 | -17 | 180 | 9.7 | 12.9 | 0.00 | 0.03 | 0.00 | 998.9 | |
| 20260506024035 | -17 | 180 | 8.0 | 12.9 | 0.00 | 0.03 | 0.00 | 998.9 | |
| 20260506024026 | -17 | 180 | 6.4 | 12.9 | 0.00 | 0.03 | 0.00 | 998.9 | |
| 20260506024015 | -17 | 180 | 6.4 | 11.3 | 0.00 | 0.03 | 0.00 | 998.8 | |
| 20260506023956 | -17 | 180 | 6.4 | 11.3 | 0.00 | 0.03 | 0.00 | 998.9 | |
| 20260506023936 | -17 | 180 | 6.4 | 11.3 | 0.00 | 0.03 | 0.00 | 998.8 | |
| 20260506023916 | -17 | 180 | 6.4 | 11.3 | 0.00 | 0.03 | 0.00 | 998.9 | |
| 20260506023906 | -17 | 203 | 6.4 | 11.3 | 0.00 | 0.03 | 0.00 | 998.8 | |
| 20260506023826 | -17 | 180 | 6.4 | 11.3 | 0.00 | 0.03 | 0.00 | 998.8 | |
| 20260506023816 | -17 | 203 | 6.4 | 11.3 | 0.00 | 0.03 | 0.00 | 998.8 | |
| 20260506023806 | -17 | 180 | 6.4 | 9.7 | 0.00 | 0.03 | 0.00 | 998.8 | |
| 20260506023756 | -17 | 180 | 6.4 | 9.7 | 0.00 | 0.03 | 0.00 | 998.9 | |
| 20260506023746 | -17 | 203 | 6.4 | 9.7 | 0.00 | 0.03 | 0.00 | 998.8 | |
| 20260506023736 | -17 | 180 | 4.8 | 9.7 | 0.00 | 0.03 | 0.00 | 998.8 | |
| 20260506023656 | -17 | 180 | 4.8 | 9.7 | 0.00 | 0.03 | 0.00 | 998.8 | |
| 20260506023616 | -17 | 180 | 4.8 | 9.7 | 0.00 | 0.03 | 0.00 | 998.8 | |
| 20260506023606 | -17 | 180 | 6.4 | 9.7 | 0.00 | 0.03 | 0.00 | 998.7 | |
| 20260506023556 | -17 | 225 | 6.4 | 9.7 | 0.00 | 0.03 | 0.00 | 998.8 | |
| 20260506023526 | -17 | 180 | 6.4 | 9.7 | 0.00 | 0.03 | 0.00 | 998.7 | |
| 20260506023516 | -17 | 180 | 6.4 | 9.7 | 0.00 | 0.03 | 0.00 | 998.8 | |
| 20260506023456 | -17 | 225 | 6.4 | 9.7 | 0.00 | 0.03 | 0.00 | 998.8 | |
| 20260506023446 | -17 | 180 | 6.4 | 9.7 | 0.00 | 0.03 | 0.00 | 998.7 | |
| 20260506023436 | -17 | 180 | 6.4 | 9.7 | 0.00 | 0.03 | 0.00 | 998.8 | |
| 20260506023416 | -17 | 180 | 4.8 | 8.0 | 0.00 | 0.03 | 0.00 | 998.7 | |
| 20260506023406 | -17 | 203 | 4.8 | 8.0 | 0.00 | 0.03 | 0.00 | 998.7 | |
| 20260506023356 | 13 | 180 | 4.8 | 8.0 | 0.00 | 0.03 | 0.00 | 76 | 998.7 |
| 20260506023336 | -17 | 225 | 4.8 | 8.0 | 0.00 | 0.03 | 0.00 | 998.7 | |
| 20260506023306 | -17 | 180 | 4.8 | 8.0 | 0.00 | 0.03 | 0.00 | 998.7 | |
| 20260506023257 | -17 | 135 | 4.8 | 8.0 | 0.00 | 0.03 | 0.00 | 998.7 | |
| 20260506023247 | -17 | 203 | 4.8 | 8.0 | 0.00 | 0.03 | 0.00 | 998.7 | |
| 20260506023237 | -17 | 203 | 6.4 | 8.0 | 0.00 | 0.03 | 0.00 | 998.7 | |
| 20260506023217 | -17 | 225 | 6.4 | 8.0 | 0.00 | 0.03 | 0.00 | 998.7 | |
| 20260506023207 | -17 | 180 | 6.4 | 8.0 | 0.00 | 0.03 | 0.00 | 998.7 | |
| 20260506023157 | -17 | 180 | 6.4 | 8.0 | 0.00 | 0.03 | 0.00 | 998.8 | |
| 20260506023117 | -17 | 180 | 4.8 | 8.0 | 0.00 | 0.03 | 0.00 | 998.7 | |
| 20260506023107 | -17 | 180 | 3.2 | 8.0 | 0.00 | 0.03 | 0.00 | 998.7 | |
| 20260506023047 | -17 | 0 | 3.2 | 9.7 | 0.00 | 0.03 | 0.00 | 998.7 | |
| 20260506023027 | -17 | 180 | 3.2 | 9.7 | 0.00 | 0.03 | 0.00 | 998.7 | |
| 20260506022957 | -17 | 203 | 4.8 | 9.7 | 0.00 | 0.03 | 0.00 | 998.8 | |
| 20260506022947 | -17 | 180 | 4.8 | 9.7 | 0.00 | 0.03 | 0.00 | 998.7 | |
| 20260506022927 | -17 | 225 | 4.8 | 9.7 | 0.00 | 0.03 | 0.00 | 998.7 | |
| 20260506022917 | -17 | 225 | 3.2 | 9.7 | 0.00 | 0.03 | 0.00 | 998.7 | |
| 20260506022907 | -17 | 225 | 4.8 | 9.7 | 0.00 | 0.03 | 0.00 | 998.8 | |
| 20260506022857 | -17 | 180 | 4.8 | 9.7 | 0.00 | 0.03 | 0.00 | 998.8 | |
| 20260506022847 | -17 | 270 | 3.2 | 9.7 | 0.00 | 0.03 | 0.00 | 998.8 | |
| 20260506022837 | -17 | 225 | 3.2 | 9.7 | 0.00 | 0.03 | 0.00 | 998.8 | |
| 20260506022827 | -17 | 180 | 3.2 | 9.7 | 0.00 | 0.03 | 0.00 | 998.8 | |
| 20260506022817 | -17 | 203 | 3.2 | 9.7 | 0.00 | 0.03 | 0.00 | 998.8 | |
| 20260506022807 | -17 | 225 | 1.6 | 9.7 | 0.00 | 0.03 | 0.00 | 998.8 | |
| 20260506022757 | -17 | 203 | 1.6 | 9.7 | 0.00 | 0.03 | 0.00 | 998.8 | |
| 20260506022737 | -17 | 225 | 1.6 | 9.7 | 0.00 | 0.03 | 0.00 | 998.7 | |
| 20260506022727 | -17 | 225 | 1.6 | 9.7 | 0.00 | 0.03 | 0.00 | 998.8 | |
| 20260506022717 | -17 | 225 | 1.6 | 9.7 | 0.00 | 0.03 | 0.00 | 764.1 | |
| 20260506022657 | -17 | 180 | 3.2 | 9.7 | 0.00 | 0.03 | 0.00 | 998.7 | |
| 20260506022647 | -17 | 203 | 3.2 | 9.7 | 0.00 | 0.03 | 0.00 | 998.7 | |
| 20260506022637 | -17 | 225 | 3.2 | 9.7 | 0.00 | 0.03 | 0.00 | 998.8 | |
| 20260506022627 | -17 | 225 | 4.8 | 9.7 | 0.00 | 0.03 | 0.00 | 998.8 | |
| 20260506022617 | -17 | 203 | 4.8 | 9.7 | 0.00 | 0.03 | 0.00 | 998.7 | |
| 20260506022608 | -17 | 180 | 4.8 | 9.7 | 0.00 | 0.03 | 0.00 | 998.8 | |
| 20260506022558 | -17 | 180 | 3.2 | 8.0 | 0.00 | 0.03 | 0.00 | 998.7 | |
| 20260506022548 | -17 | 225 | 3.2 | 8.0 | 0.00 | 0.03 | 0.00 | 998.8 | |
| 20260506022538 | -17 | 203 | 3.2 | 8.0 | 0.00 | 0.03 | 0.00 | 998.7 | |
| 20260506022518 | -17 | 225 | 3.2 | 8.0 | 0.00 | 0.03 | 0.00 | 998.7 | |
| 20260506022448 | -17 | 225 | 3.2 | 8.0 | 0.00 | 0.03 | 0.00 | 998.8 | |
| 20260506022408 | -17 | 225 | 3.2 | 8.0 | 0.00 | 0.03 | 0.00 | 998.8 | |
| 20260506022358 | -17 | 180 | 3.2 | 8.0 | 0.00 | 0.03 | 0.00 | 998.8 | |
| 20260506022348 | -17 | 225 | 4.8 | 8.0 | 0.00 | 0.03 | 0.00 | 998.8 | |
| 20260506022338 | -17 | 225 | 4.8 | 8.0 | 0.00 | 0.03 | 0.00 | 998.7 | |
| 20260506022318 | -17 | 180 | 3.2 | 8.0 | 0.00 | 0.03 | 0.00 | 998.8 | |
| 20260506022308 | -17 | 225 | 3.2 | 8.0 | 0.00 | 0.03 | 0.00 | 998.7 | |
| 20260506022258 | -17 | 225 | 3.2 | 8.0 | 0.00 | 0.03 | 0.00 | 998.8 | |
| 20260506022248 | -17 | 203 | 3.2 | 8.0 | 0.00 | 0.03 | 0.00 | 998.8 | |
| 20260506022228 | -17 | 180 | 3.2 | 8.0 | 0.00 | 0.03 | 0.00 | 998.8 | |
| 20260506022218 | -17 | 225 | 3.2 | 8.0 | 0.00 | 0.03 | 0.00 | 998.8 | |
| 20260506022208 | -17 | 225 | 3.2 | 8.0 | 0.00 | 0.03 | 0.00 | 998.7 | |
| 20260506022158 | -17 | 270 | 3.2 | 8.0 | 0.00 | 0.03 | 0.00 | 998.8 | |
| 20260506022138 | -17 | 203 | 3.2 | 8.0 | 0.00 | 0.03 | 0.00 | 998.8 | |
| 20260506022128 | -17 | 225 | 3.2 | 8.0 | 0.00 | 0.03 | 0.00 | 998.8 | |
| 20260506022118 | -17 | 225 | 1.6 | 8.0 | 0.00 | 0.03 | 0.00 | 998.7 | |
| 20260506022108 | -17 | 203 | 1.6 | 8.0 | 0.00 | 0.03 | 0.00 | 998.7 | |
| 20260506022058 | -17 | 180 | 1.6 | 8.0 | 0.00 | 0.03 | 0.00 | 998.8 | |
| 20260506022018 | -17 | 225 | 1.6 | 8.0 | 0.00 | 0.03 | 0.00 | 998.7 | |
| 20260506022008 | -17 | 225 | 1.6 | 8.0 | 0.00 | 0.03 | 0.00 | 998.8 | |
| 20260506021939 | -17 | 225 | 1.6 | 8.0 | 0.00 | 0.03 | 0.00 | ||
| 20260506021929 | -17 | 225 | 1.6 | 8.0 | 0.00 | 0.03 | 0.00 | 998.7 | |
| 20260506021918 | -17 | 225 | 3.2 | 8.0 | 0.00 | 0.03 | 0.00 | 998.7 | |
| 20260506021839 | -17 | 225 | 3.2 | 8.0 | 0.00 | 0.03 | 0.00 | 998.7 | |
| 20260506021759 | -17 | 225 | 3.2 | 8.0 | 0.00 | 0.03 | 0.00 | 998.7 | |
| 20260506021719 | -17 | 225 | 3.2 | 8.0 | 0.00 | 0.03 | 0.00 | 998.7 | |
| 20260506021639 | -17 | 225 | 3.2 | 8.0 | 0.00 | 0.03 | 0.00 | 998.7 | |
| 20260506021619 | -17 | 225 | 4.8 | 8.0 | 0.00 | 0.03 | 0.00 | 998.7 | |
| 20260506021539 | -17 | 225 | 4.8 | 8.0 | 0.00 | 0.03 | 0.00 | 998.7 | |
| 20260506021509 | -17 | 225 | 3.2 | 8.0 | 0.00 | 0.03 | 0.00 | 998.7 | |
| 20260506021449 | -17 | 270 | 3.2 | 8.0 | 0.00 | 0.03 | 0.00 | 998.7 | |
| 20260506021429 | -17 | 225 | 3.2 | 8.0 | 0.00 | 0.03 | 0.00 | 998.7 | |
| 20260506021359 | -17 | 225 | 3.2 | 8.0 | 0.00 | 0.03 | 0.00 | 998.8 | |
| 20260506021349 | -17 | 225 | 3.2 | 8.0 | 0.00 | 0.03 | 0.00 | 998.7 | |
| 20260506021339 | -17 | 225 | 4.8 | 8.0 | 0.00 | 0.03 | 0.00 | 998.7 | |
| 20260506021300 | -17 | 225 | 4.8 | 8.0 | 0.00 | 0.03 | 0.00 | 998.8 | |
| 20260506021250 | -17 | 225 | 4.8 | 8.0 | 0.00 | 0.03 | 0.00 | 998.7 | |
| 20260506021210 | -17 | 225 | 4.8 | 8.0 | 0.00 | 0.03 | 0.00 | 998.8 | |
| 20260506021200 | -17 | 225 | 3.2 | 8.0 | 0.00 | 0.03 | 0.00 | 998.8 | |
| 20260506021120 | -17 | 225 | 3.2 | 8.0 | 0.00 | 0.03 | 0.00 | 998.8 | |
| 20260506021050 | -17 | 225 | 3.2 | 8.0 | 0.00 | 0.03 | 0.00 | 998.7 | |
| 20260506021040 | -17 | 225 | 3.2 | 8.0 | 0.00 | 0.03 | 0.00 | 998.8 | |
| 20260506021020 | -17 | 225 | 3.2 | 8.0 | 0.00 | 0.03 | 0.00 | ||
| 20260506021000 | -17 | 225 | 3.2 | 8.0 | 0.00 | 0.03 | 0.00 | 998.7 | |
| 20260506020950 | -17 | 180 | 3.2 | 8.0 | 0.00 | 0.03 | 0.00 | 998.8 | |
| 20260506020940 | -17 | 270 | 3.2 | 8.0 | 0.00 | 0.03 | 0.00 | 998.7 | |
| 20260506020920 | -17 | 225 | 3.2 | 8.0 | 0.00 | 0.03 | 0.00 | 998.7 | |
| 20260506020900 | -17 | 225 | 3.2 | 11.3 | 0.00 | 0.03 | 0.00 | 998.7 | |
| 20260506020830 | -17 | 225 | 4.8 | 11.3 | 0.00 | 0.03 | 0.00 | 998.7 | |
| 20260506020820 | -17 | 225 | 4.8 | 11.3 | 0.00 | 0.03 | 0.00 | 998.8 | |
| 20260506020750 | -17 | 225 | 4.8 | 11.3 | 0.00 | 0.03 | 0.00 | 998.7 | |
| 20260506020740 | -17 | 225 | 4.8 | 11.3 | 0.00 | 0.03 | 0.00 | ||
| 20260506020730 | -17 | 225 | 3.2 | 11.3 | 0.00 | 0.03 | 0.00 | 998.7 | |
| 20260506020700 | -17 | 225 | 3.2 | 12.9 | 0.00 | 0.03 | 0.00 | 998.7 | |
| 20260506020620 | -17 | 225 | 4.8 | 12.9 | 0.00 | 0.03 | 0.00 | 998.7 | |
| 20260506020541 | -17 | 225 | 4.8 | 12.9 | 0.00 | 0.03 | 0.00 | 998.7 | |
| 20260506020501 | -17 | 225 | 4.8 | 12.9 | 0.00 | 0.03 | 0.00 | 998.8 | |
| 20260506020441 | -17 | 225 | 4.8 | 12.9 | 0.00 | 0.03 | 0.00 | 998.7 | |
| 20260506020401 | -17 | 225 | 4.8 | 12.9 | 0.00 | 0.03 | 0.00 | 998.7 | |
| 20260506020351 | -17 | 225 | 4.8 | 12.9 | 0.00 | 0.03 | 0.00 | 998.8 | |
| 20260506020331 | -17 | 225 | 6.4 | 12.9 | 0.00 | 0.03 | 0.00 | 998.8 | |
| 20260506020311 | -17 | 225 | 4.8 | 12.9 | 0.00 | 0.03 | 0.00 | 998.8 | |
| 20260506020251 | -17 | 225 | 6.4 | 12.9 | 0.00 | 0.03 | 0.00 | 998.8 | |
| 20260506020241 | -17 | 225 | 4.8 | 12.9 | 0.00 | 0.03 | 0.00 | 998.9 | |
| 20260506020231 | -17 | 225 | 4.8 | 12.9 | 0.00 | 0.03 | 0.00 | 998.8 | |
| 20260506020221 | -17 | 225 | 4.8 | 11.3 | 0.00 | 0.03 | 0.00 | 998.8 | |
| 20260506020211 | -17 | 225 | 4.8 | 11.3 | 0.00 | 0.03 | 0.00 | 998.9 | |
| 20260506020141 | -17 | 203 | 4.8 | 11.3 | 0.00 | 0.03 | 0.00 | 998.9 | |
| 20260506020131 | -17 | 225 | 4.8 | 11.3 | 0.00 | 0.03 | 0.00 | 998.8 | |
| 20260506020121 | -17 | 248 | 4.8 | 11.3 | 0.00 | 0.03 | 0.00 | 998.8 | |
| 20260506020111 | -17 | 225 | 4.8 | 11.3 | 0.00 | 0.03 | 0.00 | 998.9 | |
| 20260506020051 | -17 | 225 | 3.2 | 11.3 | 0.00 | 0.03 | 0.00 | 998.8 | |
| 20260506020041 | -17 | 203 | 3.2 | 11.3 | 0.00 | 0.03 | 0.00 | 998.8 | |
| 20260506020021 | -17 | 225 | 4.8 | 11.3 | 0.00 | 0.03 | 0.00 | 998.8 | |
| 20260506020011 | -17 | 225 | 4.8 | 12.9 | 0.00 | 0.03 | 0.00 | 998.8 | |
| 20260506015951 | -17 | 225 | 6.4 | 12.9 | 0.00 | 0.03 | 0.00 | 998.8 | |
| 20260506015941 | -17 | 225 | 4.8 | 12.9 | 0.00 | 0.03 | 0.00 | 998.9 | |
| 20260506015931 | -17 | 225 | 4.8 | 12.9 | 0.00 | 0.03 | 0.00 | 998.8 | |
| 20260506015921 | -17 | 225 | 3.2 | 12.9 | 0.00 | 0.03 | 0.00 | 998.8 | |
| 20260506015852 | -17 | 225 | 3.2 | 12.9 | 0.00 | 0.03 | 0.00 | 998.9 | |
| 20260506015842 | -17 | 203 | 3.2 | 12.9 | 0.00 | 0.03 | 0.00 | 998.8 | |
| 20260506015832 | -17 | 225 | 3.2 | 12.9 | 0.00 | 0.03 | 0.00 | 998.8 | |
| 20260506015802 | -17 | 225 | 3.2 | 12.9 | 0.00 | 0.03 | 0.00 | 998.9 | |
| 20260506015752 | -17 | 225 | 3.2 | 12.9 | 0.00 | 0.03 | 0.00 | 998.8 | |
| 20260506015722 | -17 | 203 | 3.2 | 12.9 | 0.00 | 0.03 | 0.00 | 998.8 | |
| 20260506015712 | -17 | 225 | 3.2 | 12.9 | 0.00 | 0.03 | 0.00 | 998.8 | |
| 20260506015702 | -17 | 225 | 3.2 | 12.9 | 0.00 | 0.03 | 0.00 | 998.9 | |
| 20260506015642 | -17 | 248 | 3.2 | 12.9 | 0.00 | 0.03 | 0.00 | 998.9 | |
| 20260506015632 | -17 | 203 | 3.2 | 12.9 | 0.00 | 0.03 | 0.00 | 998.8 | |
| 20260506015622 | -17 | 180 | 4.8 | 12.9 | 0.00 | 0.03 | 0.00 | 998.9 | |
| 20260506015602 | -17 | 203 | 4.8 | 12.9 | 0.00 | 0.03 | 0.00 | 998.8 | |
| 20260506015552 | -17 | 225 | 4.8 | 12.9 | 0.00 | 0.03 | 0.00 | 998.8 | |
| 20260506015542 | -17 | 180 | 4.8 | 12.9 | 0.00 | 0.03 | 0.00 | 998.8 | |
| 20260506015532 | -17 | 225 | 3.2 | 12.9 | 0.00 | 0.03 | 0.00 | 998.9 | |
| 20260506015522 | -17 | 225 | 3.2 | 12.9 | 0.00 | 0.03 | 0.00 | 998.8 | |
| 20260506015512 | -17 | 225 | 3.2 | 11.3 | 0.00 | 0.03 | 0.00 | 998.8 | |
| 20260506015452 | -17 | 203 | 3.2 | 11.3 | 0.00 | 0.03 | 0.00 | 998.8 | |
| 20260506015442 | -17 | 225 | 3.2 | 11.3 | 0.00 | 0.03 | 0.00 | 998.9 | |
| 20260506015422 | -17 | 203 | 3.2 | 11.3 | 0.00 | 0.03 | 0.00 | 998.9 | |
| 20260506015402 | -17 | 225 | 3.2 | 11.3 | 0.00 | 0.03 | 0.00 | 998.9 | |
| 20260506015352 | -17 | 180 | 3.2 | 11.3 | 0.00 | 0.03 | 0.00 | 998.9 | |
| 20260506015332 | -17 | 203 | 4.8 | 11.3 | 0.00 | 0.03 | 0.00 | 998.9 | |
| 20260506015322 | -17 | 225 | 4.8 | 11.3 | 0.00 | 0.03 | 0.00 | 998.9 | |
| 20260506015312 | -17 | 225 | 3.2 | 11.3 | 0.00 | 0.03 | 0.00 | 998.9 | |
| 20260506015305 | -17 | 225 | 4.8 | 11.3 | 0.00 | 0.03 | 0.00 | 998.8 | |
| 20260506015252 | -17 | 270 | 4.8 | 11.3 | 0.00 | 0.03 | 0.00 | 998.9 | |
| 20260506015232 | -17 | 225 | 3.2 | 11.3 | 0.00 | 0.03 | 0.00 | 998.9 | |
| 20260506015203 | -17 | 225 | 3.2 | 11.3 | 0.00 | 0.03 | 0.00 | 998.8 | |
| 20260506015153 | -17 | 225 | 4.8 | 11.3 | 0.00 | 0.03 | 0.00 | 998.8 | |
| 20260506015133 | -17 | 180 | 4.8 | 11.3 | 0.00 | 0.03 | 0.00 | 998.8 | |
| 20260506015113 | -17 | 135 | 6.4 | 11.3 | 0.00 | 0.03 | 0.00 | 998.9 | |
| 20260506015103 | -17 | 225 | 6.4 | 11.3 | 0.00 | 0.03 | 0.00 | 998.8 | |
| 20260506015053 | -17 | 225 | 4.8 | 11.3 | 0.00 | 0.03 | 0.00 | 998.8 | |
| 20260506015043 | -17 | 180 | 4.8 | 11.3 | 0.00 | 0.03 | 0.00 | 998.9 | |
| 20260506015023 | -17 | 225 | 3.2 | 11.3 | 0.00 | 0.03 | 0.00 | 998.8 | |
| 20260506015013 | -17 | 225 | 3.2 | 11.3 | 0.00 | 0.03 | 0.00 | 998.9 | |
| 20260506015003 | -17 | 203 | 3.2 | 11.3 | 0.00 | 0.03 | 0.00 | 998.9 | |
| 20260506014923 | -17 | 225 | 3.2 | 11.3 | 0.00 | 0.03 | 0.00 | 998.9 | |
| 20260506014913 | -17 | 225 | 4.8 | 11.3 | 0.00 | 0.03 | 0.00 | 998.9 | |
| 20260506014853 | -17 | 180 | 4.8 | 11.3 | 0.00 | 0.03 | 0.00 | 998.9 | |
| 20260506014833 | -17 | 225 | 4.8 | 11.3 | 0.00 | 0.03 | 0.00 | 998.9 | |
| 20260506014823 | -17 | 225 | 4.8 | 12.9 | 0.00 | 0.03 | 0.00 | 998.9 | |
| 20260506014813 | -17 | 180 | 4.8 | 12.9 | 0.00 | 0.03 | 0.00 | 998.9 | |
| 20260506014803 | -17 | 225 | 6.4 | 12.9 | 0.00 | 0.03 | 0.00 | 998.9 | |
| 20260506014733 | -17 | 180 | 6.4 | 12.9 | 0.00 | 0.03 | 0.00 | 998.9 | |
| 20260506014723 | -17 | 225 | 6.4 | 12.9 | 0.00 | 0.03 | 0.00 | 998.9 | |
| 20260506014653 | -17 | 180 | 6.4 | 12.9 | 0.00 | 0.03 | 0.00 | 999.0 | |
| 20260506014633 | -17 | 225 | 6.4 | 12.9 | 0.00 | 0.03 | 0.00 | 999.0 | |
| 20260506014623 | 13 | 225 | 6.4 | 12.9 | 0.00 | 0.03 | 0.00 | 76 | 998.9 |
| 20260506014613 | -17 | 180 | 6.4 | 12.9 | 0.00 | 0.03 | 0.00 | 999.0 | |
| 20260506014543 | -17 | 225 | 6.4 | 12.9 | 0.00 | 0.03 | 0.00 | 999.0 | |
| 20260506014533 | -17 | 203 | 6.4 | 12.9 | 0.00 | 0.03 | 0.00 | 999.0 | |
| 20260506014504 | -17 | 225 | 6.4 | 12.9 | 0.00 | 0.03 | 0.00 | 999.0 | |
| 20260506014453 | -17 | 180 | 6.4 | 12.9 | 0.00 | 0.03 | 0.00 | 999.0 | |
| 20260506014434 | -17 | 225 | 4.8 | 12.9 | 0.00 | 0.03 | 0.00 | 999.0 | |
| 20260506014424 | -17 | 225 | 6.4 | 12.9 | 0.00 | 0.03 | 0.00 | 999.0 | |
| 20260506014404 | -17 | 180 | 6.4 | 12.9 | 0.00 | 0.03 | 0.00 | 999.0 | |
| 20260506014354 | -17 | 225 | 6.4 | 12.9 | 0.00 | 0.03 | 0.00 | 999.1 | |
| 20260506014344 | -17 | 225 | 6.4 | 12.9 | 0.00 | 0.03 | 0.00 | 999.0 | |
| 20260506014314 | -17 | 180 | 6.4 | 12.9 | 0.00 | 0.03 | 0.00 | 999.0 | |
| 20260506014304 | -17 | 203 | 6.4 | 12.9 | 0.00 | 0.03 | 0.00 | 999.0 | |
| 20260506014244 | -17 | 225 | 6.4 | 12.9 | 0.00 | 0.03 | 0.00 | 999.0 | |
| 20260506014234 | -17 | 180 | 6.4 | 12.9 | 0.00 | 0.03 | 0.00 | 999.0 | |
| 20260506014204 | -17 | 225 | 6.4 | 12.9 | 0.00 | 0.03 | 0.00 | 999.0 | |
| 20260506014154 | -17 | 225 | 6.4 | 12.9 | 0.00 | 0.03 | 0.00 | 999.1 | |
| 20260506014144 | -17 | 203 | 6.4 | 12.9 | 0.00 | 0.03 | 0.00 | 999.0 | |
| 20260506014134 | -17 | 180 | 6.4 | 12.9 | 0.00 | 0.03 | 0.00 | 999.1 | |
| 20260506014114 | -17 | 180 | 6.4 | 8.0 | 0.00 | 0.03 | 0.00 | 999.0 | |
| 20260506014104 | -17 | 180 | 4.8 | 8.0 | 0.00 | 0.03 | 0.00 | 999.1 | |
| 20260506014044 | -17 | 270 | 3.2 | 8.0 | 0.00 | 0.03 | 0.00 | 999.0 | |
| 20260506014034 | -17 | 180 | 3.2 | 8.0 | 0.00 | 0.03 | 0.00 | 999.0 | |
| 20260506014024 | -17 | 225 | 3.2 | 8.0 | 0.00 | 0.03 | 0.00 | 999.0 | |
| 20260506014014 | -17 | 225 | 3.2 | 8.0 | 0.00 | 0.03 | 0.00 | 999.1 | |
| 20260506014004 | -17 | 203 | 3.2 | 8.0 | 0.00 | 0.03 | 0.00 | 999.0 | |
| 20260506013954 | -17 | 203 | 1.6 | 8.0 | 0.00 | 0.03 | 0.00 | 999.0 | |
| 20260506013914 | -17 | 225 | 3.2 | 8.0 | 0.00 | 0.03 | 0.00 | 999.1 | |
| 20260506013904 | -17 | 225 | 3.2 | 8.0 | 0.00 | 0.03 | 0.00 | 999.0 | |
| 20260506013844 | -17 | 180 | 3.2 | 8.0 | 0.00 | 0.03 | 0.00 | 999.0 | |
| 20260506013834 | -17 | 225 | 3.2 | 8.0 | 0.00 | 0.03 | 0.00 | 999.1 | |
| 20260506013824 | -17 | 203 | 3.2 | 8.0 | 0.00 | 0.03 | 0.00 | 999.0 | |
| 20260506013814 | -17 | 225 | 3.2 | 11.3 | 0.00 | 0.03 | 0.00 | 999.1 | |
| 20260506013804 | -17 | 180 | 3.2 | 11.3 | 0.00 | 0.03 | 0.00 | 999.1 | |
| 20260506013744 | -17 | 225 | 3.2 | 11.3 | 0.00 | 0.03 | 0.00 | 999.0 | |
| 20260506013735 | -17 | 203 | 3.2 | 11.3 | 0.00 | 0.03 | 0.00 | 999.0 | |
| 20260506013725 | -17 | 225 | 3.2 | 11.3 | 0.00 | 0.03 | 0.00 | 999.1 | |
| 20260506013655 | -17 | 225 | 3.2 | 11.3 | 0.00 | 0.03 | 0.00 | 999.0 | |
| 20260506013645 | -17 | 225 | 3.2 | 11.3 | 0.00 | 0.03 | 0.00 | 999.1 | |
| 20260506013605 | -17 | 225 | 3.2 | 11.3 | 0.00 | 0.03 | 0.00 | 999.1 | |
| 20260506013555 | -17 | 225 | 1.6 | 11.3 | 0.00 | 0.03 | 0.00 | 999.1 | |
| 20260506013545 | -17 | 225 | 1.6 | 11.3 | 0.00 | 0.03 | 0.00 | 999.0 | |
| 20260506013515 | -17 | 225 | 1.6 | 11.3 | 0.00 | 0.03 | 0.00 | 999.1 | |
| 20260506013505 | -17 | 225 | 3.2 | 11.3 | 0.00 | 0.03 | 0.00 | 999.1 | |
| 20260506013445 | -17 | 225 | 3.2 | 11.3 | 0.00 | 0.03 | 0.00 | 999.0 | |
| 20260506013435 | -17 | 203 | 3.2 | 11.3 | 0.00 | 0.03 | 0.00 | 999.1 | |
| 20260506013405 | -17 | 225 | 3.2 | 11.3 | 0.00 | 0.03 | 0.00 | 999.1 | |
| 20260506013355 | -17 | 180 | 3.2 | 11.3 | 0.00 | 0.03 | 0.00 | 999.0 | |
| 20260506013325 | -17 | 225 | 3.2 | 11.3 | 0.00 | 0.03 | 0.00 | 999.1 | |
| 20260506013245 | -17 | 225 | 3.2 | 8.0 | 0.00 | 0.03 | 0.00 | 999.1 | |
| 20260506013205 | -17 | 225 | 3.2 | 8.0 | 0.00 | 0.03 | 0.00 | 999.1 | |
| 20260506013155 | -17 | 225 | 3.2 | 9.7 | 0.00 | 0.03 | 0.00 | 999.0 | |
| 20260506013145 | -17 | 158 | 3.2 | 9.7 | 0.00 | 0.03 | 0.00 | 999.1 | |
| 20260506013135 | -17 | 270 | 3.2 | 9.7 | 0.00 | 0.03 | 0.00 | 999.1 | |
| 20260506013125 | -17 | 225 | 3.2 | 11.3 | 0.00 | 0.03 | 0.00 | 999.1 | |
| 20260506013055 | -17 | 180 | 3.2 | 11.3 | 0.00 | 0.03 | 0.00 | 999.0 | |
| 20260506013045 | -17 | 225 | 3.2 | 11.3 | 0.00 | 0.03 | 0.00 | 999.1 | |
| 20260506013025 | -17 | 225 | 3.2 | 11.3 | 0.00 | 0.03 | 0.00 | 999.0 | |
| 20260506013015 | -17 | 180 | 3.2 | 11.3 | 0.00 | 0.03 | 0.00 | 999.1 | |
| 20260506013005 | -17 | 225 | 3.2 | 12.9 | 0.00 | 0.03 | 0.00 | 999.1 | |
| 20260506012956 | -17 | 180 | 3.2 | 12.9 | 0.00 | 0.03 | 0.00 | 999.1 | |
| 20260506012926 | -17 | 225 | 3.2 | 12.9 | 0.00 | 0.03 | 0.00 | 999.1 | |
| 20260506012916 | -17 | 225 | 3.2 | 12.9 | 0.00 | 0.03 | 0.00 | 999.0 | |
| 20260506012856 | -17 | 203 | 3.2 | 12.9 | 0.00 | 0.03 | 0.00 | 999.0 | |
| 20260506012836 | -17 | 225 | 3.2 | 12.9 | 0.00 | 0.03 | 0.00 | 999.1 | |
| 20260506012826 | -17 | 225 | 3.2 | 12.9 | 0.00 | 0.03 | 0.00 | 999.0 | |
| 20260506012816 | -17 | 225 | 3.2 | 12.9 | 0.00 | 0.03 | 0.00 | 999.2 | |
| 20260506012746 | -17 | 225 | 3.2 | 12.9 | 0.00 | 0.03 | 0.00 | 999.0 | |
| 20260506012736 | -17 | 225 | 3.2 | 12.9 | 0.00 | 0.03 | 0.00 | 999.1 | |
| 20260506012726 | -17 | 225 | 4.8 | 12.9 | 0.00 | 0.03 | 0.00 | 999.1 | |
| 20260506012706 | -17 | 225 | 4.8 | 12.9 | 0.00 | 0.03 | 0.00 | 999.0 | |
| 20260506012656 | -17 | 203 | 4.8 | 12.9 | 0.00 | 0.03 | 0.00 | 999.1 | |
| 20260506012646 | -17 | 270 | 4.8 | 12.9 | 0.00 | 0.03 | 0.00 | 999.0 | |
| 20260506012626 | -17 | 203 | 3.2 | 12.9 | 0.00 | 0.03 | 0.00 | 999.0 | |
| 20260506012616 | -17 | 180 | 3.2 | 12.9 | 0.00 | 0.03 | 0.00 | 999.1 | |
| 20260506012606 | -17 | 225 | 4.8 | 12.9 | 0.00 | 0.03 | 0.00 | 999.0 | |
| 20260506012536 | -17 | 225 | 6.4 | 12.9 | 0.00 | 0.03 | 0.00 | 999.0 | |
| 20260506012526 | -17 | 225 | 6.4 | 12.9 | 0.00 | 0.03 | 0.00 | 999.1 | |
| 20260506012506 | -17 | 225 | 4.8 | 12.9 | 0.00 | 0.03 | 0.00 | 999.1 | |
| 20260506012456 | -17 | 225 | 3.2 | 11.3 | 0.00 | 0.03 | 0.00 | 999.1 | |
| 20260506012446 | -17 | 225 | 3.2 | 11.3 | 0.00 | 0.03 | 0.00 | 999.0 | |
| 20260506012426 | -17 | 225 | 4.8 | 11.3 | 0.00 | 0.03 | 0.00 | 999.1 | |
| 20260506012346 | -17 | 225 | 4.8 | 11.3 | 0.00 | 0.03 | 0.00 | 999.1 | |
| 20260506012336 | -17 | 225 | 3.2 | 8.0 | 0.00 | 0.03 | 0.00 | 999.1 | |
| 20260506012316 | -17 | 225 | 4.8 | 9.7 | 0.00 | 0.03 | 0.00 | 999.1 | |
| 20260506012247 | -17 | 225 | 3.2 | 12.9 | 0.00 | 0.03 | 0.00 | 999.1 | |
| 20260506012237 | -17 | 225 | 4.8 | 12.9 | 0.00 | 0.03 | 0.00 | 999.1 | |
| 20260506012217 | -17 | 225 | 3.2 | 12.9 | 0.00 | 0.03 | 0.00 | 999.0 | |
| 20260506012157 | -17 | 225 | 3.2 | 12.9 | 0.00 | 0.03 | 0.00 | 999.1 | |
| 20260506012127 | -17 | 225 | 3.2 | 12.9 | 0.00 | 0.03 | 0.00 | 999.0 | |
| 20260506012117 | -17 | 225 | 3.2 | 12.9 | 0.00 | 0.03 | 0.00 | 999.1 | |
| 20260506012057 | -17 | 180 | 3.2 | 12.9 | 0.00 | 0.03 | 0.00 | 999.0 | |
| 20260506012047 | -17 | 225 | 3.2 | 12.9 | 0.00 | 0.03 | 0.00 | 999.0 | |
| 20260506012007 | -17 | 225 | 3.2 | 12.9 | 0.00 | 0.03 | 0.00 | 999.0 | |
| 20260506011947 | -17 | 180 | 3.2 | 12.9 | 0.00 | 0.03 | 0.00 | 999.0 | |
| 20260506011927 | -17 | 225 | 3.2 | 12.9 | 0.00 | 0.03 | 0.00 | 999.0 | |
| 20260506011917 | -17 | 225 | 4.8 | 12.9 | 0.00 | 0.03 | 0.00 | 999.0 | |
| 20260506011907 | -17 | 225 | 4.8 | 12.9 | 0.00 | 0.03 | 0.00 | ||
| 20260506011837 | -17 | 225 | 6.4 | 12.9 | 0.00 | 0.03 | 0.00 | 999.0 | |
| 20260506011827 | -17 | 180 | 6.4 | 12.9 | 0.00 | 0.03 | 0.00 | 999.0 | |
| 20260506011757 | -17 | 203 | 6.4 | 12.9 | 0.00 | 0.03 | 0.00 | 999.0 | |
| 20260506011747 | -17 | 225 | 6.4 | 12.9 | 0.00 | 0.03 | 0.00 | 998.9 | |
| 20260506011737 | -17 | 180 | 6.4 | 12.9 | 0.00 | 0.03 | 0.00 | 999.0 | |
| 20260506011727 | -17 | 225 | 6.4 | 11.3 | 0.00 | 0.03 | 0.00 | 998.9 | |
| 20260506011717 | -17 | 180 | 4.8 | 11.3 | 0.00 | 0.03 | 0.00 | 998.9 | |
| 20260506011707 | -17 | 225 | 4.8 | 11.3 | 0.00 | 0.03 | 0.00 | 999.0 | |
| 20260506011657 | -17 | 203 | 4.8 | 11.3 | 0.00 | 0.03 | 0.00 | 998.9 | |
| 20260506011647 | -17 | 225 | 4.8 | 11.3 | 0.00 | 0.03 | 0.00 | 998.9 | |
| 20260506011627 | -17 | 225 | 3.2 | 11.3 | 0.00 | 0.03 | 0.00 | 998.9 | |
| 20260506011607 | -17 | 225 | 3.2 | 11.3 | 0.00 | 0.03 | 0.00 | 999.0 | |
| 20260506011557 | -17 | 180 | 3.2 | 11.3 | 0.00 | 0.03 | 0.00 | 998.9 | |
| 20260506011528 | -17 | 225 | 3.2 | 11.3 | 0.00 | 0.03 | 0.00 | 999.0 | |
| 20260506011508 | -17 | 203 | 4.8 | 11.3 | 0.00 | 0.03 | 0.00 | 999.0 | |
| 20260506011458 | -17 | 225 | 4.8 | 11.3 | 0.00 | 0.03 | 0.00 | 999.0 | |
| 20260506011448 | -17 | 225 | 4.8 | 11.3 | 0.00 | 0.03 | 0.00 | 998.9 | |
| 20260506011418 | -17 | 180 | 4.8 | 11.3 | 0.00 | 0.03 | 0.00 | 999.0 | |
| 20260506011408 | -17 | 225 | 4.8 | 11.3 | 0.00 | 0.03 | 0.00 | 999.0 | |
| 20260506011358 | -17 | 225 | 4.8 | 12.9 | 0.00 | 0.03 | 0.00 | 999.0 | |
| 20260506011348 | -17 | 180 | 4.8 | 12.9 | 0.00 | 0.03 | 0.00 | 999.0 | |
| 20260506011318 | -17 | 225 | 6.4 | 12.9 | 0.00 | 0.03 | 0.00 | 998.9 | |
| 20260506011308 | -17 | 225 | 6.4 | 12.9 | 0.00 | 0.03 | 0.00 | 999.0 | |
| 20260506011258 | -17 | 203 | 6.4 | 12.9 | 0.00 | 0.03 | 0.00 | 999.0 | |
| 20260506011248 | -17 | 180 | 6.4 | 12.9 | 0.00 | 0.03 | 0.00 | 999.0 | |
| 20260506011238 | -17 | 203 | 4.8 | 12.9 | 0.00 | 0.03 | 0.00 | 999.0 | |
| 20260506011228 | -17 | 158 | 3.2 | 12.9 | 0.00 | 0.03 | 0.00 | 999.0 | |
| 20260506011218 | -17 | 203 | 3.2 | 12.9 | 0.00 | 0.03 | 0.00 | 999.0 | |
| 20260506011208 | -17 | 225 | 3.2 | 12.9 | 0.00 | 0.03 | 0.00 | 999.0 | |
| 20260506011158 | -17 | 270 | 3.2 | 12.9 | 0.00 | 0.03 | 0.00 | 999.0 | |
| 20260506011128 | -17 | 225 | 3.2 | 12.9 | 0.00 | 0.03 | 0.00 | 999.0 | |
| 20260506011108 | -17 | 225 | 3.2 | 12.9 | 0.00 | 0.03 | 0.00 | 999.1 | |
| 20260506011048 | -17 | 225 | 3.2 | 12.9 | 0.00 | 0.03 | 0.00 | 999.0 | |
| 20260506011018 | -17 | 203 | 3.2 | 12.9 | 0.00 | 0.03 | 0.00 | 999.0 | |
| 20260506010958 | -17 | 225 | 3.2 | 12.9 | 0.00 | 0.03 | 0.00 | 999.0 | |
| 20260506010918 | -17 | 225 | 4.8 | 12.9 | 0.00 | 0.03 | 0.00 | 999.0 | |
| 20260506010908 | -17 | 225 | 3.2 | 12.9 | 0.00 | 0.03 | 0.00 | 999.0 | |
| 20260506010858 | -17 | 203 | 3.2 | 12.9 | 0.00 | 0.03 | 0.00 | 999.0 | |
| 20260506010838 | -17 | 225 | 4.8 | 12.9 | 0.00 | 0.03 | 0.00 | 999.0 | |
| 20260506010828 | -17 | 225 | 3.2 | 12.9 | 0.00 | 0.03 | 0.00 | 999.0 | |
| 20260506010819 | -17 | 225 | 3.2 | 12.9 | 0.00 | 0.03 | 0.00 | 998.9 | |
| 20260506010759 | -17 | 225 | 4.8 | 12.9 | 0.00 | 0.03 | 0.00 | 999.0 | |
| 20260506010749 | -17 | 225 | 3.2 | 12.9 | 0.00 | 0.03 | 0.00 | 999.0 | |
| 20260506010709 | -17 | 225 | 4.8 | 12.9 | 0.00 | 0.03 | 0.00 | 999.0 | |
| 20260506010649 | -17 | 180 | 4.8 | 12.9 | 0.00 | 0.03 | 0.00 | 999.0 | |
| 20260506010639 | -17 | 225 | 4.8 | 11.3 | 0.00 | 0.03 | 0.00 | 999.0 | |
| 20260506010609 | -17 | 225 | 3.2 | 11.3 | 0.00 | 0.03 | 0.00 | 999.0 | |
| 20260506010549 | -17 | 203 | 3.2 | 11.3 | 0.00 | 0.03 | 0.00 | 999.0 | |
| 20260506010539 | -17 | 180 | 3.2 | 11.3 | 0.00 | 0.03 | 0.00 | 999.0 | |
| 20260506010529 | -17 | 225 | 3.2 | 11.3 | 0.00 | 0.03 | 0.00 | 999.0 | |
| 20260506010449 | -17 | 225 | 3.2 | 11.3 | 0.00 | 0.03 | 0.00 | 999.0 | |
| 20260506010409 | -17 | 225 | 3.2 | 11.3 | 0.00 | 0.03 | 0.00 | 999.0 | |
| 20260506010329 | -17 | 225 | 3.2 | 11.3 | 0.00 | 0.03 | 0.00 | 999.0 | |
| 20260506010259 | -17 | 225 | 4.8 | 11.3 | 0.00 | 0.03 | 0.00 | 999.0 | |
| 20260506010219 | -17 | 225 | 3.2 | 9.7 | 0.00 | 0.03 | 0.00 | 999.0 | |
| 20260506010159 | -17 | 225 | 3.2 | 9.7 | 0.00 | 0.03 | 0.00 | 998.9 | |
| 20260506010129 | -17 | 225 | 3.2 | 9.7 | 0.00 | 0.03 | 0.00 | 999.0 | |
| 20260506010120 | -17 | 225 | 3.2 | 9.7 | 0.00 | 0.03 | 0.00 | 998.9 | |
| 20260506010100 | -17 | 225 | 4.8 | 9.7 | 0.00 | 0.03 | 0.00 | 999.0 | |
| 20260506010050 | -17 | 225 | 3.2 | 9.7 | 0.00 | 0.03 | 0.00 | 999.0 | |
| 20260506010010 | -17 | 225 | 3.2 | 9.7 | 0.00 | 0.03 | 0.00 | 999.0 | |
| 20260506010000 | -17 | 180 | 4.8 | 9.7 | 0.00 | 0.03 | 0.00 | 999.0 | |
| 20260506005930 | -17 | 225 | 4.8 | 9.7 | 0.00 | 0.03 | 0.00 | 999.0 | |
| 20260506005910 | -17 | 225 | 3.2 | 11.3 | 0.00 | 0.03 | 0.00 | 999.0 | |
| 20260506005850 | -17 | 270 | 3.2 | 11.3 | 0.00 | 0.03 | 0.00 | 999.0 | |
| 20260506005840 | -17 | 225 | 4.8 | 11.3 | 0.00 | 0.03 | 0.00 | 999.0 | |
| 20260506005830 | -17 | 225 | 3.2 | 11.3 | 0.00 | 0.03 | 0.00 | 999.0 | |
| 20260506005820 | -17 | 180 | 3.2 | 11.3 | 0.00 | 0.03 | 0.00 | 998.9 | |
| 20260506005750 | -17 | 225 | 3.2 | 11.3 | 0.00 | 0.03 | 0.00 | 999.0 | |
| 20260506005710 | -17 | 225 | 3.2 | 11.3 | 0.00 | 0.03 | 0.00 | 999.0 | |
| 20260506005640 | -17 | 225 | 3.2 | 11.3 | 0.00 | 0.03 | 0.00 | 998.9 | |
| 20260506005620 | -17 | 225 | 3.2 | 11.3 | 0.00 | 0.03 | 0.00 | 999.0 | |
| 20260506005600 | -17 | 225 | 4.8 | 11.3 | 0.00 | 0.03 | 0.00 | 999.0 | |
| 20260506005550 | -17 | 225 | 4.8 | 11.3 | 0.00 | 0.03 | 0.00 | 998.9 | |
| 20260506005510 | -17 | 225 | 4.8 | 11.3 | 0.00 | 0.03 | 0.00 | 999.0 | |
| 20260506005500 | -17 | 225 | 4.8 | 11.3 | 0.00 | 0.03 | 0.00 | 998.9 | |
| 20260506005440 | -17 | 225 | 3.2 | 11.3 | 0.00 | 0.03 | 0.00 | 999.0 | |
| 20260506005430 | -17 | 225 | 3.2 | 11.3 | 0.00 | 0.03 | 0.00 | 998.9 | |
| 20260506005411 | -17 | 225 | 3.2 | 8.0 | 0.00 | 0.03 | 0.00 | 999.0 | |
| 20260506005331 | -17 | 225 | 3.2 | 8.0 | 0.00 | 0.03 | 0.00 | 999.0 | |
| 20260506005301 | -17 | 225 | 4.8 | 8.0 | 0.00 | 0.03 | 0.00 | 999.0 | |
| 20260506005251 | -17 | 225 | 3.2 | 8.0 | 0.00 | 0.03 | 0.00 | ||
| 20260506005241 | -17 | 225 | 3.2 | 8.0 | 0.00 | 0.03 | 0.00 | 999.0 | |
| 20260506005221 | -17 | 225 | 3.2 | 8.0 | 0.00 | 0.03 | 0.00 | 999.1 | |
| 20260506005201 | -17 | 225 | 3.2 | 8.0 | 0.00 | 0.03 | 0.00 | 999.0 | |
| 20260506005121 | -17 | 225 | 3.2 | 8.0 | 0.00 | 0.03 | 0.00 | 999.0 | |
| 20260506005111 | -17 | 225 | 4.8 | 8.0 | 0.00 | 0.03 | 0.00 | 999.0 | |
| 20260506005031 | -17 | 225 | 4.8 | 8.0 | 0.00 | 0.03 | 0.00 | 999.0 | |
| 20260506005021 | -17 | 225 | 3.2 | 8.0 | 0.00 | 0.03 | 0.00 | 999.0 | |
| 20260506005011 | -17 | 225 | 4.8 | 8.0 | 0.00 | 0.03 | 0.00 | 999.1 | |
| 20260506004951 | -17 | 225 | 4.8 | 8.0 | 0.00 | 0.03 | 0.00 | 999.0 | |
| 20260506004941 | -17 | 225 | 3.2 | 8.0 | 0.00 | 0.03 | 0.00 | 999.0 | |
| 20260506004931 | -17 | 203 | 3.2 | 8.0 | 0.00 | 0.03 | 0.00 | 999.0 | |
| 20260506004921 | -17 | 225 | 3.2 | 8.0 | 0.00 | 0.03 | 0.00 | 807.0 | |
| 20260506004901 | -17 | 225 | 3.2 | 8.0 | 0.00 | 0.03 | 0.00 | 999.0 | |
| 20260506004841 | 13 | 225 | 1.6 | 8.0 | 0.00 | 0.03 | 0.00 | 77 | 999.1 |
| 20260506004821 | -17 | 225 | 3.2 | 8.0 | 0.00 | 0.03 | 0.00 | 999.0 | |
| 20260506004741 | -17 | 225 | 3.2 | 8.0 | 0.00 | 0.03 | 0.00 | 999.0 | |
| 20260506004702 | -17 | 225 | 3.2 | 8.0 | 0.00 | 0.03 | 0.00 | 999.0 | |
| 20260506004652 | -17 | 225 | 4.8 | 8.0 | 0.00 | 0.03 | 0.00 | 999.0 | |
| 20260506004632 | -17 | 225 | 4.8 | 8.0 | 0.00 | 0.03 | 0.00 | 999.1 | |
| 20260506004622 | -17 | 225 | 3.2 | 8.0 | 0.00 | 0.03 | 0.00 | 999.1 | |
| 20260506004542 | -17 | 225 | 3.2 | 8.0 | 0.00 | 0.03 | 0.00 | 999.0 | |
| 20260506004522 | -17 | 225 | 4.8 | 8.0 | 0.00 | 0.03 | 0.00 | 999.1 | |
| 20260506004502 | -17 | 225 | 4.8 | 8.0 | 0.00 | 0.03 | 0.00 | 999.0 | |
| 20260506004452 | -17 | 225 | 4.8 | 9.7 | 0.00 | 0.03 | 0.00 | 999.0 | |
| 20260506004442 | -17 | 225 | 6.4 | 12.9 | 0.00 | 0.03 | 0.00 | 999.1 | |
| 20260506004422 | -17 | 225 | 6.4 | 12.9 | 0.00 | 0.03 | 0.00 | 999.0 | |
| 20260506004402 | -17 | 225 | 6.4 | 12.9 | 0.00 | 0.03 | 0.00 | 999.1 | |
| 20260506004342 | -17 | 225 | 6.4 | 12.9 | 0.00 | 0.03 | 0.00 | 999.0 | |
| 20260506004302 | -17 | 225 | 6.4 | 12.9 | 0.00 | 0.03 | 0.00 | 999.0 | |
| 20260506004242 | -17 | 225 | 6.4 | 12.9 | 0.00 | 0.03 | 0.00 | 999.1 | |
| 20260506004222 | -17 | 225 | 6.4 | 12.9 | 0.00 | 0.03 | 0.00 | 999.0 | |
| 20260506004212 | -17 | 225 | 4.8 | 12.9 | 0.00 | 0.03 | 0.00 | 999.1 | |
| 20260506004202 | -17 | 225 | 6.4 | 12.9 | 0.00 | 0.03 | 0.00 | 999.1 | |
| 20260506004132 | -17 | 225 | 6.4 | 12.9 | 0.00 | 0.03 | 0.00 | 999.0 | |
| 20260506004052 | -17 | 225 | 6.4 | 12.9 | 0.00 | 0.03 | 0.00 | 999.0 | |
| 20260506004013 | -17 | 225 | 6.4 | 12.9 | 0.00 | 0.03 | 0.00 | 999.0 | |
| 20260506003953 | -17 | 225 | 8.0 | 12.9 | 0.00 | 0.03 | 0.00 | 999.0 | |
| 20260506003943 | -17 | 248 | 6.4 | 12.9 | 0.00 | 0.03 | 0.00 | 999.0 | |
| 20260506003923 | -17 | 270 | 6.4 | 12.9 | 0.00 | 0.03 | 0.00 | 999.0 | |
| 20260506003913 | -17 | 225 | 6.4 | 12.9 | 0.00 | 0.03 | 0.00 | 999.0 | |
| 20260506003833 | -17 | 225 | 6.4 | 12.9 | 0.00 | 0.03 | 0.00 | 999.0 | |
| 20260506003753 | -17 | 225 | 6.4 | 12.9 | 0.00 | 0.03 | 0.00 | 999.0 | |
| 20260506003713 | -17 | 225 | 8.0 | 12.9 | 0.00 | 0.03 | 0.00 | 999.0 | |
| 20260506003633 | -17 | 225 | 8.0 | 12.9 | 0.00 | 0.03 | 0.00 | 999.0 | |
| 20260506003623 | -17 | 225 | 6.4 | 12.9 | 0.00 | 0.03 | 0.00 | 999.0 | |
| 20260506003613 | -17 | 225 | 6.4 | 11.3 | 0.00 | 0.03 | 0.00 | 999.0 | |
| 20260506003553 | -17 | 225 | 6.4 | 8.0 | 0.00 | 0.03 | 0.00 | 998.9 | |
| 20260506003543 | -17 | 225 | 6.4 | 8.0 | 0.00 | 0.03 | 0.00 | 999.0 | |
| 20260506003503 | -17 | 225 | 6.4 | 8.0 | 0.00 | 0.03 | 0.00 | 998.9 | |
| 20260506003423 | -17 | 225 | 6.4 | 8.0 | 0.00 | 0.03 | 0.00 | 999.0 | |
| 20260506003413 | -17 | 225 | 6.4 | 8.0 | 0.00 | 0.03 | 0.00 | 998.9 | |
| 20260506003343 | -17 | 225 | 4.8 | 8.0 | 0.00 | 0.03 | 0.00 | 998.9 | |
| 20260506003304 | -17 | 225 | 4.8 | 8.0 | 0.00 | 0.03 | 0.00 | 998.9 | |
| 20260506003254 | -17 | 225 | 4.8 | 8.0 | 0.00 | 0.03 | 0.00 | 999.0 | |
| 20260506003214 | -17 | 225 | 3.2 | 8.0 | 0.00 | 0.03 | 0.00 | 998.9 | |
| 20260506003204 | -17 | 225 | 3.2 | 8.0 | 0.00 | 0.03 | 0.00 | 999.0 | |
| 20260506003124 | -17 | 225 | 3.2 | 8.0 | 0.00 | 0.03 | 0.00 | 999.0 | |
| 20260506003114 | -17 | 225 | 3.2 | 6.4 | 0.00 | 0.03 | 0.00 | 998.9 | |
| 20260506003044 | -17 | 225 | 3.2 | 6.4 | 0.00 | 0.03 | 0.00 | 999.0 | |
| 20260506003004 | -17 | 225 | 3.2 | 6.4 | 0.00 | 0.03 | 0.00 | 999.0 | |
| 20260506002924 | -17 | 225 | 3.2 | 6.4 | 0.00 | 0.03 | 0.00 | 999.0 | |
| 20260506002844 | -17 | 225 | 1.6 | 6.4 | 0.00 | 0.03 | 0.00 | 999.0 | |
| 20260506002804 | -17 | 225 | 1.6 | 6.4 | 0.00 | 0.03 | 0.00 | 999.0 | |
| 20260506002734 | -17 | 203 | 1.6 | 6.4 | 0.00 | 0.03 | 0.00 | 999.0 | |
| 20260506002724 | -17 | 225 | 1.6 | 6.4 | 0.00 | 0.03 | 0.00 | 999.0 | |
| 20260506002645 | -17 | 225 | 1.6 | 6.4 | 0.00 | 0.03 | 0.00 | 999.0 | |
| 20260506002635 | -17 | 225 | 3.2 | 6.4 | 0.00 | 0.03 | 0.00 | 999.0 | |
| 20260506002555 | -17 | 225 | 3.2 | 6.4 | 0.00 | 0.03 | 0.00 | 999.0 | |
| 20260506002545 | -17 | 225 | 1.6 | 6.4 | 0.00 | 0.03 | 0.00 | 999.0 | |
| 20260506002535 | -17 | 203 | 1.6 | 4.8 | 0.00 | 0.03 | 0.00 | 999.0 | |
| 20260506002515 | -17 | 225 | 1.6 | 3.2 | 0.00 | 0.03 | 0.00 | 999.0 | |
| 20260506002435 | -17 | 225 | 1.6 | 3.2 | 0.00 | 0.03 | 0.00 | 999.0 | |
| 20260506002415 | -17 | 225 | 0.0 | 3.2 | 0.00 | 0.03 | 0.00 | 999.0 | |
| 20260506002405 | -17 | 225 | 1.6 | 3.2 | 0.00 | 0.03 | 0.00 | 749.4 | |
| 20260506002325 | -17 | 225 | 1.6 | 3.2 | 0.00 | 0.03 | 0.00 | 999.0 | |
| 20260506002306 | -17 | 225 | 1.6 | 4.8 | 0.00 | 0.03 | 0.00 | 999.1 | |
| 20260506002245 | -17 | 225 | 1.6 | 4.8 | 0.00 | 0.03 | 0.00 | 999.0 | |
| 20260506002225 | -17 | 225 | 1.6 | 4.8 | 0.00 | 0.03 | 0.00 | 999.1 | |
| 20260506002155 | -17 | 225 | 1.6 | 4.8 | 0.00 | 0.03 | 0.00 | 999.0 | |
| 20260506002145 | -17 | 225 | 1.6 | 6.4 | 0.00 | 0.03 | 0.00 | 999.0 | |
| 20260506002105 | -17 | 225 | 1.6 | 6.4 | 0.00 | 0.03 | 0.00 | 999.0 | |
| 20260506002025 | -17 | 225 | 1.6 | 6.4 | 0.00 | 0.03 | 0.00 | 999.0 | |
| 20260506001946 | -17 | 225 | 1.6 | 6.4 | 0.00 | 0.03 | 0.00 | 999.0 | |
| 20260506001926 | -17 | 225 | 1.6 | 8.0 | 0.00 | 0.03 | 0.00 | 999.0 | |
| 20260506001916 | -17 | 225 | 3.2 | 8.0 | 0.00 | 0.03 | 0.00 | 999.0 | |
| 20260506001836 | -17 | 225 | 3.2 | 8.0 | 0.00 | 0.03 | 0.00 | 999.0 | |
| 20260506001756 | -17 | 225 | 3.2 | 8.0 | 0.00 | 0.03 | 0.00 | 999.0 | |
| 20260506001716 | -17 | 225 | 3.2 | 8.0 | 0.00 | 0.03 | 0.00 | 999.0 | |
| 20260506001636 | -17 | 225 | 3.2 | 8.0 | 0.00 | 0.03 | 0.00 | 999.0 | |
| 20260506001616 | -17 | 225 | 4.8 | 8.0 | 0.00 | 0.03 | 0.00 | 999.1 | |
| 20260506001536 | -17 | 225 | 4.8 | 8.0 | 0.00 | 0.03 | 0.00 | 999.1 | |
| 20260506001516 | -17 | 225 | 4.8 | 8.0 | 0.00 | 0.03 | 0.00 | 999.0 | |
| 20260506001456 | -17 | 225 | 4.8 | 8.0 | 0.00 | 0.03 | 0.00 | 999.1 | |
| 20260506001446 | -17 | 225 | 6.4 | 8.0 | 0.00 | 0.03 | 0.00 | 999.1 | |
| 20260506001406 | -17 | 225 | 6.4 | 8.0 | 0.00 | 0.03 | 0.00 | 999.1 | |
| 20260506001346 | -17 | 248 | 4.8 | 8.0 | 0.00 | 0.03 | 0.00 | 999.1 | |
| 20260506001336 | -17 | 225 | 4.8 | 8.0 | 0.00 | 0.03 | 0.00 | 999.1 | |
| 20260506001306 | -17 | 270 | 4.8 | 8.0 | 0.00 | 0.03 | 0.00 | 999.1 | |
| 20260506001247 | -17 | 225 | 4.8 | 8.0 | 0.00 | 0.03 | 0.00 | 999.1 | |
| 20260506001237 | -17 | 248 | 4.8 | 8.0 | 0.00 | 0.03 | 0.00 | 999.0 | |
| 20260506001207 | -17 | 270 | 4.8 | 8.0 | 0.00 | 0.03 | 0.00 | 999.0 | |
| 20260506001157 | -17 | 225 | 4.8 | 8.0 | 0.00 | 0.03 | 0.00 | 999.0 | |
| 20260506001147 | -17 | 270 | 4.8 | 8.0 | 0.00 | 0.03 | 0.00 | 999.1 | |
| 20260506001137 | -17 | 225 | 4.8 | 8.0 | 0.00 | 0.03 | 0.00 | 999.1 | |
| 20260506001117 | -17 | 225 | 4.8 | 11.3 | 0.00 | 0.03 | 0.00 | 999.0 | |
| 20260506001107 | -17 | 270 | 4.8 | 11.3 | 0.00 | 0.03 | 0.00 | 999.1 | |
| 20260506001037 | -17 | 270 | 3.2 | 11.3 | 0.00 | 0.03 | 0.00 | 999.1 | |
| 20260506001027 | -17 | 270 | 3.2 | 11.3 | 0.00 | 0.03 | 0.00 | 999.0 | |
| 20260506001007 | -17 | 270 | 4.8 | 11.3 | 0.00 | 0.03 | 0.00 | 999.1 | |
| 20260506000957 | -17 | 225 | 4.8 | 11.3 | 0.00 | 0.03 | 0.00 | 999.1 | |
| 20260506000937 | -17 | 270 | 6.4 | 11.3 | 0.00 | 0.03 | 0.00 | 999.1 | |
| 20260506000917 | -17 | 225 | 6.4 | 11.3 | 0.00 | 0.03 | 0.00 | 999.1 | |
| 20260506000907 | -17 | 248 | 6.4 | 11.3 | 0.00 | 0.03 | 0.00 | 999.1 | |
| 20260506000847 | -17 | 270 | 6.4 | 11.3 | 0.00 | 0.03 | 0.00 | 999.1 | |
| 20260506000837 | -17 | 225 | 6.4 | 11.3 | 0.00 | 0.03 | 0.00 | 999.1 | |
| 20260506000807 | -17 | 270 | 6.4 | 11.3 | 0.00 | 0.03 | 0.00 | 999.1 | |
| 20260506000747 | -17 | 248 | 6.4 | 11.3 | 0.00 | 0.03 | 0.00 | 999.1 | |
| 20260506000737 | -17 | 225 | 6.4 | 11.3 | 0.00 | 0.03 | 0.00 | 999.2 | |
| 20260506000727 | -17 | 225 | 6.4 | 11.3 | 0.00 | 0.03 | 0.00 | 999.1 | |
| 20260506000657 | -17 | 270 | 6.4 | 11.3 | 0.00 | 0.03 | 0.00 | 999.1 | |
| 20260506000647 | -17 | 225 | 6.4 | 11.3 | 0.00 | 0.03 | 0.00 | 999.1 | |
| 20260506000638 | -17 | 225 | 8.0 | 11.3 | 0.00 | 0.03 | 0.00 | 999.2 | |
| 20260506000628 | -17 | 270 | 8.0 | 11.3 | 0.00 | 0.03 | 0.00 | 999.1 | |
| 20260506000618 | -17 | 225 | 6.4 | 11.3 | 0.00 | 0.03 | 0.00 | 999.2 | |
| 20260506000608 | -17 | 225 | 6.4 | 11.3 | 0.00 | 0.03 | 0.00 | 999.1 | |
| 20260506000558 | -17 | 225 | 6.4 | 12.9 | 0.00 | 0.03 | 0.00 | 999.1 | |
| 20260506000538 | -17 | 270 | 6.4 | 14.5 | 0.00 | 0.03 | 0.00 | 999.1 | |
| 20260506000458 | -17 | 225 | 6.4 | 14.5 | 0.00 | 0.03 | 0.00 | 999.1 | |
| 20260506000438 | -17 | 248 | 6.4 | 14.5 | 0.00 | 0.03 | 0.00 | 999.1 | |
| 20260506000428 | -17 | 270 | 6.4 | 14.5 | 0.00 | 0.03 | 0.00 | 999.1 | |
| 20260506000348 | -17 | 225 | 6.4 | 14.5 | 0.00 | 0.03 | 0.00 | 999.1 | |
| 20260506000318 | -17 | 248 | 6.4 | 14.5 | 0.00 | 0.03 | 0.00 | 999.1 | |
| 20260506000309 | -17 | 225 | 6.4 | 14.5 | 0.00 | 0.03 | 0.00 | 999.1 | |
| 20260506000248 | -17 | 270 | 6.4 | 14.5 | 0.00 | 0.03 | 0.00 | 999.1 | |
| 20260506000208 | -17 | 225 | 6.4 | 17.7 | 0.00 | 0.03 | 0.00 | 999.1 | |
| 20260506000158 | -17 | 225 | 6.4 | 17.7 | 0.00 | 0.03 | 0.00 | 999.0 | |
| 20260506000148 | -17 | 225 | 8.0 | 17.7 | 0.00 | 0.03 | 0.00 | 999.1 | |
| 20260506000139 | -17 | 270 | 8.0 | 17.7 | 0.00 | 0.03 | 0.00 | 999.0 | |
| 20260506000128 | -17 | 225 | 8.0 | 17.7 | 0.00 | 0.03 | 0.00 | 999.0 | |
| 20260506000108 | -17 | 225 | 8.0 | 17.7 | 0.00 | 0.03 | 0.00 | 999.1 | |
| 20260506000048 | -17 | 270 | 6.4 | 17.7 | 0.00 | 0.03 | 0.00 | 999.1 | |
| 20260506000008 | -17 | 225 | 6.4 | 17.7 | 0.00 | 0.03 | 0.00 | 999.1 | |
| 20260505235959 | -17 | 293 | 6.4 | 17.7 | 0.00 | 0.03 | 0.00 | 999.1 | |
| 20260505235929 | -17 | 225 | 6.4 | 17.7 | 0.00 | 0.03 | 0.00 | 999.1 | |
| 20260505235919 | -17 | 225 | 6.4 | 17.7 | 0.00 | 0.03 | 0.00 | 999.2 | |
| 20260505235859 | -17 | 225 | 8.0 | 17.7 | 0.00 | 0.03 | 0.00 | 999.2 | |
| 20260505235849 | -17 | 225 | 9.7 | 17.7 | 0.00 | 0.03 | 0.00 | 999.2 | |
| 20260505235839 | -17 | 225 | 9.7 | 17.7 | 0.00 | 0.03 | 0.00 | 999.1 | |
| 20260505235809 | -17 | 225 | 9.7 | 17.7 | 0.00 | 0.03 | 0.00 | 999.2 | |
| 20260505235759 | -17 | 270 | 9.7 | 17.7 | 0.00 | 0.03 | 0.00 | 999.2 | |
| 20260505235749 | -17 | 270 | 9.7 | 17.7 | 0.00 | 0.03 | 0.00 | 999.1 | |
| 20260505235729 | -17 | 270 | 8.0 | 12.9 | 0.00 | 0.03 | 0.00 | 999.2 | |
| 20260505235709 | -17 | 270 | 6.4 | 12.9 | 0.00 | 0.03 | 0.00 | 999.1 | |
| 20260505235649 | -17 | 225 | 6.4 | 12.9 | 0.00 | 0.03 | 0.00 | 999.1 | |
| 20260505235629 | -17 | 225 | 4.8 | 12.9 | 0.00 | 0.03 | 0.00 | 999.1 | |
| 20260505235619 | -17 | 248 | 4.8 | 12.9 | 0.00 | 0.03 | 0.00 | 999.1 | |
| 20260505235559 | -17 | 225 | 3.2 | 12.9 | 0.00 | 0.03 | 0.00 | 999.1 | |
| 20260505235549 | -17 | 225 | 3.2 | 12.9 | 0.00 | 0.03 | 0.00 | 999.2 | |
| 20260505235539 | -17 | 225 | 4.8 | 12.9 | 0.00 | 0.03 | 0.00 | 999.1 | |
| 20260505235519 | -17 | 225 | 6.4 | 12.9 | 0.00 | 0.03 | 0.00 | 999.2 | |
| 20260505235509 | -17 | 225 | 6.4 | 12.9 | 0.00 | 0.03 | 0.00 | 999.1 | |
| 20260505235459 | -17 | 270 | 6.4 | 12.9 | 0.00 | 0.03 | 0.00 | 999.2 | |
| 20260505235449 | -17 | 225 | 8.0 | 12.9 | 0.00 | 0.03 | 0.00 | 999.2 | |
| 20260505235419 | -17 | 225 | 6.4 | 11.3 | 0.00 | 0.03 | 0.00 | 999.2 | |
| 20260505235409 | -17 | 225 | 4.8 | 8.0 | 0.00 | 0.03 | 0.00 | 999.2 | |
| 20260505235359 | -17 | 225 | 3.2 | 9.7 | 0.00 | 0.03 | 0.00 | 999.2 | |
| 20260505235349 | -17 | 225 | 3.2 | 11.3 | 0.00 | 0.03 | 0.00 | 999.1 | |
| 20260505235330 | -17 | 225 | 3.2 | 11.3 | 0.00 | 0.03 | 0.00 | 999.2 | |
| 20260505235320 | -17 | 225 | 4.8 | 11.3 | 0.00 | 0.03 | 0.00 | 999.2 | |
| 20260505235240 | -17 | 225 | 6.4 | 11.3 | 0.00 | 0.03 | 0.00 | 999.2 | |
| 20260505235230 | -17 | 225 | 6.4 | 11.3 | 0.00 | 0.03 | 0.00 | 999.3 | |
| 20260505235200 | -17 | 225 | 6.4 | 11.3 | 0.00 | 0.03 | 0.00 | 999.2 | |
| 20260505235140 | -17 | 225 | 4.8 | 11.3 | 0.00 | 0.03 | 0.00 | 999.3 | |
| 20260505235100 | -17 | 225 | 3.2 | 11.3 | 0.00 | 0.03 | 0.00 | 999.3 | |
| 20260505235040 | -17 | 225 | 3.2 | 11.3 | 0.00 | 0.03 | 0.00 | 999.2 | |
| 20260505235020 | -17 | 225 | 3.2 | 11.3 | 0.00 | 0.03 | 0.00 | 999.3 | |
| 20260505235010 | -17 | 225 | 4.8 | 11.3 | 0.00 | 0.03 | 0.00 | 999.2 | |
| 20260505234950 | -17 | 225 | 4.8 | 11.3 | 0.00 | 0.03 | 0.00 | 999.3 | |
| 20260505234930 | -17 | 225 | 6.4 | 11.3 | 0.00 | 0.03 | 0.00 | 999.3 | |
| 20260505234900 | -17 | 225 | 4.8 | 11.3 | 0.00 | 0.03 | 0.00 | 999.3 | |
| 20260505234850 | -17 | 225 | 4.8 | 9.7 | 0.00 | 0.03 | 0.00 | 999.3 | |
| 20260505234840 | -17 | 248 | 4.8 | 8.0 | 0.00 | 0.03 | 0.00 | 999.3 | |
| 20260505234810 | -17 | 225 | 4.8 | 8.0 | 0.00 | 0.03 | 0.00 | 999.3 | |
| 20260505234800 | -17 | 225 | 6.4 | 8.0 | 0.00 | 0.03 | 0.00 | 999.3 | |
| 20260505234750 | -17 | 270 | 6.4 | 8.0 | 0.00 | 0.03 | 0.00 | 999.3 | |
| 20260505234720 | -17 | 225 | 6.4 | 8.0 | 0.00 | 0.03 | 0.00 | 999.3 | |
| 20260505234640 | -17 | 225 | 6.4 | 8.0 | 0.00 | 0.03 | 0.00 | 999.3 | |
| 20260505234631 | -17 | 225 | 4.8 | 8.0 | 0.00 | 0.03 | 0.00 | 999.3 | |
| 20260505234551 | -17 | 225 | 4.8 | 8.0 | 0.00 | 0.03 | 0.00 | 999.3 | |
| 20260505234541 | -17 | 225 | 6.4 | 8.0 | 0.00 | 0.03 | 0.00 | 999.3 | |
| 20260505234501 | -17 | 225 | 6.4 | 8.0 | 0.00 | 0.03 | 0.00 | 999.3 | |
| 20260505234441 | -17 | 270 | 4.8 | 8.0 | 0.00 | 0.03 | 0.00 | 999.3 | |
| 20260505234431 | -17 | 225 | 4.8 | 8.0 | 0.00 | 0.03 | 0.00 | 999.3 | |
| 20260505234401 | -17 | 225 | 3.2 | 8.0 | 0.00 | 0.03 | 0.00 | 999.3 | |
| 20260505234351 | -17 | 225 | 3.2 | 6.4 | 0.00 | 0.03 | 0.00 | 999.3 | |
| 20260505234311 | -17 | 225 | 1.6 | 8.0 | 0.00 | 0.03 | 0.00 | 999.3 | |
| 20260505234251 | -17 | 203 | 3.2 | 8.0 | 0.00 | 0.03 | 0.00 | 999.3 | |
| 20260505234241 | -17 | 248 | 3.2 | 8.0 | 0.00 | 0.03 | 0.00 | 999.2 | |
| 20260505234231 | -17 | 225 | 3.2 | 8.0 | 0.00 | 0.03 | 0.00 | 999.3 | |
| 20260505234221 | -17 | 225 | 3.2 | 9.7 | 0.00 | 0.03 | 0.00 | 999.3 | |
| 20260505234211 | -17 | 225 | 3.2 | 11.3 | 0.00 | 0.03 | 0.00 | 999.3 | |
| 20260505234141 | -17 | 225 | 1.6 | 11.3 | 0.00 | 0.03 | 0.00 | 999.3 | |
| 20260505234101 | -17 | 225 | 1.6 | 11.3 | 0.00 | 0.03 | 0.00 | 999.3 | |
| 20260505234032 | -17 | 225 | 1.6 | 12.9 | 0.00 | 0.03 | 0.00 | 999.3 | |
| 20260505233951 | -17 | 225 | 1.6 | 12.9 | 0.00 | 0.03 | 0.00 | 999.3 | |
| 20260505233922 | -17 | 225 | 3.2 | 12.9 | 0.00 | 0.03 | 0.00 | 999.3 | |
| 20260505233902 | -17 | 225 | 4.8 | 12.9 | 0.00 | 0.03 | 0.00 | 999.3 | |
| 20260505233822 | -17 | 225 | 6.4 | 12.9 | 0.00 | 0.03 | 0.00 | 999.4 | |
| 20260505233812 | -17 | 225 | 6.4 | 12.9 | 0.00 | 0.03 | 0.00 | 999.3 | |
| 20260505233742 | -17 | 225 | 6.4 | 12.9 | 0.00 | 0.03 | 0.00 | 999.4 | |
| 20260505233732 | -17 | 270 | 6.4 | 12.9 | 0.00 | 0.03 | 0.00 | 999.4 | |
| 20260505233722 | -17 | 225 | 4.8 | 12.9 | 0.00 | 0.03 | 0.00 | 999.4 | |
| 20260505233702 | -17 | 225 | 3.2 | 12.9 | 0.00 | 0.03 | 0.00 | 999.4 | |
| 20260505233652 | -17 | 180 | 3.2 | 12.9 | 0.00 | 0.03 | 0.00 | 999.3 | |
| 20260505233642 | -17 | 225 | 4.8 | 12.9 | 0.00 | 0.03 | 0.00 | 999.4 | |
| 20260505233632 | -17 | 90 | 6.4 | 12.9 | 0.00 | 0.03 | 0.00 | ||
| 20260505233622 | -17 | 135 | 6.4 | 12.9 | 0.00 | 0.03 | 0.00 | 999.3 | |
| 20260505233552 | -17 | 203 | 6.4 | 12.9 | 0.00 | 0.03 | 0.00 | 999.4 | |
| 20260505233542 | -17 | 225 | 6.4 | 12.9 | 0.00 | 0.03 | 0.00 | 999.4 | |
| 20260505233532 | -17 | 225 | 4.8 | 12.9 | 0.00 | 0.03 | 0.00 | 999.4 | |
| 20260505233512 | -17 | 225 | 4.8 | 9.7 | 0.00 | 0.03 | 0.00 | 999.4 | |
| 20260505233502 | -17 | 225 | 3.2 | 9.7 | 0.00 | 0.03 | 0.00 | 999.4 | |
| 20260505233452 | -17 | 225 | 3.2 | 8.0 | 0.00 | 0.03 | 0.00 | 999.4 | |
| 20260505233442 | -17 | 248 | 3.2 | 8.0 | 0.00 | 0.03 | 0.00 | 999.4 | |
| 20260505233432 | -17 | 180 | 4.8 | 8.0 | 0.00 | 0.03 | 0.00 | 999.4 | |
| 20260505233402 | -17 | 225 | 4.8 | 8.0 | 0.00 | 0.03 | 0.00 | 999.4 | |
| 20260505233332 | -17 | 225 | 3.2 | 8.0 | 0.00 | 0.03 | 0.00 | 999.4 | |
| 20260505233253 | -17 | 225 | 3.2 | 8.0 | 0.00 | 0.03 | 0.00 | 999.4 | |
| 20260505233223 | -17 | 270 | 3.2 | 8.0 | 0.00 | 0.03 | 0.00 | 999.4 | |
| 20260505233213 | -17 | 270 | 4.8 | 8.0 | 0.00 | 0.03 | 0.00 | 999.4 | |
| 20260505233133 | -17 | 270 | 4.8 | 8.0 | 0.00 | 0.03 | 0.00 | 999.4 | |
| 20260505233123 | -17 | 225 | 4.8 | 8.0 | 0.00 | 0.03 | 0.00 | 999.4 | |
| 20260505233043 | -17 | 270 | 4.8 | 8.0 | 0.00 | 0.03 | 0.00 | 999.4 | |
| 20260505233003 | -17 | 270 | 4.8 | 8.0 | 0.00 | 0.03 | 0.00 | 999.4 | |
| 20260505232933 | -17 | 270 | 6.4 | 8.0 | 0.00 | 0.03 | 0.00 | 999.4 | |
| 20260505232903 | -17 | 225 | 6.4 | 8.0 | 0.00 | 0.03 | 0.00 | 999.4 | |
| 20260505232853 | -17 | 270 | 6.4 | 8.0 | 0.00 | 0.03 | 0.00 | 999.4 | |
| 20260505232843 | -17 | 248 | 6.4 | 8.0 | 0.00 | 0.03 | 0.00 | 999.4 | |
| 20260505232823 | -17 | 248 | 4.8 | 8.0 | 0.00 | 0.03 | 0.00 | 999.4 | |
| 20260505232803 | -17 | 225 | 4.8 | 8.0 | 0.00 | 0.03 | 0.00 | 999.4 | |
| 20260505232753 | -17 | 225 | 4.8 | 6.4 | 0.00 | 0.03 | 0.00 | 999.4 | |
| 20260505232713 | -17 | 225 | 4.8 | 6.4 | 0.00 | 0.03 | 0.00 | 999.4 | |
| 20260505232653 | -17 | 225 | 4.8 | 6.4 | 0.00 | 0.03 | 0.00 | 999.3 | |
| 20260505232634 | -17 | 225 | 4.8 | 6.4 | 0.00 | 0.03 | 0.00 | 999.4 | |
| 20260505232604 | -17 | 225 | 4.8 | 6.4 | 0.00 | 0.03 | 0.00 | 999.3 | |
| 20260505232554 | -17 | 225 | 4.8 | 6.4 | 0.00 | 0.03 | 0.00 | 999.4 | |
| 20260505232514 | -17 | 225 | 4.8 | 6.4 | 0.00 | 0.03 | 0.00 | 999.4 | |
| 20260505232504 | -17 | 225 | 3.2 | 6.4 | 0.00 | 0.03 | 0.00 | 999.4 | |
| 20260505232424 | -17 | 225 | 3.2 | 6.4 | 0.00 | 0.03 | 0.00 | 999.4 | |
| 20260505232414 | -17 | 225 | 3.2 | 4.8 | 0.00 | 0.03 | 0.00 | 999.4 | |
| 20260505232404 | -17 | 225 | 3.2 | 3.2 | 0.00 | 0.03 | 0.00 | 999.4 | |
| 20260505232324 | -17 | 225 | 1.6 | 3.2 | 0.00 | 0.03 | 0.00 | 999.4 | |
| 20260505232314 | -17 | 225 | 0.0 | 3.2 | 0.00 | 0.03 | 0.00 | 999.4 | |
| 20260505232234 | -17 | 225 | 0.0 | 3.2 | 0.00 | 0.03 | 0.00 | 999.4 | |
| 20260505232154 | -17 | 225 | 0.0 | 3.2 | 0.00 | 0.03 | 0.00 | 999.4 | |
| 20260505232144 | -17 | 225 | 0.0 | 3.2 | 0.00 | 0.03 | 0.00 | 999.5 | |
| 20260505232124 | -17 | 225 | 1.6 | 3.2 | 0.00 | 0.03 | 0.00 | 999.5 | |
| 20260505232044 | -17 | 225 | 1.6 | 3.2 | 0.00 | 0.03 | 0.00 | 999.5 | |
| 20260505232004 | -17 | 180 | 0.0 | 3.2 | 0.00 | 0.03 | 0.00 | 999.5 | |
| 20260505231925 | -17 | 180 | 0.0 | 3.2 | 0.00 | 0.03 | 0.00 | 999.5 | |
| 20260505231855 | -17 | 180 | 1.6 | 4.8 | 0.00 | 0.03 | 0.00 | 999.5 | |
| 20260505231845 | -17 | 180 | 1.6 | 6.4 | 0.00 | 0.03 | 0.00 | 999.5 | |
| 20260505231835 | -17 | 158 | 1.6 | 6.4 | 0.00 | 0.03 | 0.00 | 999.5 | |
| 20260505231825 | -17 | 225 | 1.6 | 6.4 | 0.00 | 0.03 | 0.00 | 999.5 | |
| 20260505231805 | -17 | 180 | 0.0 | 6.4 | 0.00 | 0.03 | 0.00 | 999.5 | |
| 20260505231755 | -17 | 180 | 0.0 | 6.4 | 0.00 | 0.03 | 0.00 | 999.6 | |
| 20260505231725 | -17 | 225 | 0.0 | 6.4 | 0.00 | 0.03 | 0.00 | 999.5 | |
| 20260505231705 | -17 | 203 | 0.0 | 8.0 | 0.00 | 0.03 | 0.00 | 999.5 | |
| 20260505231655 | -17 | 225 | 0.0 | 8.0 | 0.00 | 0.03 | 0.00 | 999.5 | |
| 20260505231615 | -17 | 225 | 0.0 | 8.0 | 0.00 | 0.03 | 0.00 | 999.5 | |
| 20260505231605 | -17 | 180 | 0.0 | 8.0 | 0.00 | 0.03 | 0.00 | 999.5 | |
| 20260505231535 | -17 | 225 | 0.0 | 8.0 | 0.00 | 0.03 | 0.00 | 999.5 | |
| 20260505231515 | -17 | 225 | 1.6 | 8.0 | 0.00 | 0.03 | 0.00 | 999.5 | |
| 20260505231505 | -17 | 225 | 1.6 | 8.0 | 0.00 | 0.03 | 0.00 | 999.4 | |
| 20260505231435 | -17 | 225 | 3.2 | 8.0 | 0.00 | 0.03 | 0.00 | 999.5 | |
| 20260505231355 | -17 | 225 | 3.2 | 8.0 | 0.00 | 0.03 | 0.00 | 999.5 | |
| 20260505231315 | -17 | 225 | 3.2 | 8.0 | 0.00 | 0.03 | 0.00 | 999.5 | |
| 20260505231236 | -17 | 225 | 4.8 | 8.0 | 0.00 | 0.03 | 0.00 | 999.5 | |
| 20260505231156 | -17 | 225 | 4.8 | 8.0 | 0.00 | 0.03 | 0.00 | 999.5 | |
| 20260505231136 | -17 | 248 | 4.8 | 8.0 | 0.00 | 0.03 | 0.00 | 999.5 | |
| 20260505231116 | -17 | 225 | 4.8 | 8.0 | 0.00 | 0.03 | 0.00 | 999.5 | |
| 20260505231056 | -17 | 248 | 4.8 | 8.0 | 0.00 | 0.03 | 0.00 | 999.5 | |
| 20260505231046 | -17 | 270 | 4.8 | 8.0 | 0.00 | 0.03 | 0.00 | 999.5 | |
| 20260505231026 | -17 | 225 | 4.8 | 8.0 | 0.00 | 0.03 | 0.00 | 999.5 | |
| 20260505231016 | -17 | 248 | 4.8 | 8.0 | 0.00 | 0.03 | 0.00 | 999.5 | |
| 20260505231006 | -17 | 270 | 6.4 | 8.0 | 0.00 | 0.03 | 0.00 | 999.5 | |
| 20260505230946 | -17 | 225 | 6.4 | 8.0 | 0.00 | 0.03 | 0.00 | 999.6 | |
| 20260505230916 | -17 | 225 | 6.4 | 8.0 | 0.00 | 0.03 | 0.00 | 999.5 | |
| 20260505230856 | -17 | 225 | 6.4 | 8.0 | 0.00 | 0.03 | 0.00 | 999.6 | |
| 20260505230816 | -17 | 225 | 6.4 | 8.0 | 0.00 | 0.03 | 0.00 | 999.5 | |
| 20260505230756 | -17 | 225 | 6.4 | 8.0 | 0.00 | 0.03 | 0.00 | 999.6 | |
| 20260505230736 | -17 | 225 | 6.4 | 8.0 | 0.00 | 0.03 | 0.00 | 999.5 | |
| 20260505230656 | -17 | 225 | 6.4 | 8.0 | 0.00 | 0.03 | 0.00 | 999.6 | |
| 20260505230646 | -17 | 225 | 4.8 | 8.0 | 0.00 | 0.03 | 0.00 | 999.5 | |
| 20260505230607 | -17 | 225 | 4.8 | 8.0 | 0.00 | 0.03 | 0.00 | 999.5 | |
| 20260505230557 | -17 | 225 | 4.8 | 8.0 | 0.00 | 0.03 | 0.00 | 999.6 | |
| 20260505230527 | -17 | 225 | 4.8 | 8.0 | 0.00 | 0.03 | 0.00 | 999.5 | |
| 20260505230507 | -17 | 225 | 3.2 | 8.0 | 0.00 | 0.03 | 0.00 | 999.6 | |
| 20260505230457 | -17 | 225 | 3.2 | 8.0 | 0.00 | 0.03 | 0.00 | 999.5 | |
| 20260505230437 | -17 | 225 | 4.8 | 8.0 | 0.00 | 0.03 | 0.00 | 999.6 | |
| 20260505230417 | -17 | 225 | 4.8 | 8.0 | 0.00 | 0.03 | 0.00 | 999.5 | |
| 20260505230357 | -17 | 225 | 4.8 | 8.0 | 0.00 | 0.03 | 0.00 | 999.6 | |
| 20260505230327 | -17 | 225 | 4.8 | 8.0 | 0.00 | 0.03 | 0.00 | 999.5 | |
| 20260505230257 | -17 | 225 | 4.8 | 8.0 | 0.00 | 0.03 | 0.00 | 999.6 | |
| 20260505230247 | -17 | 225 | 4.8 | 8.0 | 0.00 | 0.03 | 0.00 | 999.5 | |
| 20260505230207 | -17 | 225 | 4.8 | 8.0 | 0.00 | 0.03 | 0.00 | 999.6 | |
| 20260505230137 | -17 | 225 | 4.8 | 8.0 | 0.00 | 0.03 | 0.00 | 999.5 | |
| 20260505230127 | -17 | 225 | 4.8 | 8.0 | 0.00 | 0.03 | 0.00 | 999.6 | |
| 20260505230117 | -17 | 248 | 4.8 | 8.0 | 0.00 | 0.03 | 0.00 | 999.6 | |
| 20260505230037 | -17 | 225 | 4.8 | 8.0 | 0.00 | 0.03 | 0.00 | 999.6 | |
| 20260505230007 | -17 | 225 | 4.8 | 8.0 | 0.00 | 0.03 | 0.00 | 999.5 | |
| 20260505225928 | -17 | 225 | 4.8 | 8.0 | 0.00 | 0.03 | 0.00 | 999.5 | |
| 20260505225848 | -17 | 225 | 4.8 | 8.0 | 0.00 | 0.03 | 0.00 | 999.5 | |
| 20260505225838 | -17 | 225 | 3.2 | 8.0 | 0.00 | 0.03 | 0.00 | 999.5 | |
| 20260505225808 | -17 | 225 | 4.8 | 8.0 | 0.00 | 0.03 | 0.00 | 999.5 | |
| 20260505225728 | -17 | 225 | 4.8 | 8.0 | 0.00 | 0.03 | 0.00 | 999.5 | |
| 20260505225648 | -17 | 225 | 4.8 | 8.0 | 0.00 | 0.03 | 0.00 | 999.5 | |
| 20260505225608 | -17 | 225 | 6.4 | 8.0 | 0.00 | 0.03 | 0.00 | 999.5 | |
| 20260505225558 | -17 | 248 | 4.8 | 8.0 | 0.00 | 0.03 | 0.00 | 999.5 | |
| 20260505225538 | -17 | 225 | 4.8 | 8.0 | 0.00 | 0.03 | 0.00 | 999.5 | |
| 20260505225518 | -17 | 225 | 6.4 | 8.0 | 0.00 | 0.03 | 0.00 | 999.5 | |
| 20260505225438 | -17 | 225 | 6.4 | 8.0 | 0.00 | 0.03 | 0.00 | 999.5 | |
| 20260505225358 | -17 | 225 | 4.8 | 8.0 | 0.00 | 0.03 | 0.00 | 999.5 | |
| 20260505225348 | -17 | 270 | 4.8 | 8.0 | 0.00 | 0.03 | 0.00 | 999.5 | |
| 20260505225338 | -17 | 248 | 4.8 | 8.0 | 0.00 | 0.03 | 0.00 | 999.5 | |
| 20260505225308 | -17 | 225 | 4.8 | 8.0 | 0.00 | 0.03 | 0.00 | 999.5 | |
| 20260505225259 | -17 | 225 | 4.8 | 8.0 | 0.00 | 0.03 | 0.00 | 665.9 | |
| 20260505225219 | -17 | 225 | 4.8 | 8.0 | 0.00 | 0.03 | 0.00 | 999.5 | |
| 20260505225139 | -17 | 225 | 4.8 | 8.0 | 0.00 | 0.03 | 0.00 | 999.5 | |
| 20260505225059 | -17 | 225 | 4.8 | 8.0 | 0.00 | 0.03 | 0.00 | 999.5 | |
| 20260505225049 | -17 | 248 | 4.8 | 8.0 | 0.00 | 0.03 | 0.00 | 999.5 | |
| 20260505225039 | -17 | 225 | 4.8 | 8.0 | 0.00 | 0.03 | 0.00 | 999.4 | |
| 20260505224959 | -17 | 225 | 4.8 | 8.0 | 0.00 | 0.03 | 0.00 | 999.5 | |
| 20260505224939 | -17 | 270 | 4.8 | 8.0 | 0.00 | 0.03 | 0.00 | 999.5 | |
| 20260505224859 | -17 | 270 | 4.8 | 8.0 | 0.00 | 0.03 | 0.00 | 999.5 | |
| 20260505224819 | -17 | 270 | 4.8 | 8.0 | 0.00 | 0.03 | 0.00 | 999.5 | |
| 20260505224809 | -17 | 270 | 4.8 | 6.4 | 0.00 | 0.03 | 0.00 | 999.5 | |
| 20260505224729 | -17 | 270 | 4.8 | 6.4 | 0.00 | 0.03 | 0.00 | 999.5 | |
| 20260505224719 | -17 | 270 | 3.2 | 6.4 | 0.00 | 0.03 | 0.00 | 999.4 | |
| 20260505224700 | -17 | 270 | 3.2 | 6.4 | 0.00 | 0.03 | 0.00 | 999.5 | |
| 20260505224630 | -17 | 270 | 3.2 | 6.4 | 0.00 | 0.03 | 0.00 | 999.4 | |
| 20260505224619 | -17 | 270 | 3.2 | 6.4 | 0.00 | 0.03 | 0.00 | 999.5 | |
| 20260505224609 | -17 | 270 | 4.8 | 6.4 | 0.00 | 0.03 | 0.00 | 999.4 | |
| 20260505224530 | -17 | 270 | 4.8 | 6.4 | 0.00 | 0.03 | 0.00 | 999.4 | |
| 20260505224520 | -17 | 270 | 3.2 | 6.4 | 0.00 | 0.03 | 0.00 | 999.4 | |
| 20260505224500 | -17 | 225 | 3.2 | 6.4 | 0.00 | 0.03 | 0.00 | 999.4 | |
| 20260505224440 | -17 | 270 | 3.2 | 6.4 | 0.00 | 0.03 | 0.00 | 999.4 | |
| 20260505224430 | -17 | 248 | 3.2 | 6.4 | 0.00 | 0.03 | 0.00 | 999.4 | |
| 20260505224410 | -17 | 225 | 3.2 | 6.4 | 0.00 | 0.03 | 0.00 | 999.4 | |
| 20260505224400 | -17 | 225 | 3.2 | 6.4 | 0.00 | 0.03 | 0.00 | 999.5 | |
| 20260505224350 | -17 | 270 | 3.2 | 6.4 | 0.00 | 0.03 | 0.00 | 999.4 | |
| 20260505224310 | -17 | 270 | 3.2 | 6.4 | 0.00 | 0.03 | 0.00 | 999.4 | |
| 20260505224250 | -17 | 225 | 3.2 | 6.4 | 0.00 | 0.03 | 0.00 | 999.4 | |
| 20260505224240 | -17 | 248 | 3.2 | 6.4 | 0.00 | 0.03 | 0.00 | 999.4 | |
| 20260505224230 | -17 | 270 | 3.2 | 4.8 | 0.00 | 0.03 | 0.00 | 999.4 | |
| 20260505224150 | -17 | 225 | 3.2 | 4.8 | 0.00 | 0.03 | 0.00 | 999.4 | |
| 20260505224130 | -17 | 225 | 1.6 | 4.8 | 0.00 | 0.03 | 0.00 | 999.4 | |
| 20260505224120 | -17 | 248 | 1.6 | 4.8 | 0.00 | 0.03 | 0.00 | 999.3 | |
| 20260505224110 | -17 | 225 | 0.0 | 4.8 | 0.00 | 0.03 | 0.00 | 999.4 | |
| 20260505224040 | -17 | 225 | 0.0 | 4.8 | 0.00 | 0.03 | 0.00 | 999.3 | |
| 20260505224020 | -17 | 225 | 0.0 | 4.8 | 0.00 | 0.03 | 0.00 | 999.4 | |
| 20260505224001 | -17 | 203 | 0.0 | 4.8 | 0.00 | 0.03 | 0.00 | 999.4 | |
| 20260505223941 | -17 | 225 | 0.0 | 4.8 | 0.00 | 0.03 | 0.00 | 999.3 | |
| 20260505223911 | -17 | 225 | 1.6 | 4.8 | 0.00 | 0.03 | 0.00 | 999.3 | |
| 20260505223901 | -17 | 225 | 1.6 | 4.8 | 0.00 | 0.03 | 0.00 | 999.4 | |
| 20260505223851 | -17 | 225 | 0.0 | 4.8 | 0.00 | 0.03 | 0.00 | 999.4 | |
| 20260505223841 | -17 | 180 | 0.0 | 3.2 | 0.00 | 0.03 | 0.00 | 999.3 | |
| 20260505223811 | -17 | 225 | 0.0 | 3.2 | 0.00 | 0.03 | 0.00 | 999.3 | |
| 20260505223801 | -17 | 225 | 0.0 | 3.2 | 0.00 | 0.03 | 0.00 | 999.4 | |
| 20260505223751 | -17 | 180 | 0.0 | 3.2 | 0.00 | 0.03 | 0.00 | 999.4 | |
| 20260505223731 | -17 | 203 | 0.0 | 3.2 | 0.00 | 0.03 | 0.00 | 999.4 | |
| 20260505223721 | -17 | 225 | 0.0 | 3.2 | 0.00 | 0.03 | 0.00 | 999.4 | |
| 20260505223641 | -17 | 225 | 0.0 | 3.2 | 0.00 | 0.03 | 0.00 | 999.4 | |
| 20260505223621 | -17 | 225 | 1.6 | 3.2 | 0.00 | 0.03 | 0.00 | 999.5 | |
| 20260505223601 | -17 | 225 | 1.6 | 3.2 | 0.00 | 0.03 | 0.00 | 999.4 | |
| 20260505223541 | -17 | 225 | 1.6 | 3.2 | 0.00 | 0.03 | 0.00 | 999.5 | |
| 20260505223521 | -17 | 225 | 0.0 | 3.2 | 0.00 | 0.03 | 0.00 | 999.4 | |
| 20260505223441 | -17 | 225 | 0.0 | 3.2 | 0.00 | 0.03 | 0.00 | 999.4 | |
| 20260505223411 | -17 | 225 | 0.0 | 3.2 | 0.00 | 0.03 | 0.00 | 999.5 | |
| 20260505223401 | -17 | 225 | 0.0 | 3.2 | 0.00 | 0.03 | 0.00 | 999.4 | |
| 20260505223322 | -17 | 225 | 0.0 | 3.2 | 0.00 | 0.03 | 0.00 | 999.4 | |
| 20260505223312 | -17 | 225 | 0.0 | 3.2 | 0.00 | 0.03 | 0.00 | 999.5 | |
| 20260505223232 | -17 | 225 | 0.0 | 3.2 | 0.00 | 0.03 | 0.00 | 999.5 | |
| 20260505223222 | -17 | 225 | 0.0 | 4.8 | 0.00 | 0.03 | 0.00 | 999.5 | |
| 20260505223212 | -17 | 203 | 0.0 | 4.8 | 0.00 | 0.03 | 0.00 | 999.4 | |
| 20260505223152 | -17 | 225 | 1.6 | 4.8 | 0.00 | 0.03 | 0.00 | 999.4 | |
| 20260505223142 | -17 | 225 | 3.2 | 4.8 | 0.00 | 0.03 | 0.00 | 999.5 | |
| 20260505223132 | -17 | 180 | 3.2 | 4.8 | 0.00 | 0.03 | 0.00 | 999.4 | |
| 20260505223052 | -17 | 225 | 1.6 | 4.8 | 0.00 | 0.03 | 0.00 | 999.4 | |
| 20260505223042 | -17 | 180 | 1.6 | 4.8 | 0.00 | 0.03 | 0.00 | 999.4 | |
| 20260505223002 | -17 | 180 | 1.6 | 4.8 | 0.00 | 0.03 | 0.00 | 999.4 | |
| 20260505222952 | -17 | 225 | 1.6 | 4.8 | 0.00 | 0.03 | 0.00 | 999.4 | |
| 20260505222922 | -17 | 180 | 1.6 | 4.8 | 0.00 | 0.03 | 0.00 | 999.4 | |
| 20260505222852 | -17 | 203 | 1.6 | 4.8 | 0.00 | 0.03 | 0.00 | 999.4 | |
| 20260505222842 | -17 | 180 | 1.6 | 4.8 | 0.00 | 0.03 | 0.00 | 999.4 | |
| 20260505222802 | -17 | 180 | 3.2 | 4.8 | 0.00 | 0.03 | 0.00 | 999.4 | |
| 20260505222752 | -17 | 203 | 3.2 | 4.8 | 0.00 | 0.03 | 0.00 | 999.4 | |
| 20260505222713 | -17 | 180 | 3.2 | 4.8 | 0.00 | 0.03 | 0.00 | 999.3 | |
| 20260505222703 | -17 | 180 | 3.2 | 4.8 | 0.00 | 0.03 | 0.00 | 999.4 | |
| 20260505222623 | -17 | 180 | 3.2 | 4.8 | 0.00 | 0.03 | 0.00 | 999.3 | |
| 20260505222603 | -17 | 180 | 3.2 | 4.8 | 0.00 | 0.03 | 0.00 | 999.4 | |
| 20260505222533 | -17 | 180 | 3.2 | 4.8 | 0.00 | 0.03 | 0.00 | 999.3 | |
| 20260505222523 | -17 | 180 | 3.2 | 4.8 | 0.00 | 0.03 | 0.00 | 999.4 | |
| 20260505222503 | -17 | 180 | 3.2 | 6.4 | 0.00 | 0.03 | 0.00 | 999.4 | |
| 20260505222453 | -17 | 180 | 3.2 | 6.4 | 0.00 | 0.03 | 0.00 | 999.3 | |
| 20260505222443 | -17 | 180 | 1.6 | 6.4 | 0.00 | 0.03 | 0.00 | 999.3 | |
| 20260505222413 | -17 | 180 | 3.2 | 6.4 | 0.00 | 0.03 | 0.00 | 999.4 | |
| 20260505222343 | -17 | 180 | 3.2 | 6.4 | 0.00 | 0.03 | 0.00 | 999.3 | |
| 20260505222333 | -17 | 180 | 3.2 | 6.4 | 0.00 | 0.03 | 0.00 | 999.4 | |
| 20260505222305 | -17 | 180 | 3.2 | 6.4 | 0.00 | 0.03 | 0.00 | 999.3 | |
| 20260505222243 | -17 | 180 | 3.2 | 6.4 | 0.00 | 0.03 | 0.00 | 999.4 | |
| 20260505222223 | -17 | 180 | 3.2 | 6.4 | 0.00 | 0.03 | 0.00 | 999.3 | |
| 20260505222143 | -17 | 180 | 3.2 | 6.4 | 0.00 | 0.03 | 0.00 | 999.3 | |
| 20260505222104 | -17 | 180 | 3.2 | 6.4 | 0.00 | 0.03 | 0.00 | 999.3 | |
| 20260505222034 | -17 | 180 | 3.2 | 6.4 | 0.00 | 0.03 | 0.00 | 999.4 | |
| 20260505222024 | -17 | 180 | 3.2 | 6.4 | 0.00 | 0.03 | 0.00 | 999.3 | |
| 20260505221944 | -17 | 180 | 3.2 | 6.4 | 0.00 | 0.03 | 0.00 | 999.3 | |
| 20260505221914 | -17 | 180 | 3.2 | 6.4 | 0.00 | 0.03 | 0.00 | 999.4 | |
| 20260505221854 | -17 | 180 | 3.2 | 6.4 | 0.00 | 0.03 | 0.00 | 999.3 | |
| 20260505221844 | -17 | 180 | 3.2 | 6.4 | 0.00 | 0.03 | 0.00 | 684.6 | |
| 20260505221814 | -17 | 180 | 3.2 | 6.4 | 0.00 | 0.03 | 0.00 | 999.3 | |
| 20260505221804 | -17 | 180 | 3.2 | 6.4 | 0.00 | 0.03 | 0.00 | 999.4 | |
| 20260505221734 | -17 | 180 | 3.2 | 6.4 | 0.00 | 0.03 | 0.00 | 999.3 | |
| 20260505221714 | -17 | 180 | 3.2 | 6.4 | 0.00 | 0.03 | 0.00 | 999.4 | |
| 20260505221654 | -17 | 180 | 3.2 | 6.4 | 0.00 | 0.03 | 0.00 | 999.3 | |
| 20260505221634 | -17 | 180 | 3.2 | 6.4 | 0.00 | 0.03 | 0.00 | 999.4 | |
| 20260505221624 | -17 | 180 | 3.2 | 4.8 | 0.00 | 0.03 | 0.00 | 999.3 | |
| 20260505221614 | 16 | 180 | 3.2 | 4.8 | 0.00 | 0.03 | 0.00 | 73 | 999.3 |
| 20260505221544 | -17 | 180 | 3.2 | 6.4 | 0.00 | 0.03 | 0.00 | 999.3 | |
| 20260505221534 | -17 | 180 | 3.2 | 6.4 | 0.00 | 0.03 | 0.00 | 999.4 | |
| 20260505221454 | -17 | 180 | 3.2 | 6.4 | 0.00 | 0.03 | 0.00 | 999.3 | |
| 20260505221435 | -17 | 180 | 3.2 | 6.4 | 0.00 | 0.03 | 0.00 | 999.4 | |
| 20260505221415 | -17 | 180 | 3.2 | 6.4 | 0.00 | 0.03 | 0.00 | 999.3 | |
| 20260505221355 | -17 | 180 | 3.2 | 6.4 | 0.00 | 0.03 | 0.00 | 999.4 | |
| 20260505221325 | -17 | 180 | 3.2 | 6.4 | 0.00 | 0.03 | 0.00 | 999.3 | |
| 20260505221315 | -17 | 180 | 3.2 | 6.4 | 0.00 | 0.03 | 0.00 | 999.4 | |
| 20260505221235 | -17 | 180 | 3.2 | 6.4 | 0.00 | 0.03 | 0.00 | 999.4 | |
| 20260505221215 | -17 | 180 | 3.2 | 6.4 | 0.00 | 0.03 | 0.00 | 999.3 | |
| 20260505221155 | -17 | 180 | 3.2 | 6.4 | 0.00 | 0.03 | 0.00 | 999.4 | |
| 20260505221115 | -17 | 180 | 3.2 | 6.4 | 0.00 | 0.03 | 0.00 | 999.4 | |
| 20260505221035 | -17 | 180 | 3.2 | 4.8 | 0.00 | 0.03 | 0.00 | 999.4 | |
| 20260505221015 | -17 | 180 | 3.2 | 3.2 | 0.00 | 0.03 | 0.00 | 999.4 | |
| 20260505221005 | -17 | 180 | 3.2 | 3.2 | 0.00 | 0.03 | 0.00 | 999.3 | |
| 20260505220925 | -17 | 180 | 1.6 | 3.2 | 0.00 | 0.03 | 0.00 | 999.3 | |
| 20260505220915 | -17 | 158 | 1.6 | 3.2 | 0.00 | 0.03 | 0.00 | ||
| 20260505220855 | -17 | 158 | 1.6 | 3.2 | 0.00 | 0.03 | 0.00 | 999.3 | |
| 20260505220835 | -17 | 180 | 1.6 | 3.2 | 0.00 | 0.03 | 0.00 | 999.3 | |
| 20260505220756 | -17 | 180 | 1.6 | 3.2 | 0.00 | 0.03 | 0.00 | 999.3 | |
| 20260505220716 | -17 | 180 | 1.6 | 3.2 | 0.00 | 0.03 | 0.00 | 999.3 | |
| 20260505220706 | -17 | 180 | 1.6 | 3.2 | 0.00 | 0.03 | 0.00 | 999.4 | |
| 20260505220656 | -17 | 180 | 3.2 | 3.2 | 0.00 | 0.03 | 0.00 | 999.4 | |
| 20260505220616 | -17 | 180 | 3.2 | 3.2 | 0.00 | 0.03 | 0.00 | 999.4 | |
| 20260505220606 | -17 | 180 | 1.6 | 3.2 | 0.00 | 0.03 | 0.00 | 999.4 | |
| 20260505220526 | -17 | 180 | 1.6 | 3.2 | 0.00 | 0.03 | 0.00 | 999.4 | |
| 20260505220516 | -17 | 180 | 1.6 | 3.2 | 0.00 | 0.03 | 0.00 | 999.5 | |
| 20260505220446 | -17 | 225 | 1.6 | 3.2 | 0.00 | 0.03 | 0.00 | 999.5 | |
| 20260505220436 | -17 | 180 | 1.6 | 3.2 | 0.00 | 0.03 | 0.00 | 999.5 | |
| 20260505220426 | -17 | 270 | 1.6 | 3.2 | 0.00 | 0.03 | 0.00 | 999.4 | |
| 20260505220416 | -17 | 225 | 0.0 | 3.2 | 0.00 | 0.03 | 0.00 | 999.5 | |
| 20260505220406 | -17 | 180 | 0.0 | 3.2 | 0.00 | 0.03 | 0.00 | 999.5 | |
| 20260505220356 | -17 | 203 | 0.0 | 3.2 | 0.00 | 0.03 | 0.00 | 999.5 | |
| 20260505220346 | -17 | 225 | 0.0 | 3.2 | 0.00 | 0.03 | 0.00 | 999.4 | |
| 20260505220316 | -17 | 225 | 0.0 | 3.2 | 0.00 | 0.03 | 0.00 | 999.5 | |
| 20260505220306 | -17 | 225 | 0.0 | 3.2 | 0.00 | 0.03 | 0.00 | 999.4 | |
| 20260505220256 | -17 | 180 | 0.0 | 3.2 | 0.00 | 0.03 | 0.00 | 999.4 | |
| 20260505220246 | -17 | 180 | 0.0 | 3.2 | 0.00 | 0.03 | 0.00 | 999.5 | |
| 20260505220227 | -17 | 225 | 0.0 | 3.2 | 0.00 | 0.03 | 0.00 | 999.4 | |
| 20260505220217 | -17 | 203 | 0.0 | 3.2 | 0.00 | 0.03 | 0.00 | 999.4 | |
| 20260505220207 | -17 | 180 | 0.0 | 3.2 | 0.00 | 0.03 | 0.00 | 999.4 | |
| 20260505220157 | -17 | 203 | 0.0 | 3.2 | 0.00 | 0.03 | 0.00 | 999.5 | |
| 20260505220137 | -17 | 225 | 0.0 | 3.2 | 0.00 | 0.03 | 0.00 | 999.4 | |
| 20260505220127 | -17 | 225 | 1.6 | 3.2 | 0.00 | 0.03 | 0.00 | 999.5 | |
| 20260505220117 | -17 | 180 | 1.6 | 3.2 | 0.00 | 0.03 | 0.00 | 999.4 | |
| 20260505220057 | -17 | 225 | 1.6 | 3.2 | 0.00 | 0.03 | 0.00 | 999.4 | |
| 20260505220047 | -17 | 225 | 0.0 | 3.2 | 0.00 | 0.03 | 0.00 | 999.4 | |
| 20260505220037 | -17 | 225 | 0.0 | 3.2 | 0.00 | 0.03 | 0.00 | 999.5 | |
| 20260505220017 | -17 | 225 | 1.6 | 3.2 | 0.00 | 0.03 | 0.00 | 999.4 | |
| 20260505215957 | -17 | 203 | 1.6 | 3.2 | 0.00 | 0.03 | 0.00 | 999.4 | |
| 20260505215947 | -17 | 180 | 1.6 | 3.2 | 0.00 | 0.03 | 0.00 | 999.4 | |
| 20260505215937 | -17 | 225 | 1.6 | 3.2 | 0.00 | 0.03 | 0.00 | 999.4 | |
| 20260505215907 | -17 | 180 | 1.6 | 3.2 | 0.00 | 0.03 | 0.00 | 999.4 | |
| 20260505215847 | -17 | 203 | 1.6 | 3.2 | 0.00 | 0.03 | 0.00 | 999.4 | |
| 20260505215827 | -17 | 225 | 1.6 | 3.2 | 0.00 | 0.03 | 0.00 | 999.4 | |
| 20260505215807 | -17 | 180 | 1.6 | 3.2 | 0.00 | 0.03 | 0.00 | 999.4 | |
| 20260505215727 | -17 | 180 | 1.6 | 3.2 | 0.00 | 0.03 | 0.00 | 999.4 | |
| 20260505215717 | -17 | 180 | 3.2 | 4.8 | 0.00 | 0.03 | 0.00 | 999.4 | |
| 20260505215657 | -17 | 180 | 1.6 | 4.8 | 0.00 | 0.03 | 0.00 | 999.5 | |
| 20260505215647 | -17 | 180 | 1.6 | 4.8 | 0.00 | 0.03 | 0.00 | 999.4 | |
| 20260505215608 | -17 | 180 | 1.6 | 4.8 | 0.00 | 0.03 | 0.00 | 999.4 | |
| 20260505215558 | -17 | 225 | 0.0 | 4.8 | 0.00 | 0.03 | 0.00 | 999.4 | |
| 20260505215548 | -17 | 180 | 0.0 | 4.8 | 0.00 | 0.03 | 0.00 | 999.4 | |
| 20260505215508 | -17 | 180 | 0.0 | 4.8 | 0.00 | 0.03 | 0.00 | 999.4 | |
| 20260505215458 | -17 | 180 | 0.0 | 6.4 | 0.00 | 0.03 | 0.00 | 999.3 | |
| 20260505215448 | -17 | 225 | 0.0 | 6.4 | 0.00 | 0.03 | 0.00 | 999.4 | |
| 20260505215418 | -17 | 180 | 0.0 | 6.4 | 0.00 | 0.03 | 0.00 | 999.4 | |
| 20260505215338 | -17 | 225 | 0.0 | 6.4 | 0.00 | 0.03 | 0.00 | 999.4 | |
| 20260505215328 | -17 | 203 | 0.0 | 6.4 | 0.00 | 0.03 | 0.00 | 999.4 | |
| 20260505215318 | -17 | 180 | 1.6 | 6.4 | 0.00 | 0.03 | 0.00 | 999.4 | |
| 20260505215258 | -17 | 225 | 1.6 | 6.4 | 0.00 | 0.03 | 0.00 | 999.4 | |
| 20260505215248 | -17 | 225 | 3.2 | 6.4 | 0.00 | 0.03 | 0.00 | 999.4 | |
| 20260505215208 | -17 | 225 | 3.2 | 6.4 | 0.00 | 0.03 | 0.00 | 999.4 | |
| 20260505215138 | -17 | 0 | 3.2 | 6.4 | 0.00 | 0.03 | 0.00 | 999.4 | |
| 20260505215128 | -17 | 225 | 3.2 | 6.4 | 0.00 | 0.03 | 0.00 | 999.4 | |
| 20260505215048 | -17 | 225 | 3.2 | 6.4 | 0.00 | 0.03 | 0.00 | 999.4 | |
| 20260505215008 | -17 | 225 | 3.2 | 8.0 | 0.00 | 0.03 | 0.00 | 999.4 | |
| 20260505214949 | -17 | 225 | 3.2 | 8.0 | 0.00 | 0.03 | 0.00 | 999.5 | |
| 20260505214909 | -17 | 225 | 3.2 | 8.0 | 0.00 | 0.03 | 0.00 | 999.4 | |
| 20260505214859 | -17 | 225 | 3.2 | 8.0 | 0.00 | 0.03 | 0.00 | 999.5 | |
| 20260505214819 | -17 | 225 | 3.2 | 8.0 | 0.00 | 0.03 | 0.00 | 999.5 | |
| 20260505214809 | -17 | 225 | 3.2 | 8.0 | 0.00 | 0.03 | 0.00 | 999.4 | |
| 20260505214739 | -17 | 225 | 3.2 | 8.0 | 0.00 | 0.03 | 0.00 | 999.5 | |
| 20260505214709 | -17 | 225 | 3.2 | 8.0 | 0.00 | 0.03 | 0.00 | 999.4 | |
| 20260505214659 | -17 | 225 | 3.2 | 8.0 | 0.00 | 0.03 | 0.00 | 999.5 | |
| 20260505214619 | -17 | 225 | 3.2 | 8.0 | 0.00 | 0.03 | 0.00 | 999.5 | |
| 20260505214539 | -17 | 225 | 3.2 | 8.0 | 0.00 | 0.03 | 0.00 | 999.5 | |
| 20260505214459 | -17 | 225 | 3.2 | 8.0 | 0.00 | 0.03 | 0.00 | 999.5 | |
| 20260505214449 | -17 | 225 | 4.8 | 8.0 | 0.00 | 0.03 | 0.00 | 999.5 | |
| 20260505214409 | -17 | 225 | 4.8 | 8.0 | 0.00 | 0.03 | 0.00 | 999.5 | |
| 20260505214349 | -17 | 225 | 3.2 | 8.0 | 0.00 | 0.03 | 0.00 | 999.5 | |
| 20260505214309 | -17 | 225 | 3.2 | 6.4 | 0.00 | 0.03 | 0.00 | 999.5 | |
| 20260505214230 | -17 | 225 | 3.2 | 6.4 | 0.00 | 0.03 | 0.00 | 999.5 | |
| 20260505214150 | -17 | 225 | 3.2 | 6.4 | 0.00 | 0.03 | 0.00 | 999.5 | |
| 20260505214110 | -17 | 225 | 3.2 | 6.4 | 0.00 | 0.03 | 0.00 | 999.5 | |
| 20260505214030 | -17 | 225 | 3.2 | 6.4 | 0.00 | 0.03 | 0.00 | 999.5 | |
| 20260505213950 | -17 | 225 | 3.2 | 6.4 | 0.00 | 0.03 | 0.00 | 999.5 | |
| 20260505213910 | -17 | 225 | 3.2 | 6.4 | 0.00 | 0.03 | 0.00 | 999.5 | |
| 20260505213900 | -17 | 225 | 3.2 | 6.4 | 0.00 | 0.03 | 0.00 | 999.6 | |
| 20260505213820 | -17 | 225 | 3.2 | 6.4 | 0.00 | 0.03 | 0.00 | 999.5 | |
| 20260505213800 | -17 | 225 | 3.2 | 6.4 | 0.00 | 0.03 | 0.00 | 999.6 | |
| 20260505213740 | -17 | 225 | 3.2 | 6.4 | 0.00 | 0.03 | 0.00 | 999.5 | |
| 20260505213700 | -17 | 225 | 3.2 | 6.4 | 0.00 | 0.03 | 0.00 | 999.5 | |
| 20260505213620 | -17 | 225 | 3.2 | 6.4 | 0.00 | 0.03 | 0.00 | 999.5 | |
| 20260505213600 | -17 | 225 | 3.2 | 6.4 | 0.00 | 0.03 | 0.00 | 999.6 | |
| 20260505213541 | -17 | 225 | 1.6 | 6.4 | 0.00 | 0.03 | 0.00 | 999.5 | |
| 20260505213531 | -17 | 225 | 0.0 | 4.8 | 0.00 | 0.03 | 0.00 | 843.3 | |
| 20260505213501 | -17 | 225 | 0.0 | 4.8 | 0.00 | 0.03 | 0.00 | 999.5 | |
| 20260505213451 | -17 | 225 | 1.6 | 4.8 | 0.00 | 0.03 | 0.00 | 999.5 | |
| 20260505213411 | -17 | 225 | 1.6 | 4.8 | 0.00 | 0.03 | 0.00 | 999.5 | |
| 20260505213341 | -17 | 225 | 3.2 | 4.8 | 0.00 | 0.03 | 0.00 | 999.5 | |
| 20260505213301 | -17 | 225 | 3.2 | 4.8 | 0.00 | 0.03 | 0.00 | 999.5 | |
| 20260505213241 | -17 | 225 | 3.2 | 4.8 | 0.00 | 0.03 | 0.00 | 999.6 | |
| 20260505213221 | -17 | 248 | 3.2 | 6.4 | 0.00 | 0.03 | 0.00 | 807.0 | |
| 20260505213211 | -17 | 225 | 3.2 | 6.4 | 0.00 | 0.03 | 0.00 | 999.5 | |
| 20260505213131 | -17 | 225 | 1.6 | 6.4 | 0.00 | 0.03 | 0.00 | 999.5 | |
| 20260505213111 | -17 | 225 | 0.0 | 6.4 | 0.00 | 0.03 | 0.00 | 999.5 | |
| 20260505213051 | -17 | 225 | 0.0 | 6.4 | 0.00 | 0.03 | 0.00 | 999.6 | |
| 20260505213041 | -17 | 225 | 1.6 | 6.4 | 0.00 | 0.03 | 0.00 | 999.5 | |
| 20260505213021 | -17 | 225 | 1.6 | 6.4 | 0.00 | 0.03 | 0.00 | 999.6 | |
| 20260505213001 | -17 | 225 | 1.6 | 6.4 | 0.00 | 0.03 | 0.00 | 999.5 | |
| 20260505212932 | -17 | 203 | 0.0 | 6.4 | 0.00 | 0.03 | 0.00 | 999.5 | |
| 20260505212921 | -17 | 225 | 0.0 | 6.4 | 0.00 | 0.03 | 0.00 | 999.5 | |
| 20260505212902 | -17 | 180 | 0.0 | 6.4 | 0.00 | 0.03 | 0.00 | 999.5 | |
| 20260505212842 | -17 | 225 | 1.6 | 6.4 | 0.00 | 0.03 | 0.00 | 999.5 | |
| 20260505212802 | -17 | 225 | 3.2 | 8.0 | 0.00 | 0.03 | 0.00 | 999.5 | |
| 20260505212722 | -17 | 225 | 4.8 | 8.0 | 0.00 | 0.03 | 0.00 | 999.5 | |
| 20260505212702 | -17 | 225 | 4.8 | 8.0 | 0.00 | 0.03 | 0.00 | 999.6 | |
| 20260505212642 | -17 | 225 | 4.8 | 8.0 | 0.00 | 0.03 | 0.00 | 999.5 | |
| 20260505212602 | -17 | 225 | 4.8 | 8.0 | 0.00 | 0.03 | 0.00 | 999.5 | |
| 20260505212522 | -17 | 225 | 4.8 | 8.0 | 0.00 | 0.03 | 0.00 | 999.5 | |
| 20260505212512 | -17 | 270 | 4.8 | 8.0 | 0.00 | 0.03 | 0.00 | 999.5 | |
| 20260505212432 | -17 | 225 | 4.8 | 8.0 | 0.00 | 0.03 | 0.00 | 999.5 | |
| 20260505212422 | -17 | 270 | 4.8 | 8.0 | 0.00 | 0.03 | 0.00 | 999.5 | |
| 20260505212352 | -17 | 225 | 4.8 | 8.0 | 0.00 | 0.03 | 0.00 | 999.5 | |
| 20260505212342 | -17 | 270 | 4.8 | 8.0 | 0.00 | 0.03 | 0.00 | 999.6 | |
| 20260505212305 | -17 | 270 | 4.8 | 8.0 | 0.00 | 0.03 | 0.00 | 999.5 | |
| 20260505212253 | -17 | 270 | 4.8 | 8.0 | 0.00 | 0.03 | 0.00 | 999.4 | |
| 20260505212233 | -17 | 225 | 4.8 | 8.0 | 0.00 | 0.03 | 0.00 | 999.5 | |
| 20260505212213 | -17 | 270 | 4.8 | 8.0 | 0.00 | 0.03 | 0.00 | 999.5 | |
| 20260505212143 | -17 | 225 | 6.4 | 8.0 | 0.00 | 0.03 | 0.00 | 999.5 | |
| 20260505212133 | -17 | 270 | 6.4 | 8.0 | 0.00 | 0.03 | 0.00 | 999.5 | |
| 20260505212123 | -17 | 248 | 6.4 | 8.0 | 0.00 | 0.03 | 0.00 | 999.5 | |
| 20260505212113 | -17 | 248 | 4.8 | 8.0 | 0.00 | 0.03 | 0.00 | 999.5 | |
| 20260505212033 | -17 | 270 | 4.8 | 8.0 | 0.00 | 0.03 | 0.00 | 999.5 | |
| 20260505212023 | -17 | 225 | 4.8 | 8.0 | 0.00 | 0.03 | 0.00 | 999.5 | |
| 20260505211953 | -17 | 270 | 3.2 | 8.0 | 0.00 | 0.03 | 0.00 | 999.5 | |
| 20260505211913 | -17 | 270 | 3.2 | 8.0 | 0.00 | 0.03 | 0.00 | 999.5 | |
| 20260505211903 | -17 | 248 | 3.2 | 8.0 | 0.00 | 0.03 | 0.00 | 999.5 | |
| 20260505211843 | -17 | 225 | 3.2 | 8.0 | 0.00 | 0.03 | 0.00 | 999.4 | |
| 20260505211823 | -17 | 225 | 3.2 | 8.0 | 0.00 | 0.03 | 0.00 | 999.5 | |
| 20260505211753 | -17 | 225 | 4.8 | 8.0 | 0.00 | 0.03 | 0.00 | 999.4 | |
| 20260505211743 | -17 | 225 | 4.8 | 8.0 | 0.00 | 0.03 | 0.00 | 999.5 | |
| 20260505211714 | -17 | 270 | 4.8 | 8.0 | 0.00 | 0.03 | 0.00 | 999.5 | |
| 20260505211703 | -17 | 248 | 4.8 | 8.0 | 0.00 | 0.03 | 0.00 | 999.5 | |
| 20260505211644 | -17 | 248 | 4.8 | 6.4 | 0.00 | 0.03 | 0.00 | 999.5 | |
| 20260505211624 | -17 | 225 | 4.8 | 6.4 | 0.00 | 0.03 | 0.00 | 999.5 | |
| 20260505211604 | -17 | 270 | 3.2 | 6.4 | 0.00 | 0.03 | 0.00 | 999.5 | |
| 20260505211554 | -17 | 225 | 3.2 | 6.4 | 0.00 | 0.03 | 0.00 | 999.5 | |
| 20260505211544 | -17 | 248 | 3.2 | 6.4 | 0.00 | 0.03 | 0.00 | 999.5 | |
| 20260505211524 | -17 | 270 | 3.2 | 6.4 | 0.00 | 0.03 | 0.00 | 999.5 | |
| 20260505211444 | -17 | 270 | 3.2 | 6.4 | 0.00 | 0.03 | 0.00 | 999.5 | |
| 20260505211404 | -17 | 270 | 3.2 | 6.4 | 0.00 | 0.03 | 0.00 | 999.5 | |
| 20260505211324 | -17 | 270 | 3.2 | 6.4 | 0.00 | 0.03 | 0.00 | 999.5 | |
| 20260505211244 | -17 | 270 | 3.2 | 6.4 | 0.00 | 0.03 | 0.00 | 999.5 | |
| 20260505211224 | -17 | 248 | 3.2 | 6.4 | 0.00 | 0.03 | 0.00 | 1026.1 | |
| 20260505211214 | -17 | 225 | 3.2 | 6.4 | 0.00 | 0.03 | 0.00 | 999.5 | |
| 20260505211204 | -17 | 225 | 4.8 | 6.4 | 0.00 | 0.03 | 0.00 | 999.5 | |
| 20260505211144 | -17 | 248 | 4.8 | 6.4 | 0.00 | 0.03 | 0.00 | 999.5 | |
| 20260505211134 | -17 | 248 | 3.2 | 6.4 | 0.00 | 0.03 | 0.00 | 999.5 | |
| 20260505211104 | -17 | 248 | 3.2 | 8.0 | 0.00 | 0.03 | 0.00 | 999.5 | |
| 20260505211054 | -17 | 225 | 3.2 | 8.0 | 0.00 | 0.03 | 0.00 | 999.5 | |
| 20260505211035 | -17 | 225 | 1.6 | 8.0 | 0.00 | 0.03 | 0.00 | 999.5 | |
| 20260505211015 | -17 | 225 | 3.2 | 8.0 | 0.00 | 0.03 | 0.00 | 999.5 | |
| 20260505210935 | -17 | 225 | 3.2 | 8.0 | 0.00 | 0.03 | 0.00 | 999.5 | |
| 20260505210925 | -17 | 225 | 3.2 | 8.0 | 0.00 | 0.03 | 0.00 | 999.6 | |
| 20260505210905 | -17 | 225 | 1.6 | 8.0 | 0.00 | 0.03 | 0.00 | 999.5 | |
| 20260505210855 | -17 | 225 | 1.6 | 8.0 | 0.00 | 0.03 | 0.00 | 999.6 | |
| 20260505210835 | -17 | 225 | 3.2 | 8.0 | 0.00 | 0.03 | 0.00 | 999.5 | |
| 20260505210755 | -17 | 225 | 1.6 | 8.0 | 0.00 | 0.03 | 0.00 | 999.6 | |
| 20260505210745 | -17 | 203 | 1.6 | 8.0 | 0.00 | 0.03 | 0.00 | 999.6 | |
| 20260505210725 | -17 | 0 | 3.2 | 8.0 | 0.00 | 0.03 | 0.00 | 999.5 | |
| 20260505210705 | -17 | 225 | 3.2 | 8.0 | 0.00 | 0.03 | 0.00 | 999.6 | |
| 20260505210645 | -17 | 270 | 4.8 | 8.0 | 0.00 | 0.03 | 0.00 | 999.6 | |
| 20260505210635 | -17 | 225 | 4.8 | 8.0 | 0.00 | 0.03 | 0.00 | 999.5 | |
| 20260505210625 | -17 | 225 | 4.8 | 8.0 | 0.00 | 0.03 | 0.00 | 999.6 | |
| 20260505210615 | -17 | 225 | 3.2 | 8.0 | 0.00 | 0.03 | 0.00 | 999.6 | |
| 20260505210605 | -17 | 203 | 3.2 | 8.0 | 0.00 | 0.03 | 0.00 | 999.6 | |
| 20260505210555 | -17 | 225 | 3.2 | 6.4 | 0.00 | 0.03 | 0.00 | 999.5 | |
| 20260505210545 | -17 | 203 | 3.2 | 6.4 | 0.00 | 0.03 | 0.00 | 999.5 | |
| 20260505210515 | -17 | 225 | 3.2 | 6.4 | 0.00 | 0.03 | 0.00 | 999.6 | |
| 20260505210505 | -17 | 203 | 3.2 | 6.4 | 0.00 | 0.03 | 0.00 | 999.6 | |
| 20260505210445 | -17 | 225 | 1.6 | 6.4 | 0.00 | 0.03 | 0.00 | 999.6 | |
| 20260505210435 | -17 | 203 | 3.2 | 6.4 | 0.00 | 0.03 | 0.00 | 999.5 | |
| 20260505210425 | -17 | 225 | 3.2 | 6.4 | 0.00 | 0.03 | 0.00 | 999.5 | |
| 20260505210405 | -17 | 225 | 3.2 | 6.4 | 0.00 | 0.03 | 0.00 | 999.6 | |
| 20260505210356 | -17 | 203 | 3.2 | 6.4 | 0.00 | 0.03 | 0.00 | 999.5 | |
| 20260505210336 | -17 | 180 | 3.2 | 6.4 | 0.00 | 0.03 | 0.00 | 999.6 | |
| 20260505210326 | -17 | 180 | 3.2 | 6.4 | 0.00 | 0.03 | 0.00 | 999.5 | |
| 20260505210316 | -17 | 203 | 3.2 | 6.4 | 0.00 | 0.03 | 0.00 | 999.5 | |
| 20260505210306 | -17 | 225 | 1.6 | 6.4 | 0.00 | 0.03 | 0.00 | 999.5 | |
| 20260505210256 | -17 | 225 | 1.6 | 6.4 | 0.00 | 0.03 | 0.00 | ||
| 20260505210236 | -17 | 203 | 1.6 | 6.4 | 0.00 | 0.03 | 0.00 | 999.5 | |
| 20260505210156 | -17 | 225 | 1.6 | 6.4 | 0.00 | 0.03 | 0.00 | 999.5 | |
| 20260505210146 | -17 | 203 | 3.2 | 6.4 | 0.00 | 0.03 | 0.00 | 999.5 | |
| 20260505210136 | -17 | 225 | 3.2 | 6.4 | 0.00 | 0.03 | 0.00 | 999.5 | |
| 20260505210056 | -17 | 225 | 3.2 | 6.4 | 0.00 | 0.03 | 0.00 | 999.5 | |
| 20260505210016 | -17 | 225 | 3.2 | 6.4 | 0.00 | 0.03 | 0.00 | 999.5 | |
| 20260505205946 | -17 | 225 | 3.2 | 6.4 | 0.00 | 0.03 | 0.00 | 999.4 | |
| 20260505205926 | -17 | 225 | 3.2 | 6.4 | 0.00 | 0.03 | 0.00 | 999.5 | |
| 20260505205906 | -17 | 225 | 1.6 | 6.4 | 0.00 | 0.03 | 0.00 | 999.5 | |
| 20260505205856 | -17 | 225 | 1.6 | 6.4 | 0.00 | 0.03 | 0.00 | 999.4 | |
| 20260505205836 | -17 | 180 | 3.2 | 6.4 | 0.00 | 0.03 | 0.00 | 999.4 | |
| 20260505205826 | -17 | 225 | 3.2 | 6.4 | 0.00 | 0.03 | 0.00 | 999.4 | |
| 20260505205746 | -17 | 225 | 3.2 | 6.4 | 0.00 | 0.03 | 0.00 | 999.4 | |
| 20260505205726 | -17 | 225 | 4.8 | 6.4 | 0.00 | 0.03 | 0.00 | 999.4 | |
| 20260505205657 | -17 | 225 | 4.8 | 6.4 | 0.00 | 0.03 | 0.00 | 999.3 | |
| 20260505205647 | -17 | 225 | 4.8 | 6.4 | 0.00 | 0.03 | 0.00 | 999.4 | |
| 20260505205617 | -17 | 225 | 3.2 | 6.4 | 0.00 | 0.03 | 0.00 | 999.4 | |
| 20260505205537 | -17 | 225 | 3.2 | 6.4 | 0.00 | 0.03 | 0.00 | 999.4 | |
| 20260505205517 | -17 | 225 | 3.2 | 4.8 | 0.00 | 0.03 | 0.00 | 999.3 | |
| 20260505205507 | -17 | 225 | 3.2 | 4.8 | 0.00 | 0.03 | 0.00 | 999.4 | |
| 20260505205427 | -17 | 225 | 3.2 | 4.8 | 0.00 | 0.03 | 0.00 | 999.3 | |
| 20260505205417 | -17 | 225 | 3.2 | 4.8 | 0.00 | 0.03 | 0.00 | 999.4 | |
| 20260505205407 | -17 | 225 | 3.2 | 6.4 | 0.00 | 0.03 | 0.00 | 999.4 | |
| 20260505205357 | -17 | 225 | 1.6 | 6.4 | 0.00 | 0.03 | 0.00 | 999.3 | |
| 20260505205347 | -17 | 225 | 1.6 | 6.4 | 0.00 | 0.03 | 0.00 | 999.4 | |
| 20260505205317 | -17 | 225 | 0.0 | 6.4 | 0.00 | 0.03 | 0.00 | 999.3 | |
| 20260505205237 | -17 | 225 | 0.0 | 6.4 | 0.00 | 0.03 | 0.00 | 999.3 | |
| 20260505205157 | -17 | 225 | 0.0 | 6.4 | 0.00 | 0.03 | 0.00 | 999.3 | |
| 20260505205147 | -17 | 225 | 1.6 | 6.4 | 0.00 | 0.03 | 0.00 | 999.3 | |
| 20260505205127 | -17 | 203 | 0.0 | 6.4 | 0.00 | 0.03 | 0.00 | 999.3 | |
| 20260505205107 | -17 | 225 | 0.0 | 6.4 | 0.00 | 0.03 | 0.00 | 999.3 | |
| 20260505205047 | -17 | 180 | 0.0 | 6.4 | 0.00 | 0.03 | 0.00 | 999.3 | |
| 20260505205028 | -17 | 225 | 0.0 | 6.4 | 0.00 | 0.03 | 0.00 | 999.3 | |
| 20260505205018 | -17 | 225 | 1.6 | 6.4 | 0.00 | 0.03 | 0.00 | 999.3 | |
| 20260505204948 | -17 | 225 | 3.2 | 6.4 | 0.00 | 0.03 | 0.00 | 999.2 | |
| 20260505204938 | -17 | 225 | 3.2 | 6.4 | 0.00 | 0.03 | 0.00 | 999.3 | |
| 20260505204928 | -17 | 225 | 4.8 | 6.4 | 0.00 | 0.03 | 0.00 | 999.2 | |
| 20260505204848 | -17 | 225 | 4.8 | 6.4 | 0.00 | 0.03 | 0.00 | 999.2 | |
| 20260505204818 | -17 | 270 | 3.2 | 6.4 | 0.00 | 0.03 | 0.00 | 999.2 | |
| 20260505204808 | -17 | 225 | 3.2 | 6.4 | 0.00 | 0.03 | 0.00 | 999.2 | |
| 20260505204728 | -17 | 270 | 3.2 | 6.4 | 0.00 | 0.03 | 0.00 | 999.2 | |
| 20260505204658 | -17 | 270 | 3.2 | 6.4 | 0.00 | 0.03 | 0.00 | 999.1 | |
| 20260505204648 | -17 | 270 | 3.2 | 6.4 | 0.00 | 0.03 | 0.00 | 999.2 | |
| 20260505204638 | -17 | 248 | 3.2 | 6.4 | 0.00 | 0.03 | 0.00 | 999.2 | |
| 20260505204628 | -17 | 225 | 3.2 | 6.4 | 0.00 | 0.03 | 0.00 | 999.2 | |
| 20260505204618 | -17 | 248 | 3.2 | 6.4 | 0.00 | 0.03 | 0.00 | 999.1 | |
| 20260505204608 | -17 | 270 | 3.2 | 6.4 | 0.00 | 0.03 | 0.00 | 999.1 | |
| 20260505204558 | -17 | 225 | 3.2 | 6.4 | 0.00 | 0.03 | 0.00 | 999.1 | |
| 20260505204548 | -17 | 225 | 3.2 | 6.4 | 0.00 | 0.03 | 0.00 | 999.2 | |
| 20260505204518 | -17 | 270 | 3.2 | 6.4 | 0.00 | 0.03 | 0.00 | 999.1 | |
| 20260505204508 | -17 | 270 | 3.2 | 6.4 | 0.00 | 0.03 | 0.00 | 999.2 | |
| 20260505204428 | -17 | 270 | 3.2 | 6.4 | 0.00 | 0.03 | 0.00 | 999.1 | |
| 20260505204349 | -17 | 270 | 3.2 | 6.4 | 0.00 | 0.03 | 0.00 | 999.1 | |
| 20260505204309 | -17 | 270 | 3.2 | 6.4 | 0.00 | 0.03 | 0.00 | 999.1 | |
| 20260505204229 | -17 | 270 | 3.2 | 6.4 | 0.00 | 0.03 | 0.00 | 999.1 | |
| 20260505204149 | -17 | 270 | 3.2 | 8.0 | 0.00 | 0.03 | 0.00 | 999.1 | |
| 20260505204109 | -17 | 270 | 3.2 | 8.0 | 0.00 | 0.03 | 0.00 | 999.0 | |
| 20260505204039 | -17 | 270 | 3.2 | 8.0 | 0.00 | 0.03 | 0.00 | 999.1 | |
| 20260505204029 | 16 | 270 | 3.2 | 8.0 | 0.00 | 0.03 | 0.00 | 73 | 999.0 |
| 20260505204019 | -17 | 270 | 3.2 | 8.0 | 0.00 | 0.03 | 0.00 | 999.0 | |
| 20260505203949 | -17 | 270 | 3.2 | 8.0 | 0.00 | 0.03 | 0.00 | 999.1 | |
| 20260505203939 | -17 | 270 | 3.2 | 8.0 | 0.00 | 0.03 | 0.00 | 999.0 | |
| 20260505203859 | -17 | 270 | 3.2 | 8.0 | 0.00 | 0.03 | 0.00 | 999.0 | |
| 20260505203839 | -17 | 270 | 3.2 | 8.0 | 0.00 | 0.03 | 0.00 | 999.1 | |
| 20260505203819 | -17 | 270 | 3.2 | 8.0 | 0.00 | 0.03 | 0.00 | 999.0 | |
| 20260505203749 | -17 | 270 | 4.8 | 8.0 | 0.00 | 0.03 | 0.00 | 915.3 | |
| 20260505203739 | -17 | 270 | 4.8 | 8.0 | 0.00 | 0.03 | 0.00 | 999.0 | |
| 20260505203720 | -17 | 315 | 3.2 | 9.7 | 0.00 | 0.03 | 0.00 | 999.0 | |
| 20260505203700 | -17 | 270 | 3.2 | 9.7 | 0.00 | 0.03 | 0.00 | 999.0 | |
| 20260505203650 | 16 | 315 | 3.2 | 9.7 | 0.00 | 0.03 | 0.00 | 73 | 999.0 |
| 20260505203640 | -17 | 315 | 3.2 | 9.7 | 0.00 | 0.03 | 0.00 | 998.9 | |
| 20260505203620 | -17 | 315 | 3.2 | 9.7 | 0.00 | 0.03 | 0.00 | 999.0 | |
| 20260505203601 | -17 | 315 | 3.2 | 9.7 | 0.00 | 0.03 | 0.00 | 998.9 | |
| 20260505203530 | -17 | 270 | 3.2 | 9.7 | 0.00 | 0.03 | 0.00 | 998.9 | |
| 20260505203520 | -17 | 315 | 3.2 | 9.7 | 0.00 | 0.03 | 0.00 | 998.9 | |
| 20260505203510 | -17 | 315 | 3.2 | 9.7 | 0.00 | 0.03 | 0.00 | 999.0 | |
| 20260505203450 | -17 | 270 | 4.8 | 9.7 | 0.00 | 0.03 | 0.00 | 998.9 | |
| 20260505203440 | -17 | 293 | 4.8 | 9.7 | 0.00 | 0.03 | 0.00 | 998.9 | |
| 20260505203420 | -17 | 315 | 4.8 | 9.7 | 0.00 | 0.03 | 0.00 | 998.9 | |
| 20260505203410 | -17 | 270 | 4.8 | 9.7 | 0.00 | 0.03 | 0.00 | 998.9 | |
| 20260505203400 | -17 | 315 | 6.4 | 9.7 | 0.00 | 0.03 | 0.00 | 998.9 | |
| 20260505203330 | -17 | 270 | 6.4 | 9.7 | 0.00 | 0.03 | 0.00 | 998.9 | |
| 20260505203310 | -17 | 315 | 6.4 | 9.7 | 0.00 | 0.03 | 0.00 | 998.9 | |
| 20260505203230 | -17 | 315 | 6.4 | 9.7 | 0.00 | 0.03 | 0.00 | 998.9 | |
| 20260505203220 | -17 | 315 | 6.4 | 8.0 | 0.00 | 0.03 | 0.00 | 998.9 | |
| 20260505203210 | -17 | 293 | 6.4 | 8.0 | 0.00 | 0.03 | 0.00 | 998.8 | |
| 20260505203200 | -17 | 270 | 6.4 | 8.0 | 0.00 | 0.03 | 0.00 | 998.9 | |
| 20260505203151 | -17 | 270 | 4.8 | 8.0 | 0.00 | 0.03 | 0.00 | 998.9 | |
| 20260505203140 | -17 | 315 | 4.8 | 8.0 | 0.00 | 0.03 | 0.00 | 998.9 | |
| 20260505203130 | -17 | 315 | 6.4 | 8.0 | 0.00 | 0.03 | 0.00 | 998.8 | |
| 20260505203100 | -17 | 315 | 6.4 | 8.0 | 0.00 | 0.03 | 0.00 | 998.9 | |
| 20260505203051 | -17 | 293 | 6.4 | 8.0 | 0.00 | 0.03 | 0.00 | 998.8 | |
| 20260505203041 | -17 | 293 | 6.4 | 8.0 | 0.00 | 0.03 | 0.00 | 998.9 | |
| 20260505203031 | -17 | 315 | 6.4 | 9.7 | 0.00 | 0.03 | 0.00 | 998.8 | |
| 20260505203011 | -17 | 315 | 4.8 | 11.3 | 0.00 | 0.03 | 0.00 | 998.9 | |
| 20260505203001 | -17 | 315 | 4.8 | 11.3 | 0.00 | 0.03 | 0.00 | 998.8 | |
| 20260505202951 | -17 | 270 | 4.8 | 11.3 | 0.00 | 0.03 | 0.00 | 998.9 | |
| 20260505202941 | -17 | 315 | 3.2 | 11.3 | 0.00 | 0.03 | 0.00 | 998.8 | |
| 20260505202931 | -17 | 270 | 4.8 | 11.3 | 0.00 | 0.03 | 0.00 | 998.8 | |
| 20260505202911 | -17 | 315 | 3.2 | 11.3 | 0.00 | 0.03 | 0.00 | 998.9 | |
| 20260505202901 | -17 | 270 | 3.2 | 11.3 | 0.00 | 0.03 | 0.00 | 998.8 | |
| 20260505202841 | -17 | 315 | 4.8 | 11.3 | 0.00 | 0.03 | 0.00 | 998.8 | |
| 20260505202821 | -17 | 315 | 4.8 | 11.3 | 0.00 | 0.03 | 0.00 | 998.9 | |
| 20260505202811 | -17 | 270 | 4.8 | 11.3 | 0.00 | 0.03 | 0.00 | 998.8 | |
| 20260505202801 | -17 | 315 | 4.8 | 11.3 | 0.00 | 0.03 | 0.00 | 998.8 | |
| 20260505202751 | -17 | 293 | 4.8 | 11.3 | 0.00 | 0.03 | 0.00 | 998.8 | |
| 20260505202741 | -17 | 315 | 4.8 | 11.3 | 0.00 | 0.03 | 0.00 | 998.9 | |
| 20260505202721 | -17 | 315 | 4.8 | 11.3 | 0.00 | 0.03 | 0.00 | 998.8 | |
| 20260505202711 | -17 | 315 | 6.4 | 11.3 | 0.00 | 0.03 | 0.00 | 998.9 | |
| 20260505202641 | -17 | 315 | 6.4 | 11.3 | 0.00 | 0.03 | 0.00 | 998.8 | |
| 20260505202611 | -17 | 315 | 6.4 | 12.9 | 0.00 | 0.03 | 0.00 | 998.8 | |
| 20260505202531 | -17 | 315 | 6.4 | 12.9 | 0.00 | 0.03 | 0.00 | 998.8 | |
| 20260505202521 | -17 | 293 | 6.4 | 16.1 | 0.00 | 0.03 | 0.00 | 998.8 | |
| 20260505202501 | -17 | 270 | 6.4 | 17.7 | 0.00 | 0.03 | 0.00 | 998.8 | |
| 20260505202451 | -17 | 315 | 6.4 | 17.7 | 0.00 | 0.03 | 0.00 | 998.8 | |
| 20260505202431 | -17 | 293 | 6.4 | 17.7 | 0.00 | 0.03 | 0.00 | 998.8 | |
| 20260505202411 | -17 | 315 | 6.4 | 17.7 | 0.00 | 0.03 | 0.00 | 998.8 | |
| 20260505202352 | 17 | 315 | 6.4 | 17.7 | 0.00 | 0.03 | 0.00 | 71 | 998.8 |
| 20260505202341 | -17 | 270 | 6.4 | 17.7 | 0.00 | 0.03 | 0.00 | 998.8 | |
| 20260505202332 | -17 | 315 | 6.4 | 17.7 | 0.00 | 0.03 | 0.00 | 998.8 | |
| 20260505202302 | -17 | 270 | 6.4 | 17.7 | 0.00 | 0.03 | 0.00 | 998.8 | |
| 20260505202252 | -17 | 315 | 6.4 | 17.7 | 0.00 | 0.03 | 0.00 | 998.8 | |
| 20260505202242 | -17 | 0 | 6.4 | 17.7 | 0.00 | 0.03 | 0.00 | 998.8 | |
| 20260505202212 | -17 | 315 | 6.4 | 17.7 | 0.00 | 0.03 | 0.00 | 998.8 | |
| 20260505202202 | -17 | 293 | 6.4 | 17.7 | 0.00 | 0.03 | 0.00 | 998.8 | |
| 20260505202152 | -17 | 270 | 6.4 | 17.7 | 0.00 | 0.03 | 0.00 | 998.8 | |
| 20260505202132 | -17 | 315 | 6.4 | 17.7 | 0.00 | 0.03 | 0.00 | 998.8 | |
| 20260505202122 | -17 | 315 | 8.0 | 17.7 | 0.00 | 0.03 | 0.00 | 998.8 | |
| 20260505202112 | -17 | 315 | 9.7 | 17.7 | 0.00 | 0.03 | 0.00 | 998.8 | |
| 20260505202042 | -17 | 293 | 9.7 | 17.7 | 0.00 | 0.03 | 0.00 | 998.8 | |
| 20260505202032 | -17 | 315 | 9.7 | 17.7 | 0.00 | 0.03 | 0.00 | 998.8 | |
| 20260505202022 | -17 | 270 | 8.0 | 17.7 | 0.00 | 0.03 | 0.00 | 998.8 | |
| 20260505202012 | -17 | 270 | 6.4 | 12.9 | 0.00 | 0.03 | 0.00 | 998.8 | |
| 20260505201952 | -17 | 315 | 6.4 | 11.3 | 0.00 | 0.03 | 0.00 | 998.8 | |
| 20260505201912 | -17 | 315 | 6.4 | 11.3 | 0.00 | 0.03 | 0.00 | 998.8 | |
| 20260505201902 | -17 | 270 | 6.4 | 11.3 | 0.00 | 0.03 | 0.00 | 998.8 | |
| 20260505201822 | -17 | 315 | 6.4 | 11.3 | 0.00 | 0.03 | 0.00 | 998.8 | |
| 20260505201752 | -17 | 270 | 6.4 | 11.3 | 0.00 | 0.03 | 0.00 | 998.8 | |
| 20260505201743 | -17 | 315 | 6.4 | 11.3 | 0.00 | 0.03 | 0.00 | 998.8 | |
| 20260505201723 | -17 | 293 | 6.4 | 11.3 | 0.00 | 0.03 | 0.00 | 998.8 | |
| 20260505201653 | -17 | 315 | 6.4 | 11.3 | 0.00 | 0.03 | 0.00 | 998.8 | |
| 20260505201643 | -17 | 293 | 6.4 | 11.3 | 0.00 | 0.03 | 0.00 | 998.8 | |
| 20260505201633 | -17 | 315 | 6.4 | 11.3 | 0.00 | 0.03 | 0.00 | 998.9 | |
| 20260505201613 | -17 | 315 | 8.0 | 11.3 | 0.00 | 0.03 | 0.00 | 998.8 | |
| 20260505201603 | -17 | 270 | 8.0 | 11.3 | 0.00 | 0.03 | 0.00 | 998.8 | |
| 20260505201523 | -17 | 315 | 8.0 | 11.3 | 0.00 | 0.03 | 0.00 | 998.8 | |
| 20260505201513 | -17 | 293 | 8.0 | 11.3 | 0.00 | 0.03 | 0.00 | 998.8 | |
| 20260505201503 | -17 | 315 | 6.4 | 11.3 | 0.00 | 0.03 | 0.00 | 998.8 | |
| 20260505201443 | -17 | 270 | 6.4 | 11.3 | 0.00 | 0.03 | 0.00 | 998.8 | |
| 20260505201423 | -17 | 293 | 6.4 | 11.3 | 0.00 | 0.03 | 0.00 | 998.8 | |
| 20260505201403 | -17 | 315 | 6.4 | 11.3 | 0.00 | 0.03 | 0.00 | 998.8 | |
| 20260505201343 | -17 | 270 | 6.4 | 11.3 | 0.00 | 0.03 | 0.00 | 998.8 | |
| 20260505201313 | -17 | 293 | 6.4 | 11.3 | 0.00 | 0.03 | 0.00 | 998.8 | |
| 20260505201303 | -17 | 315 | 6.4 | 11.3 | 0.00 | 0.03 | 0.00 | 998.8 | |
| 20260505201233 | -17 | 270 | 6.4 | 11.3 | 0.00 | 0.03 | 0.00 | 998.8 | |
| 20260505201223 | -17 | 293 | 6.4 | 11.3 | 0.00 | 0.03 | 0.00 | 998.8 | |
| 20260505201153 | -17 | 315 | 6.4 | 11.3 | 0.00 | 0.03 | 0.00 | 998.8 | |
| 20260505201133 | -17 | 315 | 6.4 | 12.9 | 0.00 | 0.03 | 0.00 | 998.8 | |
| 20260505201123 | -17 | 293 | 6.4 | 12.9 | 0.00 | 0.03 | 0.00 | 998.8 | |
| 20260505201114 | -17 | 270 | 6.4 | 12.9 | 0.00 | 0.03 | 0.00 | 998.8 | |
| 20260505201054 | -17 | 293 | 8.0 | 12.9 | 0.00 | 0.03 | 0.00 | 998.8 | |
| 20260505201044 | -17 | 293 | 6.4 | 12.9 | 0.00 | 0.03 | 0.00 | 998.8 | |
| 20260505201034 | -17 | 315 | 6.4 | 12.9 | 0.00 | 0.03 | 0.00 | 998.8 | |
| 20260505201014 | -17 | 270 | 6.4 | 12.9 | 0.00 | 0.03 | 0.00 | 998.8 | |
| 20260505201004 | -17 | 293 | 6.4 | 12.9 | 0.00 | 0.03 | 0.00 | 998.8 | |
| 20260505200954 | -17 | 315 | 6.4 | 12.9 | 0.00 | 0.03 | 0.00 | 998.8 | |
| 20260505200934 | -17 | 270 | 6.4 | 12.9 | 0.00 | 0.03 | 0.00 | 998.7 | |
| 20260505200914 | -17 | 315 | 6.4 | 12.9 | 0.00 | 0.03 | 0.00 | 998.8 | |
| 20260505200854 | -17 | 315 | 6.4 | 12.9 | 0.00 | 0.03 | 0.00 | 998.7 | |
| 20260505200814 | -17 | 315 | 6.4 | 12.9 | 0.00 | 0.03 | 0.00 | 998.7 | |
| 20260505200724 | -17 | 270 | 6.4 | 12.9 | 0.00 | 0.03 | 0.00 | 998.7 | |
| 20260505200654 | -17 | 315 | 8.0 | 12.9 | 0.00 | 0.03 | 0.00 | 998.7 | |
| 20260505200634 | -17 | 315 | 6.4 | 12.9 | 0.00 | 0.03 | 0.00 | 998.7 | |
| 20260505200624 | -17 | 293 | 6.4 | 12.9 | 0.00 | 0.03 | 0.00 | 998.7 | |
| 20260505200614 | -17 | 315 | 6.4 | 11.3 | 0.00 | 0.03 | 0.00 | 998.7 | |
| 20260505200604 | -17 | 270 | 6.4 | 11.3 | 0.00 | 0.03 | 0.00 | 998.7 | |
| 20260505200534 | -17 | 315 | 4.8 | 11.3 | 0.00 | 0.03 | 0.00 | 998.7 | |
| 20260505200524 | -17 | 270 | 4.8 | 11.3 | 0.00 | 0.03 | 0.00 | 998.7 | |
| 20260505200504 | -17 | 293 | 4.8 | 11.3 | 0.00 | 0.03 | 0.00 | 998.7 | |
| 20260505200454 | -17 | 315 | 4.8 | 11.3 | 0.00 | 0.03 | 0.00 | 998.7 | |
| 20260505200444 | -17 | 315 | 6.4 | 11.3 | 0.00 | 0.03 | 0.00 | 998.7 | |
| 20260505200424 | -17 | 315 | 6.4 | 11.3 | 0.00 | 0.03 | 0.00 | 998.6 | |
| 20260505200414 | -17 | 270 | 6.4 | 11.3 | 0.00 | 0.03 | 0.00 | 998.7 | |
| 20260505200355 | -17 | 315 | 6.4 | 11.3 | 0.00 | 0.03 | 0.00 | 998.7 | |
| 20260505200335 | -17 | 293 | 6.4 | 11.3 | 0.00 | 0.03 | 0.00 | 998.7 | |
| 20260505200315 | -17 | 315 | 6.4 | 11.3 | 0.00 | 0.03 | 0.00 | 998.7 | |
| 20260505200305 | -17 | 315 | 4.8 | 11.3 | 0.00 | 0.03 | 0.00 | 998.7 | |
| 20260505200255 | -17 | 315 | 4.8 | 11.3 | 0.00 | 0.03 | 0.00 | 998.6 | |
| 20260505200225 | -17 | 315 | 3.2 | 9.7 | 0.00 | 0.03 | 0.00 | 998.7 | |
| 20260505200215 | -17 | 315 | 4.8 | 9.7 | 0.00 | 0.03 | 0.00 | 998.7 | |
| 20260505200205 | -17 | 293 | 4.8 | 9.7 | 0.00 | 0.03 | 0.00 | 998.7 | |
| 20260505200135 | -17 | 0 | 4.8 | 9.7 | 0.00 | 0.03 | 0.00 | 998.6 | |
| 20260505200125 | -17 | 315 | 4.8 | 9.7 | 0.00 | 0.03 | 0.00 | 998.7 | |
| 20260505200105 | -17 | 270 | 4.8 | 9.7 | 0.00 | 0.03 | 0.00 | 998.7 | |
| 20260505200055 | -17 | 315 | 4.8 | 11.3 | 0.00 | 0.03 | 0.00 | 998.7 | |
| 20260505200045 | -17 | 315 | 4.8 | 11.3 | 0.00 | 0.03 | 0.00 | 998.6 | |
| 20260505200035 | -17 | 293 | 4.8 | 11.3 | 0.00 | 0.03 | 0.00 | 998.6 | |
| 20260505200025 | -17 | 293 | 4.8 | 11.3 | 0.00 | 0.03 | 0.00 | 998.7 | |
| 20260505200005 | -17 | 315 | 4.8 | 11.3 | 0.00 | 0.03 | 0.00 | 998.7 | |
| 20260505195935 | -17 | 315 | 4.8 | 11.3 | 0.00 | 0.03 | 0.00 | 998.6 | |
| 20260505195925 | -17 | 293 | 6.4 | 12.9 | 0.00 | 0.03 | 0.00 | 998.6 | |
| 20260505195915 | -17 | 293 | 6.4 | 12.9 | 0.00 | 0.03 | 0.00 | 998.7 | |
| 20260505195905 | -17 | 270 | 6.4 | 12.9 | 0.00 | 0.03 | 0.00 | 998.7 | |
| 20260505195855 | -17 | 315 | 4.8 | 12.9 | 0.00 | 0.03 | 0.00 | 998.7 | |
| 20260505195825 | -17 | 315 | 6.4 | 12.9 | 0.00 | 0.03 | 0.00 | 998.7 | |
| 20260505195815 | -17 | 293 | 6.4 | 12.9 | 0.00 | 0.03 | 0.00 | 998.6 | |
| 20260505195805 | -17 | 293 | 6.4 | 12.9 | 0.00 | 0.03 | 0.00 | 998.7 | |
| 20260505195736 | -17 | 315 | 6.4 | 12.9 | 0.00 | 0.03 | 0.00 | 998.7 | |
| 20260505195656 | -17 | 315 | 6.4 | 12.9 | 0.00 | 0.03 | 0.00 | 998.7 | |
| 20260505195616 | -17 | 315 | 6.4 | 12.9 | 0.00 | 0.03 | 0.00 | 998.7 | |
| 20260505195536 | -17 | 315 | 6.4 | 12.9 | 0.00 | 0.03 | 0.00 | 998.7 | |
| 20260505195526 | -17 | 293 | 6.4 | 12.9 | 0.00 | 0.03 | 0.00 | 998.7 | |
| 20260505195456 | -17 | 315 | 6.4 | 12.9 | 0.00 | 0.03 | 0.00 | 998.7 | |
| 20260505195436 | -17 | 270 | 6.4 | 12.9 | 0.00 | 0.03 | 0.00 | 998.7 | |
| 20260505195406 | -17 | 315 | 6.4 | 12.9 | 0.00 | 0.03 | 0.00 | 998.6 | |
| 20260505195356 | -17 | 315 | 6.4 | 12.9 | 0.00 | 0.03 | 0.00 | 998.7 | |
| 20260505195346 | -17 | 315 | 4.8 | 12.9 | 0.00 | 0.03 | 0.00 | 998.7 | |
| 20260505195326 | -17 | 315 | 3.2 | 12.9 | 0.00 | 0.03 | 0.00 | 998.7 | |
| 20260505195316 | -17 | 270 | 3.2 | 12.9 | 0.00 | 0.03 | 0.00 | 998.7 | |
| 20260505195306 | -17 | 270 | 4.8 | 12.9 | 0.00 | 0.03 | 0.00 | 998.7 | |
| 20260505195256 | -17 | 315 | 4.8 | 12.9 | 0.00 | 0.03 | 0.00 | 998.6 | |
| 20260505195246 | -17 | 270 | 6.4 | 12.9 | 0.00 | 0.03 | 0.00 | 998.6 | |
| 20260505195226 | -17 | 315 | 6.4 | 12.9 | 0.00 | 0.03 | 0.00 | 998.6 | |
| 20260505195216 | -17 | 270 | 6.4 | 12.9 | 0.00 | 0.03 | 0.00 | 998.7 | |
| 20260505195206 | -17 | 270 | 6.4 | 12.9 | 0.00 | 0.03 | 0.00 | 998.6 | |
| 20260505195156 | -17 | 315 | 6.4 | 12.9 | 0.00 | 0.03 | 0.00 | 998.7 | |
| 20260505195146 | -17 | 315 | 6.4 | 12.9 | 0.00 | 0.03 | 0.00 | 998.6 | |
| 20260505195136 | -17 | 293 | 6.4 | 9.7 | 0.00 | 0.03 | 0.00 | 998.6 | |
| 20260505195127 | -17 | 315 | 6.4 | 9.7 | 0.00 | 0.03 | 0.00 | 998.6 | |
| 20260505195117 | -17 | 315 | 4.8 | 8.0 | 0.00 | 0.03 | 0.00 | 998.6 | |
| 20260505195107 | -17 | 270 | 3.2 | 8.0 | 0.00 | 0.03 | 0.00 | 998.6 | |
| 20260505195047 | -17 | 315 | 3.2 | 8.0 | 0.00 | 0.03 | 0.00 | 998.6 | |
| 20260505195037 | -17 | 293 | 3.2 | 8.0 | 0.00 | 0.03 | 0.00 | 998.6 | |
| 20260505195027 | -17 | 315 | 1.6 | 8.0 | 0.00 | 0.03 | 0.00 | 998.6 | |
| 20260505195007 | -17 | 315 | 3.2 | 8.0 | 0.00 | 0.03 | 0.00 | 998.6 | |
| 20260505194927 | -17 | 315 | 3.2 | 8.0 | 0.00 | 0.03 | 0.00 | 998.6 | |
| 20260505194857 | -17 | 315 | 3.2 | 8.0 | 0.00 | 0.03 | 0.00 | 998.5 | |
| 20260505194847 | -17 | 315 | 3.2 | 8.0 | 0.00 | 0.03 | 0.00 | 998.6 | |
| 20260505194837 | -17 | 315 | 4.8 | 8.0 | 0.00 | 0.03 | 0.00 | 998.6 | |
| 20260505194817 | -17 | 270 | 4.8 | 8.0 | 0.00 | 0.03 | 0.00 | 998.6 | |
| 20260505194757 | -17 | 315 | 4.8 | 8.0 | 0.00 | 0.03 | 0.00 | 998.6 | |
| 20260505194737 | -17 | 293 | 3.2 | 8.0 | 0.00 | 0.03 | 0.00 | 998.6 | |
| 20260505194727 | -17 | 315 | 3.2 | 8.0 | 0.00 | 0.03 | 0.00 | 998.6 | |
| 20260505194717 | -17 | 270 | 3.2 | 8.0 | 0.00 | 0.03 | 0.00 | 998.6 | |
| 20260505194637 | -17 | 315 | 3.2 | 8.0 | 0.00 | 0.03 | 0.00 | 998.6 | |
| 20260505194607 | -17 | 315 | 4.8 | 8.0 | 0.00 | 0.03 | 0.00 | 998.6 | |
| 20260505194557 | -17 | 270 | 4.8 | 8.0 | 0.00 | 0.03 | 0.00 | 998.5 | |
| 20260505194547 | -17 | 315 | 3.2 | 8.0 | 0.00 | 0.03 | 0.00 | 998.6 | |
| 20260505194517 | -17 | 315 | 3.2 | 8.0 | 0.00 | 0.03 | 0.00 | 998.5 | |
| 20260505194508 | -17 | 315 | 3.2 | 8.0 | 0.00 | 0.03 | 0.00 | 998.6 | |
| 20260505194458 | -17 | 315 | 4.8 | 8.0 | 0.00 | 0.03 | 0.00 | 998.6 | |
| 20260505194438 | -17 | 293 | 4.8 | 8.0 | 0.00 | 0.03 | 0.00 | 998.5 | |
| 20260505194428 | -17 | 315 | 4.8 | 8.0 | 0.00 | 0.03 | 0.00 | 998.5 | |
| 20260505194418 | -17 | 315 | 3.2 | 8.0 | 0.00 | 0.03 | 0.00 | 998.5 | |
| 20260505194338 | -17 | 315 | 3.2 | 8.0 | 0.00 | 0.03 | 0.00 | 998.5 | |
| 20260505194328 | -17 | 315 | 4.8 | 8.0 | 0.00 | 0.03 | 0.00 | 998.5 | |
| 20260505194258 | -17 | 270 | 4.8 | 8.0 | 0.00 | 0.03 | 0.00 | 998.5 | |
| 20260505194238 | -17 | 315 | 4.8 | 8.0 | 0.00 | 0.03 | 0.00 | 998.5 | |
| 20260505194158 | -17 | 315 | 4.8 | 8.0 | 0.00 | 0.03 | 0.00 | 998.5 | |
| 20260505194148 | -17 | 270 | 4.8 | 8.0 | 0.00 | 0.03 | 0.00 | 998.5 | |
| 20260505194138 | -17 | 315 | 4.8 | 8.0 | 0.00 | 0.03 | 0.00 | 998.4 | |
| 20260505194128 | -17 | 293 | 4.8 | 8.0 | 0.00 | 0.03 | 0.00 | 998.4 | |
| 20260505194048 | -17 | 315 | 4.8 | 8.0 | 0.00 | 0.03 | 0.00 | 998.4 | |
| 20260505194038 | -17 | 270 | 4.8 | 8.0 | 0.00 | 0.03 | 0.00 | 998.4 | |
| 20260505194018 | -17 | 315 | 4.8 | 8.0 | 0.00 | 0.03 | 0.00 | 998.5 | |
| 20260505193938 | -17 | 315 | 4.8 | 8.0 | 0.00 | 0.03 | 0.00 | 998.4 | |
| 20260505193859 | -17 | 315 | 4.8 | 8.0 | 0.00 | 0.03 | 0.00 | 998.4 | |
| 20260505193839 | -17 | 293 | 4.8 | 8.0 | 0.00 | 0.03 | 0.00 | 998.4 | |
| 20260505193819 | -17 | 315 | 4.8 | 8.0 | 0.00 | 0.03 | 0.00 | 998.4 | |
| 20260505193809 | -17 | 315 | 6.4 | 8.0 | 0.00 | 0.03 | 0.00 | 998.4 | |
| 20260505193759 | -17 | 293 | 6.4 | 8.0 | 0.00 | 0.03 | 0.00 | 998.4 | |
| 20260505193729 | -17 | 315 | 6.4 | 8.0 | 0.00 | 0.03 | 0.00 | 998.4 | |
| 20260505193719 | -17 | 270 | 4.8 | 8.0 | 0.00 | 0.03 | 0.00 | 998.4 | |
| 20260505193709 | -17 | 315 | 4.8 | 8.0 | 0.00 | 0.03 | 0.00 | 998.4 | |
| 20260505193639 | -17 | 315 | 3.2 | 8.0 | 0.00 | 0.03 | 0.00 | 998.4 | |
| 20260505193619 | -17 | 315 | 4.8 | 8.0 | 0.00 | 0.03 | 0.00 | 998.4 | |
| 20260505193609 | -17 | 270 | 4.8 | 8.0 | 0.00 | 0.03 | 0.00 | 998.4 | |
| 20260505193539 | -17 | 315 | 6.4 | 8.0 | 0.00 | 0.03 | 0.00 | 998.4 | |
| 20260505193529 | -17 | 315 | 4.8 | 8.0 | 0.00 | 0.03 | 0.00 | 998.4 | |
| 20260505193519 | -17 | 315 | 4.8 | 9.7 | 0.00 | 0.03 | 0.00 | 998.4 | |
| 20260505193449 | -17 | 293 | 4.8 | 9.7 | 0.00 | 0.03 | 0.00 | 998.4 | |
| 20260505193439 | -17 | 315 | 4.8 | 9.7 | 0.00 | 0.03 | 0.00 | 998.4 | |
| 20260505193429 | -17 | 270 | 4.8 | 9.7 | 0.00 | 0.03 | 0.00 | 998.4 | |
| 20260505193409 | -17 | 270 | 6.4 | 9.7 | 0.00 | 0.03 | 0.00 | 998.4 | |
| 20260505193349 | -17 | 315 | 6.4 | 9.7 | 0.00 | 0.03 | 0.00 | 998.4 | |
| 20260505193339 | -17 | 293 | 6.4 | 9.7 | 0.00 | 0.03 | 0.00 | 998.3 | |
| 20260505193310 | -17 | 315 | 6.4 | 9.7 | 0.00 | 0.03 | 0.00 | 998.4 | |
| 20260505193250 | -17 | 270 | 6.4 | 9.7 | 0.00 | 0.03 | 0.00 | 998.4 | |
| 20260505193240 | -17 | 270 | 6.4 | 9.7 | 0.00 | 0.03 | 0.00 | 998.3 | |
| 20260505193230 | -17 | 315 | 6.4 | 9.7 | 0.00 | 0.03 | 0.00 | 998.3 | |
| 20260505193210 | -17 | 315 | 6.4 | 9.7 | 0.00 | 0.03 | 0.00 | 998.4 | |
| 20260505193150 | -17 | 315 | 6.4 | 9.7 | 0.00 | 0.03 | 0.00 | 998.3 | |
| 20260505193140 | -17 | 270 | 6.4 | 9.7 | 0.00 | 0.03 | 0.00 | 998.4 | |
| 20260505193130 | -17 | 270 | 6.4 | 9.7 | 0.00 | 0.03 | 0.00 | 998.3 | |
| 20260505193100 | -17 | 315 | 6.4 | 9.7 | 0.00 | 0.03 | 0.00 | 998.4 | |
| 20260505193050 | -17 | 293 | 6.4 | 9.7 | 0.00 | 0.03 | 0.00 | 998.4 | |
| 20260505193030 | -17 | 270 | 6.4 | 9.7 | 0.00 | 0.03 | 0.00 | 998.4 | |
| 20260505193010 | -17 | 293 | 6.4 | 9.7 | 0.00 | 0.03 | 0.00 | 998.4 | |
| 20260505192950 | -17 | 315 | 6.4 | 9.7 | 0.00 | 0.03 | 0.00 | 998.3 | |
| 20260505192930 | -17 | 270 | 6.4 | 9.7 | 0.00 | 0.03 | 0.00 | 998.3 | |
| 20260505192910 | -17 | 315 | 6.4 | 9.7 | 0.00 | 0.03 | 0.00 | 998.3 | |
| 20260505192830 | -17 | 315 | 6.4 | 9.7 | 0.00 | 0.03 | 0.00 | 998.3 | |
| 20260505192820 | -17 | 293 | 6.4 | 9.7 | 0.00 | 0.03 | 0.00 | 998.3 | |
| 20260505192810 | -17 | 270 | 6.4 | 9.7 | 0.00 | 0.03 | 0.00 | 998.3 | |
| 20260505192740 | -17 | 315 | 6.4 | 9.7 | 0.00 | 0.03 | 0.00 | 998.3 | |
| 20260505192730 | -17 | 270 | 6.4 | 9.7 | 0.00 | 0.03 | 0.00 | 998.3 | |
| 20260505192701 | -17 | 293 | 6.4 | 9.7 | 0.00 | 0.03 | 0.00 | 998.3 | |
| 20260505192651 | -17 | 315 | 6.4 | 9.7 | 0.00 | 0.03 | 0.00 | 998.3 | |
| 20260505192641 | -17 | 270 | 6.4 | 9.7 | 0.00 | 0.03 | 0.00 | 998.3 | |
| 20260505192601 | -17 | 315 | 6.4 | 9.7 | 0.00 | 0.03 | 0.00 | 998.3 | |
| 20260505192551 | -17 | 270 | 6.4 | 9.7 | 0.00 | 0.03 | 0.00 | 998.3 | |
| 20260505192531 | -17 | 293 | 6.4 | 9.7 | 0.00 | 0.03 | 0.00 | 998.3 | |
| 20260505192521 | -17 | 315 | 6.4 | 9.7 | 0.00 | 0.03 | 0.00 | 998.3 | |
| 20260505192441 | -17 | 315 | 6.4 | 9.7 | 0.00 | 0.03 | 0.00 | 998.3 | |
| 20260505192431 | -17 | 270 | 6.4 | 9.7 | 0.00 | 0.03 | 0.00 | 998.3 | |
| 20260505192421 | -17 | 315 | 6.4 | 9.7 | 0.00 | 0.03 | 0.00 | 998.2 | |
| 20260505192351 | -17 | 270 | 6.4 | 9.7 | 0.00 | 0.03 | 0.00 | 998.2 | |
| 20260505192341 | -17 | 270 | 6.4 | 9.7 | 0.00 | 0.03 | 0.00 | 998.3 | |
| 20260505192311 | -17 | 315 | 6.4 | 8.0 | 0.00 | 0.03 | 0.00 | 998.2 | |
| 20260505192251 | -17 | 293 | 6.4 | 8.0 | 0.00 | 0.03 | 0.00 | 998.2 | |
| 20260505192231 | -17 | 270 | 6.4 | 8.0 | 0.00 | 0.03 | 0.00 | 998.2 | |
| 20260505192211 | -17 | 315 | 6.4 | 8.0 | 0.00 | 0.03 | 0.00 | 998.3 | |
| 20260505192201 | -17 | 315 | 6.4 | 8.0 | 0.00 | 0.03 | 0.00 | 998.2 | |
| 20260505192141 | -17 | 270 | 4.8 | 8.0 | 0.00 | 0.03 | 0.00 | 998.2 | |
| 20260505192131 | -17 | 293 | 4.8 | 8.0 | 0.00 | 0.03 | 0.00 | 998.2 | |
| 20260505192102 | -17 | 270 | 4.8 | 8.0 | 0.00 | 0.03 | 0.00 | 998.2 | |
| 20260505192052 | -17 | 270 | 6.4 | 8.0 | 0.00 | 0.03 | 0.00 | 998.2 | |
| 20260505192042 | -17 | 315 | 6.4 | 8.0 | 0.00 | 0.03 | 0.00 | 998.2 | |
| 20260505192022 | -17 | 270 | 4.8 | 8.0 | 0.00 | 0.03 | 0.00 | 998.2 | |
| 20260505191952 | -17 | 270 | 4.8 | 11.3 | 0.00 | 0.03 | 0.00 | 998.2 | |
| 20260505191942 | -17 | 293 | 4.8 | 11.3 | 0.00 | 0.03 | 0.00 | 998.2 | |
| 20260505191932 | -17 | 315 | 6.4 | 11.3 | 0.00 | 0.03 | 0.00 | 998.2 | |
| 20260505191922 | -17 | 270 | 6.4 | 11.3 | 0.00 | 0.03 | 0.00 | 998.1 | |
| 20260505191902 | -17 | 270 | 6.4 | 11.3 | 0.00 | 0.03 | 0.00 | 998.2 | |
| 20260505191852 | -17 | 315 | 4.8 | 11.3 | 0.00 | 0.03 | 0.00 | 998.1 | |
| 20260505191832 | -17 | 315 | 4.8 | 11.3 | 0.00 | 0.03 | 0.00 | 998.2 | |
| 20260505191812 | -17 | 270 | 4.8 | 11.3 | 0.00 | 0.03 | 0.00 | 998.2 | |
| 20260505191732 | -17 | 270 | 4.8 | 11.3 | 0.00 | 0.03 | 0.00 | 998.1 | |
| 20260505191712 | -17 | 315 | 6.4 | 11.3 | 0.00 | 0.03 | 0.00 | 998.1 | |
| 20260505191702 | -17 | 270 | 6.4 | 11.3 | 0.00 | 0.03 | 0.00 | 998.1 | |
| 20260505191622 | -17 | 270 | 6.4 | 11.3 | 0.00 | 0.03 | 0.00 | 998.1 | |
| 20260505191603 | -17 | 315 | 6.4 | 11.3 | 0.00 | 0.03 | 0.00 | 998.1 | |
| 20260505191552 | -17 | 270 | 6.4 | 11.3 | 0.00 | 0.03 | 0.00 | 998.0 | |
| 20260505191532 | -17 | 315 | 6.4 | 11.3 | 0.00 | 0.03 | 0.00 | 998.0 | |
| 20260505191522 | -17 | 270 | 6.4 | 11.3 | 0.00 | 0.03 | 0.00 | 998.1 | |
| 20260505191512 | -17 | 270 | 6.4 | 9.7 | 0.00 | 0.03 | 0.00 | 998.1 | |
| 20260505191453 | -17 | 270 | 4.8 | 8.0 | 0.00 | 0.03 | 0.00 | 998.1 | |
| 20260505191443 | -17 | 293 | 4.8 | 8.0 | 0.00 | 0.03 | 0.00 | 998.1 | |
| 20260505191433 | 17 | 315 | 4.8 | 8.0 | 0.00 | 0.03 | 0.00 | 70 | 998.1 |
| 20260505191423 | 17 | 293 | 4.8 | 8.0 | 0.00 | 0.03 | 0.00 | 70 | 998.0 |
| 20260505191413 | -17 | 293 | 4.8 | 8.0 | 0.00 | 0.03 | 0.00 | 998.0 | |
| 20260505191403 | -17 | 315 | 4.8 | 8.0 | 0.00 | 0.03 | 0.00 | 998.0 | |
| 20260505191353 | -17 | 270 | 4.8 | 8.0 | 0.00 | 0.03 | 0.00 | 998.0 | |
| 20260505191343 | -17 | 270 | 3.2 | 8.0 | 0.00 | 0.03 | 0.00 | 998.0 | |
| 20260505191333 | -17 | 293 | 3.2 | 8.0 | 0.00 | 0.03 | 0.00 | 998.0 | |
| 20260505191313 | -17 | 315 | 3.2 | 8.0 | 0.00 | 0.03 | 0.00 | 998.0 | |
| 20260505191303 | -17 | 270 | 3.2 | 8.0 | 0.00 | 0.03 | 0.00 | 998.0 | |
| 20260505191253 | -17 | 293 | 3.2 | 8.0 | 0.00 | 0.03 | 0.00 | 998.0 | |
| 20260505191223 | -17 | 315 | 4.8 | 8.0 | 0.00 | 0.03 | 0.00 | 998.0 | |
| 20260505191213 | -17 | 270 | 4.8 | 8.0 | 0.00 | 0.03 | 0.00 | 998.0 | |
| 20260505191203 | -17 | 293 | 4.8 | 8.0 | 0.00 | 0.03 | 0.00 | 997.9 | |
| 20260505191143 | -17 | 270 | 6.4 | 8.0 | 0.00 | 0.03 | 0.00 | 998.0 | |
| 20260505191123 | -17 | 315 | 6.4 | 8.0 | 0.00 | 0.03 | 0.00 | 998.0 | |
| 20260505191113 | -17 | 315 | 6.4 | 8.0 | 0.00 | 0.03 | 0.00 | 997.9 | |
| 20260505191103 | -17 | 315 | 4.8 | 8.0 | 0.00 | 0.03 | 0.00 | 998.0 | |
| 20260505191043 | -17 | 270 | 4.8 | 8.0 | 0.00 | 0.03 | 0.00 | 998.0 | |
| 20260505191033 | -17 | 315 | 4.8 | 8.0 | 0.00 | 0.03 | 0.00 | 997.9 | |
| 20260505191013 | -17 | 293 | 4.8 | 8.0 | 0.00 | 0.03 | 0.00 | 998.0 | |
| 20260505190953 | -17 | 315 | 4.8 | 8.0 | 0.00 | 0.03 | 0.00 | 997.9 | |
| 20260505190943 | -17 | 270 | 4.8 | 8.0 | 0.00 | 0.03 | 0.00 | 997.9 | |
| 20260505190933 | -17 | 293 | 4.8 | 8.0 | 0.00 | 0.03 | 0.00 | 997.9 | |
| 20260505190923 | -17 | 270 | 4.8 | 8.0 | 0.00 | 0.03 | 0.00 | 998.0 | |
| 20260505190914 | -17 | 315 | 4.8 | 8.0 | 0.00 | 0.03 | 0.00 | 997.9 | |
| 20260505190904 | -17 | 315 | 3.2 | 8.0 | 0.00 | 0.03 | 0.00 | 997.9 | |
| 20260505190844 | -17 | 293 | 3.2 | 8.0 | 0.00 | 0.03 | 0.00 | 997.9 | |
| 20260505190834 | -17 | 270 | 3.2 | 8.0 | 0.00 | 0.03 | 0.00 | 997.9 | |
| 20260505190824 | -17 | 315 | 3.2 | 8.0 | 0.00 | 0.03 | 0.00 | 997.9 | |
| 20260505190804 | -17 | 315 | 4.8 | 8.0 | 0.00 | 0.03 | 0.00 | 997.9 | |
| 20260505190734 | -17 | 293 | 4.8 | 8.0 | 0.00 | 0.03 | 0.00 | 997.9 | |
| 20260505190724 | -17 | 315 | 4.8 | 8.0 | 0.00 | 0.03 | 0.00 | 997.9 | |
| 20260505190714 | -17 | 293 | 3.2 | 8.0 | 0.00 | 0.03 | 0.00 | 997.9 | |
| 20260505190704 | -17 | 270 | 3.2 | 8.0 | 0.00 | 0.03 | 0.00 | 997.9 | |
| 20260505190644 | -17 | 270 | 4.8 | 8.0 | 0.00 | 0.03 | 0.00 | 997.9 | |
| 20260505190624 | -17 | 270 | 3.2 | 8.0 | 0.00 | 0.03 | 0.00 | 997.9 | |
| 20260505190544 | -17 | 270 | 3.2 | 8.0 | 0.00 | 0.03 | 0.00 | 997.9 | |
| 20260505190504 | -17 | 270 | 3.2 | 8.0 | 0.00 | 0.03 | 0.00 | 997.9 | |
| 20260505190454 | -17 | 315 | 3.2 | 8.0 | 0.00 | 0.03 | 0.00 | 997.9 | |
| 20260505190424 | -17 | 270 | 3.2 | 8.0 | 0.00 | 0.03 | 0.00 | 997.9 | |
| 20260505190344 | -17 | 270 | 4.8 | 8.0 | 0.00 | 0.03 | 0.00 | 997.9 | |
| 20260505190315 | -17 | 270 | 3.2 | 8.0 | 0.00 | 0.03 | 0.00 | 997.9 | |
| 20260505190235 | -17 | 270 | 3.2 | 8.0 | 0.00 | 0.03 | 0.00 | 997.9 | |
| 20260505190225 | -17 | 270 | 3.2 | 8.0 | 0.00 | 0.03 | 0.00 | 998.0 | |
| 20260505190155 | -17 | 270 | 3.2 | 8.0 | 0.00 | 0.03 | 0.00 | 997.9 | |
| 20260505190115 | -17 | 270 | 3.2 | 8.0 | 0.00 | 0.03 | 0.00 | 997.9 | |
| 20260505190055 | -17 | 270 | 4.8 | 8.0 | 0.00 | 0.03 | 0.00 | 997.9 | |
| 20260505190045 | -17 | 248 | 4.8 | 8.0 | 0.00 | 0.03 | 0.00 | 997.9 | |
| 20260505190005 | -17 | 270 | 4.8 | 8.0 | 0.00 | 0.03 | 0.00 | 997.9 | |
| 20260505185945 | -17 | 248 | 4.8 | 8.0 | 0.00 | 0.03 | 0.00 | 997.9 | |
| 20260505185915 | -17 | 270 | 4.8 | 8.0 | 0.00 | 0.03 | 0.00 | 997.9 | |
| 20260505185835 | -17 | 270 | 4.8 | 8.0 | 0.00 | 0.03 | 0.00 | 997.9 | |
| 20260505185755 | -17 | 270 | 4.8 | 8.0 | 0.00 | 0.03 | 0.00 | 997.9 | |
| 20260505185735 | -17 | 270 | 6.4 | 8.0 | 0.00 | 0.03 | 0.00 | 997.9 | |
| 20260505185656 | -17 | 270 | 6.4 | 8.0 | 0.00 | 0.03 | 0.00 | 997.9 | |
| 20260505185646 | -17 | 270 | 6.4 | 8.0 | 0.00 | 0.03 | 0.00 | 997.8 | |
| 20260505185626 | -17 | 270 | 4.8 | 8.0 | 0.00 | 0.03 | 0.00 | 997.9 | |
| 20260505185616 | -17 | 270 | 6.4 | 8.0 | 0.00 | 0.03 | 0.00 | 997.9 | |
| 20260505185536 | -17 | 270 | 6.4 | 8.0 | 0.00 | 0.03 | 0.00 | 997.8 | |
| 20260505185516 | -17 | 270 | 4.8 | 8.0 | 0.00 | 0.03 | 0.00 | 997.8 | |
| 20260505185506 | -17 | 270 | 4.8 | 8.0 | 0.00 | 0.03 | 0.00 | 997.7 | |
| 20260505185436 | -17 | 270 | 4.8 | 8.0 | 0.00 | 0.03 | 0.00 | 997.8 | |
| 20260505185356 | -17 | 270 | 4.8 | 8.0 | 0.00 | 0.03 | 0.00 | 997.8 | |
| 20260505185316 | -17 | 270 | 4.8 | 8.0 | 0.00 | 0.03 | 0.00 | 997.8 | |
| 20260505185246 | -17 | 270 | 4.8 | 8.0 | 0.00 | 0.03 | 0.00 | 997.7 | |
| 20260505185236 | -17 | 270 | 4.8 | 8.0 | 0.00 | 0.03 | 0.00 | 997.8 | |
| 20260505185216 | -17 | 293 | 4.8 | 8.0 | 0.00 | 0.03 | 0.00 | 997.8 | |
| 20260505185156 | -17 | 270 | 4.8 | 8.0 | 0.00 | 0.03 | 0.00 | 997.8 | |
| 20260505185136 | -17 | 270 | 4.8 | 9.7 | 0.00 | 0.03 | 0.00 | 997.8 | |
| 20260505185056 | -17 | 270 | 4.8 | 9.7 | 0.00 | 0.03 | 0.00 | 997.8 | |
| 20260505185047 | -17 | 270 | 4.8 | 9.7 | 0.00 | 0.03 | 0.00 | 997.7 | |
| 20260505185037 | -17 | 293 | 4.8 | 9.7 | 0.00 | 0.03 | 0.00 | 997.8 | |
| 20260505185017 | -17 | 270 | 3.2 | 9.7 | 0.00 | 0.03 | 0.00 | 997.8 | |
| 20260505185007 | -17 | 270 | 4.8 | 9.7 | 0.00 | 0.03 | 0.00 | 997.7 | |
| 20260505184947 | -17 | 270 | 3.2 | 9.7 | 0.00 | 0.03 | 0.00 | 997.7 | |
| 20260505184927 | -17 | 270 | 3.2 | 9.7 | 0.00 | 0.03 | 0.00 | 997.8 | |
| 20260505184917 | -17 | 270 | 4.8 | 9.7 | 0.00 | 0.03 | 0.00 | 997.8 | |
| 20260505184857 | -17 | 270 | 4.8 | 9.7 | 0.00 | 0.03 | 0.00 | 997.7 | |
| 20260505184837 | -17 | 270 | 4.8 | 9.7 | 0.00 | 0.03 | 0.00 | 997.8 | |
| 20260505184817 | -17 | 293 | 4.8 | 9.7 | 0.00 | 0.03 | 0.00 | 997.8 | |
| 20260505184807 | -17 | 270 | 4.8 | 9.7 | 0.00 | 0.03 | 0.00 | 997.7 | |
| 20260505184757 | -17 | 270 | 4.8 | 9.7 | 0.00 | 0.03 | 0.00 | 997.8 | |
| 20260505184737 | -17 | 270 | 6.4 | 9.7 | 0.00 | 0.03 | 0.00 | 997.7 | |
| 20260505184717 | -17 | 270 | 6.4 | 9.7 | 0.00 | 0.03 | 0.00 | 997.8 | |
| 20260505184637 | -17 | 270 | 6.4 | 9.7 | 0.00 | 0.03 | 0.00 | 997.8 | |
| 20260505184627 | -17 | 270 | 6.4 | 9.7 | 0.00 | 0.03 | 0.00 | 997.7 | |
| 20260505184547 | -17 | 270 | 6.4 | 9.7 | 0.00 | 0.03 | 0.00 | 997.8 | |
| 20260505184537 | -17 | 270 | 6.4 | 9.7 | 0.00 | 0.03 | 0.00 | 997.7 | |
| 20260505184508 | -17 | 270 | 6.4 | 9.7 | 0.00 | 0.03 | 0.00 | 997.8 | |
| 20260505184448 | -17 | 270 | 6.4 | 11.3 | 0.00 | 0.03 | 0.00 | 997.8 | |
| 20260505184408 | -17 | 270 | 6.4 | 11.3 | 0.00 | 0.03 | 0.00 | 997.8 | |
| 20260505184328 | -17 | 270 | 6.4 | 11.3 | 0.00 | 0.03 | 0.00 | 997.8 | |
| 20260505184318 | -17 | 225 | 6.4 | 11.3 | 0.00 | 0.03 | 0.00 | 997.8 | |
| 20260505184248 | -17 | 270 | 6.4 | 11.3 | 0.00 | 0.03 | 0.00 | 997.8 | |
| 20260505184228 | -17 | 270 | 6.4 | 11.3 | 0.00 | 0.03 | 0.00 | 997.9 | |
| 20260505184158 | -17 | 248 | 6.4 | 11.3 | 0.00 | 0.03 | 0.00 | 997.8 | |
| 20260505184138 | -17 | 270 | 6.4 | 11.3 | 0.00 | 0.03 | 0.00 | 997.8 | |
| 20260505184118 | -17 | 270 | 6.4 | 11.3 | 0.00 | 0.03 | 0.00 | 997.9 | |
| 20260505184048 | -17 | 270 | 6.4 | 11.3 | 0.00 | 0.03 | 0.00 | 997.8 | |
| 20260505184008 | -17 | 270 | 6.4 | 11.3 | 0.00 | 0.03 | 0.00 | 997.8 | |
| 20260505183938 | -17 | 270 | 6.4 | 9.7 | 0.00 | 0.03 | 0.00 | 997.8 | |
| 20260505183859 | -17 | 270 | 6.4 | 9.7 | 0.00 | 0.03 | 0.00 | 997.8 | |
| 20260505183849 | -17 | 270 | 6.4 | 8.0 | 0.00 | 0.03 | 0.00 | 997.7 | |
| 20260505183829 | -17 | 270 | 6.4 | 8.0 | 0.00 | 0.03 | 0.00 | 997.8 | |
| 20260505183809 | -17 | 270 | 6.4 | 8.0 | 0.00 | 0.03 | 0.00 | 997.7 | |
| 20260505183739 | -17 | 270 | 6.4 | 8.0 | 0.00 | 0.03 | 0.00 | 997.8 | |
| 20260505183719 | -17 | 270 | 6.4 | 8.0 | 0.00 | 0.03 | 0.00 | 997.7 | |
| 20260505183709 | -17 | 270 | 4.8 | 8.0 | 0.00 | 0.03 | 0.00 | 997.7 | |
| 20260505183559 | -17 | 270 | 4.8 | 8.0 | 0.00 | 0.03 | 0.00 | 997.7 | |
| 20260505183529 | -17 | 270 | 3.2 | 8.0 | 0.00 | 0.03 | 0.00 | 997.7 | |
| 20260505183509 | -17 | 270 | 3.2 | 8.0 | 0.00 | 0.03 | 0.00 | 997.6 | |
| 20260505183459 | -17 | 270 | 3.2 | 9.7 | 0.00 | 0.03 | 0.00 | 997.7 | |
| 20260505183449 | -17 | 270 | 3.2 | 11.3 | 0.00 | 0.03 | 0.00 | 997.7 | |
| 20260505183439 | -17 | 270 | 4.8 | 11.3 | 0.00 | 0.03 | 0.00 | 997.7 | |
| 20260505183429 | -17 | 270 | 4.8 | 11.3 | 0.00 | 0.03 | 0.00 | 997.6 | |
| 20260505183359 | -17 | 270 | 3.2 | 11.3 | 0.00 | 0.03 | 0.00 | 997.6 | |
| 20260505183349 | -17 | 270 | 4.8 | 11.3 | 0.00 | 0.03 | 0.00 | 997.7 | |
| 20260505183319 | -17 | 270 | 3.2 | 11.3 | 0.00 | 0.03 | 0.00 | 997.6 | |
| 20260505183309 | -17 | 270 | 4.8 | 11.3 | 0.00 | 0.03 | 0.00 | 997.6 | |
| 20260505183300 | -17 | 270 | 4.8 | 11.3 | 0.00 | 0.03 | 0.00 | 997.7 | |
| 20260505183240 | -17 | 270 | 3.2 | 11.3 | 0.00 | 0.03 | 0.00 | 997.6 | |
| 20260505183200 | -17 | 270 | 4.8 | 11.3 | 0.00 | 0.03 | 0.00 | 997.6 | |
| 20260505183150 | -17 | 270 | 6.4 | 11.3 | 0.00 | 0.03 | 0.00 | 997.6 | |
| 20260505183110 | -17 | 270 | 6.4 | 11.3 | 0.00 | 0.03 | 0.00 | 997.6 | |
| 20260505183030 | -17 | 270 | 6.4 | 11.3 | 0.00 | 0.03 | 0.00 | 997.6 | |
| 20260505183000 | -17 | 270 | 8.0 | 11.3 | 0.00 | 0.03 | 0.00 | 997.6 | |
| 20260505182920 | -17 | 270 | 6.4 | 11.3 | 0.00 | 0.03 | 0.00 | 997.6 | |
| 20260505182840 | -17 | 270 | 6.4 | 11.3 | 0.00 | 0.03 | 0.00 | 997.6 | |
| 20260505182800 | -17 | 270 | 6.4 | 11.3 | 0.00 | 0.03 | 0.00 | 997.6 | |
| 20260505182740 | -17 | 270 | 6.4 | 9.7 | 0.00 | 0.03 | 0.00 | 997.6 | |
| 20260505182721 | -17 | 270 | 6.4 | 9.7 | 0.00 | 0.03 | 0.00 | 997.5 | |
| 20260505182701 | -17 | 270 | 6.4 | 9.7 | 0.00 | 0.03 | 0.00 | 997.6 | |
| 20260505182641 | -17 | 270 | 6.4 | 9.7 | 0.00 | 0.03 | 0.00 | 997.5 | |
| 20260505182621 | -17 | 270 | 6.4 | 9.7 | 0.00 | 0.03 | 0.00 | 997.6 | |
| 20260505182551 | -17 | 270 | 6.4 | 9.7 | 0.00 | 0.03 | 0.00 | 997.5 | |
| 20260505182511 | -17 | 270 | 6.4 | 9.7 | 0.00 | 0.03 | 0.00 | 997.6 | |
| 20260505182501 | -17 | 270 | 6.4 | 9.7 | 0.00 | 0.03 | 0.00 | 997.5 | |
| 20260505182431 | -17 | 270 | 6.4 | 9.7 | 0.00 | 0.03 | 0.00 | 997.6 | |
| 20260505182421 | -17 | 270 | 6.4 | 9.7 | 0.00 | 0.03 | 0.00 | 997.5 | |
| 20260505182341 | -17 | 270 | 6.4 | 9.7 | 0.00 | 0.03 | 0.00 | 997.5 | |
| 20260505182305 | -17 | 270 | 6.4 | 9.7 | 0.00 | 0.03 | 0.00 | 997.5 | |
| 20260505182231 | -17 | 270 | 6.4 | 9.7 | 0.00 | 0.03 | 0.00 | 997.6 | |
| 20260505182221 | -17 | 270 | 6.4 | 9.7 | 0.00 | 0.03 | 0.00 | 997.5 | |
| 20260505182142 | -17 | 270 | 6.4 | 9.7 | 0.00 | 0.03 | 0.00 | 997.5 | |
| 20260505182102 | -17 | 270 | 6.4 | 9.7 | 0.00 | 0.03 | 0.00 | 997.5 | |
| 20260505182042 | -17 | 270 | 6.4 | 8.0 | 0.00 | 0.03 | 0.00 | 997.4 | |
| 20260505182022 | -17 | 270 | 6.4 | 8.0 | 0.00 | 0.03 | 0.00 | 997.5 | |
| 20260505182012 | -17 | 270 | 6.4 | 9.7 | 0.00 | 0.03 | 0.00 | 997.5 | |
| 20260505181942 | -17 | 270 | 4.8 | 9.7 | 0.00 | 0.03 | 0.00 | 997.4 | |
| 20260505181922 | -17 | 270 | 4.8 | 9.7 | 0.00 | 0.03 | 0.00 | 997.5 | |
| 20260505181912 | -17 | 248 | 6.4 | 9.7 | 0.00 | 0.03 | 0.00 | 997.4 | |
| 20260505181902 | -17 | 270 | 4.8 | 9.7 | 0.00 | 0.03 | 0.00 | 997.4 | |
| 20260505181822 | -17 | 270 | 4.8 | 9.7 | 0.00 | 0.03 | 0.00 | 997.4 | |
| 20260505181812 | -17 | 270 | 4.8 | 11.3 | 0.00 | 0.03 | 0.00 | 997.4 | |
| 20260505181802 | -17 | 270 | 4.8 | 12.9 | 0.00 | 0.03 | 0.00 | 997.4 | |
| 20260505181722 | -17 | 270 | 6.4 | 12.9 | 0.00 | 0.03 | 0.00 | 997.4 | |
| 20260505181642 | -17 | 270 | 6.4 | 12.9 | 0.00 | 0.03 | 0.00 | 997.4 | |
| 20260505181602 | -17 | 270 | 6.4 | 12.9 | 0.00 | 0.03 | 0.00 | 997.4 | |
| 20260505181523 | -17 | 270 | 6.4 | 12.9 | 0.00 | 0.03 | 0.00 | 997.4 | |
| 20260505181443 | -17 | 270 | 6.4 | 12.9 | 0.00 | 0.03 | 0.00 | 997.4 | |
| 20260505181403 | -17 | 270 | 6.4 | 12.9 | 0.00 | 0.03 | 0.00 | 997.4 | |
| 20260505181323 | -17 | 270 | 8.0 | 12.9 | 0.00 | 0.03 | 0.00 | 997.4 | |
| 20260505181313 | -17 | 270 | 6.4 | 12.9 | 0.00 | 0.03 | 0.00 | 997.4 | |
| 20260505181303 | -17 | 270 | 6.4 | 11.3 | 0.00 | 0.03 | 0.00 | 997.4 | |
| 20260505181233 | -17 | 270 | 6.4 | 9.7 | 0.00 | 0.03 | 0.00 | 997.4 | |
| 20260505181213 | -17 | 270 | 6.4 | 11.3 | 0.00 | 0.03 | 0.00 | 997.4 | |
| 20260505181143 | -17 | 270 | 6.4 | 12.9 | 0.00 | 0.03 | 0.00 | 997.4 | |
| 20260505181103 | -17 | 270 | 6.4 | 12.9 | 0.00 | 0.03 | 0.00 | 997.4 | |
| 20260505181053 | -17 | 270 | 6.4 | 12.9 | 0.00 | 0.03 | 0.00 | 997.3 | |
| 20260505181023 | -17 | 270 | 6.4 | 12.9 | 0.00 | 0.03 | 0.00 | 997.4 | |
| 20260505181004 | -17 | 270 | 6.4 | 12.9 | 0.00 | 0.03 | 0.00 | 997.3 | |
| 20260505180944 | 18 | 270 | 6.4 | 12.9 | 0.00 | 0.03 | 0.00 | 68 | 997.4 |
| 20260505180924 | -17 | 270 | 6.4 | 12.9 | 0.00 | 0.03 | 0.00 | 997.3 | |
| 20260505180854 | -17 | 270 | 6.4 | 12.9 | 0.00 | 0.03 | 0.00 | 997.4 | |
| 20260505180835 | -17 | 270 | 6.4 | 12.9 | 0.00 | 0.03 | 0.00 | 997.3 | |
| 20260505180804 | -17 | 270 | 8.0 | 12.9 | 0.00 | 0.03 | 0.00 | 997.3 | |
| 20260505180744 | -17 | 293 | 9.7 | 12.9 | 0.00 | 0.03 | 0.00 | 997.3 | |
| 20260505180734 | -17 | 270 | 9.7 | 12.9 | 0.00 | 0.03 | 0.00 | 997.4 | |
| 20260505180724 | -17 | 270 | 8.0 | 12.9 | 0.00 | 0.03 | 0.00 | 997.3 | |
| 20260505180714 | -17 | 270 | 8.0 | 12.9 | 0.00 | 0.03 | 0.00 | 997.4 | |
| 20260505180644 | -17 | 270 | 8.0 | 12.9 | 0.00 | 0.03 | 0.00 | 997.3 | |
| 20260505180634 | -17 | 315 | 8.0 | 12.9 | 0.00 | 0.03 | 0.00 | 997.3 | |
| 20260505180614 | -17 | 270 | 8.0 | 12.9 | 0.00 | 0.03 | 0.00 | 997.4 | |
| 20260505180604 | -17 | 270 | 8.0 | 12.9 | 0.00 | 0.03 | 0.00 | 997.3 | |
| 20260505180534 | -17 | 315 | 6.4 | 11.3 | 0.00 | 0.03 | 0.00 | 997.3 | |
| 20260505180524 | -17 | 270 | 6.4 | 11.3 | 0.00 | 0.03 | 0.00 | 997.3 | |
| 20260505180504 | -17 | 315 | 8.0 | 11.3 | 0.00 | 0.03 | 0.00 | 997.3 | |
| 20260505180454 | -17 | 270 | 8.0 | 11.3 | 0.00 | 0.03 | 0.00 | 997.3 | |
| 20260505180444 | -17 | 293 | 8.0 | 11.3 | 0.00 | 0.03 | 0.00 | 997.3 | |
| 20260505180415 | -17 | 270 | 8.0 | 11.3 | 0.00 | 0.03 | 0.00 | 997.3 | |
| 20260505180405 | -17 | 0 | 8.0 | 11.3 | 0.00 | 0.03 | 0.00 | 997.3 | |
| 20260505180325 | -17 | 270 | 8.0 | 11.3 | 0.00 | 0.03 | 0.00 | 997.3 | |
| 20260505180305 | -17 | 293 | 8.0 | 11.3 | 0.00 | 0.03 | 0.00 | 997.3 | |
| 20260505180245 | -17 | 270 | 8.0 | 11.3 | 0.00 | 0.03 | 0.00 | 997.3 | |
| 20260505180235 | -17 | 270 | 8.0 | 11.3 | 0.00 | 0.03 | 0.00 | 997.2 | |
| 20260505180215 | -17 | 270 | 9.7 | 11.3 | 0.00 | 0.03 | 0.00 | 997.3 | |
| 20260505180205 | -17 | 270 | 9.7 | 11.3 | 0.00 | 0.03 | 0.00 | 997.2 | |
| 20260505180145 | -17 | 270 | 8.0 | 11.3 | 0.00 | 0.03 | 0.00 | 997.3 | |
| 20260505180135 | -17 | 270 | 8.0 | 11.3 | 0.00 | 0.03 | 0.00 | 997.2 | |
| 20260505180055 | -17 | 270 | 8.0 | 11.3 | 0.00 | 0.03 | 0.00 | 997.2 | |
| 20260505180035 | -17 | 270 | 8.0 | 11.3 | 0.00 | 0.03 | 0.00 | 997.3 | |
| 20260505180015 | -17 | 270 | 8.0 | 11.3 | 0.00 | 0.03 | 0.00 | 997.2 | |
| 20260505175935 | -17 | 270 | 8.0 | 11.3 | 0.00 | 0.03 | 0.00 | 997.2 | |
| 20260505175925 | -17 | 270 | 6.4 | 11.3 | 0.00 | 0.03 | 0.00 | 997.2 | |
| 20260505175906 | -17 | 293 | 6.4 | 12.9 | 0.00 | 0.03 | 0.00 | 997.2 | |
| 20260505175846 | -17 | 270 | 6.4 | 12.9 | 0.00 | 0.03 | 0.00 | 997.2 | |
| 20260505175836 | -17 | 270 | 6.4 | 12.9 | 0.00 | 0.03 | 0.00 | 997.3 | |
| 20260505175756 | -17 | 270 | 6.4 | 12.9 | 0.00 | 0.03 | 0.00 | 997.2 | |
| 20260505175736 | -17 | 270 | 6.4 | 12.9 | 0.00 | 0.03 | 0.00 | 997.3 | |
| 20260505175726 | -17 | 293 | 6.4 | 12.9 | 0.00 | 0.03 | 0.00 | 997.3 | |
| 20260505175716 | -17 | 270 | 6.4 | 12.9 | 0.00 | 0.03 | 0.00 | 997.2 | |
| 20260505175656 | -17 | 315 | 6.4 | 12.9 | 0.00 | 0.03 | 0.00 | 997.3 | |
| 20260505175636 | -17 | 270 | 6.4 | 12.9 | 0.00 | 0.03 | 0.00 | 997.2 | |
| 20260505175626 | -17 | 270 | 6.4 | 12.9 | 0.00 | 0.03 | 0.00 | 997.3 | |
| 20260505175556 | -17 | 293 | 6.4 | 12.9 | 0.00 | 0.03 | 0.00 | 997.3 | |
| 20260505175546 | -17 | 270 | 6.4 | 12.9 | 0.00 | 0.03 | 0.00 | 997.2 | |
| 20260505175536 | -17 | 270 | 6.4 | 12.9 | 0.00 | 0.03 | 0.00 | 997.3 | |
| 20260505175526 | -17 | 315 | 8.0 | 12.9 | 0.00 | 0.03 | 0.00 | 997.2 | |
| 20260505175516 | -17 | 270 | 8.0 | 12.9 | 0.00 | 0.03 | 0.00 | 997.2 | |
| 20260505175506 | -17 | 270 | 8.0 | 14.5 | 0.00 | 0.03 | 0.00 | 997.3 | |
| 20260505175446 | -17 | 270 | 9.7 | 14.5 | 0.00 | 0.03 | 0.00 | 997.3 | |
| 20260505175436 | -17 | 315 | 9.7 | 14.5 | 0.00 | 0.03 | 0.00 | 997.3 | |
| 20260505175406 | -17 | 270 | 9.7 | 14.5 | 0.00 | 0.03 | 0.00 | 997.3 | |
| 20260505175336 | -17 | 270 | 8.0 | 14.5 | 0.00 | 0.03 | 0.00 | 997.3 | |
| 20260505175326 | 18 | 270 | 9.7 | 14.5 | 0.00 | 0.03 | 0.00 | 67 | 997.3 |
| 20260505175316 | -17 | 270 | 9.7 | 14.5 | 0.00 | 0.03 | 0.00 | 997.3 | |
| 20260505175247 | -17 | 270 | 8.0 | 14.5 | 0.00 | 0.03 | 0.00 | 997.3 | |
| 20260505175237 | -17 | 270 | 9.7 | 14.5 | 0.00 | 0.03 | 0.00 | 997.3 | |
| 20260505175157 | -17 | 270 | 9.7 | 14.5 | 0.00 | 0.03 | 0.00 | 997.3 | |
| 20260505175117 | -17 | 270 | 9.7 | 14.5 | 0.00 | 0.03 | 0.00 | 997.3 | |
| 20260505175037 | -17 | 270 | 9.7 | 14.5 | 0.00 | 0.03 | 0.00 | 997.3 | |
| 20260505175027 | -17 | 270 | 9.7 | 14.5 | 0.00 | 0.03 | 0.00 | 997.4 | |
| 20260505175017 | -17 | 315 | 9.7 | 14.5 | 0.00 | 0.03 | 0.00 | 997.3 | |
| 20260505175007 | -17 | 270 | 9.7 | 12.9 | 0.00 | 0.03 | 0.00 | 997.3 | |
| 20260505174947 | -17 | 270 | 8.0 | 12.9 | 0.00 | 0.03 | 0.00 | 997.3 | |
| 20260505174917 | -17 | 293 | 8.0 | 12.9 | 0.00 | 0.03 | 0.00 | 997.3 | |
| 20260505174907 | -17 | 315 | 9.7 | 12.9 | 0.00 | 0.03 | 0.00 | 997.3 | |
| 20260505174857 | -17 | 270 | 9.7 | 12.9 | 0.00 | 0.03 | 0.00 | 997.3 | |
| 20260505174847 | -17 | 270 | 8.0 | 12.9 | 0.00 | 0.03 | 0.00 | 997.3 | |
| 20260505174827 | -17 | 270 | 8.0 | 11.3 | 0.00 | 0.03 | 0.00 | 997.3 | |
| 20260505174817 | 18 | 293 | 8.0 | 11.3 | 0.00 | 0.03 | 0.00 | 69 | 997.3 |
| 20260505174757 | -17 | 293 | 8.0 | 11.3 | 0.00 | 0.03 | 0.00 | 997.3 | |
| 20260505174747 | -17 | 270 | 8.0 | 11.3 | 0.00 | 0.03 | 0.00 | 997.3 | |
| 20260505174708 | -17 | 270 | 8.0 | 11.3 | 0.00 | 0.03 | 0.00 | 997.3 | |
| 20260505174638 | -17 | 270 | 6.4 | 9.7 | 0.00 | 0.03 | 0.00 | 997.3 | |
| 20260505174628 | -17 | 315 | 6.4 | 8.0 | 0.00 | 0.03 | 0.00 | 997.3 | |
| 20260505174608 | -17 | 270 | 6.4 | 8.0 | 0.00 | 0.03 | 0.00 | 997.3 | |
| 20260505174558 | -17 | 293 | 6.4 | 8.0 | 0.00 | 0.03 | 0.00 | 997.3 | |
| 20260505174548 | -17 | 315 | 6.4 | 8.0 | 0.00 | 0.03 | 0.00 | 997.2 | |
| 20260505174528 | -17 | 270 | 6.4 | 9.7 | 0.00 | 0.03 | 0.00 | 997.3 | |
| 20260505174518 | -17 | 270 | 6.4 | 9.7 | 0.00 | 0.03 | 0.00 | 997.2 | |
| 20260505174508 | -17 | 315 | 6.4 | 9.7 | 0.00 | 0.03 | 0.00 | 997.3 | |
| 20260505174458 | -17 | 315 | 6.4 | 11.3 | 0.00 | 0.03 | 0.00 | 997.3 | |
| 20260505174438 | -17 | 293 | 6.4 | 11.3 | 0.00 | 0.03 | 0.00 | 997.3 | |
| 20260505174428 | -17 | 293 | 6.4 | 11.3 | 0.00 | 0.03 | 0.00 | 997.2 | |
| 20260505174418 | -17 | 270 | 6.4 | 11.3 | 0.00 | 0.03 | 0.00 | 997.2 | |
| 20260505174408 | -17 | 270 | 6.4 | 11.3 | 0.00 | 0.03 | 0.00 | 997.3 | |
| 20260505174358 | -17 | 315 | 6.4 | 11.3 | 0.00 | 0.03 | 0.00 | 997.2 | |
| 20260505174348 | -17 | 270 | 4.8 | 11.3 | 0.00 | 0.03 | 0.00 | 997.3 | |
| 20260505174338 | -17 | 270 | 4.8 | 11.3 | 0.00 | 0.03 | 0.00 | 997.2 | |
| 20260505174328 | -17 | 293 | 4.8 | 11.3 | 0.00 | 0.03 | 0.00 | 997.2 | |
| 20260505174258 | -17 | 270 | 4.8 | 11.3 | 0.00 | 0.03 | 0.00 | 997.3 | |
| 20260505174248 | -17 | 270 | 4.8 | 11.3 | 0.00 | 0.03 | 0.00 | 997.2 | |
| 20260505174228 | -17 | 315 | 6.4 | 11.3 | 0.00 | 0.03 | 0.00 | 997.2 | |
| 20260505174218 | -17 | 315 | 6.4 | 11.3 | 0.00 | 0.03 | 0.00 | 997.3 | |
| 20260505174208 | -17 | 270 | 6.4 | 11.3 | 0.00 | 0.03 | 0.00 | 997.2 | |
| 20260505174128 | -17 | 315 | 6.4 | 11.3 | 0.00 | 0.03 | 0.00 | 997.3 | |
| 20260505174118 | -17 | 293 | 6.4 | 11.3 | 0.00 | 0.03 | 0.00 | 997.3 | |
| 20260505174049 | -17 | 270 | 6.4 | 11.3 | 0.00 | 0.03 | 0.00 | 997.3 | |
| 20260505174039 | -17 | 270 | 6.4 | 11.3 | 0.00 | 0.03 | 0.00 | 997.2 | |
| 20260505174029 | -17 | 270 | 8.0 | 11.3 | 0.00 | 0.03 | 0.00 | 997.3 | |
| 20260505173959 | -17 | 270 | 6.4 | 11.3 | 0.00 | 0.03 | 0.00 | 997.2 | |
| 20260505173939 | -17 | 270 | 6.4 | 11.3 | 0.00 | 0.03 | 0.00 | 997.3 | |
| 20260505173929 | -17 | 315 | 6.4 | 11.3 | 0.00 | 0.03 | 0.00 | 997.2 | |
| 20260505173919 | -17 | 293 | 6.4 | 11.3 | 0.00 | 0.03 | 0.00 | 997.3 | |
| 20260505173859 | -17 | 315 | 6.4 | 11.3 | 0.00 | 0.03 | 0.00 | 997.3 | |
| 20260505173849 | -17 | 270 | 6.4 | 11.3 | 0.00 | 0.03 | 0.00 | 997.3 | |
| 20260505173819 | -17 | 293 | 6.4 | 11.3 | 0.00 | 0.03 | 0.00 | 997.3 | |
| 20260505173759 | -17 | 270 | 6.4 | 11.3 | 0.00 | 0.03 | 0.00 | 997.3 | |
| 20260505173729 | -17 | 270 | 8.0 | 11.3 | 0.00 | 0.03 | 0.00 | 997.3 | |
| 20260505173659 | -17 | 293 | 8.0 | 11.3 | 0.00 | 0.03 | 0.00 | 997.3 | |
| 20260505173649 | -17 | 270 | 8.0 | 11.3 | 0.00 | 0.03 | 0.00 | 997.3 | |
| 20260505173609 | -17 | 270 | 6.4 | 11.3 | 0.00 | 0.03 | 0.00 | 997.3 | |
| 20260505173529 | -17 | 270 | 6.4 | 11.3 | 0.00 | 0.03 | 0.00 | 997.3 | |
| 20260505173500 | -17 | 270 | 6.4 | 11.3 | 0.00 | 0.03 | 0.00 | 997.4 | |
| 20260505173450 | -17 | 270 | 6.4 | 11.3 | 0.00 | 0.03 | 0.00 | 997.3 | |
| 20260505173440 | -17 | 293 | 6.4 | 11.3 | 0.00 | 0.03 | 0.00 | 997.4 | |
| 20260505173410 | -17 | 270 | 6.4 | 11.3 | 0.00 | 0.03 | 0.00 | 997.4 | |
| 20260505173400 | -17 | 270 | 6.4 | 11.3 | 0.00 | 0.03 | 0.00 | 997.3 | |
| 20260505173350 | -17 | 315 | 6.4 | 11.3 | 0.00 | 0.03 | 0.00 | 997.4 | |
| 20260505173340 | -17 | 315 | 6.4 | 11.3 | 0.00 | 0.03 | 0.00 | 997.3 | |
| 20260505173330 | -17 | 270 | 6.4 | 11.3 | 0.00 | 0.03 | 0.00 | 997.4 | |
| 20260505173320 | -17 | 270 | 6.4 | 11.3 | 0.00 | 0.03 | 0.00 | 997.3 | |
| 20260505173250 | -17 | 270 | 6.4 | 11.3 | 0.00 | 0.03 | 0.00 | 997.4 | |
| 20260505173140 | -17 | 270 | 6.4 | 11.3 | 0.00 | 0.03 | 0.00 | 997.3 | |
| 20260505173100 | -17 | 270 | 6.4 | 12.9 | 0.00 | 0.03 | 0.00 | 997.3 | |
| 20260505173050 | -17 | 270 | 6.4 | 12.9 | 0.00 | 0.03 | 0.00 | 997.2 | |
| 20260505173020 | -17 | 270 | 6.4 | 12.9 | 0.00 | 0.03 | 0.00 | 997.3 | |
| 20260505173010 | -17 | 315 | 6.4 | 12.9 | 0.00 | 0.03 | 0.00 | 997.3 | |
| 20260505173000 | -17 | 293 | 6.4 | 12.9 | 0.00 | 0.03 | 0.00 | 997.3 | |
| 20260505172930 | -17 | 315 | 6.4 | 12.9 | 0.00 | 0.03 | 0.00 | 997.3 | |
| 20260505172920 | -17 | 315 | 6.4 | 12.9 | 0.00 | 0.03 | 0.00 | 997.2 | |
| 20260505172910 | -17 | 293 | 6.4 | 12.9 | 0.00 | 0.03 | 0.00 | 997.2 | |
| 20260505172900 | -17 | 270 | 6.4 | 12.9 | 0.00 | 0.03 | 0.00 | 997.2 | |
| 20260505172851 | -17 | 315 | 6.4 | 12.9 | 0.00 | 0.03 | 0.00 | 997.3 | |
| 20260505172831 | -17 | 315 | 6.4 | 12.9 | 0.00 | 0.03 | 0.00 | 997.2 | |
| 20260505172821 | -17 | 270 | 6.4 | 12.9 | 0.00 | 0.03 | 0.00 | 997.2 | |
| 20260505172751 | -17 | 315 | 6.4 | 16.1 | 0.00 | 0.03 | 0.00 | 997.2 | |
| 20260505172741 | -17 | 315 | 8.0 | 16.1 | 0.00 | 0.03 | 0.00 | 997.3 | |
| 20260505172711 | -17 | 293 | 8.0 | 16.1 | 0.00 | 0.03 | 0.00 | 997.2 | |
| 20260505172701 | -17 | 315 | 8.0 | 16.1 | 0.00 | 0.03 | 0.00 | 997.2 | |
| 20260505172641 | -17 | 270 | 8.0 | 16.1 | 0.00 | 0.03 | 0.00 | 997.2 | |
| 20260505172621 | -17 | 315 | 6.4 | 16.1 | 0.00 | 0.03 | 0.00 | 997.2 | |
| 20260505172611 | -17 | 315 | 8.0 | 16.1 | 0.00 | 0.03 | 0.00 | 997.2 | |
| 20260505172601 | -17 | 315 | 8.0 | 16.1 | 0.00 | 0.03 | 0.00 | 997.1 | |
| 20260505172531 | -17 | 293 | 8.0 | 16.1 | 0.00 | 0.03 | 0.00 | 997.2 | |
| 20260505172521 | -17 | 270 | 8.0 | 16.1 | 0.00 | 0.03 | 0.00 | 997.2 | |
| 20260505172511 | -17 | 315 | 8.0 | 16.1 | 0.00 | 0.03 | 0.00 | 997.2 | |
| 20260505172501 | -17 | 315 | 8.0 | 16.1 | 0.00 | 0.03 | 0.00 | 687.3 | |
| 20260505172451 | -17 | 315 | 6.4 | 16.1 | 0.00 | 0.03 | 0.00 | 997.2 | |
| 20260505172431 | -17 | 270 | 8.0 | 16.1 | 0.00 | 0.03 | 0.00 | 997.2 | |
| 20260505172421 | -17 | 315 | 9.7 | 16.1 | 0.00 | 0.03 | 0.00 | 997.2 | |
| 20260505172411 | -17 | 293 | 9.7 | 16.1 | 0.00 | 0.03 | 0.00 | 834.0 | |
| 20260505172351 | -17 | 270 | 9.7 | 16.1 | 0.00 | 0.03 | 0.00 | 997.2 | |
| 20260505172341 | 18 | 270 | 9.7 | 16.1 | 0.00 | 0.03 | 0.00 | 74 | 997.2 |
| 20260505172331 | -17 | 293 | 9.7 | 16.1 | 0.00 | 0.03 | 0.00 | 997.2 | |
| 20260505172321 | -17 | 270 | 9.7 | 16.1 | 0.00 | 0.03 | 0.00 | 997.3 | |
| 20260505172311 | -17 | 270 | 9.7 | 14.5 | 0.00 | 0.03 | 0.00 | 997.3 | |
| 20260505172301 | -17 | 315 | 8.0 | 14.5 | 0.00 | 0.03 | 0.00 | 997.3 | |
| 20260505172251 | -17 | 270 | 8.0 | 14.5 | 0.00 | 0.03 | 0.00 | 997.3 | |
| 20260505172222 | -17 | 270 | 9.7 | 14.5 | 0.00 | 0.03 | 0.00 | 997.3 | |
| 20260505172142 | -17 | 270 | 9.7 | 14.5 | 0.00 | 0.03 | 0.00 | 997.3 | |
| 20260505172122 | -17 | 270 | 11.3 | 14.5 | 0.00 | 0.03 | 0.00 | 997.3 | |
| 20260505172112 | -17 | 270 | 11.3 | 16.1 | 0.00 | 0.03 | 0.00 | 997.3 | |
| 20260505172102 | -17 | 293 | 11.3 | 16.1 | 0.00 | 0.03 | 0.00 | 997.3 | |
| 20260505172032 | -17 | 270 | 9.7 | 16.1 | 0.00 | 0.03 | 0.00 | 997.3 | |
| 20260505172002 | -17 | 270 | 8.0 | 16.1 | 0.00 | 0.03 | 0.00 | 997.3 | |
| 20260505171952 | -17 | 270 | 6.4 | 16.1 | 0.00 | 0.03 | 0.00 | 997.3 | |
| 20260505171912 | -17 | 270 | 8.0 | 16.1 | 0.00 | 0.03 | 0.00 | 997.3 | |
| 20260505171832 | -17 | 270 | 9.7 | 16.1 | 0.00 | 0.03 | 0.00 | 997.3 | |
| 20260505171822 | -17 | 270 | 11.3 | 16.1 | 0.00 | 0.03 | 0.00 | 997.3 | |
| 20260505171752 | -17 | 270 | 9.7 | 16.1 | 0.00 | 0.03 | 0.00 | 997.3 | |
| 20260505171742 | -17 | 225 | 9.7 | 16.1 | 0.00 | 0.03 | 0.00 | 997.4 | |
| 20260505171732 | -17 | 248 | 8.0 | 16.1 | 0.00 | 0.03 | 0.00 | 997.3 | |
| 20260505171722 | -17 | 270 | 8.0 | 16.1 | 0.00 | 0.03 | 0.00 | 997.3 | |
| 20260505171712 | -17 | 270 | 9.7 | 16.1 | 0.00 | 0.03 | 0.00 | 997.3 | |
| 20260505171642 | -17 | 315 | 9.7 | 16.1 | 0.00 | 0.03 | 0.00 | 997.3 | |
| 20260505171633 | -17 | 270 | 9.7 | 16.1 | 0.00 | 0.03 | 0.00 | 997.3 | |
| 20260505171623 | -17 | 270 | 8.0 | 16.1 | 0.00 | 0.03 | 0.00 | 997.4 | |
| 20260505171603 | -17 | 270 | 8.0 | 16.1 | 0.00 | 0.03 | 0.00 | 997.2 | |
| 20260505171543 | -17 | 270 | 8.0 | 16.1 | 0.00 | 0.03 | 0.00 | 997.3 | |
| 20260505171503 | -17 | 270 | 8.0 | 17.7 | 0.00 | 0.03 | 0.00 | 997.3 | |
| 20260505171423 | -17 | 270 | 8.0 | 17.7 | 0.00 | 0.03 | 0.00 | 997.3 | |
| 20260505171413 | -17 | 270 | 8.0 | 20.9 | 0.00 | 0.03 | 0.00 | 997.3 | |
| 20260505171403 | -17 | 270 | 6.4 | 22.5 | 0.00 | 0.03 | 0.00 | 997.3 | |
| 20260505171323 | -17 | 270 | 8.0 | 22.5 | 0.00 | 0.03 | 0.00 | 997.3 | |
| 20260505171253 | -17 | 270 | 9.7 | 22.5 | 0.00 | 0.03 | 0.00 | 997.4 | |
| 20260505171243 | -17 | 270 | 9.7 | 22.5 | 0.00 | 0.03 | 0.00 | 997.3 | |
| 20260505171213 | -17 | 270 | 11.3 | 22.5 | 0.00 | 0.03 | 0.00 | 997.4 | |
| 20260505171143 | -17 | 248 | 11.3 | 22.5 | 0.00 | 0.03 | 0.00 | 997.4 | |
| 20260505171133 | -17 | 270 | 11.3 | 22.5 | 0.00 | 0.03 | 0.00 | 997.4 | |
| 20260505171053 | -17 | 270 | 12.9 | 22.5 | 0.00 | 0.03 | 0.00 | 997.3 | |
| 20260505171033 | -17 | 270 | 12.9 | 22.5 | 0.00 | 0.03 | 0.00 | 997.4 | |
| 20260505171004 | -17 | 270 | 12.9 | 22.5 | 0.00 | 0.03 | 0.00 | 997.3 | |
| 20260505170954 | -17 | 270 | 12.9 | 22.5 | 0.00 | 0.03 | 0.00 | 997.2 | |
| 20260505170944 | -17 | 315 | 12.9 | 22.5 | 0.00 | 0.03 | 0.00 | 997.3 | |
| 20260505170924 | -17 | 270 | 12.9 | 22.5 | 0.00 | 0.03 | 0.00 | 997.3 | |
| 20260505170914 | -17 | 270 | 9.7 | 22.5 | 0.00 | 0.03 | 0.00 | 997.3 | |
| 20260505170904 | -17 | 270 | 9.7 | 17.7 | 0.00 | 0.03 | 0.00 | 997.3 | |
| 20260505170844 | -17 | 270 | 9.7 | 17.7 | 0.00 | 0.03 | 0.00 | 997.2 | |
| 20260505170834 | -17 | 270 | 8.0 | 17.7 | 0.00 | 0.03 | 0.00 | 997.2 | |
| 20260505170754 | -17 | 270 | 9.7 | 17.7 | 0.00 | 0.03 | 0.00 | 997.2 | |
| 20260505170724 | -17 | 270 | 11.3 | 17.7 | 0.00 | 0.03 | 0.00 | 997.2 | |
| 20260505170714 | -17 | 315 | 11.3 | 17.7 | 0.00 | 0.03 | 0.00 | 997.2 | |
| 20260505170654 | -17 | 315 | 9.7 | 16.1 | 0.00 | 0.03 | 0.00 | 997.3 | |
| 20260505170644 | -17 | 270 | 9.7 | 16.1 | 0.00 | 0.03 | 0.00 | 997.2 | |
| 20260505170634 | -17 | 315 | 9.7 | 16.1 | 0.00 | 0.03 | 0.00 | 997.2 | |
| 20260505170604 | -17 | 315 | 8.0 | 16.1 | 0.00 | 0.03 | 0.00 | 997.2 | |
| 20260505170554 | -17 | 270 | 8.0 | 16.1 | 0.00 | 0.03 | 0.00 | 997.2 | |
| 20260505170544 | -17 | 270 | 8.0 | 16.1 | 0.00 | 0.03 | 0.00 | 997.1 | |
| 20260505170514 | -17 | 270 | 9.7 | 16.1 | 0.00 | 0.03 | 0.00 | 997.2 | |
| 20260505170504 | -17 | 315 | 8.0 | 16.1 | 0.00 | 0.03 | 0.00 | 997.2 | |
| 20260505170435 | -17 | 315 | 8.0 | 16.1 | 0.00 | 0.03 | 0.00 | 997.1 | |
| 20260505170425 | -17 | 270 | 8.0 | 16.1 | 0.00 | 0.03 | 0.00 | 997.2 | |
| 20260505170415 | -17 | 270 | 9.7 | 16.1 | 0.00 | 0.03 | 0.00 | 997.1 | |
| 20260505170355 | -17 | 315 | 9.7 | 16.1 | 0.00 | 0.03 | 0.00 | 997.1 | |
| 20260505170345 | -17 | 293 | 9.7 | 16.1 | 0.00 | 0.03 | 0.00 | 997.2 | |
| 20260505170335 | -17 | 293 | 9.7 | 16.1 | 0.00 | 0.03 | 0.00 | 997.1 | |
| 20260505170325 | -17 | 270 | 9.7 | 16.1 | 0.00 | 0.03 | 0.00 | 997.2 | |
| 20260505170315 | -17 | 315 | 9.7 | 16.1 | 0.00 | 0.03 | 0.00 | 997.1 | |
| 20260505170305 | -17 | 293 | 8.0 | 16.1 | 0.00 | 0.03 | 0.00 | 997.1 | |
| 20260505170255 | -17 | 270 | 8.0 | 16.1 | 0.00 | 0.03 | 0.00 | 997.1 | |
| 20260505170245 | -17 | 270 | 6.4 | 16.1 | 0.00 | 0.03 | 0.00 | 997.2 | |
| 20260505170235 | -17 | 315 | 6.4 | 16.1 | 0.00 | 0.03 | 0.00 | 1017.7 | |
| 20260505170225 | -17 | 270 | 6.4 | 16.1 | 0.00 | 0.03 | 0.00 | 997.1 | |
| 20260505170155 | -17 | 315 | 8.0 | 16.1 | 0.00 | 0.03 | 0.00 | 997.1 | |
| 20260505170135 | -17 | 293 | 8.0 | 16.1 | 0.00 | 0.03 | 0.00 | 997.1 | |
| 20260505170115 | -17 | 315 | 8.0 | 16.1 | 0.00 | 0.03 | 0.00 | 997.1 | |
| 20260505170105 | -17 | 293 | 9.7 | 16.1 | 0.00 | 0.03 | 0.00 | 997.1 | |
| 20260505170055 | -17 | 270 | 9.7 | 16.1 | 0.00 | 0.03 | 0.00 | 997.1 | |
| 20260505170025 | -17 | 315 | 9.7 | 16.1 | 0.00 | 0.03 | 0.00 | 997.1 | |
| 20260505170015 | -17 | 270 | 9.7 | 16.1 | 0.00 | 0.03 | 0.00 | 997.1 | |
| 20260505165955 | -17 | 293 | 9.7 | 16.1 | 0.00 | 0.03 | 0.00 | 997.1 | |
| 20260505165935 | -17 | 270 | 9.7 | 16.1 | 0.00 | 0.03 | 0.00 | 997.1 | |
| 20260505165925 | -17 | 315 | 9.7 | 16.1 | 0.00 | 0.03 | 0.00 | 997.1 | |
| 20260505165905 | -17 | 270 | 8.0 | 12.9 | 0.00 | 0.03 | 0.00 | 997.1 | |
| 20260505165845 | -17 | 270 | 6.4 | 12.9 | 0.00 | 0.03 | 0.00 | 997.1 | |
| 20260505165835 | -17 | 315 | 6.4 | 12.9 | 0.00 | 0.03 | 0.00 | 997.0 | |
| 20260505165826 | -17 | 315 | 6.4 | 12.9 | 0.00 | 0.03 | 0.00 | 997.1 | |
| 20260505165816 | -17 | 270 | 6.4 | 12.9 | 0.00 | 0.03 | 0.00 | 997.0 | |
| 20260505165806 | -17 | 293 | 6.4 | 12.9 | 0.00 | 0.03 | 0.00 | 997.1 | |
| 20260505165746 | -17 | 315 | 6.4 | 12.9 | 0.00 | 0.03 | 0.00 | 997.1 | |
| 20260505165736 | -17 | 315 | 6.4 | 12.9 | 0.00 | 0.03 | 0.00 | 997.0 | |
| 20260505165716 | -17 | 270 | 6.4 | 12.9 | 0.00 | 0.03 | 0.00 | 997.0 | |
| 20260505165706 | -17 | 270 | 6.4 | 14.5 | 0.00 | 0.03 | 0.00 | 997.1 | |
| 20260505165656 | -17 | 293 | 6.4 | 14.5 | 0.00 | 0.03 | 0.00 | 997.0 | |
| 20260505165646 | -17 | 270 | 6.4 | 16.1 | 0.00 | 0.03 | 0.00 | 997.1 | |
| 20260505165626 | -17 | 270 | 8.0 | 16.1 | 0.00 | 0.03 | 0.00 | 997.0 | |
| 20260505165616 | -17 | 315 | 8.0 | 17.7 | 0.00 | 0.03 | 0.00 | 997.0 | |
| 20260505165606 | -17 | 270 | 8.0 | 17.7 | 0.00 | 0.03 | 0.00 | 997.1 | |
| 20260505165556 | -17 | 270 | 9.7 | 17.7 | 0.00 | 0.03 | 0.00 | 997.0 | |
| 20260505165546 | -17 | 293 | 9.7 | 17.7 | 0.00 | 0.03 | 0.00 | 997.0 | |
| 20260505165536 | -17 | 270 | 8.0 | 17.7 | 0.00 | 0.03 | 0.00 | 997.0 | |
| 20260505165526 | -17 | 270 | 8.0 | 17.7 | 0.00 | 0.03 | 0.00 | 997.1 | |
| 20260505165516 | 17 | 293 | 9.7 | 17.7 | 0.00 | 0.03 | 0.00 | 79 | 997.0 |
| 20260505165506 | -17 | 270 | 9.7 | 17.7 | 0.00 | 0.03 | 0.00 | 997.0 | |
| 20260505165456 | -17 | 293 | 8.0 | 17.7 | 0.00 | 0.03 | 0.00 | 997.0 | |
| 20260505165446 | -17 | 270 | 9.7 | 17.7 | 0.00 | 0.03 | 0.00 | 997.1 | |
| 20260505165426 | -17 | 315 | 8.0 | 17.7 | 0.00 | 0.03 | 0.00 | 997.0 | |
| 20260505165416 | -17 | 315 | 8.0 | 17.7 | 0.00 | 0.03 | 0.00 | 997.1 | |
| 20260505165356 | -17 | 293 | 8.0 | 17.7 | 0.00 | 0.03 | 0.00 | 997.1 | |
| 20260505165347 | -17 | 315 | 8.0 | 17.7 | 0.00 | 0.03 | 0.00 | 997.0 | |
| 20260505165336 | -17 | 270 | 8.0 | 17.7 | 0.00 | 0.03 | 0.00 | 997.0 | |
| 20260505165316 | -17 | 270 | 9.7 | 17.7 | 0.00 | 0.03 | 0.00 | 997.1 | |
| 20260505165256 | -17 | 270 | 9.7 | 17.7 | 0.00 | 0.03 | 0.00 | 997.0 | |
| 20260505165247 | -17 | 293 | 9.7 | 17.7 | 0.00 | 0.03 | 0.00 | 997.1 | |
| 20260505165237 | -17 | 315 | 9.7 | 17.7 | 0.00 | 0.03 | 0.00 | 997.1 | |
| 20260505165227 | -17 | 293 | 9.7 | 17.7 | 0.00 | 0.03 | 0.00 | 997.0 | |
| 20260505165217 | -17 | 270 | 11.3 | 17.7 | 0.00 | 0.03 | 0.00 | 997.0 | |
| 20260505165207 | -17 | 315 | 11.3 | 17.7 | 0.00 | 0.03 | 0.00 | 997.0 | |
| 20260505165157 | -17 | 270 | 11.3 | 17.7 | 0.00 | 0.03 | 0.00 | 997.1 | |
| 20260505165147 | -17 | 270 | 9.7 | 17.7 | 0.00 | 0.03 | 0.00 | 997.1 | |
| 20260505165137 | -17 | 315 | 11.3 | 19.3 | 0.00 | 0.03 | 0.00 | 997.0 | |
| 20260505165057 | -17 | 270 | 11.3 | 19.3 | 0.00 | 0.03 | 0.00 | 997.1 | |
| 20260505165047 | -17 | 315 | 11.3 | 19.3 | 0.00 | 0.03 | 0.00 | 997.1 | |
| 20260505165037 | 23 | 293 | 11.3 | 19.3 | 0.00 | 0.03 | 0.00 | 38 | 997.1 |
| 20260505165017 | -17 | 270 | 11.3 | 19.3 | 0.00 | 0.03 | 0.00 | 997.1 | |
| 20260505165007 | -17 | 315 | 11.3 | 19.3 | 0.00 | 0.03 | 0.00 | 997.1 | |
| 20260505164947 | -17 | 315 | 11.3 | 19.3 | 0.00 | 0.03 | 0.00 | 997.0 | |
| 20260505164937 | -17 | 270 | 11.3 | 19.3 | 0.00 | 0.03 | 0.00 | 997.1 | |
| 20260505164917 | -17 | 293 | 12.9 | 19.3 | 0.00 | 0.03 | 0.00 | 997.0 | |
| 20260505164907 | -17 | 293 | 12.9 | 19.3 | 0.00 | 0.03 | 0.00 | 997.1 | |
| 20260505164857 | -17 | 315 | 12.9 | 19.3 | 0.00 | 0.03 | 0.00 | 997.1 | |
| 20260505164847 | -17 | 270 | 12.9 | 19.3 | 0.00 | 0.03 | 0.00 | 997.0 | |
| 20260505164837 | -17 | 270 | 12.9 | 19.3 | 0.00 | 0.03 | 0.00 | 997.1 | |
| 20260505164827 | -17 | 270 | 12.9 | 20.9 | 0.00 | 0.03 | 0.00 | 997.0 | |
| 20260505164817 | -17 | 315 | 12.9 | 20.9 | 0.00 | 0.03 | 0.00 | 997.0 | |
| 20260505164747 | -17 | 315 | 12.9 | 20.9 | 0.00 | 0.03 | 0.00 | 997.1 | |
| 20260505164737 | -17 | 270 | 12.9 | 20.9 | 0.00 | 0.03 | 0.00 | 997.1 | |
| 20260505164717 | -17 | 270 | 14.5 | 20.9 | 0.00 | 0.03 | 0.00 | 997.1 | |
| 20260505164707 | -17 | 315 | 14.5 | 20.9 | 0.00 | 0.03 | 0.00 | 997.1 | |
| 20260505164658 | -17 | 270 | 12.9 | 20.9 | 0.00 | 0.03 | 0.00 | 997.1 | |
| 20260505164648 | -17 | 270 | 12.9 | 20.9 | 0.00 | 0.03 | 0.00 | 997.0 | |
| 20260505164638 | -17 | 293 | 12.9 | 20.9 | 0.00 | 0.03 | 0.00 | 997.1 | |
| 20260505164628 | -17 | 293 | 11.3 | 20.9 | 0.00 | 0.03 | 0.00 | 997.1 | |
| 20260505164618 | -17 | 315 | 9.7 | 20.9 | 0.00 | 0.03 | 0.00 | 997.1 | |
| 20260505164608 | -17 | 315 | 9.7 | 20.9 | 0.00 | 0.03 | 0.00 | 997.0 | |
| 20260505164558 | -17 | 293 | 9.7 | 20.9 | 0.00 | 0.03 | 0.00 | 997.1 | |
| 20260505164548 | -17 | 293 | 9.7 | 20.9 | 0.00 | 0.03 | 0.00 | 997.0 | |
| 20260505164538 | -17 | 293 | 11.3 | 20.9 | 0.00 | 0.03 | 0.00 | 997.0 | |
| 20260505164528 | -17 | 293 | 12.9 | 20.9 | 0.00 | 0.03 | 0.00 | 997.1 | |
| 20260505164518 | -17 | 315 | 12.9 | 20.9 | 0.00 | 0.03 | 0.00 | 997.1 | |
| 20260505164508 | -17 | 270 | 12.9 | 20.9 | 0.00 | 0.03 | 0.00 | 997.0 | |
| 20260505164438 | -17 | 270 | 12.9 | 20.9 | 0.00 | 0.03 | 0.00 | 997.1 | |
| 20260505164358 | -17 | 270 | 12.9 | 20.9 | 0.00 | 0.03 | 0.00 | 997.1 | |
| 20260505164328 | -17 | 315 | 12.9 | 20.9 | 0.00 | 0.03 | 0.00 | 997.1 | |
| 20260505164318 | -17 | 270 | 12.9 | 20.9 | 0.00 | 0.03 | 0.00 | 997.1 | |
| 20260505164238 | -17 | 315 | 12.9 | 20.9 | 0.00 | 0.03 | 0.00 | 997.1 | |
| 20260505164228 | -17 | 315 | 12.9 | 20.9 | 0.00 | 0.03 | 0.00 | 997.2 | |
| 20260505164218 | -17 | 270 | 12.9 | 20.9 | 0.00 | 0.03 | 0.00 | 997.2 | |
| 20260505164208 | -17 | 270 | 12.9 | 22.5 | 0.00 | 0.03 | 0.00 | 997.1 | |
| 20260505164158 | -17 | 270 | 12.9 | 22.5 | 0.00 | 0.03 | 0.00 | 997.2 | |
| 20260505164148 | -17 | 293 | 14.5 | 22.5 | 0.00 | 0.03 | 0.00 | 997.2 | |
| 20260505164138 | -17 | 270 | 14.5 | 22.5 | 0.00 | 0.03 | 0.00 | 997.1 | |
| 20260505164118 | -17 | 315 | 12.9 | 24.1 | 0.00 | 0.03 | 0.00 | 997.1 | |
| 20260505164109 | -17 | 293 | 12.9 | 24.1 | 0.00 | 0.03 | 0.00 | 997.1 | |
| 20260505164059 | -17 | 270 | 12.9 | 24.1 | 0.00 | 0.03 | 0.00 | 997.2 | |
| 20260505164039 | -17 | 270 | 12.9 | 24.1 | 0.00 | 0.03 | 0.00 | 997.1 | |
| 20260505164019 | -17 | 315 | 12.9 | 24.1 | 0.00 | 0.03 | 0.00 | 997.1 | |
| 20260505164009 | -17 | 270 | 12.9 | 24.1 | 0.00 | 0.03 | 0.00 | 997.2 | |
| 20260505163959 | -17 | 315 | 12.9 | 24.1 | 0.00 | 0.03 | 0.00 | 997.2 | |
| 20260505163949 | -17 | 315 | 14.5 | 24.1 | 0.00 | 0.03 | 0.00 | 997.2 | |
| 20260505163939 | -17 | 270 | 14.5 | 24.1 | 0.00 | 0.03 | 0.00 | 997.2 | |
| 20260505163909 | -17 | 293 | 12.9 | 24.1 | 0.00 | 0.03 | 0.00 | 997.2 | |
| 20260505163859 | -17 | 270 | 12.9 | 24.1 | 0.00 | 0.03 | 0.00 | 997.2 | |
| 20260505163849 | -17 | 293 | 12.9 | 24.1 | 0.00 | 0.03 | 0.00 | 997.1 | |
| 20260505163839 | -17 | 270 | 12.9 | 24.1 | 0.00 | 0.03 | 0.00 | 997.1 | |
| 20260505163829 | -17 | 315 | 12.9 | 24.1 | 0.00 | 0.03 | 0.00 | 997.2 | |
| 20260505163819 | -17 | 293 | 12.9 | 24.1 | 0.00 | 0.03 | 0.00 | 997.2 | |
| 20260505163759 | -17 | 293 | 14.5 | 24.1 | 0.00 | 0.03 | 0.00 | 997.2 | |
| 20260505163749 | -17 | 315 | 14.5 | 24.1 | 0.00 | 0.03 | 0.00 | 997.2 | |
| 20260505163719 | -17 | 315 | 16.1 | 24.1 | 0.00 | 0.03 | 0.00 | 997.2 | |
| 20260505163659 | -17 | 293 | 16.1 | 24.1 | 0.00 | 0.03 | 0.00 | 997.2 | |
| 20260505163649 | -17 | 270 | 16.1 | 24.1 | 0.00 | 0.03 | 0.00 | 997.2 | |
| 20260505163639 | -17 | 270 | 16.1 | 24.1 | 0.00 | 0.03 | 0.00 | 997.1 | |
| 20260505163629 | -17 | 315 | 16.1 | 24.1 | 0.00 | 0.03 | 0.00 | 997.2 | |
| 20260505163619 | -17 | 315 | 16.1 | 24.1 | 0.00 | 0.03 | 0.00 | 997.1 | |
| 20260505163559 | -17 | 315 | 14.5 | 24.1 | 0.00 | 0.03 | 0.00 | 997.2 | |
| 20260505163549 | -17 | 270 | 14.5 | 24.1 | 0.00 | 0.03 | 0.00 | 997.2 | |
| 20260505163539 | -17 | 315 | 16.1 | 24.1 | 0.00 | 0.03 | 0.00 | 997.2 | |
| 20260505163500 | -17 | 270 | 16.1 | 24.1 | 0.00 | 0.03 | 0.00 | 997.2 | |
| 20260505163450 | -17 | 315 | 16.1 | 24.1 | 0.00 | 0.03 | 0.00 | 997.2 | |
| 20260505163440 | -17 | 270 | 14.5 | 24.1 | 0.00 | 0.03 | 0.00 | 997.2 | |
| 20260505163430 | -17 | 270 | 12.9 | 24.1 | 0.00 | 0.03 | 0.00 | 997.2 | |
| 20260505163410 | -17 | 270 | 12.9 | 22.5 | 0.00 | 0.03 | 0.00 | 997.2 | |
| 20260505163340 | -17 | 293 | 12.9 | 22.5 | 0.00 | 0.03 | 0.00 | 997.2 | |
| 20260505163330 | -17 | 270 | 12.9 | 22.5 | 0.00 | 0.03 | 0.00 | 997.2 | |
| 20260505163320 | -17 | 293 | 12.9 | 24.1 | 0.00 | 0.03 | 0.00 | 997.2 | |
| 20260505163250 | -17 | 270 | 12.9 | 24.1 | 0.00 | 0.03 | 0.00 | 997.1 | |
| 20260505163240 | -17 | 270 | 12.9 | 24.1 | 0.00 | 0.03 | 0.00 | 997.2 | |
| 20260505163230 | -17 | 315 | 12.9 | 24.1 | 0.00 | 0.03 | 0.00 | 997.3 | |
| 20260505163200 | -17 | 315 | 14.5 | 24.1 | 0.00 | 0.03 | 0.00 | 997.2 | |
| 20260505163150 | -17 | 270 | 14.5 | 24.1 | 0.00 | 0.03 | 0.00 | 997.2 | |
| 20260505163140 | -17 | 270 | 16.1 | 24.1 | 0.00 | 0.03 | 0.00 | 997.3 | |
| 20260505163120 | -17 | 270 | 16.1 | 24.1 | 0.00 | 0.03 | 0.00 | 997.2 | |
| 20260505163110 | -17 | 315 | 14.5 | 24.1 | 0.00 | 0.03 | 0.00 | 997.2 | |
| 20260505163100 | -17 | 293 | 14.5 | 24.1 | 0.00 | 0.03 | 0.00 | 997.2 | |
| 20260505163050 | -17 | 270 | 14.5 | 24.1 | 0.00 | 0.03 | 0.00 | 997.2 | |
| 20260505163040 | -17 | 270 | 12.9 | 24.1 | 0.00 | 0.03 | 0.00 | 997.3 | |
| 20260505163020 | -17 | 315 | 12.9 | 24.1 | 0.00 | 0.03 | 0.00 | 997.3 | |
| 20260505163010 | -17 | 270 | 12.9 | 24.1 | 0.00 | 0.03 | 0.00 | 997.2 | |
| 20260505162951 | -17 | 293 | 12.9 | 24.1 | 0.00 | 0.03 | 0.00 | 997.2 | |
| 20260505162941 | -17 | 315 | 12.9 | 24.1 | 0.00 | 0.03 | 0.00 | 997.2 | |
| 20260505162921 | -17 | 315 | 14.5 | 24.1 | 0.00 | 0.03 | 0.00 | 997.2 | |
| 20260505162841 | -17 | 315 | 14.5 | 24.1 | 0.00 | 0.03 | 0.00 | 997.2 | |
| 20260505162831 | -17 | 270 | 14.5 | 24.1 | 0.00 | 0.03 | 0.00 | 997.2 | |
| 20260505162821 | -17 | 270 | 12.9 | 22.5 | 0.00 | 0.03 | 0.00 | 997.2 | |
| 20260505162811 | -17 | 315 | 12.9 | 22.5 | 0.00 | 0.03 | 0.00 | 997.2 | |
| 20260505162751 | -17 | 315 | 14.5 | 22.5 | 0.00 | 0.03 | 0.00 | 997.2 | |
| 20260505162731 | -17 | 270 | 14.5 | 22.5 | 0.00 | 0.03 | 0.00 | 997.3 | |
| 20260505162721 | -17 | 270 | 16.1 | 22.5 | 0.00 | 0.03 | 0.00 | 997.3 | |
| 20260505162711 | -17 | 293 | 16.1 | 22.5 | 0.00 | 0.03 | 0.00 | 997.3 | |
| 20260505162651 | -17 | 315 | 16.1 | 22.5 | 0.00 | 0.03 | 0.00 | 997.2 | |
| 20260505162631 | -17 | 293 | 16.1 | 22.5 | 0.00 | 0.03 | 0.00 | 997.2 | |
| 20260505162621 | -17 | 270 | 16.1 | 22.5 | 0.00 | 0.03 | 0.00 | 997.3 | |
| 20260505162611 | -17 | 315 | 16.1 | 22.5 | 0.00 | 0.03 | 0.00 | 997.3 | |
| 20260505162601 | -17 | 270 | 14.5 | 22.5 | 0.00 | 0.03 | 0.00 | 997.2 | |
| 20260505162551 | -17 | 293 | 14.5 | 22.5 | 0.00 | 0.03 | 0.00 | 997.3 | |
| 20260505162541 | -17 | 270 | 12.9 | 22.5 | 0.00 | 0.03 | 0.00 | 997.2 | |
| 20260505162521 | -17 | 270 | 12.9 | 22.5 | 0.00 | 0.03 | 0.00 | 997.3 | |
| 20260505162501 | -17 | 270 | 12.9 | 24.1 | 0.00 | 0.03 | 0.00 | 997.3 | |
| 20260505162451 | -17 | 270 | 12.9 | 24.1 | 0.00 | 0.03 | 0.00 | 997.2 | |
| 20260505162431 | -17 | 293 | 12.9 | 25.7 | 0.00 | 0.03 | 0.00 | 997.3 | |
| 20260505162421 | -17 | 270 | 12.9 | 25.7 | 0.00 | 0.03 | 0.00 | 997.3 | |
| 20260505162402 | -17 | 270 | 14.5 | 25.7 | 0.00 | 0.03 | 0.00 | 997.3 | |
| 20260505162352 | -17 | 270 | 16.1 | 25.7 | 0.00 | 0.03 | 0.00 | 997.3 | |
| 20260505162332 | -17 | 293 | 16.1 | 25.7 | 0.00 | 0.03 | 0.00 | 997.3 | |
| 20260505162322 | -17 | 315 | 16.1 | 25.7 | 0.00 | 0.03 | 0.00 | 997.3 | |
| 20260505162312 | -17 | 293 | 16.1 | 25.7 | 0.00 | 0.03 | 0.00 | 997.2 | |
| 20260505162302 | -17 | 315 | 16.1 | 25.7 | 0.00 | 0.03 | 0.00 | 997.2 | |
| 20260505162252 | -17 | 270 | 16.1 | 25.7 | 0.00 | 0.03 | 0.00 | 997.3 | |
| 20260505162232 | -17 | 270 | 16.1 | 25.7 | 0.00 | 0.03 | 0.00 | 997.2 | |
| 20260505162222 | -17 | 270 | 14.5 | 25.7 | 0.00 | 0.03 | 0.00 | 997.2 | |
| 20260505162212 | -17 | 270 | 14.5 | 25.7 | 0.00 | 0.03 | 0.00 | 997.3 | |
| 20260505162152 | -17 | 315 | 12.9 | 25.7 | 0.00 | 0.03 | 0.00 | 997.2 | |
| 20260505162142 | -17 | 293 | 12.9 | 25.7 | 0.00 | 0.03 | 0.00 | 997.3 | |
| 20260505162132 | -17 | 270 | 12.9 | 25.7 | 0.00 | 0.03 | 0.00 | 997.2 | |
| 20260505162122 | -17 | 293 | 12.9 | 25.7 | 0.00 | 0.03 | 0.00 | 997.2 | |
| 20260505162112 | -17 | 270 | 14.5 | 25.7 | 0.00 | 0.03 | 0.00 | 997.2 | |
| 20260505162102 | -17 | 293 | 16.1 | 25.7 | 0.00 | 0.03 | 0.00 | 997.3 | |
| 20260505162032 | -17 | 270 | 16.1 | 25.7 | 0.00 | 0.03 | 0.00 | 997.2 | |
| 20260505162002 | -17 | 293 | 16.1 | 25.7 | 0.00 | 0.03 | 0.00 | 997.3 | |
| 20260505161952 | -17 | 315 | 16.1 | 25.7 | 0.00 | 0.03 | 0.00 | 997.2 | |
| 20260505161942 | -17 | 293 | 16.1 | 24.1 | 0.00 | 0.03 | 0.00 | 997.3 | |
| 20260505161932 | -17 | 315 | 16.1 | 24.1 | 0.00 | 0.03 | 0.00 | 997.3 | |
| 20260505161922 | -17 | 293 | 16.1 | 24.1 | 0.00 | 0.03 | 0.00 | 997.2 | |
| 20260505161902 | -17 | 270 | 16.1 | 24.1 | 0.00 | 0.03 | 0.00 | 997.3 | |
| 20260505161842 | -17 | 270 | 16.1 | 24.1 | 0.00 | 0.03 | 0.00 | 997.2 | |
| 20260505161823 | -17 | 270 | 16.1 | 24.1 | 0.00 | 0.03 | 0.00 | 997.3 | |
| 20260505161803 | -17 | 293 | 16.1 | 24.1 | 0.00 | 0.03 | 0.00 | 997.3 | |
| 20260505161743 | -17 | 270 | 16.1 | 24.1 | 0.00 | 0.03 | 0.00 | 997.3 | |
| 20260505161733 | -17 | 293 | 16.1 | 22.5 | 0.00 | 0.03 | 0.00 | 997.3 | |
| 20260505161723 | -17 | 270 | 16.1 | 22.5 | 0.03 | 0.03 | 0.00 | 997.3 | |
| 20260505161713 | -17 | 293 | 14.5 | 22.5 | 0.03 | 0.03 | 0.00 | 997.3 | |
| 20260505161653 | -17 | 270 | 14.5 | 22.5 | 0.03 | 0.03 | 0.00 | 997.3 | |
| 20260505161643 | -17 | 315 | 14.5 | 24.1 | 0.03 | 0.03 | 0.00 | 997.3 | |
| 20260505161623 | -17 | 270 | 14.5 | 24.1 | 0.03 | 0.03 | 0.00 | 997.3 | |
| 20260505161603 | -17 | 293 | 14.5 | 24.1 | 0.03 | 0.03 | 0.00 | 997.2 | |
| 20260505161543 | -17 | 270 | 14.5 | 24.1 | 0.03 | 0.03 | 0.00 | 997.2 | |
| 20260505161523 | -17 | 270 | 16.1 | 24.1 | 0.03 | 0.03 | 0.00 | 997.2 | |
| 20260505161503 | -17 | 315 | 16.1 | 24.1 | 0.03 | 0.03 | 0.00 | 997.2 | |
| 20260505161443 | -17 | 270 | 16.1 | 24.1 | 0.03 | 0.03 | 0.00 | 997.2 | |
| 20260505161423 | -17 | 270 | 14.5 | 24.1 | 0.03 | 0.03 | 0.00 | 997.1 | |
| 20260505161413 | -17 | 270 | 14.5 | 24.1 | 0.03 | 0.03 | 0.00 | 997.2 | |
| 20260505161353 | -17 | 293 | 14.5 | 24.1 | 0.03 | 0.03 | 0.00 | 997.3 | |
| 20260505161343 | -17 | 270 | 16.1 | 24.1 | 0.03 | 0.03 | 0.00 | 997.2 | |
| 20260505161333 | -17 | 293 | 14.5 | 24.1 | 0.03 | 0.03 | 0.00 | 997.2 | |
| 20260505161323 | -17 | 315 | 16.1 | 24.1 | 0.03 | 0.03 | 0.00 | 997.1 | |
| 20260505161313 | -17 | 315 | 16.1 | 24.1 | 0.03 | 0.03 | 0.00 | 997.2 | |
| 20260505161254 | -17 | 293 | 14.5 | 24.1 | 0.03 | 0.03 | 0.00 | 997.2 | |
| 20260505161244 | -17 | 315 | 16.1 | 24.1 | 0.03 | 0.03 | 0.00 | 997.1 | |
| 20260505161224 | -17 | 270 | 16.1 | 24.1 | 0.03 | 0.03 | 0.00 | 997.1 | |
| 20260505161214 | -17 | 270 | 16.1 | 24.1 | 0.03 | 0.03 | 0.00 | 997.2 | |
| 20260505161204 | -17 | 270 | 17.7 | 24.1 | 0.03 | 0.03 | 0.00 | 997.1 | |
| 20260505161154 | -17 | 293 | 17.7 | 24.1 | 0.03 | 0.03 | 0.00 | 997.2 | |
| 20260505161144 | -17 | 270 | 16.1 | 24.1 | 0.03 | 0.03 | 0.00 | 997.1 | |
| 20260505161124 | -17 | 293 | 16.1 | 24.1 | 0.03 | 0.03 | 0.00 | 997.1 | |
| 20260505161104 | -17 | 270 | 16.1 | 22.5 | 0.03 | 0.03 | 0.00 | 997.2 | |
| 20260505161044 | -17 | 315 | 16.1 | 22.5 | 0.03 | 0.03 | 0.00 | 997.1 | |
| 20260505161014 | -17 | 270 | 16.1 | 22.5 | 0.03 | 0.03 | 0.00 | 997.1 | |
| 20260505161004 | -17 | 315 | 16.1 | 22.5 | 0.03 | 0.03 | 0.00 | 997.1 | |
| 20260505160954 | -17 | 315 | 16.1 | 22.5 | 0.03 | 0.03 | 0.00 | 997.0 | |
| 20260505160934 | -17 | 270 | 16.1 | 22.5 | 0.03 | 0.03 | 0.00 | 997.1 | |
| 20260505160914 | -17 | 315 | 16.1 | 22.5 | 0.03 | 0.03 | 0.00 | 997.1 | |
| 20260505160904 | -17 | 270 | 14.5 | 22.5 | 0.03 | 0.03 | 0.00 | 997.1 | |
| 20260505160854 | -17 | 270 | 14.5 | 20.9 | 0.03 | 0.03 | 0.00 | 997.1 | |
| 20260505160844 | -17 | 315 | 14.5 | 20.9 | 0.03 | 0.03 | 0.00 | 997.1 | |
| 20260505160834 | -17 | 293 | 14.5 | 20.9 | 0.03 | 0.03 | 0.00 | 997.1 | |
| 20260505160824 | -17 | 315 | 16.1 | 20.9 | 0.03 | 0.03 | 0.00 | 997.1 | |
| 20260505160814 | -17 | 270 | 16.1 | 20.9 | 0.03 | 0.03 | 0.00 | 997.1 | |
| 20260505160804 | -17 | 270 | 14.5 | 20.9 | 0.03 | 0.03 | 0.00 | 997.1 | |
| 20260505160754 | -17 | 315 | 14.5 | 20.9 | 0.03 | 0.03 | 0.00 | 997.2 | |
| 20260505160744 | -17 | 293 | 12.9 | 20.9 | 0.03 | 0.03 | 0.00 | 997.1 | |
| 20260505160715 | -17 | 315 | 12.9 | 20.9 | 0.03 | 0.03 | 0.00 | 997.1 | |
| 20260505160705 | -17 | 293 | 12.9 | 20.9 | 0.03 | 0.03 | 0.00 | 997.1 | |
| 20260505160645 | -17 | 270 | 12.9 | 20.9 | 0.03 | 0.03 | 0.00 | 997.1 | |
| 20260505160635 | -17 | 270 | 12.9 | 20.9 | 0.03 | 0.03 | 0.00 | 997.0 | |
| 20260505160625 | -17 | 293 | 12.9 | 20.9 | 0.03 | 0.03 | 0.00 | 997.1 | |
| 20260505160615 | -17 | 315 | 14.5 | 20.9 | 0.03 | 0.03 | 0.00 | 997.1 | |
| 20260505160605 | -17 | 270 | 14.5 | 20.9 | 0.03 | 0.03 | 0.00 | 997.1 | |
| 20260505160555 | -17 | 270 | 12.9 | 20.9 | 0.03 | 0.03 | 0.00 | 997.1 | |
| 20260505160535 | -17 | 315 | 12.9 | 20.9 | 0.03 | 0.03 | 0.00 | 997.1 | |
| 20260505160515 | -17 | 270 | 12.9 | 20.9 | 0.03 | 0.03 | 0.00 | 997.1 | |
| 20260505160445 | -17 | 270 | 14.5 | 20.9 | 0.03 | 0.03 | 0.00 | 997.1 | |
| 20260505160415 | -17 | 293 | 14.5 | 20.9 | 0.03 | 0.03 | 0.00 | 997.1 | |
| 20260505160405 | -17 | 270 | 14.5 | 20.9 | 0.03 | 0.03 | 0.00 | 997.1 | |
| 20260505160355 | -17 | 270 | 14.5 | 20.9 | 0.03 | 0.03 | 0.00 | 997.0 | |
| 20260505160345 | -17 | 315 | 12.9 | 20.9 | 0.03 | 0.03 | 0.00 | 997.0 | |
| 20260505160335 | -17 | 270 | 12.9 | 20.9 | 0.03 | 0.03 | 0.00 | 997.1 | |
| 20260505160315 | -17 | 315 | 12.9 | 20.9 | 0.03 | 0.03 | 0.00 | 997.1 | |
| 20260505160305 | -17 | 315 | 12.9 | 20.9 | 0.03 | 0.03 | 0.00 | 997.0 | |
| 20260505160255 | -17 | 270 | 12.9 | 20.9 | 0.03 | 0.03 | 0.00 | 997.0 | |
| 20260505160245 | -17 | 293 | 12.9 | 20.9 | 0.03 | 0.03 | 0.00 | 997.0 | |
| 20260505160235 | -17 | 270 | 12.9 | 20.9 | 0.03 | 0.03 | 0.00 | 997.1 | |
| 20260505160225 | -17 | 315 | 14.5 | 22.5 | 0.03 | 0.03 | 0.00 | 997.0 | |
| 20260505160206 | -17 | 293 | 12.9 | 24.1 | 0.03 | 0.03 | 0.00 | 997.0 | |
| 20260505160156 | -17 | 270 | 12.9 | 24.1 | 0.03 | 0.03 | 0.00 | 997.0 | |
| 20260505160116 | -17 | 270 | 12.9 | 24.1 | 0.03 | 0.03 | 0.00 | 997.0 | |
| 20260505160106 | -17 | 293 | 12.9 | 24.1 | 0.03 | 0.03 | 0.00 | 997.0 | |
| 20260505153341 | -17 | 315 | 12.9 | 22.5 | 0.03 | 0.03 | 0.00 | 996.8 | |
| 20260505153331 | -17 | 270 | 11.3 | 22.5 | 0.03 | 0.03 | 0.00 | 996.9 | |
| 20260505153251 | -17 | 293 | 11.3 | 22.5 | 0.03 | 0.03 | 0.00 | 996.8 | |
| 20260505153241 | -17 | 270 | 11.3 | 22.5 | 0.03 | 0.03 | 0.00 | 996.8 | |
| 20260505153231 | -17 | 315 | 12.9 | 22.5 | 0.03 | 0.03 | 0.00 | 996.8 | |
| 20260505153221 | -17 | 270 | 12.9 | 22.5 | 0.03 | 0.03 | 0.00 | 996.9 | |
| 20260505153211 | -17 | 270 | 12.9 | 22.5 | 0.03 | 0.03 | 0.00 | 996.8 | |
| 20260505153201 | -17 | 293 | 14.5 | 22.5 | 0.03 | 0.03 | 0.00 | 996.9 | |
| 20260505153141 | -17 | 315 | 14.5 | 22.5 | 0.03 | 0.03 | 0.00 | 996.8 | |
| 20260505153131 | -17 | 270 | 14.5 | 22.5 | 0.03 | 0.03 | 0.00 | 996.9 | |
| 20260505153121 | -17 | 270 | 14.5 | 22.5 | 0.03 | 0.03 | 0.00 | 996.8 | |
| 20260505153051 | -17 | 270 | 14.5 | 22.5 | 0.03 | 0.03 | 0.00 | 996.9 | |
| 20260505153041 | -17 | 270 | 14.5 | 22.5 | 0.03 | 0.03 | 0.00 | 996.8 | |
| 20260505153031 | -17 | 270 | 16.1 | 22.5 | 0.03 | 0.03 | 0.00 | 996.9 | |
| 20260505153021 | -17 | 270 | 16.1 | 22.5 | 0.03 | 0.03 | 0.00 | 996.8 | |
| 20260505153001 | -17 | 315 | 16.1 | 22.5 | 0.03 | 0.03 | 0.00 | 996.8 | |
| 20260505152951 | -17 | 293 | 16.1 | 22.5 | 0.03 | 0.03 | 0.00 | 996.8 | |
| 20260505152911 | -17 | 270 | 16.1 | 22.5 | 0.03 | 0.03 | 0.00 | 996.8 | |
| 20260505152901 | -17 | 270 | 14.5 | 22.5 | 0.03 | 0.03 | 0.00 | 996.7 | |
| 20260505152852 | -17 | 270 | 14.5 | 22.5 | 0.03 | 0.03 | 0.00 | 996.8 | |
| 20260505152842 | -17 | 293 | 12.9 | 22.5 | 0.03 | 0.03 | 0.00 | 996.7 | |
| 20260505152812 | -17 | 270 | 12.9 | 25.7 | 0.03 | 0.03 | 0.00 | 996.7 | |
| 20260505152752 | -17 | 315 | 12.9 | 25.7 | 0.03 | 0.03 | 0.00 | 996.7 | |
| 20260505152732 | -17 | 270 | 12.9 | 25.7 | 0.03 | 0.03 | 0.00 | 996.7 | |
| 20260505152722 | -17 | 270 | 12.9 | 25.7 | 0.03 | 0.03 | 0.00 | 996.8 | |
| 20260505152642 | -17 | 270 | 12.9 | 25.7 | 0.03 | 0.03 | 0.00 | 996.7 | |
| 20260505152602 | -17 | 270 | 12.9 | 25.7 | 0.03 | 0.03 | 0.00 | 996.7 | |
| 20260505152552 | -17 | 270 | 12.9 | 25.7 | 0.03 | 0.03 | 0.00 | 996.8 | |
| 20260505152522 | -17 | 270 | 12.9 | 25.7 | 0.03 | 0.03 | 0.00 | 996.7 | |
| 20260505152442 | -17 | 270 | 12.9 | 25.7 | 0.03 | 0.03 | 0.00 | 996.7 | |
| 20260505152432 | -17 | 315 | 12.9 | 25.7 | 0.03 | 0.03 | 0.00 | 996.7 | |
| 20260505152352 | -17 | 270 | 14.5 | 25.7 | 0.03 | 0.03 | 0.00 | 996.7 | |
| 20260505152342 | -17 | 315 | 16.1 | 25.7 | 0.03 | 0.03 | 0.00 | 996.7 | |
| 20260505152313 | -17 | 270 | 14.5 | 25.7 | 0.03 | 0.03 | 0.00 | 996.7 | |
| 20260505152305 | -17 | 270 | 14.5 | 25.7 | 0.03 | 0.03 | 0.00 | 996.8 | |
| 20260505152253 | -17 | 293 | 14.5 | 25.7 | 0.03 | 0.03 | 0.00 | 996.6 | |
| 20260505152233 | -17 | 270 | 12.9 | 17.7 | 0.03 | 0.03 | 0.00 | 996.7 | |
| 20260505152223 | -17 | 315 | 12.9 | 17.7 | 0.03 | 0.03 | 0.00 | 996.7 | |
| 20260505152153 | -17 | 270 | 12.9 | 17.7 | 0.03 | 0.03 | 0.00 | 996.7 | |
| 20260505152143 | -17 | 315 | 11.3 | 17.7 | 0.03 | 0.03 | 0.00 | 996.7 | |
| 20260505152133 | -17 | 270 | 11.3 | 17.7 | 0.03 | 0.03 | 0.00 | 996.6 | |
| 20260505152123 | -17 | 270 | 9.7 | 16.1 | 0.03 | 0.03 | 0.00 | 996.7 | |
| 20260505152043 | -17 | 270 | 9.7 | 16.1 | 0.03 | 0.03 | 0.00 | 996.7 | |
| 20260505152023 | -17 | 270 | 8.0 | 16.1 | 0.03 | 0.03 | 0.00 | 996.7 | |
| 20260505152003 | -17 | 270 | 6.4 | 16.1 | 0.03 | 0.03 | 0.00 | 996.7 | |
| 20260505151953 | -17 | 248 | 6.4 | 16.1 | 0.03 | 0.03 | 0.00 | 996.7 | |
| 20260505151933 | -17 | 270 | 4.8 | 16.1 | 0.03 | 0.03 | 0.00 | 996.7 | |
| 20260505151853 | -17 | 270 | 6.4 | 16.1 | 0.03 | 0.03 | 0.00 | 996.7 | |
| 20260505151843 | -17 | 315 | 6.4 | 16.1 | 0.03 | 0.03 | 0.00 | 996.7 | |
| 20260505151833 | -17 | 270 | 8.0 | 16.1 | 0.03 | 0.03 | 0.00 | 996.7 | |
| 20260505151803 | -17 | 270 | 9.7 | 16.1 | 0.03 | 0.03 | 0.00 | 996.7 | |
| 20260505151743 | -17 | 315 | 9.7 | 16.1 | 0.03 | 0.03 | 0.00 | 996.7 | |
| 20260505151724 | -17 | 315 | 9.7 | 16.1 | 0.00 | 0.00 | 0.00 | 996.6 | |
| 20260505151714 | -17 | 270 | 9.7 | 16.1 | 0.00 | 0.00 | 0.00 | 996.7 | |
| 20260505151654 | -17 | 0 | 9.7 | 16.1 | 0.00 | 0.00 | 0.00 | 996.7 | |
| 20260505151634 | -17 | 315 | 9.7 | 16.1 | 0.00 | 0.00 | 0.00 | 996.7 | |
| 20260505151624 | -17 | 270 | 9.7 | 16.1 | 0.00 | 0.00 | 0.00 | 996.7 | |
| 20260505151544 | -17 | 315 | 9.7 | 16.1 | 0.00 | 0.00 | 0.00 | 996.7 | |
| 20260505151524 | -17 | 315 | 9.7 | 16.1 | 0.00 | 0.00 | 0.00 | 996.8 | |
| 20260505151514 | -17 | 315 | 8.0 | 16.1 | 0.00 | 0.00 | 0.00 | 996.8 | |
| 20260505151504 | -17 | 0 | 8.0 | 16.1 | 0.00 | 0.00 | 0.00 | 996.8 | |
| 20260505151434 | -17 | 338 | 6.4 | 16.1 | 0.00 | 0.00 | 0.00 | 996.8 | |
| 20260505151424 | -17 | 315 | 6.4 | 16.1 | 0.00 | 0.00 | 0.00 | 996.8 | |
| 20260505151344 | -17 | 315 | 8.0 | 16.1 | 0.00 | 0.00 | 0.00 | 996.8 | |
| 20260505151334 | -17 | 315 | 9.7 | 16.1 | 0.00 | 0.00 | 0.00 | 996.9 | |
| 20260505151324 | -17 | 293 | 9.7 | 16.1 | 0.00 | 0.00 | 0.00 | 996.8 | |
| 20260505151304 | -17 | 0 | 9.7 | 16.1 | 0.00 | 0.00 | 0.00 | 996.9 | |
| 20260505151254 | -17 | 315 | 9.7 | 16.1 | 0.00 | 0.00 | 0.00 | 997.0 | |
| 20260505151234 | -17 | 0 | 9.7 | 16.1 | 0.00 | 0.00 | 0.00 | 997.0 | |
| 20260505151224 | -17 | 315 | 9.7 | 14.5 | 0.00 | 0.00 | 0.00 | 997.0 | |
| 20260505151204 | -17 | 315 | 8.0 | 14.5 | 0.00 | 0.00 | 0.00 | 997.0 | |
| 20260505151154 | -17 | 315 | 8.0 | 12.9 | 0.00 | 0.00 | 0.00 | 997.0 | |
| 20260505151145 | -17 | 315 | 6.4 | 12.9 | 0.00 | 0.00 | 0.00 | 997.0 | |
| 20260505151115 | -17 | 315 | 6.4 | 12.9 | 0.00 | 0.00 | 0.00 | 997.1 | |
| 20260505151105 | -17 | 315 | 6.4 | 12.9 | 0.00 | 0.00 | 0.00 | 997.2 | |
| 20260505151025 | -17 | 315 | 6.4 | 12.9 | 0.00 | 0.00 | 0.00 | 997.2 | |
| 20260505151015 | -17 | 0 | 6.4 | 12.9 | 0.00 | 0.00 | 0.00 | 997.2 | |
| 20260505151005 | -17 | 315 | 8.0 | 12.9 | 0.00 | 0.00 | 0.00 | 997.3 | |
| 20260505150925 | -17 | 315 | 6.4 | 12.9 | 0.00 | 0.00 | 0.00 | 997.3 | |
| 20260505150915 | -17 | 315 | 6.4 | 12.9 | 0.00 | 0.00 | 0.00 | 997.4 | |
| 20260505150905 | -17 | 315 | 4.8 | 11.3 | 0.00 | 0.00 | 0.00 | 997.4 | |
| 20260505150855 | -17 | 338 | 4.8 | 11.3 | 0.00 | 0.00 | 0.00 | 997.4 | |
| 20260505150845 | -17 | 315 | 4.8 | 12.9 | 0.00 | 0.00 | 0.00 | 997.4 | |
| 20260505150815 | -17 | 0 | 4.8 | 12.9 | 0.00 | 0.00 | 0.00 | 997.4 | |
| 20260505150805 | -17 | 315 | 4.8 | 12.9 | 0.00 | 0.00 | 0.00 | 997.5 | |
| 20260505150755 | -17 | 270 | 3.2 | 12.9 | 0.00 | 0.00 | 0.00 | 997.5 | |
| 20260505150745 | -17 | 315 | 3.2 | 12.9 | 0.00 | 0.00 | 0.00 | 997.5 | |
| 20260505150735 | -17 | 315 | 3.2 | 16.1 | 0.00 | 0.00 | 0.00 | 997.5 | |
| 20260505150725 | -17 | 315 | 3.2 | 17.7 | 0.00 | 0.00 | 0.00 | 997.5 | |
| 20260505150715 | -17 | 315 | 3.2 | 20.9 | 0.00 | 0.00 | 0.00 | 997.6 | |
| 20260505150705 | -17 | 315 | 3.2 | 22.5 | 0.00 | 0.00 | 0.00 | 997.6 | |
| 20260505150655 | -17 | 0 | 3.2 | 22.5 | 0.00 | 0.00 | 0.00 | 997.6 | |
| 20260505150635 | -17 | 315 | 3.2 | 25.7 | 0.00 | 0.00 | 0.00 | 997.6 | |
| 20260505150616 | -17 | 0 | 3.2 | 25.7 | 0.00 | 0.00 | 0.00 | 997.6 | |
| 20260505150606 | -17 | 45 | 3.2 | 25.7 | 0.00 | 0.00 | 0.00 | 997.5 | |
| 20260505150556 | -17 | 338 | 3.2 | 25.7 | 0.00 | 0.00 | 0.00 | 997.6 | |
| 20260505150546 | -17 | 293 | 3.2 | 25.7 | 0.00 | 0.00 | 0.00 | 997.6 | |
| 20260505150536 | -17 | 315 | 4.8 | 25.7 | 0.00 | 0.00 | 0.00 | 997.6 | |
| 20260505150526 | -17 | 0 | 4.8 | 25.7 | 0.00 | 0.00 | 0.00 | 997.6 | |
| 20260505150516 | -17 | 315 | 6.4 | 25.7 | 0.00 | 0.00 | 0.00 | 997.6 | |
| 20260505150506 | -17 | 338 | 6.4 | 25.7 | 0.00 | 0.00 | 0.00 | 997.6 | |
| 20260505150456 | -17 | 338 | 6.4 | 25.7 | 0.00 | 0.00 | 0.00 | 997.5 | |
| 20260505150446 | -17 | 293 | 8.0 | 25.7 | 0.00 | 0.00 | 0.00 | 997.5 | |
| 20260505150436 | -17 | 315 | 8.0 | 25.7 | 0.00 | 0.00 | 0.00 | 997.5 | |
| 20260505150426 | -17 | 293 | 9.7 | 25.7 | 0.00 | 0.00 | 0.00 | 997.6 | |
| 20260505150356 | -17 | 315 | 9.7 | 25.7 | 0.00 | 0.00 | 0.00 | 997.6 | |
| 20260505150336 | -17 | 315 | 9.7 | 25.7 | 0.00 | 0.00 | 0.00 | 997.5 | |
| 20260505150326 | -17 | 270 | 11.3 | 25.7 | 0.00 | 0.00 | 0.00 | 997.6 | |
| 20260505150316 | -17 | 293 | 12.9 | 25.7 | 0.00 | 0.00 | 0.00 | 997.5 | |
| 20260505150306 | -17 | 270 | 14.5 | 25.7 | 0.00 | 0.00 | 0.00 | 997.5 | |
| 20260505150256 | -17 | 293 | 16.1 | 25.7 | 0.00 | 0.00 | 0.00 | 997.5 | |
| 20260505150246 | -17 | 315 | 16.1 | 25.7 | 0.00 | 0.00 | 0.00 | 997.5 | |
| 20260505150226 | -17 | 315 | 19.3 | 25.7 | 0.00 | 0.00 | 0.00 | 997.5 | |
| 20260505150216 | -17 | 315 | 19.3 | 25.7 | 0.00 | 0.00 | 0.00 | 997.4 | |
| 20260505150206 | -17 | 315 | 17.7 | 25.7 | 0.00 | 0.00 | 0.00 | 997.5 | |
| 20260505150156 | -17 | 293 | 16.1 | 25.7 | 0.00 | 0.00 | 0.00 | 997.4 | |
| 20260505150146 | -17 | 270 | 16.1 | 25.7 | 0.00 | 0.00 | 0.00 | 997.4 | |
| 20260505150136 | -17 | 270 | 14.5 | 25.7 | 0.00 | 0.00 | 0.00 | 997.5 | |
| 20260505150116 | -17 | 293 | 14.5 | 27.4 | 0.00 | 0.00 | 0.00 | 997.5 | |
| 20260505140626 | 25 | 225 | 4.8 | 8.0 | 0.00 | 0.00 | 0.00 | 32 | 996.4 |
| 20260505140556 | 25 | 225 | 3.2 | 8.0 | 0.00 | 0.00 | 0.00 | 32 | 996.4 |
| 20260505140526 | 26 | 225 | 3.2 | 8.0 | 0.00 | 0.00 | 0.00 | 32 | 996.4 |
| 20260505140516 | 26 | 180 | 3.2 | 8.0 | 0.00 | 0.00 | 0.00 | 32 | 996.4 |
| 20260505140507 | 26 | 225 | 3.2 | 8.0 | 0.00 | 0.00 | 0.00 | 32 | 996.3 |
| 20260505140447 | -17 | 203 | 3.2 | 8.0 | 0.00 | 0.00 | 0.00 | 996.4 | |
| 20260505140437 | -17 | 225 | 3.2 | 8.0 | 0.00 | 0.00 | 0.00 | 996.4 | |
| 20260505140427 | 26 | 225 | 3.2 | 8.0 | 0.00 | 0.00 | 0.00 | 32 | 996.4 |
| 20260505140407 | 26 | 135 | 3.2 | 8.0 | 0.00 | 0.00 | 0.00 | 32 | 996.4 |
| 20260505140347 | 26 | 180 | 3.2 | 8.0 | 0.00 | 0.00 | 0.00 | 31 | 996.4 |
| 20260505140337 | 26 | 225 | 3.2 | 8.0 | 0.00 | 0.00 | 0.00 | 31 | 996.4 |
| 20260505140317 | -17 | 225 | 3.2 | 8.0 | 0.00 | 0.00 | 0.00 | 996.4 | |
| 20260505140307 | 26 | 180 | 3.2 | 8.0 | 0.00 | 0.00 | 0.00 | 31 | 996.4 |
| 20260505140257 | -17 | 270 | 3.2 | 8.0 | 0.00 | 0.00 | 0.00 | 996.4 | |
| 20260505140247 | 26 | 203 | 3.2 | 8.0 | 0.00 | 0.00 | 0.00 | 31 | 996.4 |
| 20260505140237 | -17 | 180 | 3.2 | 9.7 | 0.00 | 0.00 | 0.00 | 996.4 | |
| 20260505140227 | 26 | 180 | 3.2 | 11.3 | 0.00 | 0.00 | 0.00 | 31 | 996.4 |
| 20260505140217 | 26 | 225 | 3.2 | 11.3 | 0.00 | 0.00 | 0.00 | 31 | 996.4 |
| 20260505140157 | -17 | 135 | 3.2 | 11.3 | 0.00 | 0.00 | 0.00 | 996.4 | |
| 20260505140137 | 26 | 135 | 3.2 | 11.3 | 0.00 | 0.00 | 0.00 | 31 | 996.4 |
| 20260505140127 | -17 | 180 | 3.2 | 11.3 | 0.00 | 0.00 | 0.00 | 996.4 | |
| 20260505140117 | 26 | 180 | 3.2 | 11.3 | 0.00 | 0.00 | 0.00 | 31 | 996.4 |
| 20260505140107 | 26 | 113 | 3.2 | 11.3 | 0.00 | 0.00 | 0.00 | 31 | 996.4 |
| 20260505130309 | 29 | 225 | 3.2 | 11.3 | 0.00 | 0.00 | 0.00 | 28 | 996.9 |
| 20260505130259 | -17 | 180 | 1.6 | 11.3 | 0.00 | 0.00 | 0.00 | 996.9 | |
| 20260505130239 | 29 | 180 | 1.6 | 11.3 | 0.00 | 0.00 | 0.00 | 28 | 996.9 |
| 20260505130229 | -17 | 270 | 3.2 | 11.3 | 0.00 | 0.00 | 0.00 | 996.9 | |
| 20260505130219 | 29 | 225 | 3.2 | 11.3 | 0.00 | 0.00 | 0.00 | 29 | 996.9 |
| 20260505130209 | 28 | 135 | 3.2 | 11.3 | 0.00 | 0.00 | 0.00 | 29 | 996.9 |
| 20260505130149 | 28 | 180 | 4.8 | 11.3 | 0.00 | 0.00 | 0.00 | 29 | 996.9 |
| 20260505130139 | 28 | 180 | 6.4 | 11.3 | 0.00 | 0.00 | 0.00 | 29 | 996.9 |
| 20260505130109 | 28 | 158 | 6.4 | 11.3 | 0.00 | 0.00 | 0.00 | 29 | 996.9 |
| 20260505125041 | 28 | 180 | 6.4 | 12.9 | 0.00 | 0.00 | 0.00 | 28 | 997.0 |
| 20260505125031 | 28 | 180 | 4.8 | 12.9 | 0.00 | 0.00 | 0.00 | 29 | 997.0 |
| 20260505125021 | -17 | 180 | 4.8 | 12.9 | 0.00 | 0.00 | 0.00 | 997.0 | |
| 20260505125011 | -17 | 225 | 3.2 | 12.9 | 0.00 | 0.00 | 0.00 | 997.0 | |
| 20260505125001 | 29 | 158 | 4.8 | 12.9 | 0.00 | 0.00 | 0.00 | 29 | 997.0 |
| 20260505124951 | 29 | 270 | 4.8 | 12.9 | 0.00 | 0.00 | 0.00 | 29 | 997.0 |
| 20260505124941 | 29 | 203 | 4.8 | 12.9 | 0.00 | 0.00 | 0.00 | 29 | 997.0 |
| 20260505124932 | 29 | 203 | 6.4 | 12.9 | 0.00 | 0.00 | 0.00 | 29 | 997.0 |
| 20260505124911 | 29 | 225 | 4.8 | 12.9 | 0.00 | 0.00 | 0.00 | 29 | 997.0 |
| 20260505124901 | -17 | 225 | 3.2 | 12.9 | 0.00 | 0.00 | 0.00 | 997.0 | |
| 20260505124852 | 29 | 180 | 3.2 | 12.9 | 0.00 | 0.00 | 0.00 | 29 | 997.0 |
| 20260505124842 | 29 | 203 | 3.2 | 12.9 | 0.00 | 0.00 | 0.00 | 29 | 997.0 |
| 20260505124832 | 29 | 180 | 1.6 | 12.9 | 0.00 | 0.00 | 0.00 | 29 | 997.0 |
| 20260505124822 | 29 | 225 | 1.6 | 12.9 | 0.00 | 0.00 | 0.00 | 29 | 997.0 |
| 20260505124812 | 29 | 180 | 1.6 | 12.9 | 0.00 | 0.00 | 0.00 | 29 | 997.1 |
| 20260505124752 | -17 | 180 | 1.6 | 12.9 | 0.00 | 0.00 | 0.00 | 997.1 | |
| 20260505124742 | 29 | 180 | 1.6 | 12.9 | 0.00 | 0.00 | 0.00 | 29 | 997.0 |
| 20260505124732 | 29 | 135 | 3.2 | 12.9 | 0.00 | 0.00 | 0.00 | 29 | 997.1 |
| 20260505124722 | 29 | 135 | 3.2 | 12.9 | 0.00 | 0.00 | 0.00 | 29 | 997.0 |
| 20260505124702 | -17 | 135 | 3.2 | 12.9 | 0.00 | 0.00 | 0.00 | 997.0 | |
| 20260505124652 | 28 | 135 | 3.2 | 12.9 | 0.00 | 0.00 | 0.00 | 29 | 997.1 |
| 20260505124642 | 28 | 135 | 3.2 | 12.9 | 0.00 | 0.00 | 0.00 | 29 | 997.0 |
| 20260505124632 | 28 | 90 | 3.2 | 12.9 | 0.00 | 0.00 | 0.00 | 29 | 997.1 |
| 20260505124622 | 28 | 113 | 4.8 | 12.9 | 0.00 | 0.00 | 0.00 | 29 | 997.0 |
| 20260505124602 | 28 | 135 | 4.8 | 12.9 | 0.00 | 0.00 | 0.00 | 29 | 997.0 |
| 20260505124552 | 28 | 135 | 3.2 | 12.9 | 0.00 | 0.00 | 0.00 | 29 | 997.0 |
| 20260505124542 | 28 | 113 | 3.2 | 12.9 | 0.00 | 0.00 | 0.00 | 29 | 997.0 |
| 20260505124532 | 28 | 90 | 4.8 | 12.9 | 0.00 | 0.00 | 0.00 | 29 | 997.0 |
| 20260505124522 | -17 | 135 | 4.8 | 12.9 | 0.00 | 0.00 | 0.00 | 997.0 | |
| 20260505124502 | 28 | 90 | 6.4 | 12.9 | 0.00 | 0.00 | 0.00 | 29 | 997.0 |
| 20260505124452 | 28 | 135 | 6.4 | 12.9 | 0.00 | 0.00 | 0.00 | 29 | 997.0 |
| 20260505124442 | 28 | 90 | 8.0 | 12.9 | 0.00 | 0.00 | 0.00 | 28 | 997.0 |
| 20260505124432 | 28 | 135 | 8.0 | 12.9 | 0.00 | 0.00 | 0.00 | 28 | 997.0 |
| 20260505124422 | 29 | 135 | 6.4 | 12.9 | 0.00 | 0.00 | 0.00 | 28 | 997.1 |
| 20260505124412 | -17 | 135 | 6.4 | 12.9 | 0.00 | 0.00 | 0.00 | 997.0 | |
| 20260505124402 | 30 | 135 | 4.8 | 11.3 | 0.00 | 0.00 | 0.00 | 28 | 997.0 |
| 20260505124353 | 30 | 135 | 3.2 | 11.3 | 0.00 | 0.00 | 0.00 | 28 | 997.1 |
| 20260505124333 | 30 | 90 | 3.2 | 9.7 | 0.00 | 0.00 | 0.00 | 28 | 997.1 |
| 20260505124323 | 30 | 135 | 3.2 | 9.7 | 0.00 | 0.00 | 0.00 | 28 | 997.1 |
| 20260505124313 | 29 | 135 | 3.2 | 9.7 | 0.00 | 0.00 | 0.00 | 29 | 997.1 |
| 20260505124243 | 29 | 90 | 3.2 | 9.7 | 0.00 | 0.00 | 0.00 | 29 | 997.1 |
| 20260505124233 | -17 | 113 | 3.2 | 9.7 | 0.00 | 0.00 | 0.00 | 997.1 | |
| 20260505124223 | -17 | 90 | 3.2 | 9.7 | 0.00 | 0.00 | 0.00 | 997.1 | |
| 20260505124203 | 29 | 90 | 3.2 | 9.7 | 0.00 | 0.00 | 0.00 | 29 | 997.1 |
| 20260505124153 | 28 | 135 | 3.2 | 9.7 | 0.00 | 0.00 | 0.00 | 29 | 997.1 |
| 20260505124143 | 28 | 135 | 4.8 | 9.7 | 0.00 | 0.00 | 0.00 | 29 | 997.1 |
| 20260505124133 | 28 | 135 | 4.8 | 9.7 | 0.00 | 0.00 | 0.00 | 28 | 997.1 |
| 20260505124123 | 28 | 135 | 6.4 | 9.7 | 0.00 | 0.00 | 0.00 | 28 | 997.1 |
| 20260505124113 | 28 | 135 | 4.8 | 9.7 | 0.00 | 0.00 | 0.00 | 28 | 997.2 |
| 20260505124103 | 29 | 135 | 4.8 | 9.7 | 0.00 | 0.00 | 0.00 | 28 | 997.1 |
| 20260505124043 | 29 | 135 | 3.2 | 9.7 | 0.00 | 0.00 | 0.00 | 28 | 997.1 |
| 20260505124023 | 29 | 135 | 3.2 | 8.0 | 0.00 | 0.00 | 0.00 | 28 | 997.1 |
| 20260505124013 | 29 | 135 | 3.2 | 9.7 | 0.00 | 0.00 | 0.00 | 28 | 997.2 |
| 20260505123953 | 28 | 135 | 3.2 | 12.9 | 0.00 | 0.00 | 0.00 | 28 | 997.1 |
| 20260505123933 | -17 | 135 | 4.8 | 12.9 | 0.00 | 0.00 | 0.00 | 997.1 | |
| 20260505123923 | 28 | 135 | 4.8 | 12.9 | 0.00 | 0.00 | 0.00 | 28 | 997.1 |
| 20260505123854 | 28 | 135 | 6.4 | 17.7 | 0.00 | 0.00 | 0.00 | 28 | 997.1 |
| 20260505123843 | 28 | 135 | 4.8 | 17.7 | 0.00 | 0.00 | 0.00 | 28 | 997.2 |
| 20260505123834 | 28 | 135 | 4.8 | 17.7 | 0.00 | 0.00 | 0.00 | 28 | 997.1 |
| 20260505123824 | 29 | 135 | 4.8 | 17.7 | 0.00 | 0.00 | 0.00 | 28 | 997.1 |
| 20260505123814 | 29 | 135 | 3.2 | 17.7 | 0.00 | 0.00 | 0.00 | 28 | 997.1 |
| 20260505123804 | 29 | 135 | 3.2 | 17.7 | 0.00 | 0.00 | 0.00 | 29 | 997.2 |
| 20260505123754 | -17 | 135 | 3.2 | 17.7 | 0.00 | 0.00 | 0.00 | 997.2 | |
| 20260505123724 | 28 | 135 | 3.2 | 17.7 | 0.00 | 0.00 | 0.00 | 29 | 997.1 |
| 20260505123704 | 28 | 180 | 3.2 | 17.7 | 0.00 | 0.00 | 0.00 | 29 | 997.1 |
| 20260505123644 | 28 | 180 | 3.2 | 17.7 | 0.00 | 0.00 | 0.00 | 28 | 997.1 |
| 20260505123624 | 28 | 180 | 4.8 | 17.7 | 0.00 | 0.00 | 0.00 | 28 | 997.1 |
| 20260505123614 | 28 | 203 | 6.4 | 17.7 | 0.00 | 0.00 | 0.00 | 29 | 997.1 |
| 20260505123604 | -17 | 293 | 6.4 | 17.7 | 0.00 | 0.00 | 0.00 | 997.1 | |
| 20260505123554 | 28 | 180 | 6.4 | 17.7 | 0.00 | 0.00 | 0.00 | 28 | 997.1 |
| 20260505123534 | 28 | 180 | 8.0 | 17.7 | 0.00 | 0.00 | 0.00 | 28 | 997.1 |
| 20260505123514 | 28 | 180 | 9.7 | 17.7 | 0.00 | 0.00 | 0.00 | 28 | 997.2 |
| 20260505123454 | 29 | 180 | 11.3 | 17.7 | 0.00 | 0.00 | 0.00 | 27 | 997.1 |
| 20260505123444 | 29 | 180 | 9.7 | 17.7 | 0.00 | 0.00 | 0.00 | 27 | 997.1 |
| 20260505123434 | 30 | 180 | 9.7 | 17.7 | 0.00 | 0.00 | 0.00 | 27 | 997.1 |
| 20260505123424 | 30 | 180 | 8.0 | 17.7 | 0.00 | 0.00 | 0.00 | 26 | 997.2 |
| 20260505123414 | 30 | 180 | 6.4 | 17.7 | 0.00 | 0.00 | 0.00 | 26 | 997.1 |
| 20260505123404 | 30 | 180 | 4.8 | 16.1 | 0.00 | 0.00 | 0.00 | 27 | 997.1 |
| 20260505123355 | 30 | 293 | 4.8 | 8.0 | 0.00 | 0.00 | 0.00 | 27 | 997.1 |
| 20260505123345 | 30 | 225 | 4.8 | 8.0 | 0.00 | 0.00 | 0.00 | 27 | 997.1 |
| 20260505123335 | 30 | 180 | 4.8 | 9.7 | 0.00 | 0.00 | 0.00 | 27 | 997.1 |
| 20260505123325 | 30 | 180 | 3.2 | 9.7 | 0.00 | 0.00 | 0.00 | 27 | 997.1 |
| 20260505123315 | 31 | 225 | 3.2 | 9.7 | 0.00 | 0.00 | 0.00 | 27 | 997.1 |
| 20260505123255 | 31 | 180 | 3.2 | 9.7 | 0.00 | 0.00 | 0.00 | 27 | 997.1 |
| 20260505123245 | 31 | 225 | 0.0 | 11.3 | 0.00 | 0.00 | 0.00 | 27 | 997.1 |
| 20260505123235 | 30 | 180 | 0.0 | 11.3 | 0.00 | 0.00 | 0.00 | 27 | 997.1 |
| 20260505123225 | -17 | 225 | 0.0 | 11.3 | 0.00 | 0.00 | 0.00 | 997.1 | |
| 20260505123215 | 30 | 135 | 0.0 | 12.9 | 0.00 | 0.00 | 0.00 | 28 | 997.1 |
| 20260505123205 | 30 | 180 | 0.0 | 12.9 | 0.00 | 0.00 | 0.00 | 28 | 997.1 |
| 20260505123155 | 30 | 180 | 0.0 | 12.9 | 0.00 | 0.00 | 0.00 | 28 | 997.1 |
| 20260505123145 | 30 | 135 | 3.2 | 12.9 | 0.00 | 0.00 | 0.00 | 28 | 997.1 |
| 20260505123135 | 30 | 135 | 3.2 | 14.5 | 0.00 | 0.00 | 0.00 | 28 | 997.1 |
| 20260505123125 | 30 | 225 | 4.8 | 14.5 | 0.00 | 0.00 | 0.00 | 28 | 997.1 |
| 20260505123115 | 29 | 203 | 4.8 | 14.5 | 0.00 | 0.00 | 0.00 | 28 | 997.2 |
| 20260505123105 | 29 | 270 | 4.8 | 14.5 | 0.00 | 0.00 | 0.00 | 28 | 997.1 |
| 20260505123055 | 29 | 180 | 4.8 | 14.5 | 0.00 | 0.00 | 0.00 | 28 | 997.1 |
| 20260505123045 | 29 | 180 | 3.2 | 14.5 | 0.00 | 0.00 | 0.00 | 28 | 997.1 |
| 20260505123015 | 29 | 158 | 3.2 | 14.5 | 0.00 | 0.00 | 0.00 | 28 | 997.2 |
| 20260505123005 | 29 | 180 | 3.2 | 14.5 | 0.00 | 0.00 | 0.00 | 28 | 997.1 |
| 20260505122955 | 29 | 180 | 4.8 | 14.5 | 0.00 | 0.00 | 0.00 | 28 | 997.1 |
| 20260505122935 | 29 | 180 | 4.8 | 16.1 | 0.00 | 0.00 | 0.00 | 28 | 997.1 |
| 20260505122925 | 29 | 180 | 4.8 | 17.7 | 0.00 | 0.00 | 0.00 | 28 | 997.2 |
| 20260505122906 | 28 | 135 | 6.4 | 17.7 | 0.00 | 0.00 | 0.00 | 28 | 997.1 |
| 20260505122856 | 28 | 180 | 6.4 | 17.7 | 0.00 | 0.00 | 0.00 | 28 | 997.1 |
| 20260505122826 | 28 | 180 | 8.0 | 17.7 | 0.00 | 0.00 | 0.00 | 29 | 997.2 |
| 20260505122816 | 28 | 180 | 8.0 | 17.7 | 0.00 | 0.00 | 0.00 | 29 | 997.1 |
| 20260505122756 | 28 | 180 | 9.7 | 17.7 | 0.00 | 0.00 | 0.00 | 29 | 997.1 |
| 20260505122736 | 28 | 158 | 9.7 | 17.7 | 0.00 | 0.00 | 0.00 | 28 | 997.1 |
| 20260505122716 | 28 | 180 | 9.7 | 17.7 | 0.00 | 0.00 | 0.00 | 28 | 997.1 |
| 20260505122706 | 28 | 180 | 9.7 | 17.7 | 0.00 | 0.00 | 0.00 | 28 | 997.2 |
| 20260505122656 | 28 | 180 | 9.7 | 17.7 | 0.00 | 0.00 | 0.00 | 29 | 997.1 |
| 20260505122616 | 28 | 180 | 9.7 | 17.7 | 0.00 | 0.00 | 0.00 | 28 | 997.1 |
| 20260505122606 | 28 | 135 | 9.7 | 17.7 | 0.00 | 0.00 | 0.00 | 28 | 997.1 |
| 20260505122556 | -17 | 158 | 9.7 | 17.7 | 0.00 | 0.00 | 0.00 | 997.1 | |
| 20260505122536 | 28 | 180 | 9.7 | 17.7 | 0.00 | 0.00 | 0.00 | 28 | 997.1 |
| 20260505122526 | 28 | 158 | 11.3 | 17.7 | 0.00 | 0.00 | 0.00 | 28 | 997.1 |
| 20260505122516 | 28 | 158 | 12.9 | 17.7 | 0.00 | 0.00 | 0.00 | 28 | 997.1 |
| 20260505122456 | 28 | 180 | 12.9 | 17.7 | 0.00 | 0.00 | 0.00 | 28 | 997.1 |
| 20260505122446 | 29 | 180 | 12.9 | 17.7 | 0.00 | 0.00 | 0.00 | 27 | 997.0 |
| 20260505122417 | 29 | 180 | 11.3 | 17.7 | 0.00 | 0.00 | 0.00 | 27 | 997.1 |
| 20260505122406 | 29 | 180 | 12.9 | 17.7 | 0.00 | 0.00 | 0.00 | 27 | 997.1 |
| 20260505122356 | -17 | 180 | 12.9 | 17.7 | 0.00 | 0.00 | 0.00 | 997.1 | |
| 20260505122346 | 30 | 180 | 11.3 | 17.7 | 0.00 | 0.00 | 0.00 | 27 | 997.1 |
| 20260505122336 | 30 | 180 | 12.9 | 17.7 | 0.00 | 0.00 | 0.00 | 27 | 997.1 |
| 20260505122327 | 30 | 180 | 12.9 | 17.7 | 0.00 | 0.00 | 0.00 | 26 | 997.0 |
| 20260505122317 | 30 | 180 | 11.3 | 17.7 | 0.00 | 0.00 | 0.00 | 26 | 997.1 |
| 20260505122307 | 30 | 180 | 9.7 | 17.7 | 0.00 | 0.00 | 0.00 | 26 | 997.1 |
| 20260505122257 | 31 | 180 | 9.7 | 17.7 | 0.00 | 0.00 | 0.00 | 26 | 997.1 |
| 20260505122247 | 31 | 158 | 6.4 | 17.7 | 0.00 | 0.00 | 0.00 | 26 | 997.1 |
| 20260505122237 | 31 | 180 | 4.8 | 17.7 | 0.00 | 0.00 | 0.00 | 26 | 997.2 |
| 20260505122227 | -17 | 180 | 3.2 | 12.9 | 0.00 | 0.00 | 0.00 | 997.1 | |
| 20260505122217 | -17 | 203 | 1.6 | 12.9 | 0.00 | 0.00 | 0.00 | 997.1 | |
| 20260505122207 | 31 | 203 | 1.6 | 12.9 | 0.00 | 0.00 | 0.00 | 26 | 997.2 |
| 20260505122147 | -17 | 225 | 3.2 | 12.9 | 0.00 | 0.00 | 0.00 | 997.2 | |
| 20260505122137 | 30 | 45 | 3.2 | 12.9 | 0.00 | 0.00 | 0.00 | 26 | 997.2 |
| 20260505122127 | 30 | 135 | 4.8 | 12.9 | 0.00 | 0.00 | 0.00 | 26 | 997.1 |
| 20260505122107 | 30 | 180 | 6.4 | 12.9 | 0.00 | 0.00 | 0.00 | 26 | 997.1 |
| 20260505122047 | 30 | 203 | 6.4 | 12.9 | 0.00 | 0.00 | 0.00 | 26 | 997.1 |
| 20260505122037 | 30 | 203 | 6.4 | 12.9 | 0.00 | 0.00 | 0.00 | 25 | 997.2 |
| 20260505122027 | 30 | 180 | 6.4 | 12.9 | 0.00 | 0.00 | 0.00 | 26 | 997.1 |
| 20260505122017 | 30 | 180 | 3.2 | 12.9 | 0.00 | 0.00 | 0.00 | 26 | 997.1 |
| 20260505122007 | 30 | 225 | 3.2 | 14.5 | 0.00 | 0.00 | 0.00 | 26 | 997.1 |
| 20260505121957 | 30 | 180 | 3.2 | 14.5 | 0.00 | 0.00 | 0.00 | 26 | 997.2 |
| 20260505121947 | 30 | 180 | 1.6 | 14.5 | 0.00 | 0.00 | 0.00 | 27 | 997.2 |
| 20260505121927 | 30 | 135 | 3.2 | 14.5 | 0.00 | 0.00 | 0.00 | 27 | 997.1 |
| 20260505121907 | 30 | 90 | 3.2 | 14.5 | 0.00 | 0.00 | 0.00 | 27 | 997.2 |
| 20260505121847 | 30 | 90 | 3.2 | 14.5 | 0.00 | 0.00 | 0.00 | 28 | 997.2 |
| 20260505121828 | 30 | 90 | 3.2 | 14.5 | 0.00 | 0.00 | 0.00 | 27 | 997.2 |
| 20260505121818 | 29 | 90 | 3.2 | 14.5 | 0.00 | 0.00 | 0.00 | 28 | 997.2 |
| 20260505121807 | 29 | 90 | 3.2 | 14.5 | 0.00 | 0.00 | 0.00 | 28 | 997.1 |
| 20260505121758 | 29 | 90 | 3.2 | 14.5 | 0.00 | 0.00 | 0.00 | 27 | 997.1 |
| 20260505121748 | 29 | 90 | 4.8 | 14.5 | 0.00 | 0.00 | 0.00 | 28 | 997.2 |
| 20260505121738 | 28 | 68 | 6.4 | 14.5 | 0.00 | 0.00 | 0.00 | 28 | 997.1 |
| 20260505121728 | 28 | 90 | 6.4 | 14.5 | 0.00 | 0.00 | 0.00 | 28 | 997.2 |
| 20260505121718 | 28 | 90 | 6.4 | 14.5 | 0.00 | 0.00 | 0.00 | 28 | 997.1 |
| 20260505121658 | 28 | 113 | 6.4 | 14.5 | 0.00 | 0.00 | 0.00 | 28 | 997.1 |
| 20260505121648 | 28 | 135 | 6.4 | 14.5 | 0.00 | 0.00 | 0.00 | 28 | 997.1 |
| 20260505121628 | 28 | 90 | 8.0 | 14.5 | 0.00 | 0.00 | 0.00 | 28 | 997.1 |
| 20260505121618 | 28 | 135 | 9.7 | 14.5 | 0.00 | 0.00 | 0.00 | 27 | 997.1 |
| 20260505121608 | -17 | 135 | 9.7 | 14.5 | 0.00 | 0.00 | 0.00 | 997.1 | |
| 20260505121558 | 28 | 135 | 9.7 | 14.5 | 0.00 | 0.00 | 0.00 | 28 | 997.1 |
| 20260505121548 | 29 | 135 | 9.7 | 14.5 | 0.00 | 0.00 | 0.00 | 27 | 997.2 |
| 20260505121538 | 29 | 135 | 9.7 | 14.5 | 0.00 | 0.00 | 0.00 | 28 | 997.1 |
| 20260505121518 | 29 | 135 | 9.7 | 14.5 | 0.00 | 0.00 | 0.00 | 28 | 997.2 |
| 20260505121508 | 30 | 135 | 9.7 | 14.5 | 0.00 | 0.00 | 0.00 | 29 | 997.2 |
| 20260505121458 | 30 | 135 | 9.7 | 14.5 | 0.00 | 0.00 | 0.00 | 28 | 997.2 |
| 20260505121448 | 30 | 158 | 9.7 | 14.5 | 0.00 | 0.00 | 0.00 | 27 | 997.2 |
| 20260505121438 | 30 | 180 | 9.7 | 14.5 | 0.00 | 0.00 | 0.00 | 27 | 997.1 |
| 20260505121428 | 30 | 158 | 9.7 | 14.5 | 0.00 | 0.00 | 0.00 | 27 | 997.1 |
| 20260505121408 | 30 | 135 | 9.7 | 14.5 | 0.00 | 0.00 | 0.00 | 26 | 997.1 |
| 20260505121358 | 30 | 135 | 9.7 | 12.9 | 0.00 | 0.00 | 0.00 | 26 | 997.1 |
| 20260505121348 | 30 | 158 | 8.0 | 12.9 | 0.00 | 0.00 | 0.00 | 26 | 997.1 |
| 20260505121338 | 30 | 180 | 8.0 | 12.9 | 0.00 | 0.00 | 0.00 | 25 | 997.1 |
| 20260505121328 | 30 | 180 | 6.4 | 12.9 | 0.00 | 0.00 | 0.00 | 25 | 997.2 |
| 20260505121318 | 30 | 135 | 6.4 | 12.9 | 0.00 | 0.00 | 0.00 | 24 | 997.2 |
| 20260505121249 | 31 | 158 | 6.4 | 12.9 | 0.00 | 0.00 | 0.00 | 25 | 997.2 |
| 20260505121239 | 31 | 135 | 6.4 | 12.9 | 0.00 | 0.00 | 0.00 | 24 | 997.2 |
| 20260505121229 | 31 | 180 | 6.4 | 12.9 | 0.00 | 0.00 | 0.00 | 24 | 997.1 |
| 20260505121219 | 31 | 135 | 6.4 | 12.9 | 0.00 | 0.00 | 0.00 | 24 | 997.2 |
| 20260505121209 | 31 | 180 | 4.8 | 12.9 | 0.00 | 0.00 | 0.00 | 24 | 997.1 |
| 20260505121159 | 31 | 180 | 3.2 | 12.9 | 0.00 | 0.00 | 0.00 | 24 | 997.1 |
| 20260505121149 | 32 | 180 | 3.2 | 12.9 | 0.00 | 0.00 | 0.00 | 25 | 997.2 |
| 20260505121139 | 32 | 180 | 1.6 | 11.3 | 0.00 | 0.00 | 0.00 | 25 | 997.1 |
| 20260505121129 | 31 | 135 | 1.6 | 8.0 | 0.00 | 0.00 | 0.00 | 25 | 997.1 |
| 20260505121119 | 31 | 45 | 1.6 | 8.0 | 0.00 | 0.00 | 0.00 | 25 | 997.2 |
| 20260505121109 | 31 | 180 | 1.6 | 8.0 | 0.00 | 0.00 | 0.00 | 25 | 997.2 |
| 20260505121059 | 31 | 225 | 1.6 | 8.0 | 0.00 | 0.00 | 0.00 | 25 | 997.2 |
| 20260505121049 | 31 | 270 | 0.0 | 8.0 | 0.00 | 0.00 | 0.00 | 25 | 997.2 |
| 20260505121029 | 31 | 225 | 0.0 | 8.0 | 0.00 | 0.00 | 0.00 | 25 | 997.2 |
| 20260505121019 | 31 | 180 | 1.6 | 8.0 | 0.00 | 0.00 | 0.00 | 24 | 997.2 |
| 20260505121009 | 31 | 225 | 1.6 | 8.0 | 0.00 | 0.00 | 0.00 | 24 | 997.2 |
| 20260505120959 | 31 | 180 | 1.6 | 8.0 | 0.00 | 0.00 | 0.00 | 24 | 997.1 |
| 20260505120949 | 31 | 225 | 3.2 | 11.3 | 0.00 | 0.00 | 0.00 | 24 | 997.2 |
| 20260505120939 | 31 | 180 | 3.2 | 11.3 | 0.00 | 0.00 | 0.00 | 24 | 997.2 |
| 20260505120919 | 31 | 225 | 3.2 | 11.3 | 0.00 | 0.00 | 0.00 | 24 | 997.2 |
| 20260505120859 | 31 | 180 | 4.8 | 11.3 | 0.00 | 0.00 | 0.00 | 24 | 997.2 |
| 20260505120849 | 31 | 225 | 4.8 | 11.3 | 0.00 | 0.00 | 0.00 | 24 | 997.2 |
| 20260505120839 | 31 | 248 | 3.2 | 11.3 | 0.00 | 0.00 | 0.00 | 24 | 997.2 |
| 20260505120829 | 32 | 225 | 3.2 | 11.3 | 0.00 | 0.00 | 0.00 | 24 | 997.2 |
| 20260505120819 | 32 | 225 | 1.6 | 11.3 | 0.00 | 0.00 | 0.00 | 24 | 997.1 |
| 20260505120810 | 32 | 270 | 0.0 | 11.3 | 0.00 | 0.00 | 0.00 | 24 | 997.2 |
| 20260505120800 | 32 | 225 | 0.0 | 11.3 | 0.00 | 0.00 | 0.00 | 25 | 997.1 |
| 20260505120750 | 31 | 270 | 0.0 | 11.3 | 0.00 | 0.00 | 0.00 | 25 | 997.2 |
| 20260505120740 | 31 | 135 | 0.0 | 11.3 | 0.00 | 0.00 | 0.00 | 25 | 997.2 |
| 20260505120730 | 31 | 90 | 0.0 | 11.3 | 0.00 | 0.00 | 0.00 | 25 | 997.2 |
| 20260505120710 | 31 | 180 | 1.6 | 11.3 | 0.00 | 0.00 | 0.00 | 25 | 997.2 |
| 20260505120700 | 31 | 203 | 3.2 | 11.3 | 0.00 | 0.00 | 0.00 | 25 | 997.2 |
| 20260505120650 | 31 | 315 | 3.2 | 11.3 | 0.00 | 0.00 | 0.00 | 25 | 997.2 |
| 20260505120640 | 30 | 225 | 4.8 | 11.3 | 0.00 | 0.00 | 0.00 | 25 | 997.2 |
| 20260505120620 | 30 | 270 | 4.8 | 11.3 | 0.00 | 0.00 | 0.00 | 25 | 997.2 |
| 20260505120610 | 30 | 225 | 6.4 | 11.3 | 0.00 | 0.00 | 0.00 | 24 | 997.2 |
| 20260505120530 | 31 | 270 | 6.4 | 11.3 | 0.00 | 0.00 | 0.00 | 24 | 997.2 |
| 20260505120520 | 31 | 270 | 6.4 | 11.3 | 0.00 | 0.00 | 0.00 | 24 | 997.2 |
| 20260505120500 | 31 | 270 | 4.8 | 11.3 | 0.00 | 0.00 | 0.00 | 24 | 997.2 |
| 20260505120440 | 31 | 270 | 3.2 | 11.3 | 0.00 | 0.00 | 0.00 | 25 | 997.2 |
| 20260505120430 | 31 | 180 | 3.2 | 11.3 | 0.00 | 0.00 | 0.00 | 25 | 997.2 |
| 20260505120420 | 31 | 180 | 3.2 | 11.3 | 0.00 | 0.00 | 0.00 | 25 | 997.2 |
| 20260505120400 | 31 | 180 | 4.8 | 11.3 | 0.00 | 0.00 | 0.00 | 25 | 997.2 |
| 20260505120330 | 31 | 270 | 4.8 | 11.3 | 0.00 | 0.00 | 0.00 | 24 | 997.2 |
| 20260505120320 | 31 | 248 | 3.2 | 11.3 | 0.00 | 0.00 | 0.00 | 25 | 997.2 |
| 20260505120310 | 31 | 135 | 3.2 | 8.0 | 0.00 | 0.00 | 0.00 | 25 | 997.2 |
| 20260505120301 | 31 | 203 | 3.2 | 8.0 | 0.00 | 0.00 | 0.00 | 25 | 997.2 |
| 20260505120251 | 31 | 270 | 3.2 | 8.0 | 0.00 | 0.00 | 0.00 | 24 | 997.2 |
| 20260505120221 | 31 | 180 | 4.8 | 8.0 | 0.00 | 0.00 | 0.00 | 24 | 997.2 |
| 20260505120211 | 31 | 225 | 4.8 | 8.0 | 0.00 | 0.00 | 0.00 | 24 | 997.2 |
| 20260505120201 | 31 | 270 | 4.8 | 8.0 | 0.00 | 0.00 | 0.00 | 24 | 997.2 |
| 20260505120151 | 31 | 225 | 3.2 | 8.0 | 0.00 | 0.00 | 0.00 | 25 | 997.2 |
| 20260505120111 | 31 | 180 | 3.2 | 8.0 | 0.00 | 0.00 | 0.00 | 25 | 997.2 |
| 20260505120031 | 31 | 225 | 3.2 | 8.0 | 0.00 | 0.00 | 0.00 | 25 | 997.2 |
| 20260505120021 | 31 | 270 | 3.2 | 8.0 | 0.00 | 0.00 | 0.00 | 25 | 997.2 |
| 20260505120011 | 31 | 203 | 3.2 | 8.0 | 0.00 | 0.00 | 0.00 | 25 | 997.2 |
| 20260505115951 | 31 | 225 | 3.2 | 8.0 | 0.00 | 0.00 | 0.00 | 25 | 997.2 |
| 20260505115931 | 31 | 270 | 3.2 | 8.0 | 0.00 | 0.00 | 0.00 | 25 | 997.2 |
| 20260505115921 | 31 | 270 | 3.2 | 8.0 | 0.00 | 0.00 | 0.00 | 24 | 997.2 |
| 20260505115901 | 31 | 270 | 4.8 | 8.0 | 0.00 | 0.00 | 0.00 | 24 | 997.2 |
| 20260505115841 | 31 | 270 | 6.4 | 8.0 | 0.00 | 0.00 | 0.00 | 24 | 997.2 |
| 20260505115821 | 31 | 270 | 6.4 | 8.0 | 0.00 | 0.00 | 0.00 | 23 | 997.2 |
| 20260505115811 | 32 | 270 | 4.8 | 8.0 | 0.00 | 0.00 | 0.00 | 23 | 997.2 |
| 20260505115751 | 32 | 270 | 3.2 | 8.0 | 0.00 | 0.00 | 0.00 | 23 | 997.2 |
| 20260505115742 | 32 | 293 | 1.6 | 8.0 | 0.00 | 0.00 | 0.00 | 23 | 997.2 |
| 20260505115722 | 32 | 270 | 1.6 | 6.4 | 0.00 | 0.00 | 0.00 | 23 | 997.2 |
| 20260505115712 | 32 | 270 | 1.6 | 6.4 | 0.00 | 0.00 | 0.00 | 23 | 997.2 |
| 20260505115702 | 32 | 315 | 1.6 | 6.4 | 0.00 | 0.00 | 0.00 | 23 | 997.2 |
| 20260505115632 | 32 | 315 | 3.2 | 6.4 | 0.00 | 0.00 | 0.00 | 23 | 997.2 |
| 20260505115622 | -17 | 270 | 3.2 | 6.4 | 0.00 | 0.00 | 0.00 | 997.2 | |
| 20260505115612 | 32 | 315 | 3.2 | 6.4 | 0.00 | 0.00 | 0.00 | 23 | 997.2 |
| 20260505115602 | 32 | 270 | 3.2 | 6.4 | 0.00 | 0.00 | 0.00 | 23 | 997.2 |
| 20260505115552 | 32 | 180 | 1.6 | 6.4 | 0.00 | 0.00 | 0.00 | 23 | 997.2 |
| 20260505115542 | 32 | 270 | 1.6 | 6.4 | 0.00 | 0.00 | 0.00 | 23 | 997.2 |
| 20260505115532 | 32 | 315 | 0.0 | 6.4 | 0.00 | 0.00 | 0.00 | 23 | 997.2 |
| 20260505115512 | 32 | 270 | 0.0 | 6.4 | 0.00 | 0.00 | 0.00 | 23 | 997.2 |
| 20260505115502 | 32 | 315 | 0.0 | 6.4 | 0.00 | 0.00 | 0.00 | 24 | 997.2 |
| 20260505115442 | 32 | 90 | 1.6 | 6.4 | 0.00 | 0.00 | 0.00 | 24 | 997.2 |
| 20260505115432 | 32 | 113 | 1.6 | 6.4 | 0.00 | 0.00 | 0.00 | 24 | 997.2 |
| 20260505115412 | 32 | 180 | 3.2 | 6.4 | 0.00 | 0.00 | 0.00 | 24 | 997.2 |
| 20260505115402 | 32 | 180 | 3.2 | 6.4 | 0.00 | 0.00 | 0.00 | 25 | 997.2 |
| 20260505115332 | 32 | 135 | 3.2 | 8.0 | 0.00 | 0.00 | 0.00 | 25 | 997.2 |
| 20260505115322 | 32 | 135 | 3.2 | 8.0 | 0.00 | 0.00 | 0.00 | 25 | 997.3 |
| 20260505115312 | 32 | 135 | 3.2 | 9.7 | 0.00 | 0.00 | 0.00 | 25 | 997.2 |
| 20260505115304 | 31 | 135 | 1.6 | 11.3 | 0.00 | 0.00 | 0.00 | 25 | 997.2 |
| 20260505115253 | 31 | 135 | 1.6 | 11.3 | 0.00 | 0.00 | 0.00 | 24 | 997.3 |
| 20260505115243 | 31 | 158 | 1.6 | 11.3 | 0.00 | 0.00 | 0.00 | 24 | 997.2 |
| 20260505115233 | 31 | 180 | 1.6 | 11.3 | 0.00 | 0.00 | 0.00 | 24 | 997.3 |
| 20260505115223 | 31 | 135 | 3.2 | 11.3 | 0.00 | 0.00 | 0.00 | 24 | 997.2 |
| 20260505115203 | 31 | 180 | 3.2 | 11.3 | 0.00 | 0.00 | 0.00 | 24 | 997.3 |
| 20260505115153 | 31 | 180 | 3.2 | 11.3 | 0.00 | 0.00 | 0.00 | 24 | 997.3 |
| 20260505115123 | 31 | 203 | 3.2 | 11.3 | 0.00 | 0.00 | 0.00 | 24 | 997.3 |
| 20260505115113 | 31 | 180 | 3.2 | 11.3 | 0.00 | 0.00 | 0.00 | 24 | 997.3 |
| 20260505115053 | 31 | 180 | 3.2 | 11.3 | 0.00 | 0.00 | 0.00 | 25 | 997.3 |
| 20260505115043 | 30 | 180 | 3.2 | 11.3 | 0.00 | 0.00 | 0.00 | 25 | 997.3 |
| 20260505115023 | 30 | 225 | 3.2 | 11.3 | 0.00 | 0.00 | 0.00 | 25 | 997.3 |
| 20260505115003 | 30 | 180 | 3.2 | 11.3 | 0.00 | 0.00 | 0.00 | 25 | 997.3 |
| 20260505114943 | 30 | 158 | 3.2 | 11.3 | 0.00 | 0.00 | 0.00 | 25 | 997.3 |
| 20260505114923 | 30 | 225 | 4.8 | 11.3 | 0.00 | 0.00 | 0.00 | 25 | 997.3 |
| 20260505114913 | 30 | 180 | 6.4 | 11.3 | 0.00 | 0.00 | 0.00 | 25 | 997.3 |
| 20260505114853 | 30 | 135 | 6.4 | 11.3 | 0.00 | 0.00 | 0.00 | 25 | 997.3 |
| 20260505114843 | 30 | 135 | 6.4 | 11.3 | 0.00 | 0.00 | 0.00 | 24 | 997.3 |
| 20260505114833 | 30 | 158 | 6.4 | 11.3 | 0.00 | 0.00 | 0.00 | 25 | 997.3 |
| 20260505114813 | 30 | 180 | 6.4 | 11.3 | 0.00 | 0.00 | 0.00 | 25 | 997.3 |
| 20260505114803 | 30 | 158 | 4.8 | 11.3 | 0.00 | 0.00 | 0.00 | 25 | 997.3 |
| 20260505114754 | 30 | 180 | 4.8 | 11.3 | 0.00 | 0.00 | 0.00 | 25 | 997.3 |
| 20260505114743 | 30 | 158 | 4.8 | 11.3 | 0.00 | 0.00 | 0.00 | 26 | 997.4 |
| 20260505114734 | 30 | 180 | 4.8 | 11.3 | 0.00 | 0.00 | 0.00 | 26 | 997.3 |
| 20260505114724 | 30 | 180 | 4.8 | 11.3 | 0.00 | 0.00 | 0.00 | 27 | 997.4 |
| 20260505114714 | 30 | 225 | 4.8 | 11.3 | 0.00 | 0.00 | 0.00 | 27 | 997.4 |
| 20260505114704 | 29 | 225 | 6.4 | 11.3 | 0.00 | 0.00 | 0.00 | 27 | 997.4 |
| 20260505114654 | 29 | 180 | 6.4 | 11.3 | 0.00 | 0.00 | 0.00 | 26 | 997.4 |
| 20260505114634 | 29 | 225 | 6.4 | 11.3 | 0.00 | 0.00 | 0.00 | 26 | 997.4 |
| 20260505114624 | 29 | 270 | 6.4 | 11.3 | 0.00 | 0.00 | 0.00 | 26 | 997.4 |
| 20260505114614 | 29 | 0 | 6.4 | 11.3 | 0.00 | 0.00 | 0.00 | 26 | 997.4 |
| 20260505114604 | 29 | 225 | 6.4 | 11.3 | 0.00 | 0.00 | 0.00 | 25 | 997.4 |
| 20260505114554 | 30 | 270 | 8.0 | 11.3 | 0.00 | 0.00 | 0.00 | 25 | 997.4 |
| 20260505114524 | 30 | 225 | 8.0 | 11.3 | 0.00 | 0.00 | 0.00 | 26 | 997.4 |
| 20260505114514 | 30 | 270 | 6.4 | 11.3 | 0.00 | 0.00 | 0.00 | 25 | 997.4 |
| 20260505114504 | 30 | 225 | 6.4 | 11.3 | 0.00 | 0.00 | 0.00 | 25 | 997.4 |
| 20260505114454 | 30 | 248 | 6.4 | 11.3 | 0.00 | 0.00 | 0.00 | 25 | 997.4 |
| 20260505114444 | 30 | 225 | 6.4 | 9.7 | 0.00 | 0.00 | 0.00 | 26 | 997.4 |
| 20260505114434 | 30 | 270 | 6.4 | 9.7 | 0.00 | 0.00 | 0.00 | 25 | 997.4 |
| 20260505114424 | 30 | 270 | 6.4 | 8.0 | 0.00 | 0.00 | 0.00 | 25 | 997.4 |
| 20260505114354 | 30 | 225 | 4.8 | 8.0 | 0.00 | 0.00 | 0.00 | 25 | 997.4 |
| 20260505114334 | 30 | 225 | 3.2 | 8.0 | 0.00 | 0.00 | 0.00 | 25 | 997.4 |
| 20260505114254 | 30 | 225 | 3.2 | 8.0 | 0.00 | 0.00 | 0.00 | 25 | 997.4 |
| 20260505114244 | 30 | 225 | 3.2 | 8.0 | 0.00 | 0.00 | 0.00 | 25 | 997.4 |
| 20260505114224 | 30 | 135 | 3.2 | 8.0 | 0.00 | 0.00 | 0.00 | 25 | 997.4 |
| 20260505114214 | 30 | 203 | 3.2 | 8.0 | 0.00 | 0.00 | 0.00 | 25 | 997.4 |
| 20260505114205 | 30 | 180 | 3.2 | 8.0 | 0.00 | 0.00 | 0.00 | 25 | 997.4 |
| 20260505114145 | 30 | 225 | 3.2 | 9.7 | 0.00 | 0.00 | 0.00 | 25 | 997.4 |
| 20260505114135 | 30 | 225 | 3.2 | 9.7 | 0.00 | 0.00 | 0.00 | 26 | 997.4 |
| 20260505114115 | 30 | 135 | 3.2 | 9.7 | 0.00 | 0.00 | 0.00 | 26 | 997.5 |
| 20260505114105 | 30 | 135 | 4.8 | 9.7 | 0.00 | 0.00 | 0.00 | 26 | 997.5 |
| 20260505114055 | 30 | 135 | 4.8 | 9.7 | 0.00 | 0.00 | 0.00 | 25 | 997.5 |
| 20260505114035 | 29 | 135 | 4.8 | 9.7 | 0.00 | 0.00 | 0.00 | 25 | 997.5 |
| 20260505114015 | 30 | 135 | 4.8 | 9.7 | 0.00 | 0.00 | 0.00 | 25 | 997.4 |
| 20260505114005 | 30 | 180 | 4.8 | 9.7 | 0.00 | 0.00 | 0.00 | 25 | 997.4 |
| 20260505113955 | 30 | 158 | 4.8 | 9.7 | 0.00 | 0.00 | 0.00 | 25 | 997.5 |
| 20260505113945 | -17 | 135 | 4.8 | 9.7 | 0.00 | 0.00 | 0.00 | 997.5 | |
| 20260505113935 | 29 | 158 | 4.8 | 9.7 | 0.00 | 0.00 | 0.00 | 25 | 997.4 |
| 20260505113925 | -17 | 180 | 4.8 | 9.7 | 0.00 | 0.00 | 0.00 | 997.4 | |
| 20260505113905 | 30 | 135 | 4.8 | 9.7 | 0.00 | 0.00 | 0.00 | 25 | 997.4 |
| 20260505113845 | 30 | 135 | 4.8 | 9.7 | 0.00 | 0.00 | 0.00 | 25 | 997.5 |
| 20260505113835 | 30 | 135 | 3.2 | 9.7 | 0.00 | 0.00 | 0.00 | 24 | 997.4 |
| 20260505113825 | 30 | 158 | 3.2 | 9.7 | 0.00 | 0.00 | 0.00 | 24 | 997.4 |
| 20260505113815 | 30 | 135 | 3.2 | 9.7 | 0.00 | 0.00 | 0.00 | 24 | 997.5 |
| 20260505113805 | -17 | 135 | 3.2 | 9.7 | 0.00 | 0.00 | 0.00 | 997.5 | |
| 20260505113745 | 30 | 135 | 4.8 | 9.7 | 0.00 | 0.00 | 0.00 | 24 | 997.5 |
| 20260505113715 | 30 | 135 | 6.4 | 9.7 | 0.00 | 0.00 | 0.00 | 24 | 997.5 |
| 20260505113705 | 30 | 135 | 4.8 | 9.7 | 0.00 | 0.00 | 0.00 | 24 | 997.5 |
| 20260505113645 | 30 | 135 | 3.2 | 9.7 | 0.00 | 0.00 | 0.00 | 24 | 997.5 |
| 20260505113636 | 30 | 135 | 3.2 | 9.7 | 0.00 | 0.00 | 0.00 | 25 | 997.4 |
| 20260505113616 | 30 | 180 | 3.2 | 9.7 | 0.00 | 0.00 | 0.00 | 25 | 997.5 |
| 20260505113606 | -17 | 158 | 3.2 | 9.7 | 0.00 | 0.00 | 0.00 | 997.5 | |
| 20260505113556 | 30 | 135 | 3.2 | 9.7 | 0.00 | 0.00 | 0.00 | 25 | 997.5 |
| 20260505113546 | 30 | 135 | 4.8 | 9.7 | 0.00 | 0.00 | 0.00 | 25 | 997.5 |
| 20260505113536 | 30 | 135 | 4.8 | 9.7 | 0.00 | 0.00 | 0.00 | 25 | 997.5 |
| 20260505113526 | 30 | 135 | 6.4 | 9.7 | 0.00 | 0.00 | 0.00 | 25 | 997.5 |
| 20260505113506 | -17 | 180 | 4.8 | 9.7 | 0.00 | 0.00 | 0.00 | 997.5 | |
| 20260505113456 | 30 | 180 | 4.8 | 9.7 | 0.00 | 0.00 | 0.00 | 25 | 997.5 |
| 20260505113446 | 30 | 180 | 3.2 | 9.7 | 0.00 | 0.00 | 0.00 | 25 | 997.5 |
| 20260505113436 | 30 | 180 | 3.2 | 9.7 | 0.00 | 0.00 | 0.00 | 26 | 997.5 |
| 20260505113426 | -17 | 180 | 1.6 | 8.0 | 0.00 | 0.00 | 0.00 | 997.5 | |
| 20260505113416 | -17 | 225 | 1.6 | 8.0 | 0.00 | 0.00 | 0.00 | 997.5 | |
| 20260505113406 | -17 | 225 | 1.6 | 12.9 | 0.00 | 0.00 | 0.00 | 997.5 | |
| 20260505113356 | -17 | 203 | 1.6 | 12.9 | 0.00 | 0.00 | 0.00 | 997.6 | |
| 20260505113346 | -17 | 135 | 1.6 | 12.9 | 0.00 | 0.00 | 0.00 | 997.6 | |
| 20260505113336 | -17 | 135 | 3.2 | 12.9 | 0.00 | 0.00 | 0.00 | 997.5 | |
| 20260505113326 | -17 | 225 | 3.2 | 12.9 | 0.00 | 0.00 | 0.00 | 997.5 | |
| 20260505113316 | -17 | 225 | 3.2 | 12.9 | 0.00 | 0.00 | 0.00 | 997.6 | |
| 20260505113306 | 30 | 225 | 3.2 | 12.9 | 0.00 | 0.00 | 0.00 | 26 | 997.5 |
| 20260505113256 | 30 | 225 | 3.2 | 12.9 | 0.00 | 0.00 | 0.00 | 26 | 997.6 |
| 20260505113226 | -17 | 225 | 3.2 | 12.9 | 0.00 | 0.00 | 0.00 | 997.6 | |
| 20260505113216 | -17 | 225 | 1.6 | 12.9 | 0.00 | 0.00 | 0.00 | 997.6 | |
| 20260505113206 | 30 | 90 | 1.6 | 12.9 | 0.00 | 0.00 | 0.00 | 28 | 997.6 |
| 20260505113156 | -17 | 180 | 1.6 | 12.9 | 0.00 | 0.00 | 0.00 | 997.6 | |
| 20260505113147 | 30 | 203 | 3.2 | 12.9 | 0.00 | 0.00 | 0.00 | 28 | 997.6 |
| 20260505113137 | 30 | 135 | 3.2 | 12.9 | 0.00 | 0.00 | 0.00 | 28 | 997.6 |
| 20260505113127 | -17 | 270 | 3.2 | 12.9 | 0.00 | 0.00 | 0.00 | 997.5 | |
| 20260505113107 | 29 | 225 | 3.2 | 12.9 | 0.00 | 0.00 | 0.00 | 28 | 997.6 |
| 20260505113057 | -17 | 270 | 3.2 | 12.9 | 0.00 | 0.00 | 0.00 | 997.6 | |
| 20260505113047 | -17 | 225 | 3.2 | 12.9 | 0.00 | 0.00 | 0.00 | 997.6 | |
| 20260505113037 | 29 | 225 | 3.2 | 12.9 | 0.00 | 0.00 | 0.00 | 29 | 997.5 |
| 20260505113017 | -17 | 225 | 4.8 | 12.9 | 0.00 | 0.00 | 0.00 | 997.6 | |
| 20260505112957 | -17 | 225 | 6.4 | 12.9 | 0.00 | 0.00 | 0.00 | 997.6 | |
| 20260505112947 | 28 | 225 | 6.4 | 12.9 | 0.00 | 0.00 | 0.00 | 28 | 997.6 |
| 20260505112927 | -17 | 225 | 8.0 | 12.9 | 0.00 | 0.00 | 0.00 | 997.6 | |
| 20260505112917 | -17 | 225 | 6.4 | 12.9 | 0.00 | 0.00 | 0.00 | 997.7 | |
| 20260505112857 | -17 | 225 | 6.4 | 12.9 | 0.00 | 0.00 | 0.00 | 997.6 | |
| 20260505112847 | -17 | 225 | 4.8 | 12.9 | 0.00 | 0.00 | 0.00 | 997.5 | |
| 20260505112837 | -17 | 225 | 4.8 | 9.7 | 0.00 | 0.00 | 0.00 | 997.6 | |
| 20260505112757 | -17 | 225 | 4.8 | 9.7 | 0.00 | 0.00 | 0.00 | 997.6 | |
| 20260505112717 | -17 | 225 | 3.2 | 9.7 | 0.00 | 0.00 | 0.00 | 997.6 | |
| 20260505112707 | -17 | 135 | 3.2 | 9.7 | 0.00 | 0.00 | 0.00 | 997.6 | |
| 20260505112657 | -17 | 180 | 3.2 | 12.9 | 0.00 | 0.00 | 0.00 | 997.7 | |
| 20260505112648 | -17 | 90 | 3.2 | 14.5 | 0.00 | 0.00 | 0.00 | 997.7 | |
| 20260505112638 | -17 | 135 | 4.8 | 14.5 | 0.00 | 0.00 | 0.00 | 997.7 | |
| 20260505112618 | -17 | 180 | 6.4 | 14.5 | 0.00 | 0.00 | 0.00 | 997.7 | |
| 20260505112558 | -17 | 270 | 6.4 | 14.5 | 0.00 | 0.00 | 0.00 | 997.7 | |
| 20260505112528 | -17 | 225 | 6.4 | 14.5 | 0.00 | 0.00 | 0.00 | 997.7 | |
| 20260505112518 | -17 | 270 | 6.4 | 14.5 | 0.00 | 0.00 | 0.00 | 997.7 | |
| 20260505112458 | -17 | 270 | 4.8 | 14.5 | 0.00 | 0.00 | 0.00 | 997.7 | |
| 20260505112448 | -17 | 270 | 6.4 | 14.5 | 0.00 | 0.00 | 0.00 | 997.6 | |
| 20260505112428 | -17 | 270 | 6.4 | 14.5 | 0.00 | 0.00 | 0.00 | 997.7 | |
| 20260505112408 | -17 | 315 | 6.4 | 14.5 | 0.00 | 0.00 | 0.00 | 997.7 | |
| 20260505112348 | -17 | 293 | 6.4 | 14.5 | 0.00 | 0.00 | 0.00 | 997.7 | |
| 20260505112338 | -17 | 270 | 6.4 | 14.5 | 0.00 | 0.00 | 0.00 | 997.7 | |
| 20260505112318 | -17 | 315 | 6.4 | 14.5 | 0.00 | 0.00 | 0.00 | 997.7 | |
| 20260505112258 | -17 | 270 | 6.4 | 14.5 | 0.00 | 0.00 | 0.00 | 997.7 | |
| 20260505112248 | -17 | 270 | 8.0 | 14.5 | 0.00 | 0.00 | 0.00 | 997.7 | |
| 20260505112228 | -17 | 270 | 9.7 | 14.5 | 0.00 | 0.00 | 0.00 | 997.8 | |
| 20260505112208 | -17 | 270 | 9.7 | 14.5 | 0.00 | 0.00 | 0.00 | 997.7 | |
| 20260505112149 | -17 | 270 | 9.7 | 14.5 | 0.00 | 0.00 | 0.00 | 997.8 | |
| 20260505112139 | -17 | 270 | 8.0 | 12.9 | 0.00 | 0.00 | 0.00 | 997.7 | |
| 20260505112128 | -17 | 225 | 8.0 | 12.9 | 0.00 | 0.00 | 0.00 | 997.7 | |
| 20260505112119 | -17 | 225 | 6.4 | 12.9 | 0.00 | 0.00 | 0.00 | 997.7 | |
| 20260505112039 | -17 | 225 | 6.4 | 12.9 | 0.00 | 0.00 | 0.00 | 997.7 | |
| 20260505112029 | -17 | 270 | 4.8 | 12.9 | 0.00 | 0.00 | 0.00 | 997.7 | |
| 20260505112009 | 28 | 225 | 6.4 | 12.9 | 0.00 | 0.00 | 0.00 | 30 | 997.8 |
| 20260505111949 | -17 | 270 | 6.4 | 12.9 | 0.00 | 0.00 | 0.00 | 997.7 | |
| 20260505111939 | -17 | 248 | 6.4 | 12.9 | 0.00 | 0.00 | 0.00 | 997.7 | |
| 20260505111929 | 28 | 270 | 6.4 | 12.9 | 0.00 | 0.00 | 0.00 | 30 | 997.7 |
| 20260505111919 | 28 | 270 | 6.4 | 12.9 | 0.00 | 0.00 | 0.00 | 31 | 997.7 |
| 20260505111909 | 28 | 225 | 6.4 | 12.9 | 0.00 | 0.00 | 0.00 | 31 | 997.7 |
| 20260505111849 | -17 | 270 | 8.0 | 12.9 | 0.00 | 0.00 | 0.00 | 997.7 | |
| 20260505111839 | 28 | 270 | 8.0 | 12.9 | 0.00 | 0.00 | 0.00 | 30 | 997.7 |
| 20260505111829 | 28 | 270 | 6.4 | 12.9 | 0.00 | 0.00 | 0.00 | 30 | 997.7 |
| 20260505111809 | -17 | 270 | 6.4 | 12.9 | 0.00 | 0.00 | 0.00 | 997.7 | |
| 20260505111759 | -17 | 270 | 4.8 | 12.9 | 0.00 | 0.00 | 0.00 | 997.8 | |
| 20260505111749 | -17 | 225 | 4.8 | 12.9 | 0.00 | 0.00 | 0.00 | 997.7 | |
| 20260505111739 | -17 | 270 | 4.8 | 12.9 | 0.00 | 0.00 | 0.00 | 997.7 | |
| 20260505111709 | -17 | 270 | 4.8 | 12.9 | 0.00 | 0.00 | 0.00 | 997.8 | |
| 20260505111640 | 28 | 270 | 4.8 | 12.9 | 0.00 | 0.00 | 0.00 | 30 | 997.8 |
| 20260505111630 | -17 | 270 | 4.8 | 12.9 | 0.00 | 0.00 | 0.00 | 997.8 | |
| 20260505111620 | -17 | 225 | 4.8 | 12.9 | 0.00 | 0.00 | 0.00 | 997.8 | |
| 20260505111600 | -17 | 180 | 6.4 | 12.9 | 0.00 | 0.00 | 0.00 | 997.8 | |
| 20260505111540 | -17 | 225 | 6.4 | 12.9 | 0.00 | 0.00 | 0.00 | 997.8 | |
| 20260505111530 | -17 | 225 | 4.8 | 12.9 | 0.00 | 0.00 | 0.00 | 997.8 | |
| 20260505111520 | -17 | 225 | 3.2 | 12.9 | 0.00 | 0.00 | 0.00 | 997.8 | |
| 20260505111510 | -17 | 45 | 3.2 | 12.9 | 0.00 | 0.00 | 0.00 | 997.7 | |
| 20260505111500 | -17 | 203 | 3.2 | 11.3 | 0.00 | 0.00 | 0.00 | 997.8 | |
| 20260505111430 | -17 | 270 | 3.2 | 11.3 | 0.00 | 0.00 | 0.00 | 997.8 | |
| 20260505111420 | 29 | 270 | 3.2 | 11.3 | 0.00 | 0.00 | 0.00 | 28 | 997.8 |
| 20260505111410 | 29 | 270 | 4.8 | 12.9 | 0.00 | 0.00 | 0.00 | 28 | 997.8 |
| 20260505111350 | -17 | 270 | 4.8 | 14.5 | 0.00 | 0.00 | 0.00 | 997.8 | |
| 20260505111330 | -17 | 270 | 6.4 | 14.5 | 0.00 | 0.00 | 0.00 | 997.8 | |
| 20260505111320 | 30 | 270 | 4.8 | 14.5 | 0.00 | 0.00 | 0.00 | 28 | 997.8 |
| 20260505111310 | -17 | 270 | 4.8 | 14.5 | 0.00 | 0.00 | 0.00 | 997.8 | |
| 20260505111250 | 30 | 270 | 3.2 | 14.5 | 0.00 | 0.00 | 0.00 | 28 | 997.8 |
| 20260505111240 | -17 | 270 | 3.2 | 14.5 | 0.00 | 0.00 | 0.00 | 997.8 | |
| 20260505111230 | -17 | 225 | 1.6 | 14.5 | 0.00 | 0.00 | 0.00 | 997.8 | |
| 20260505111220 | -17 | 45 | 1.6 | 14.5 | 0.00 | 0.00 | 0.00 | 997.8 | |
| 20260505111210 | -17 | 225 | 3.2 | 14.5 | 0.00 | 0.00 | 0.00 | 997.9 | |
| 20260505111141 | -17 | 180 | 3.2 | 14.5 | 0.00 | 0.00 | 0.00 | 997.8 | |
| 20260505111130 | -17 | 203 | 3.2 | 14.5 | 0.00 | 0.00 | 0.00 | 997.8 | |
| 20260505111121 | -17 | 270 | 3.2 | 14.5 | 0.00 | 0.00 | 0.00 | 997.8 | |
| 20260505111111 | -17 | 135 | 4.8 | 14.5 | 0.00 | 0.00 | 0.00 | 997.8 | |
| 20260505111101 | -17 | 180 | 4.8 | 14.5 | 0.00 | 0.00 | 0.00 | 997.8 | |
| 20260505111051 | -17 | 270 | 6.4 | 14.5 | 0.00 | 0.00 | 0.00 | 997.8 | |
| 20260505111041 | -17 | 225 | 6.4 | 14.5 | 0.00 | 0.00 | 0.00 | 997.8 | |
| 20260505111031 | -17 | 225 | 6.4 | 14.5 | 0.00 | 0.00 | 0.00 | 997.9 | |
| 20260505111021 | -17 | 248 | 6.4 | 14.5 | 0.00 | 0.00 | 0.00 | 997.9 | |
| 20260505110951 | -17 | 270 | 8.0 | 14.5 | 0.00 | 0.00 | 0.00 | 997.9 | |
| 20260505110941 | -17 | 270 | 8.0 | 14.5 | 0.00 | 0.00 | 0.00 | 997.8 | |
| 20260505110921 | -17 | 270 | 6.4 | 14.5 | 0.00 | 0.00 | 0.00 | 997.9 | |
| 20260505110911 | -17 | 270 | 6.4 | 14.5 | 0.00 | 0.00 | 0.00 | 997.8 | |
| 20260505110901 | -17 | 225 | 6.4 | 14.5 | 0.00 | 0.00 | 0.00 | 997.8 | |
| 20260505110851 | -17 | 135 | 6.4 | 12.9 | 0.00 | 0.00 | 0.00 | 997.8 | |
| 20260505110831 | -17 | 225 | 6.4 | 12.9 | 0.00 | 0.00 | 0.00 | 997.8 | |
| 20260505110821 | -17 | 180 | 6.4 | 12.9 | 0.00 | 0.00 | 0.00 | 997.7 | |
| 20260505110751 | -17 | 225 | 8.0 | 12.9 | 0.00 | 0.00 | 0.00 | 997.8 | |
| 20260505110741 | -17 | 180 | 8.0 | 12.9 | 0.00 | 0.00 | 0.00 | 997.8 | |
| 20260505110731 | -17 | 180 | 6.4 | 12.9 | 0.00 | 0.00 | 0.00 | 997.8 | |
| 20260505110721 | -17 | 135 | 6.4 | 12.9 | 0.00 | 0.00 | 0.00 | 997.8 | |
| 20260505110652 | -17 | 135 | 4.8 | 12.9 | 0.00 | 0.00 | 0.00 | 997.8 | |
| 20260505110642 | -17 | 180 | 4.8 | 12.9 | 0.00 | 0.00 | 0.00 | 997.8 | |
| 20260505110632 | -17 | 180 | 6.4 | 12.9 | 0.00 | 0.00 | 0.00 | 997.9 | |
| 20260505110622 | -17 | 225 | 6.4 | 12.9 | 0.00 | 0.00 | 0.00 | 997.9 | |
| 20260505110612 | -17 | 225 | 8.0 | 12.9 | 0.00 | 0.00 | 0.00 | 997.8 | |
| 20260505110542 | -17 | 180 | 8.0 | 12.9 | 0.00 | 0.00 | 0.00 | 997.8 | |
| 20260505110522 | -17 | 180 | 6.4 | 12.9 | 0.00 | 0.00 | 0.00 | 997.8 | |
| 20260505110502 | -17 | 180 | 4.8 | 12.9 | 0.00 | 0.00 | 0.00 | 997.8 | |
| 20260505110452 | -17 | 225 | 3.2 | 12.9 | 0.00 | 0.00 | 0.00 | 997.9 | |
| 20260505110442 | -17 | 225 | 3.2 | 12.9 | 0.00 | 0.00 | 0.00 | 997.8 | |
| 20260505110432 | -17 | 135 | 3.2 | 12.9 | 0.00 | 0.00 | 0.00 | 997.8 | |
| 20260505110422 | -17 | 270 | 3.2 | 12.9 | 0.00 | 0.00 | 0.00 | 997.8 | |
| 20260505110412 | -17 | 180 | 1.6 | 12.9 | 0.00 | 0.00 | 0.00 | 997.8 | |
| 20260505110402 | -17 | 248 | 1.6 | 12.9 | 0.00 | 0.00 | 0.00 | 997.9 | |
| 20260505110352 | -17 | 90 | 3.2 | 12.9 | 0.00 | 0.00 | 0.00 | 997.8 | |
| 20260505110342 | -17 | 203 | 3.2 | 12.9 | 0.00 | 0.00 | 0.00 | 997.8 | |
| 20260505110332 | -17 | 225 | 3.2 | 12.9 | 0.00 | 0.00 | 0.00 | 997.8 | |
| 20260505110322 | -17 | 203 | 3.2 | 12.9 | 0.00 | 0.00 | 0.00 | 997.9 | |
| 20260505110302 | -17 | 180 | 6.4 | 12.9 | 0.00 | 0.00 | 0.00 | 997.9 | |
| 20260505110242 | -17 | 180 | 6.4 | 12.9 | 0.00 | 0.00 | 0.00 | 997.8 | |
| 20260505110213 | -17 | 180 | 8.0 | 12.9 | 0.00 | 0.00 | 0.00 | 997.8 | |
| 20260505110203 | -17 | 180 | 8.0 | 12.9 | 0.00 | 0.00 | 0.00 | 997.9 | |
| 20260505110153 | -17 | 180 | 9.7 | 12.9 | 0.00 | 0.00 | 0.00 | 997.8 | |
| 20260505110143 | -17 | 158 | 9.7 | 12.9 | 0.00 | 0.00 | 0.00 | 997.8 | |
| 20260505110133 | -17 | 180 | 8.0 | 12.9 | 0.00 | 0.00 | 0.00 | 997.8 | |
| 20260505110123 | -17 | 158 | 6.4 | 12.9 | 0.00 | 0.00 | 0.00 | 997.8 | |
| 20260505110113 | -17 | 180 | 6.4 | 12.9 | 0.00 | 0.00 | 0.00 | 997.8 | |
| 20260505102201 | -17 | 0 | 3.2 | 8.0 | 0.00 | 0.00 | 0.00 | 998.4 | |
| 20260505102151 | -17 | 338 | 3.2 | 8.0 | 0.00 | 0.00 | 0.00 | 998.4 | |
| 20260505102141 | -17 | 315 | 3.2 | 8.0 | 0.00 | 0.00 | 0.00 | 998.4 | |
| 20260505102121 | -17 | 270 | 3.2 | 8.0 | 0.00 | 0.00 | 0.00 | 998.4 | |
| 20260505102041 | -17 | 270 | 3.2 | 8.0 | 0.00 | 0.00 | 0.00 | 998.4 | |
| 20260505102022 | -17 | 315 | 1.6 | 8.0 | 0.00 | 0.00 | 0.00 | 998.4 | |
| 20260505102012 | -17 | 338 | 1.6 | 8.0 | 0.00 | 0.00 | 0.00 | 998.4 | |
| 20260505101942 | -17 | 315 | 0.0 | 8.0 | 0.00 | 0.00 | 0.00 | 998.4 | |
| 20260505101932 | -17 | 270 | 1.6 | 8.0 | 0.00 | 0.00 | 0.00 | 998.4 | |
| 20260505101922 | -17 | 315 | 1.6 | 8.0 | 0.00 | 0.00 | 0.00 | 998.4 | |
| 20260505101902 | -17 | 45 | 3.2 | 8.0 | 0.00 | 0.00 | 0.00 | 998.4 | |
| 20260505101852 | -17 | 315 | 3.2 | 8.0 | 0.00 | 0.00 | 0.00 | 998.4 | |
| 20260505101842 | -17 | 0 | 3.2 | 8.0 | 0.00 | 0.00 | 0.00 | 998.4 | |
| 20260505101832 | -17 | 315 | 4.8 | 8.0 | 0.00 | 0.00 | 0.00 | 998.5 | |
| 20260505101812 | -17 | 293 | 3.2 | 8.0 | 0.00 | 0.00 | 0.00 | 998.4 | |
| 20260505101802 | -17 | 315 | 3.2 | 8.0 | 0.00 | 0.00 | 0.00 | 998.4 | |
| 20260505101752 | -17 | 315 | 1.6 | 8.0 | 0.00 | 0.00 | 0.00 | 998.4 | |
| 20260505101742 | -17 | 270 | 0.0 | 8.0 | 0.00 | 0.00 | 0.00 | 998.5 | |
| 20260505101712 | -17 | 270 | 0.0 | 8.0 | 0.00 | 0.00 | 0.00 | 998.4 | |
| 20260505101702 | -17 | 315 | 1.6 | 8.0 | 0.00 | 0.00 | 0.00 | 998.4 | |
| 20260505101652 | -17 | 90 | 1.6 | 8.0 | 0.00 | 0.00 | 0.00 | 998.4 | |
| 20260505101642 | -17 | 113 | 1.6 | 8.0 | 0.00 | 0.00 | 0.00 | 998.4 | |
| 20260505101632 | -17 | 135 | 1.6 | 8.0 | 0.00 | 0.00 | 0.00 | 998.4 | |
| 20260505101622 | -17 | 90 | 3.2 | 8.0 | 0.00 | 0.00 | 0.00 | 998.4 | |
| 20260505101603 | -17 | 90 | 3.2 | 9.7 | 0.00 | 0.00 | 0.00 | 998.4 | |
| 20260505101542 | -17 | 45 | 3.2 | 9.7 | 0.00 | 0.00 | 0.00 | 998.4 | |
| 20260505101513 | -17 | 0 | 3.2 | 9.7 | 0.00 | 0.00 | 0.00 | 998.4 | |
| 20260505101503 | -17 | 0 | 1.6 | 9.7 | 0.00 | 0.00 | 0.00 | 998.4 | |
| 20260505101443 | -17 | 0 | 1.6 | 9.7 | 0.00 | 0.00 | 0.00 | 998.5 | |
| 20260505101423 | -17 | 45 | 1.6 | 9.7 | 0.00 | 0.00 | 0.00 | 998.4 | |
| 20260505101413 | -17 | 0 | 1.6 | 9.7 | 0.00 | 0.00 | 0.00 | 998.4 | |
| 20260505101403 | -17 | 45 | 3.2 | 9.7 | 0.00 | 0.00 | 0.00 | 998.4 | |
| 20260505101353 | -17 | 315 | 3.2 | 9.7 | 0.00 | 0.00 | 0.00 | 998.4 | |
| 20260505101343 | -17 | 0 | 3.2 | 9.7 | 0.00 | 0.00 | 0.00 | 998.4 | |
| 20260505101333 | -17 | 0 | 4.8 | 9.7 | 0.00 | 0.00 | 0.00 | 998.5 | |
| 20260505101323 | -17 | 0 | 4.8 | 9.7 | 0.00 | 0.00 | 0.00 | 998.4 | |
| 20260505101313 | -17 | 315 | 6.4 | 9.7 | 0.00 | 0.00 | 0.00 | 998.4 | |
| 20260505101303 | -17 | 270 | 6.4 | 9.7 | 0.00 | 0.00 | 0.00 | 998.4 | |
| 20260505101243 | -17 | 315 | 6.4 | 9.7 | 0.00 | 0.00 | 0.00 | 998.5 | |
| 20260505101233 | -17 | 270 | 6.4 | 9.7 | 0.00 | 0.00 | 0.00 | 998.5 | |
| 20260505101153 | -17 | 293 | 6.4 | 9.7 | 0.00 | 0.00 | 0.00 | 998.4 | |
| 20260505101143 | -17 | 270 | 6.4 | 9.7 | 0.00 | 0.00 | 0.00 | 998.4 | |
| 20260505101123 | -17 | 270 | 6.4 | 9.7 | 0.00 | 0.00 | 0.00 | 998.5 | |
| 20260505101103 | -17 | 270 | 6.4 | 9.7 | 0.00 | 0.00 | 0.00 | 998.4 | |
| 20260505101043 | -17 | 270 | 4.8 | 9.7 | 0.00 | 0.00 | 0.00 | 998.4 | |
| 20260505101033 | -17 | 270 | 3.2 | 9.7 | 0.00 | 0.00 | 0.00 | 998.4 | |
| 20260505101023 | -17 | 270 | 3.2 | 9.7 | 0.00 | 0.00 | 0.00 | 998.5 | |
| 20260505101004 | -17 | 315 | 3.2 | 9.7 | 0.00 | 0.00 | 0.00 | 998.4 | |
| 20260505100954 | -17 | 270 | 3.2 | 9.7 | 0.00 | 0.00 | 0.00 | 998.4 | |
| 20260505100934 | -17 | 270 | 1.6 | 9.7 | 0.00 | 0.00 | 0.00 | 998.4 | |
| 20260505100924 | -17 | 225 | 3.2 | 9.7 | 0.00 | 0.00 | 0.00 | 998.4 | |
| 20260505100914 | -17 | 293 | 3.2 | 9.7 | 0.00 | 0.00 | 0.00 | 998.4 | |
| 20260505100904 | -17 | 270 | 3.2 | 9.7 | 0.00 | 0.00 | 0.00 | 998.4 | |
| 20260505100854 | -17 | 270 | 3.2 | 9.7 | 0.00 | 0.00 | 0.00 | 998.5 | |
| 20260505100844 | -17 | 315 | 4.8 | 9.7 | 0.00 | 0.00 | 0.00 | 998.4 | |
| 20260505100834 | -17 | 315 | 4.8 | 9.7 | 0.00 | 0.00 | 0.00 | 998.5 | |
| 20260505100824 | -17 | 315 | 6.4 | 9.7 | 0.00 | 0.00 | 0.00 | 998.5 | |
| 20260505100814 | -17 | 270 | 6.4 | 9.7 | 0.00 | 0.00 | 0.00 | 998.5 | |
| 20260505100734 | -17 | 270 | 6.4 | 9.7 | 0.00 | 0.00 | 0.00 | 998.4 | |
| 20260505100724 | -17 | 270 | 4.8 | 8.0 | 0.00 | 0.00 | 0.00 | 998.4 | |
| 20260505100714 | -17 | 270 | 4.8 | 8.0 | 0.00 | 0.00 | 0.00 | 998.5 | |
| 20260505100654 | -17 | 270 | 3.2 | 8.0 | 0.00 | 0.00 | 0.00 | 998.4 | |
| 20260505100644 | -17 | 270 | 3.2 | 8.0 | 0.00 | 0.00 | 0.00 | 998.5 | |
| 20260505100634 | -17 | 270 | 3.2 | 11.3 | 0.00 | 0.00 | 0.00 | 998.4 | |
| 20260505100624 | -17 | 0 | 3.2 | 11.3 | 0.00 | 0.00 | 0.00 | 998.5 | |
| 20260505100614 | -17 | 315 | 3.2 | 11.3 | 0.00 | 0.00 | 0.00 | 998.4 | |
| 20260505100535 | -17 | 270 | 4.8 | 11.3 | 0.00 | 0.00 | 0.00 | 998.5 | |
| 20260505100515 | -17 | 270 | 4.8 | 12.9 | 0.00 | 0.00 | 0.00 | 998.5 | |
| 20260505100505 | -17 | 225 | 3.2 | 12.9 | 0.00 | 0.00 | 0.00 | 998.5 | |
| 20260505100435 | -17 | 270 | 3.2 | 12.9 | 0.00 | 0.00 | 0.00 | 998.5 | |
| 20260505100415 | -17 | 270 | 1.6 | 12.9 | 0.00 | 0.00 | 0.00 | 998.5 | |
| 20260505100405 | -17 | 225 | 1.6 | 12.9 | 0.00 | 0.00 | 0.00 | 998.5 | |
| 20260505100355 | -17 | 180 | 1.6 | 12.9 | 0.00 | 0.00 | 0.00 | 998.5 | |
| 20260505100345 | -17 | 225 | 1.6 | 12.9 | 0.00 | 0.00 | 0.00 | 998.6 | |
| 20260505100335 | -17 | 180 | 1.6 | 12.9 | 0.00 | 0.00 | 0.00 | 998.6 | |
| 20260505100305 | -17 | 225 | 1.6 | 12.9 | 0.00 | 0.00 | 0.00 | 998.6 | |
| 20260505100245 | -17 | 180 | 3.2 | 12.9 | 0.00 | 0.00 | 0.00 | 998.5 | |
| 20260505100225 | -17 | 270 | 3.2 | 12.9 | 0.00 | 0.00 | 0.00 | 998.6 | |
| 20260505100155 | -17 | 270 | 4.8 | 12.9 | 0.00 | 0.00 | 0.00 | 998.6 | |
| 20260505100135 | -17 | 225 | 4.8 | 12.9 | 0.00 | 0.00 | 0.00 | 998.6 | |
| 20260505100115 | -17 | 225 | 6.4 | 12.9 | 0.00 | 0.00 | 0.00 | 998.6 | |
| 20260505100105 | -17 | 270 | 8.0 | 12.9 | 0.00 | 0.00 | 0.00 | 998.7 | |
| 20260505100036 | -17 | 270 | 8.0 | 12.9 | 0.00 | 0.00 | 0.00 | 998.6 | |
| 20260505100026 | -17 | 270 | 6.4 | 12.9 | 0.00 | 0.00 | 0.00 | 998.6 | |
| 20260505100016 | -17 | 270 | 4.8 | 12.9 | 0.00 | 0.00 | 0.00 | 998.6 | |
| 20260505100006 | -17 | 270 | 3.2 | 12.9 | 0.00 | 0.00 | 0.00 | 998.6 | |
| 20260505095956 | -17 | 315 | 3.2 | 12.9 | 0.00 | 0.00 | 0.00 | 998.6 | |
| 20260505095946 | -17 | 180 | 3.2 | 12.9 | 0.00 | 0.00 | 0.00 | 998.6 | |
| 20260505095936 | -17 | 180 | 4.8 | 12.9 | 0.00 | 0.00 | 0.00 | 998.6 | |
| 20260505095926 | -17 | 225 | 6.4 | 12.9 | 0.00 | 0.00 | 0.00 | 998.7 | |
| 20260505095906 | -17 | 225 | 6.4 | 12.9 | 0.00 | 0.00 | 0.00 | 998.6 | |
| 20260505095856 | -17 | 225 | 8.0 | 12.9 | 0.00 | 0.00 | 0.00 | 998.6 | |
| 20260505095846 | -17 | 315 | 8.0 | 12.9 | 0.00 | 0.00 | 0.00 | 998.6 | |
| 20260505095836 | -17 | 225 | 9.7 | 12.9 | 0.00 | 0.00 | 0.00 | 998.6 | |
| 20260505095826 | -17 | 270 | 9.7 | 12.9 | 0.00 | 0.00 | 0.00 | 998.6 | |
| 20260505095816 | -17 | 270 | 8.0 | 12.9 | 0.00 | 0.00 | 0.00 | 998.6 | |
| 20260505095746 | -17 | 248 | 8.0 | 12.9 | 0.00 | 0.00 | 0.00 | 998.6 | |
| 20260505095736 | -17 | 270 | 8.0 | 12.9 | 0.00 | 0.00 | 0.00 | 998.7 | |
| 20260505095726 | -17 | 270 | 8.0 | 12.9 | 0.00 | 0.00 | 0.00 | 998.6 | |
| 20260505095716 | -17 | 270 | 9.7 | 12.9 | 0.00 | 0.00 | 0.00 | 998.7 | |
| 20260505095646 | -17 | 270 | 9.7 | 12.9 | 0.00 | 0.00 | 0.00 | 998.6 | |
| 20260505095636 | -17 | 270 | 8.0 | 12.9 | 0.00 | 0.00 | 0.00 | 998.6 | |
| 20260505095616 | -17 | 270 | 6.4 | 12.9 | 0.00 | 0.00 | 0.00 | 998.6 | |
| 20260505095606 | -17 | 270 | 4.8 | 12.9 | 0.00 | 0.00 | 0.00 | 998.6 | |
| 20260505095537 | -17 | 270 | 3.2 | 9.7 | 0.00 | 0.00 | 0.00 | 998.6 | |
| 20260505095517 | -17 | 270 | 3.2 | 9.7 | 0.00 | 0.00 | 0.00 | 998.7 | |
| 20260505095507 | -17 | 315 | 3.2 | 9.7 | 0.00 | 0.00 | 0.00 | 998.6 | |
| 20260505095457 | -17 | 315 | 4.8 | 9.7 | 0.00 | 0.00 | 0.00 | 998.7 | |
| 20260505095447 | -17 | 293 | 4.8 | 9.7 | 0.00 | 0.00 | 0.00 | 998.6 | |
| 20260505095437 | -17 | 270 | 4.8 | 9.7 | 0.00 | 0.00 | 0.00 | 998.7 | |
| 20260505095417 | -17 | 225 | 3.2 | 9.7 | 0.00 | 0.00 | 0.00 | 998.7 | |
| 20260505095407 | -17 | 270 | 3.2 | 9.7 | 0.00 | 0.00 | 0.00 | 998.7 | |
| 20260505095357 | -17 | 0 | 4.8 | 9.7 | 0.00 | 0.00 | 0.00 | 998.7 | |
| 20260505095347 | -17 | 180 | 4.8 | 9.7 | 0.00 | 0.00 | 0.00 | 998.7 | |
| 20260505095337 | -17 | 180 | 6.4 | 9.7 | 0.00 | 0.00 | 0.00 | 998.7 | |
| 20260505095327 | -17 | 180 | 6.4 | 11.3 | 0.00 | 0.00 | 0.00 | 998.7 | |
| 20260505095307 | -17 | 158 | 6.4 | 11.3 | 0.00 | 0.00 | 0.00 | 998.6 | |
| 20260505095257 | -17 | 158 | 4.8 | 11.3 | 0.00 | 0.00 | 0.00 | 998.7 | |
| 20260505095247 | -17 | 180 | 3.2 | 11.3 | 0.00 | 0.00 | 0.00 | 998.6 | |
| 20260505095227 | -17 | 135 | 3.2 | 11.3 | 0.00 | 0.00 | 0.00 | 998.7 | |
| 20260505095217 | -17 | 135 | 3.2 | 11.3 | 0.00 | 0.00 | 0.00 | 998.6 | |
| 20260505095207 | -17 | 225 | 3.2 | 11.3 | 0.00 | 0.00 | 0.00 | 998.7 | |
| 20260505095157 | -17 | 270 | 3.2 | 11.3 | 0.00 | 0.00 | 0.00 | 998.7 | |
| 20260505095137 | -17 | 270 | 4.8 | 11.3 | 0.00 | 0.00 | 0.00 | 998.7 | |
| 20260505095127 | -17 | 270 | 6.4 | 11.3 | 0.00 | 0.00 | 0.00 | 998.7 | |
| 20260505095117 | -17 | 315 | 6.4 | 11.3 | 0.00 | 0.00 | 0.00 | 998.7 | |
| 20260505095057 | -17 | 315 | 6.4 | 12.9 | 0.00 | 0.00 | 0.00 | 998.6 | |
| 20260505095048 | -17 | 315 | 6.4 | 12.9 | 0.00 | 0.00 | 0.00 | 998.7 | |
| 20260505095028 | -17 | 293 | 4.8 | 12.9 | 0.00 | 0.00 | 0.00 | 998.8 | |
| 20260505095018 | -17 | 270 | 4.8 | 12.9 | 0.00 | 0.00 | 0.00 | 998.7 | |
| 20260505095008 | -17 | 293 | 3.2 | 12.9 | 0.00 | 0.00 | 0.00 | 998.7 | |
| 20260505094958 | -17 | 270 | 3.2 | 12.9 | 0.00 | 0.00 | 0.00 | 998.7 | |
| 20260505094948 | -17 | 315 | 4.8 | 12.9 | 0.00 | 0.00 | 0.00 | 998.7 | |
| 20260505094928 | -17 | 270 | 6.4 | 12.9 | 0.00 | 0.00 | 0.00 | 998.7 | |
| 20260505094848 | -17 | 270 | 6.4 | 12.9 | 0.00 | 0.00 | 0.00 | 998.7 | |
| 20260505094838 | -17 | 248 | 4.8 | 12.9 | 0.00 | 0.00 | 0.00 | 998.7 | |
| 20260505094818 | -17 | 270 | 4.8 | 12.9 | 0.00 | 0.00 | 0.00 | 998.7 | |
| 20260505094758 | -17 | 225 | 4.8 | 12.9 | 0.00 | 0.00 | 0.00 | 998.7 | |
| 20260505094738 | -17 | 270 | 4.8 | 12.9 | 0.00 | 0.00 | 0.00 | 998.7 | |
| 20260505094708 | -17 | 270 | 6.4 | 12.9 | 0.00 | 0.00 | 0.00 | 998.7 | |
| 20260505094658 | -17 | 225 | 6.4 | 12.9 | 0.00 | 0.00 | 0.00 | 998.7 | |
| 20260505094648 | -17 | 225 | 6.4 | 12.9 | 0.00 | 0.00 | 0.00 | 998.8 | |
| 20260505094628 | -17 | 270 | 6.4 | 12.9 | 0.00 | 0.00 | 0.00 | 998.7 | |
| 20260505094618 | -17 | 225 | 6.4 | 12.9 | 0.00 | 0.00 | 0.00 | 998.7 | |
| 20260505094608 | -17 | 270 | 4.8 | 12.9 | 0.00 | 0.00 | 0.00 | 998.7 | |
| 20260505094559 | -17 | 203 | 4.8 | 11.3 | 0.00 | 0.00 | 0.00 | 998.7 | |
| 20260505094548 | -17 | 135 | 4.8 | 11.3 | 0.00 | 0.00 | 0.00 | 998.7 | |
| 20260505094539 | -17 | 225 | 4.8 | 11.3 | 0.00 | 0.00 | 0.00 | 998.7 | |
| 20260505094529 | -17 | 270 | 3.2 | 11.3 | 0.00 | 0.00 | 0.00 | 998.7 | |
| 20260505094519 | -17 | 270 | 3.2 | 9.7 | 0.00 | 0.00 | 0.00 | 998.7 | |
| 20260505094509 | -17 | 180 | 3.2 | 9.7 | 0.00 | 0.00 | 0.00 | 998.7 | |
| 20260505094459 | -17 | 225 | 1.6 | 9.7 | 0.00 | 0.00 | 0.00 | 998.7 | |
| 20260505094449 | -17 | 180 | 1.6 | 9.7 | 0.00 | 0.00 | 0.00 | 998.7 | |
| 20260505094439 | -17 | 225 | 0.0 | 9.7 | 0.00 | 0.00 | 0.00 | 998.7 | |
| 20260505094409 | -17 | 180 | 0.0 | 9.7 | 0.00 | 0.00 | 0.00 | 998.7 | |
| 20260505094359 | -17 | 225 | 0.0 | 9.7 | 0.00 | 0.00 | 0.00 | 998.7 | |
| 20260505094339 | -17 | 135 | 1.6 | 9.7 | 0.00 | 0.00 | 0.00 | 998.7 | |
| 20260505094309 | -17 | 90 | 1.6 | 9.7 | 0.00 | 0.00 | 0.00 | 998.7 | |
| 20260505094249 | -17 | 90 | 3.2 | 9.7 | 0.00 | 0.00 | 0.00 | 998.8 | |
| 20260505094239 | -17 | 90 | 3.2 | 9.7 | 0.00 | 0.00 | 0.00 | 998.7 | |
| 20260505094219 | -17 | 135 | 3.2 | 9.7 | 0.00 | 0.00 | 0.00 | 998.7 | |
| 20260505094159 | -17 | 180 | 4.8 | 9.7 | 0.00 | 0.00 | 0.00 | 998.7 | |
| 20260505094139 | -17 | 135 | 6.4 | 9.7 | 0.00 | 0.00 | 0.00 | 998.7 | |
| 20260505094129 | -17 | 180 | 6.4 | 9.7 | 0.00 | 0.00 | 0.00 | 998.8 | |
| 20260505094049 | -17 | 180 | 6.4 | 9.7 | 0.00 | 0.00 | 0.00 | 998.7 | |
| 20260505094040 | -17 | 180 | 4.8 | 9.7 | 0.00 | 0.00 | 0.00 | 998.7 | |
| 20260505094030 | -17 | 135 | 4.8 | 9.7 | 0.00 | 0.00 | 0.00 | 998.7 | |
| 20260505094020 | -17 | 225 | 6.4 | 9.7 | 0.00 | 0.00 | 0.00 | 998.7 | |
| 20260505094010 | -17 | 248 | 4.8 | 9.7 | 0.00 | 0.00 | 0.00 | 998.7 | |
| 20260505093950 | -17 | 135 | 4.8 | 8.0 | 0.00 | 0.00 | 0.00 | 998.7 | |
| 20260505093940 | -17 | 180 | 4.8 | 8.0 | 0.00 | 0.00 | 0.00 | 998.7 | |
| 20260505093930 | -17 | 270 | 3.2 | 9.7 | 0.00 | 0.00 | 0.00 | 998.7 | |
| 20260505093920 | -17 | 180 | 3.2 | 9.7 | 0.00 | 0.00 | 0.00 | 998.7 | |
| 20260505093850 | -17 | 135 | 3.2 | 9.7 | 0.00 | 0.00 | 0.00 | 998.7 | |
| 20260505093840 | -17 | 113 | 3.2 | 9.7 | 0.00 | 0.00 | 0.00 | 998.7 | |
| 20260505093820 | -17 | 90 | 3.2 | 9.7 | 0.00 | 0.00 | 0.00 | 998.7 | |
| 20260505093810 | -17 | 135 | 3.2 | 9.7 | 0.00 | 0.00 | 0.00 | 998.7 | |
| 20260505093800 | -17 | 68 | 1.6 | 9.7 | 0.00 | 0.00 | 0.00 | 998.7 | |
| 20260505093750 | -17 | 90 | 1.6 | 9.7 | 0.00 | 0.00 | 0.00 | 998.7 | |
| 20260505093740 | -17 | 45 | 1.6 | 9.7 | 0.00 | 0.00 | 0.00 | 998.8 | |
| 20260505093720 | -17 | 90 | 1.6 | 9.7 | 0.00 | 0.00 | 0.00 | 998.8 | |
| 20260505093710 | -17 | 90 | 1.6 | 9.7 | 0.00 | 0.00 | 0.00 | 998.7 | |
| 20260505093700 | -17 | 90 | 3.2 | 9.7 | 0.00 | 0.00 | 0.00 | 998.8 | |
| 20260505093650 | -17 | 135 | 3.2 | 9.7 | 0.00 | 0.00 | 0.00 | 998.8 | |
| 20260505093640 | -17 | 158 | 3.2 | 9.7 | 0.00 | 0.00 | 0.00 | 998.8 | |
| 20260505093610 | -17 | 180 | 4.8 | 9.7 | 0.00 | 0.00 | 0.00 | 998.8 | |
| 20260505093600 | -17 | 180 | 3.2 | 9.7 | 0.00 | 0.00 | 0.00 | 998.8 | |
| 20260505093550 | -17 | 315 | 3.2 | 9.7 | 0.00 | 0.00 | 0.00 | 998.8 | |
| 20260505093541 | -17 | 270 | 3.2 | 9.7 | 0.00 | 0.00 | 0.00 | 998.8 | |
| 20260505093521 | -17 | 180 | 4.8 | 9.7 | 0.00 | 0.00 | 0.00 | 998.8 | |
| 20260505093501 | -17 | 180 | 6.4 | 9.7 | 0.00 | 0.00 | 0.00 | 998.8 | |
| 20260505093451 | -17 | 135 | 6.4 | 9.7 | 0.00 | 0.00 | 0.00 | 998.8 | |
| 20260505093441 | -17 | 180 | 6.4 | 9.7 | 0.00 | 0.00 | 0.00 | 998.7 | |
| 20260505093431 | -17 | 180 | 4.8 | 9.7 | 0.00 | 0.00 | 0.00 | 998.7 | |
| 20260505093421 | -17 | 158 | 3.2 | 9.7 | 0.00 | 0.00 | 0.00 | 998.7 | |
| 20260505093401 | -17 | 135 | 3.2 | 9.7 | 0.00 | 0.00 | 0.00 | 998.8 | |
| 20260505093351 | -17 | 180 | 3.2 | 9.7 | 0.00 | 0.00 | 0.00 | 998.7 | |
| 20260505093341 | -17 | 158 | 3.2 | 9.7 | 0.00 | 0.00 | 0.00 | 998.8 | |
| 20260505093311 | -17 | 225 | 3.2 | 9.7 | 0.00 | 0.00 | 0.00 | 998.8 | |
| 20260505093301 | -17 | 270 | 3.2 | 9.7 | 0.00 | 0.00 | 0.00 | 998.8 | |
| 20260505093251 | -17 | 180 | 3.2 | 9.7 | 0.00 | 0.00 | 0.00 | 998.8 | |
| 20260505093241 | -17 | 135 | 3.2 | 9.7 | 0.00 | 0.00 | 0.00 | 998.8 | |
| 20260505093211 | -17 | 180 | 4.8 | 9.7 | 0.00 | 0.00 | 0.00 | 998.8 | |
| 20260505093201 | -17 | 180 | 6.4 | 9.7 | 0.00 | 0.00 | 0.00 | 998.8 | |
| 20260505093121 | -17 | 180 | 6.4 | 9.7 | 0.00 | 0.00 | 0.00 | 998.8 | |
| 20260505093111 | -17 | 158 | 4.8 | 8.0 | 0.00 | 0.00 | 0.00 | 998.8 | |
| 20260505093042 | -17 | 135 | 4.8 | 8.0 | 0.00 | 0.00 | 0.00 | 998.8 | |
| 20260505093032 | -17 | 135 | 6.4 | 8.0 | 0.00 | 0.00 | 0.00 | 998.8 | |
| 20260505093022 | -17 | 158 | 6.4 | 8.0 | 0.00 | 0.00 | 0.00 | 998.8 | |
| 20260505093012 | -17 | 135 | 4.8 | 8.0 | 0.00 | 0.00 | 0.00 | 998.9 | |
| 20260505093002 | -17 | 135 | 4.8 | 8.0 | 0.00 | 0.00 | 0.00 | 998.8 | |
| 20260505092932 | -17 | 180 | 3.2 | 8.0 | 0.00 | 0.00 | 0.00 | 998.8 | |
| 20260505092922 | -17 | 135 | 3.2 | 8.0 | 0.00 | 0.00 | 0.00 | 998.8 | |
| 20260505092912 | -17 | 0 | 3.2 | 8.0 | 0.00 | 0.00 | 0.00 | 998.8 | |
| 20260505092852 | -17 | 225 | 3.2 | 8.0 | 0.00 | 0.00 | 0.00 | 998.8 | |
| 20260505092842 | -17 | 203 | 3.2 | 8.0 | 0.00 | 0.00 | 0.00 | 998.8 | |
| 20260505092822 | -17 | 180 | 3.2 | 8.0 | 0.00 | 0.00 | 0.00 | 998.8 | |
| 20260505092812 | -17 | 203 | 3.2 | 11.3 | 0.00 | 0.00 | 0.00 | 998.9 | |
| 20260505092802 | -17 | 180 | 1.6 | 11.3 | 0.00 | 0.00 | 0.00 | 998.8 | |
| 20260505092752 | -17 | 180 | 1.6 | 11.3 | 0.00 | 0.00 | 0.00 | 998.9 | |
| 20260505092742 | -17 | 158 | 1.6 | 11.3 | 0.00 | 0.00 | 0.00 | 998.8 | |
| 20260505092732 | -17 | 135 | 1.6 | 11.3 | 0.00 | 0.00 | 0.00 | 998.9 | |
| 20260505092712 | -17 | 45 | 1.6 | 11.3 | 0.00 | 0.00 | 0.00 | 998.9 | |
| 20260505092702 | -17 | 90 | 1.6 | 11.3 | 0.00 | 0.00 | 0.00 | 998.9 | |
| 20260505092652 | -17 | 135 | 1.6 | 11.3 | 0.00 | 0.00 | 0.00 | 998.9 | |
| 20260505092642 | -17 | 113 | 3.2 | 11.3 | 0.00 | 0.00 | 0.00 | 998.9 | |
| 20260505092632 | -17 | 90 | 3.2 | 11.3 | 0.00 | 0.00 | 0.00 | 998.9 | |
| 20260505092553 | -17 | 135 | 3.2 | 11.3 | 0.00 | 0.00 | 0.00 | 998.9 | |
| 20260505092543 | -17 | 113 | 3.2 | 11.3 | 0.00 | 0.00 | 0.00 | 998.9 | |
| 20260505092532 | -17 | 90 | 3.2 | 11.3 | 0.00 | 0.00 | 0.00 | 998.9 | |
| 20260505092513 | -17 | 135 | 4.8 | 11.3 | 0.00 | 0.00 | 0.00 | 998.9 | |
| 20260505092453 | -17 | 135 | 4.8 | 11.3 | 0.00 | 0.00 | 0.00 | 999.0 | |
| 20260505092433 | -17 | 135 | 4.8 | 11.3 | 0.00 | 0.00 | 0.00 | 998.9 | |
| 20260505092413 | -17 | 113 | 6.4 | 12.9 | 0.00 | 0.00 | 0.00 | 998.9 | |
| 20260505092403 | -17 | 90 | 6.4 | 12.9 | 0.00 | 0.00 | 0.00 | 998.9 | |
| 20260505092353 | -17 | 135 | 6.4 | 12.9 | 0.00 | 0.00 | 0.00 | 999.0 | |
| 20260505092343 | -17 | 135 | 6.4 | 12.9 | 0.00 | 0.00 | 0.00 | 998.9 | |
| 20260505092313 | -17 | 135 | 4.8 | 12.9 | 0.00 | 0.00 | 0.00 | 998.9 | |
| 20260505092253 | -17 | 135 | 4.8 | 12.9 | 0.00 | 0.00 | 0.00 | 999.0 | |
| 20260505092213 | -17 | 135 | 6.4 | 12.9 | 0.00 | 0.00 | 0.00 | 998.9 | |
| 20260505092203 | -17 | 113 | 6.4 | 12.9 | 0.00 | 0.00 | 0.00 | 998.9 | |
| 20260505092143 | -17 | 135 | 4.8 | 12.9 | 0.00 | 0.00 | 0.00 | 999.0 | |
| 20260505092123 | -17 | 225 | 4.8 | 12.9 | 0.00 | 0.00 | 0.00 | 999.0 | |
| 20260505092113 | -17 | 248 | 6.4 | 12.9 | 0.00 | 0.00 | 0.00 | 999.0 | |
| 20260505092054 | -17 | 225 | 6.4 | 12.9 | 0.00 | 0.00 | 0.00 | 999.0 | |
| 20260505092044 | -17 | 225 | 6.4 | 12.9 | 0.00 | 0.00 | 0.00 | 998.9 | |
| 20260505092024 | -17 | 203 | 6.4 | 12.9 | 0.00 | 0.00 | 0.00 | 999.0 | |
| 20260505092014 | -17 | 225 | 6.4 | 12.9 | 0.00 | 0.00 | 0.00 | 999.0 | |
| 20260505091944 | -17 | 180 | 6.4 | 12.9 | 0.00 | 0.00 | 0.00 | 999.0 | |
| 20260505091934 | -17 | 180 | 4.8 | 12.9 | 0.00 | 0.00 | 0.00 | 999.0 | |
| 20260505091924 | -17 | 180 | 3.2 | 9.7 | 0.00 | 0.00 | 0.00 | 999.0 | |
| 20260505091904 | -17 | 180 | 3.2 | 9.7 | 0.00 | 0.00 | 0.00 | 998.9 | |
| 20260505091854 | -17 | 203 | 3.2 | 8.0 | 0.00 | 0.00 | 0.00 | 999.0 | |
| 20260505091834 | -17 | 135 | 3.2 | 8.0 | 0.00 | 0.00 | 0.00 | 999.0 | |
| 20260505091824 | -17 | 90 | 3.2 | 8.0 | 0.00 | 0.00 | 0.00 | 999.0 | |
| 20260505091804 | -17 | 90 | 4.8 | 8.0 | 0.00 | 0.00 | 0.00 | 999.0 | |
| 20260505091754 | -17 | 135 | 4.8 | 8.0 | 0.00 | 0.00 | 0.00 | 998.9 | |
| 20260505091734 | -17 | 180 | 3.2 | 8.0 | 0.00 | 0.00 | 0.00 | 999.0 | |
| 20260505091724 | -17 | 158 | 3.2 | 8.0 | 0.00 | 0.00 | 0.00 | 999.0 | |
| 20260505091714 | -17 | 180 | 1.6 | 8.0 | 0.00 | 0.00 | 0.00 | 999.0 | |
| 20260505091704 | -17 | 135 | 0.0 | 8.0 | 0.00 | 0.00 | 0.00 | 999.0 | |
| 20260505091644 | -17 | 180 | 0.0 | 8.0 | 0.00 | 0.00 | 0.00 | 999.0 | |
| 20260505091624 | -17 | 23 | 0.0 | 8.0 | 0.00 | 0.00 | 0.00 | 999.0 | |
| 20260505091614 | -17 | 315 | 0.0 | 8.0 | 0.00 | 0.00 | 0.00 | 999.0 | |
| 20260505091555 | -17 | 0 | 0.0 | 8.0 | 0.00 | 0.00 | 0.00 | 999.0 | |
| 20260505091545 | -17 | 0 | 0.0 | 8.0 | 0.00 | 0.00 | 0.00 | 999.1 | |
| 20260505091525 | -17 | 225 | 0.0 | 8.0 | 0.00 | 0.00 | 0.00 | 999.0 | |
| 20260505091515 | -17 | 225 | 0.0 | 8.0 | 0.00 | 0.00 | 0.00 | 999.1 | |
| 20260505091505 | -17 | 225 | 0.0 | 9.7 | 0.00 | 0.00 | 0.00 | 999.1 | |
| 20260505091455 | -17 | 225 | 1.6 | 9.7 | 0.00 | 0.00 | 0.00 | 999.1 | |
| 20260505091445 | -17 | 225 | 3.2 | 9.7 | 0.00 | 0.00 | 0.00 | 999.1 | |
| 20260505091425 | -17 | 180 | 3.2 | 9.7 | 0.00 | 0.00 | 0.00 | 999.1 | |
| 20260505091355 | -17 | 135 | 3.2 | 9.7 | 0.00 | 0.00 | 0.00 | 999.1 | |
| 20260505091345 | -17 | 180 | 3.2 | 9.7 | 0.00 | 0.00 | 0.00 | 999.0 | |
| 20260505091335 | -17 | 225 | 1.6 | 9.7 | 0.00 | 0.00 | 0.00 | 999.0 | |
| 20260505091255 | -17 | 270 | 1.6 | 9.7 | 0.00 | 0.00 | 0.00 | 999.1 | |
| 20260505091245 | -17 | 203 | 1.6 | 9.7 | 0.00 | 0.00 | 0.00 | 999.1 | |
| 20260505091235 | -17 | 180 | 1.6 | 9.7 | 0.00 | 0.00 | 0.00 | 999.1 | |
| 20260505091215 | -17 | 135 | 1.6 | 9.7 | 0.00 | 0.00 | 0.00 | 999.1 | |
| 20260505091135 | -17 | 180 | 3.2 | 9.7 | 0.00 | 0.00 | 0.00 | 999.1 | |
| 20260505091125 | -17 | 180 | 4.8 | 11.3 | 0.00 | 0.00 | 0.00 | 999.1 | |
| 20260505091105 | -17 | 225 | 4.8 | 11.3 | 0.00 | 0.00 | 0.00 | 999.1 | |
| 20260505091055 | -17 | 180 | 6.4 | 11.3 | 0.00 | 0.00 | 0.00 | 999.1 | |
| 20260505091046 | -17 | 180 | 4.8 | 11.3 | 0.00 | 0.00 | 0.00 | 999.1 | |
| 20260505091026 | -17 | 225 | 4.8 | 11.3 | 0.00 | 0.00 | 0.00 | 999.0 | |
| 20260505091006 | -17 | 180 | 4.8 | 11.3 | 0.00 | 0.00 | 0.00 | 999.1 | |
| 20260505090956 | -17 | 180 | 3.2 | 11.3 | 0.00 | 0.00 | 0.00 | 999.1 | |
| 20260505090936 | -17 | 180 | 3.2 | 11.3 | 0.00 | 0.00 | 0.00 | 999.0 | |
| 20260505090926 | -17 | 158 | 3.2 | 11.3 | 0.00 | 0.00 | 0.00 | 999.1 | |
| 20260505090916 | -17 | 180 | 4.8 | 11.3 | 0.00 | 0.00 | 0.00 | 999.1 | |
| 20260505090906 | -17 | 158 | 4.8 | 11.3 | 0.00 | 0.00 | 0.00 | 999.1 | |
| 20260505090846 | -17 | 135 | 4.8 | 11.3 | 0.00 | 0.00 | 0.00 | 999.1 | |
| 20260505090806 | -17 | 135 | 6.4 | 14.5 | 0.00 | 0.00 | 0.00 | 999.1 | |
| 20260505090726 | -17 | 135 | 6.4 | 14.5 | 0.00 | 0.00 | 0.00 | 999.1 | |
| 20260505090646 | -17 | 135 | 6.4 | 14.5 | 0.00 | 0.00 | 0.00 | 999.1 | |
| 20260505090636 | -17 | 158 | 6.4 | 14.5 | 0.00 | 0.00 | 0.00 | 999.1 | |
| 20260505090626 | -17 | 135 | 6.4 | 14.5 | 0.00 | 0.00 | 0.00 | 999.0 | |
| 20260505090617 | -17 | 180 | 6.4 | 14.5 | 0.00 | 0.00 | 0.00 | 999.1 | |
| 20260505090537 | -17 | 180 | 6.4 | 14.5 | 0.00 | 0.00 | 0.00 | 999.1 | |
| 20260505090527 | -17 | 180 | 6.4 | 14.5 | 0.00 | 0.00 | 0.00 | 999.2 | |
| 20260505090517 | -17 | 225 | 6.4 | 14.5 | 0.00 | 0.00 | 0.00 | 999.1 | |
| 20260505090447 | -17 | 180 | 6.4 | 14.5 | 0.00 | 0.00 | 0.00 | 999.1 | |
| 20260505090427 | -17 | 180 | 8.0 | 14.5 | 0.00 | 0.00 | 0.00 | 999.1 | |
| 20260505090417 | -17 | 180 | 8.0 | 14.5 | 0.00 | 0.00 | 0.00 | 999.2 | |
| 20260505090407 | -17 | 180 | 6.4 | 14.5 | 0.00 | 0.00 | 0.00 | 999.1 | |
| 20260505090347 | -17 | 135 | 6.4 | 14.5 | 0.00 | 0.00 | 0.00 | 999.1 | |
| 20260505090337 | -17 | 135 | 6.4 | 12.9 | 0.00 | 0.00 | 0.00 | 999.0 | |
| 20260505090327 | -17 | 90 | 4.8 | 11.3 | 0.00 | 0.00 | 0.00 | 999.1 | |
| 20260505090317 | -17 | 270 | 4.8 | 11.3 | 0.00 | 0.00 | 0.00 | 999.1 | |
| 20260505090307 | -17 | 203 | 4.8 | 11.3 | 0.00 | 0.00 | 0.00 | 999.1 | |
| 20260505090257 | -17 | 180 | 4.8 | 8.0 | 0.00 | 0.00 | 0.00 | 999.1 | |
| 20260505090237 | -17 | 135 | 3.2 | 8.0 | 0.00 | 0.00 | 0.00 | 999.2 | |
| 20260505090227 | -17 | 180 | 3.2 | 8.0 | 0.00 | 0.00 | 0.00 | 999.2 | |
| 20260505090217 | -17 | 203 | 3.2 | 8.0 | 0.00 | 0.00 | 0.00 | 999.2 | |
| 20260505090207 | -17 | 180 | 3.2 | 8.0 | 0.00 | 0.00 | 0.00 | 999.1 | |
| 20260505090157 | -17 | 135 | 3.2 | 8.0 | 0.00 | 0.00 | 0.00 | 999.2 | |
| 20260505090147 | -17 | 135 | 3.2 | 8.0 | 0.00 | 0.00 | 0.00 | 999.1 | |
| 20260505090127 | -17 | 158 | 3.2 | 8.0 | 0.00 | 0.00 | 0.00 | 999.2 | |
| 20260505090107 | -17 | 180 | 3.2 | 8.0 | 0.00 | 0.00 | 0.00 | 999.2 | |
| 20260505090057 | -17 | 135 | 3.2 | 8.0 | 0.00 | 0.00 | 0.00 | 999.2 | |
| 20260505090018 | -17 | 180 | 4.8 | 8.0 | 0.00 | 0.00 | 0.00 | 999.2 | |
| 20260505090008 | -17 | 180 | 3.2 | 9.7 | 0.00 | 0.00 | 0.00 | 999.2 | |
| 20260505085938 | -17 | 135 | 3.2 | 9.7 | 0.00 | 0.00 | 0.00 | 999.2 | |
| 20260505085918 | -17 | 180 | 3.2 | 9.7 | 0.00 | 0.00 | 0.00 | 999.2 | |
| 20260505085858 | -17 | 135 | 3.2 | 9.7 | 0.00 | 0.00 | 0.00 | 999.3 | |
| 20260505085848 | -17 | 90 | 3.2 | 9.7 | 0.00 | 0.00 | 0.00 | 999.2 | |
| 20260505085828 | -17 | 113 | 3.2 | 9.7 | 0.00 | 0.00 | 0.00 | 999.2 | |
| 20260505085758 | -17 | 45 | 3.2 | 9.7 | 0.00 | 0.00 | 0.00 | 999.3 | |
| 20260505085748 | -17 | 45 | 3.2 | 9.7 | 0.00 | 0.00 | 0.00 | 999.2 | |
| 20260505085738 | -17 | 90 | 3.2 | 9.7 | 0.00 | 0.00 | 0.00 | 999.2 | |
| 20260505085708 | -17 | 90 | 3.2 | 9.7 | 0.00 | 0.00 | 0.00 | 999.3 | |
| 20260505085628 | -17 | 90 | 3.2 | 9.7 | 0.00 | 0.00 | 0.00 | 999.3 | |
| 20260505085619 | -17 | 90 | 4.8 | 9.7 | 0.00 | 0.00 | 0.00 | 999.3 | |
| 20260505085608 | -17 | 90 | 6.4 | 9.7 | 0.00 | 0.00 | 0.00 | 999.3 | |
| 20260505085538 | -17 | 135 | 6.4 | 9.7 | 0.00 | 0.00 | 0.00 | 999.3 | |
| 20260505085528 | -17 | 113 | 6.4 | 11.3 | 0.00 | 0.00 | 0.00 | 999.3 | |
| 20260505085519 | -17 | 90 | 6.4 | 11.3 | 0.00 | 0.00 | 0.00 | 999.3 | |
| 20260505085509 | -17 | 135 | 6.4 | 11.3 | 0.00 | 0.00 | 0.00 | 999.3 | |
| 20260505085459 | -17 | 135 | 4.8 | 11.3 | 0.00 | 0.00 | 0.00 | 999.2 | |
| 20260505085439 | -17 | 90 | 6.4 | 11.3 | 0.00 | 0.00 | 0.00 | 999.3 | |
| 20260505085419 | -17 | 135 | 6.4 | 11.3 | 0.00 | 0.00 | 0.00 | 999.3 | |
| 20260505085409 | -17 | 135 | 4.8 | 11.3 | 0.00 | 0.00 | 0.00 | 999.3 | |
| 20260505085329 | -17 | 135 | 4.8 | 11.3 | 0.00 | 0.00 | 0.00 | 999.3 | |
| 20260505085249 | -17 | 135 | 4.8 | 11.3 | 0.00 | 0.00 | 0.00 | 999.3 | |
| 20260505085229 | -17 | 135 | 6.4 | 11.3 | 0.00 | 0.00 | 0.00 | 999.3 | |
| 20260505085159 | -17 | 135 | 4.8 | 11.3 | 0.00 | 0.00 | 0.00 | 999.3 | |
| 20260505085149 | -17 | 135 | 6.4 | 11.3 | 0.00 | 0.00 | 0.00 | 999.4 | |
| 20260505085139 | -17 | 158 | 6.4 | 11.3 | 0.00 | 0.00 | 0.00 | 999.3 | |
| 20260505085119 | -17 | 135 | 6.4 | 11.3 | 0.00 | 0.00 | 0.00 | 999.3 | |
| 20260505085109 | -17 | 180 | 6.4 | 11.3 | 0.00 | 0.00 | 0.00 | 999.4 | |
| 20260505085049 | -17 | 180 | 6.4 | 11.3 | 0.00 | 0.00 | 0.00 | 999.3 | |
| 20260505085039 | -17 | 180 | 4.8 | 11.3 | 0.00 | 0.00 | 0.00 | 999.4 | |
| 20260505085029 | -17 | 180 | 3.2 | 11.3 | 0.00 | 0.00 | 0.00 | 999.4 | |
| 20260505085019 | -17 | 158 | 3.2 | 8.0 | 0.00 | 0.00 | 0.00 | 999.3 | |
| 20260505085009 | -17 | 180 | 3.2 | 8.0 | 0.00 | 0.00 | 0.00 | 999.4 | |
| 20260505084959 | -17 | 90 | 3.2 | 8.0 | 0.00 | 0.00 | 0.00 | 999.4 | |
| 20260505084949 | -17 | 135 | 3.2 | 8.0 | 0.00 | 0.00 | 0.00 | 999.3 | |
| 20260505084940 | -17 | 135 | 3.2 | 8.0 | 0.00 | 0.00 | 0.00 | 999.4 | |
| 20260505084920 | -17 | 135 | 4.8 | 8.0 | 0.00 | 0.00 | 0.00 | 999.4 | |
| 20260505084900 | -17 | 135 | 3.2 | 8.0 | 0.00 | 0.00 | 0.00 | 999.3 | |
| 20260505084850 | -17 | 135 | 3.2 | 8.0 | 0.00 | 0.00 | 0.00 | 999.4 | |
| 20260505084840 | -17 | 135 | 3.2 | 6.4 | 0.00 | 0.00 | 0.00 | 999.4 | |
| 20260505084830 | -17 | 113 | 3.2 | 6.4 | 0.00 | 0.00 | 0.00 | 999.4 | |
| 20260505084820 | -17 | 135 | 3.2 | 6.4 | 0.00 | 0.00 | 0.00 | 999.3 | |
| 20260505084810 | -17 | 68 | 3.2 | 6.4 | 0.00 | 0.00 | 0.00 | 999.4 | |
| 20260505084800 | -17 | 68 | 3.2 | 6.4 | 0.00 | 0.00 | 0.00 | 999.3 | |
| 20260505084740 | -17 | 135 | 3.2 | 6.4 | 0.00 | 0.00 | 0.00 | 999.4 | |
| 20260505084730 | -17 | 90 | 3.2 | 6.4 | 0.00 | 0.00 | 0.00 | 999.3 | |
| 20260505084700 | -17 | 90 | 3.2 | 6.4 | 0.00 | 0.00 | 0.00 | 999.4 | |
| 20260505084650 | -17 | 90 | 3.2 | 6.4 | 0.00 | 0.00 | 0.00 | 999.3 | |
| 20260505084630 | -17 | 90 | 1.6 | 6.4 | 0.00 | 0.00 | 0.00 | 999.4 | |
| 20260505084610 | -17 | 68 | 1.6 | 8.0 | 0.00 | 0.00 | 0.00 | 999.4 | |
| 20260505084550 | -17 | 45 | 1.6 | 8.0 | 0.00 | 0.00 | 0.00 | 999.4 | |
| 20260505084540 | -17 | 90 | 1.6 | 8.0 | 0.00 | 0.00 | 0.00 | 999.4 | |
| 20260505084530 | -17 | 135 | 3.2 | 8.0 | 0.00 | 0.00 | 0.00 | 999.4 | |
| 20260505084520 | -17 | 113 | 3.2 | 8.0 | 0.00 | 0.00 | 0.00 | 999.4 | |
| 20260505084510 | -17 | 135 | 3.2 | 8.0 | 0.00 | 0.00 | 0.00 | 999.3 | |
| 20260505084430 | -17 | 135 | 3.2 | 8.0 | 0.00 | 0.00 | 0.00 | 999.4 | |
| 20260505084421 | -17 | 158 | 3.2 | 8.0 | 0.00 | 0.00 | 0.00 | 999.4 | |
| 20260505084411 | -17 | 180 | 3.2 | 8.0 | 0.00 | 0.00 | 0.00 | 999.4 | |
| 20260505084331 | -17 | 180 | 3.2 | 8.0 | 0.00 | 0.00 | 0.00 | 999.4 | |
| 20260505084321 | -17 | 158 | 3.2 | 8.0 | 0.00 | 0.00 | 0.00 | 999.4 | |
| 20260505084311 | -17 | 180 | 3.2 | 9.7 | 0.00 | 0.00 | 0.00 | 999.4 | |
| 20260505084251 | -17 | 180 | 3.2 | 9.7 | 0.00 | 0.00 | 0.00 | 999.5 | |
| 20260505084231 | -17 | 180 | 3.2 | 9.7 | 0.00 | 0.00 | 0.00 | 999.4 | |
| 20260505084151 | -17 | 180 | 4.8 | 9.7 | 0.00 | 0.00 | 0.00 | 999.4 | |
| 20260505084141 | -17 | 180 | 6.4 | 11.3 | 0.00 | 0.00 | 0.00 | 999.4 | |
| 20260505084111 | -17 | 180 | 4.8 | 11.3 | 0.00 | 0.00 | 0.00 | 999.4 | |
| 20260505084051 | -17 | 180 | 3.2 | 11.3 | 0.00 | 0.00 | 0.00 | 999.4 | |
| 20260505084031 | -17 | 180 | 3.2 | 11.3 | 0.00 | 0.00 | 0.00 | 999.3 | |
| 20260505084011 | -17 | 180 | 3.2 | 11.3 | 0.00 | 0.00 | 0.00 | 999.4 | |
| 20260505084001 | -17 | 135 | 3.2 | 11.3 | 0.00 | 0.00 | 0.00 | 999.4 | |
| 20260505083951 | -17 | 203 | 3.2 | 11.3 | 0.00 | 0.00 | 0.00 | 999.4 | |
| 20260505083931 | -17 | 158 | 4.8 | 11.3 | 0.00 | 0.00 | 0.00 | 999.3 | |
| 20260505083901 | -17 | 180 | 4.8 | 11.3 | 0.00 | 0.00 | 0.00 | 999.3 | |
| 20260505083822 | -17 | 180 | 4.8 | 11.3 | 0.00 | 0.00 | 0.00 | 999.4 | |
| 20260505083812 | -17 | 180 | 4.8 | 11.3 | 0.00 | 0.00 | 0.00 | 999.3 | |
| 20260505083802 | -17 | 180 | 6.4 | 11.3 | 0.00 | 0.00 | 0.00 | 999.4 | |
| 20260505083752 | -17 | 135 | 6.4 | 11.3 | 0.00 | 0.00 | 0.00 | 999.3 | |
| 20260505083742 | -17 | 158 | 6.4 | 11.3 | 0.00 | 0.00 | 0.00 | 999.4 | |
| 20260505083712 | -17 | 180 | 6.4 | 11.3 | 0.00 | 0.00 | 0.00 | 999.4 | |
| 20260505083702 | -17 | 180 | 6.4 | 11.3 | 0.00 | 0.00 | 0.00 | 999.3 | |
| 20260505083652 | -17 | 180 | 4.8 | 11.3 | 0.00 | 0.00 | 0.00 | 999.4 | |
| 20260505083642 | -17 | 180 | 3.2 | 12.9 | 0.00 | 0.00 | 0.00 | 999.4 | |
| 20260505083632 | -17 | 180 | 1.6 | 12.9 | 0.00 | 0.00 | 0.00 | 999.4 | |
| 20260505083622 | -17 | 135 | 0.0 | 12.9 | 0.00 | 0.00 | 0.00 | 999.4 | |
| 20260505083612 | -17 | 180 | 0.0 | 12.9 | 0.00 | 0.00 | 0.00 | 999.4 | |
| 20260505083602 | -17 | 203 | 0.0 | 12.9 | 0.00 | 0.00 | 0.00 | 999.4 | |
| 20260505083552 | -17 | 225 | 0.0 | 12.9 | 0.00 | 0.00 | 0.00 | 999.4 | |
| 20260505083542 | -17 | 225 | 1.6 | 12.9 | 0.00 | 0.00 | 0.00 | 999.4 | |
| 20260505083532 | -17 | 180 | 1.6 | 14.5 | 0.00 | 0.00 | 0.00 | 999.4 | |
| 20260505083512 | -17 | 270 | 3.2 | 14.5 | 0.00 | 0.00 | 0.00 | 999.4 | |
| 20260505083452 | -17 | 225 | 3.2 | 14.5 | 0.00 | 0.00 | 0.00 | 999.4 | |
| 20260505083422 | -17 | 270 | 3.2 | 14.5 | 0.00 | 0.00 | 0.00 | 999.4 | |
| 20260505083412 | -17 | 225 | 3.2 | 14.5 | 0.00 | 0.00 | 0.00 | 999.4 | |
| 20260505083402 | -17 | 180 | 3.2 | 14.5 | 0.00 | 0.00 | 0.00 | 999.4 | |
| 20260505083352 | -17 | 135 | 3.2 | 14.5 | 0.00 | 0.00 | 0.00 | 999.4 | |
| 20260505083342 | -17 | 203 | 3.2 | 14.5 | 0.00 | 0.00 | 0.00 | 999.4 | |
| 20260505083332 | -17 | 225 | 3.2 | 14.5 | 0.00 | 0.00 | 0.00 | 999.4 | |
| 20260505083323 | -17 | 225 | 4.8 | 14.5 | 0.00 | 0.00 | 0.00 | 999.4 | |
| 20260505083303 | -17 | 158 | 4.8 | 14.5 | 0.00 | 0.00 | 0.00 | 999.4 | |
| 20260505083253 | -17 | 180 | 4.8 | 14.5 | 0.00 | 0.00 | 0.00 | 999.4 | |
| 20260505083233 | -17 | 135 | 6.4 | 14.5 | 0.00 | 0.00 | 0.00 | 999.4 | |
| 20260505083223 | -17 | 180 | 6.4 | 14.5 | 0.00 | 0.00 | 0.00 | 999.4 | |
| 20260505083213 | -17 | 158 | 6.4 | 14.5 | 0.00 | 0.00 | 0.00 | 999.4 | |
| 20260505083153 | -17 | 180 | 8.0 | 14.5 | 0.00 | 0.00 | 0.00 | 999.4 | |
| 20260505083143 | -17 | 180 | 9.7 | 14.5 | 0.00 | 0.00 | 0.00 | 999.4 | |
| 20260505083103 | -17 | 180 | 9.7 | 14.5 | 0.00 | 0.00 | 0.00 | 999.4 | |
| 20260505083053 | -17 | 180 | 8.0 | 14.5 | 0.00 | 0.00 | 0.00 | 999.4 | |
| 20260505083033 | -17 | 180 | 6.4 | 14.5 | 0.00 | 0.00 | 0.00 | 999.4 | |
| 20260505083023 | -17 | 180 | 3.2 | 12.9 | 0.00 | 0.00 | 0.00 | 999.4 | |
| 20260505083013 | -17 | 135 | 3.2 | 11.3 | 0.00 | 0.00 | 0.00 | 999.3 | |
| 20260505083003 | -17 | 225 | 3.2 | 11.3 | 0.00 | 0.00 | 0.00 | 999.4 | |
| 20260505082943 | -17 | 180 | 3.2 | 11.3 | 0.00 | 0.00 | 0.00 | 999.4 | |
| 20260505082923 | -17 | 180 | 3.2 | 11.3 | 0.00 | 0.00 | 0.00 | 999.5 | |
| 20260505082913 | -17 | 225 | 3.2 | 11.3 | 0.00 | 0.00 | 0.00 | 999.4 | |
| 20260505082904 | -17 | 180 | 3.2 | 11.3 | 0.00 | 0.00 | 0.00 | 999.4 | |
| 20260505082853 | -17 | 203 | 4.8 | 11.3 | 0.00 | 0.00 | 0.00 | 999.4 | |
| 20260505082843 | -17 | 180 | 4.8 | 11.3 | 0.00 | 0.00 | 0.00 | 999.4 | |
| 20260505082803 | -17 | 180 | 4.8 | 11.3 | 0.00 | 0.00 | 0.00 | 999.4 | |
| 20260505082753 | -17 | 180 | 4.8 | 11.3 | 0.00 | 0.00 | 0.00 | 999.3 | |
| 20260505082714 | -17 | 180 | 6.4 | 11.3 | 0.00 | 0.00 | 0.00 | 999.4 | |
| 20260505082634 | -17 | 180 | 6.4 | 11.3 | 0.00 | 0.00 | 0.00 | 999.4 | |
| 20260505082624 | -17 | 180 | 6.4 | 11.3 | 0.00 | 0.00 | 0.00 | 999.3 | |
| 20260505082614 | -17 | 0 | 4.8 | 8.0 | 0.00 | 0.00 | 0.00 | 999.4 | |
| 20260505082604 | -17 | 180 | 4.8 | 8.0 | 0.00 | 0.00 | 0.00 | 999.4 | |
| 20260505082534 | -17 | 180 | 3.2 | 8.0 | 0.00 | 0.00 | 0.00 | 999.4 | |
| 20260505082514 | -17 | 270 | 3.2 | 6.4 | 0.00 | 0.00 | 0.00 | 999.4 | |
| 20260505082504 | -17 | 135 | 3.2 | 6.4 | 0.00 | 0.00 | 0.00 | 999.4 | |
| 20260505082454 | -17 | 180 | 3.2 | 6.4 | 0.00 | 0.00 | 0.00 | 999.4 | |
| 20260505082444 | -17 | 135 | 3.2 | 6.4 | 0.00 | 0.00 | 0.00 | 999.3 | |
| 20260505082434 | -17 | 90 | 3.2 | 6.4 | 0.00 | 0.00 | 0.00 | 999.3 | |
| 20260505082414 | -17 | 135 | 3.2 | 6.4 | 0.00 | 0.00 | 0.00 | 999.4 | |
| 20260505082404 | -17 | 180 | 3.2 | 9.7 | 0.00 | 0.00 | 0.00 | 999.4 | |
| 20260505082354 | -17 | 135 | 3.2 | 9.7 | 0.00 | 0.00 | 0.00 | 999.3 | |
| 20260505082344 | -17 | 180 | 1.6 | 9.7 | 0.00 | 0.00 | 0.00 | 999.4 | |
| 20260505082334 | -17 | 135 | 1.6 | 9.7 | 0.00 | 0.00 | 0.00 | 999.3 | |
| 20260505082324 | -17 | 180 | 1.6 | 9.7 | 0.00 | 0.00 | 0.00 | 999.3 | |
| 20260505082314 | -17 | 135 | 1.6 | 9.7 | 0.00 | 0.00 | 0.00 | 999.4 | |
| 20260505082254 | -17 | 135 | 0.0 | 9.7 | 0.00 | 0.00 | 0.00 | 999.4 | |
| 20260505082244 | -17 | 180 | 1.6 | 9.7 | 0.00 | 0.00 | 0.00 | 999.4 | |
| 20260505082234 | -17 | 135 | 1.6 | 9.7 | 0.00 | 0.00 | 0.00 | 999.3 | |
| 20260505082225 | -17 | 135 | 3.2 | 9.7 | 0.00 | 0.00 | 0.00 | 999.4 | |
| 20260505082205 | -17 | 180 | 3.2 | 9.7 | 0.00 | 0.00 | 0.00 | 999.4 | |
| 20260505082145 | -17 | 180 | 3.2 | 9.7 | 0.00 | 0.00 | 0.00 | 999.3 | |
| 20260505082115 | -17 | 180 | 1.6 | 9.7 | 0.00 | 0.00 | 0.00 | 999.4 | |
| 20260505082105 | -17 | 135 | 0.0 | 9.7 | 0.00 | 0.00 | 0.00 | 999.4 | |
| 20260505082055 | -17 | 135 | 0.0 | 9.7 | 0.00 | 0.00 | 0.00 | 999.3 | |
| 20260505082045 | -17 | 180 | 0.0 | 9.7 | 0.00 | 0.00 | 0.00 | 999.4 | |
| 20260505082035 | -17 | 203 | 0.0 | 9.7 | 0.00 | 0.00 | 0.00 | 999.4 | |
| 20260505082025 | -17 | 180 | 1.6 | 9.7 | 0.00 | 0.00 | 0.00 | 999.4 | |
| 20260505082015 | -17 | 203 | 3.2 | 9.7 | 0.00 | 0.00 | 0.00 | 999.4 | |
| 20260505082005 | -17 | 180 | 3.2 | 9.7 | 0.00 | 0.00 | 0.00 | 999.4 | |
| 20260505081955 | -17 | 225 | 3.2 | 9.7 | 0.00 | 0.00 | 0.00 | 999.4 | |
| 20260505081945 | -17 | 315 | 4.8 | 9.7 | 0.00 | 0.00 | 0.00 | 999.4 | |
| 20260505081925 | -17 | 180 | 4.8 | 9.7 | 0.00 | 0.00 | 0.00 | 999.4 | |
| 20260505081915 | -17 | 225 | 4.8 | 9.7 | 0.00 | 0.00 | 0.00 | 999.4 | |
| 20260505081905 | -17 | 180 | 3.2 | 9.7 | 0.00 | 0.00 | 0.00 | 999.3 | |
| 20260505081845 | -17 | 180 | 3.2 | 9.7 | 0.00 | 0.00 | 0.00 | 999.4 | |
| 20260505081835 | -17 | 135 | 3.2 | 9.7 | 0.00 | 0.00 | 0.00 | 999.4 | |
| 20260505081825 | -17 | 180 | 3.2 | 9.7 | 0.00 | 0.00 | 0.00 | 999.3 | |
| 20260505081805 | -17 | 180 | 3.2 | 9.7 | 0.00 | 0.00 | 0.00 | 999.4 | |
| 20260505081755 | -17 | 135 | 3.2 | 9.7 | 0.00 | 0.00 | 0.00 | 999.3 | |
| 20260505081735 | -17 | 135 | 3.2 | 9.7 | 0.00 | 0.00 | 0.00 | 999.4 | |
| 20260505081725 | -17 | 135 | 4.8 | 9.7 | 0.00 | 0.00 | 0.00 | 999.4 | |
| 20260505081715 | -17 | 158 | 4.8 | 9.7 | 0.00 | 0.00 | 0.00 | 999.3 | |
| 20260505081655 | -17 | 135 | 6.4 | 9.7 | 0.00 | 0.00 | 0.00 | 999.3 | |
| 20260505081646 | -17 | 180 | 6.4 | 9.7 | 0.00 | 0.00 | 0.00 | 999.4 | |
| 20260505081636 | -17 | 180 | 6.4 | 9.7 | 0.00 | 0.00 | 0.00 | 999.3 | |
| 20260505081556 | -17 | 180 | 6.4 | 9.7 | 0.00 | 0.00 | 0.00 | 999.3 | |
| 20260505081546 | -17 | 158 | 6.4 | 9.7 | 0.00 | 0.00 | 0.00 | 999.3 | |
| 20260505081536 | -17 | 180 | 4.8 | 9.7 | 0.00 | 0.00 | 0.00 | 999.3 | |
| 20260505081526 | -17 | 180 | 4.8 | 9.7 | 0.00 | 0.00 | 0.00 | 999.4 | |
| 20260505081516 | -17 | 180 | 3.2 | 9.7 | 0.00 | 0.00 | 0.00 | 999.3 | |
| 20260505081506 | -17 | 135 | 3.2 | 8.0 | 0.00 | 0.00 | 0.00 | 999.3 | |
| 20260505081446 | -17 | 225 | 3.2 | 6.4 | 0.00 | 0.00 | 0.00 | 999.3 | |
| 20260505081436 | -17 | 180 | 3.2 | 6.4 | 0.00 | 0.00 | 0.00 | 999.3 | |
| 20260505081356 | -17 | 135 | 3.2 | 6.4 | 0.00 | 0.00 | 0.00 | 999.3 | |
| 20260505081346 | -17 | 180 | 3.2 | 6.4 | 0.00 | 0.00 | 0.00 | 999.3 | |
| 20260505081326 | -17 | 135 | 3.2 | 6.4 | 0.00 | 0.00 | 0.00 | 999.4 | |
| 20260505081316 | -17 | 158 | 3.2 | 6.4 | 0.00 | 0.00 | 0.00 | 999.3 | |
| 20260505081306 | -17 | 180 | 3.2 | 6.4 | 0.00 | 0.00 | 0.00 | 999.3 | |
| 20260505081256 | -17 | 135 | 3.2 | 6.4 | 0.00 | 0.00 | 0.00 | 999.3 | |
| 20260505081226 | -17 | 180 | 3.2 | 6.4 | 0.00 | 0.00 | 0.00 | 999.3 | |
| 20260505081216 | -17 | 180 | 3.2 | 4.8 | 0.00 | 0.00 | 0.00 | 999.4 | |
| 20260505081206 | -17 | 158 | 3.2 | 4.8 | 0.00 | 0.00 | 0.00 | 999.4 | |
| 20260505081156 | -17 | 180 | 3.2 | 4.8 | 0.00 | 0.00 | 0.00 | 999.3 | |
| 20260505081137 | -17 | 135 | 3.2 | 4.8 | 0.00 | 0.00 | 0.00 | 999.3 | |
| 20260505081127 | -17 | 135 | 1.6 | 4.8 | 0.00 | 0.00 | 0.00 | 999.3 |